<?xml version="1.0"?>
<gpx
 version="1.1"
 creator="Satmap Active 20"
 xmlns:xsi="http://www.w3.org/2001/XMLSchema-instance"
 xmlns="http://www.topografix.com/GPX/1/1"
 xmlns:satmap="http://www.satmap.com/updates/xmlschemas/GpxExtensions/v2/GpxExtensions_v2.xsd"
 xsi:schemaLocation="http://www.topografix.com/GPX/1/1 http://www.topografix.com/GPX/1/1/gpx.xsd">
<metadata>
<time>2023-03-31T09:25:13Z</time>
<extensions>
<satmap:platform>43</satmap:platform>
<satmap:software version="3.12.831">SM15.exe</satmap:software>
<satmap:username>Jim Grant</satmap:username>
<satmap:network_ids>
<satmap:network_id type="wifi">00-23-A7-EC-D5-78</satmap:network_id>
<satmap:network_id type="bluetooth">80-BB-EB-D7-5B-7C</satmap:network_id>
</satmap:network_ids>
<satmap:snap_type>simple</satmap:snap_type>
</extensions>
</metadata>
<trk>
<name>2023-03-31_0925</name>
<desc>Track 1</desc>
<number>1</number>
<trkseg>
<trkpt lat="53.399653" lon="-1.984100"><ele>223</ele><time>2023-03-31T09:25:13Z</time><name>PT1</name></trkpt>
<trkpt lat="53.399651" lon="-1.984129"><ele>223</ele><time>2023-03-31T09:25:20Z</time><name>PT2</name></trkpt>
<trkpt lat="53.399651" lon="-1.984145"><ele>225</ele><time>2023-03-31T09:25:48Z</time><name>PT3</name></trkpt>
<trkpt lat="53.399649" lon="-1.984147"><ele>224</ele><time>2023-03-31T09:25:52Z</time><name>PT4</name></trkpt>
<trkpt lat="53.399648" lon="-1.984171"><ele>224</ele><time>2023-03-31T09:25:55Z</time><name>PT5</name></trkpt>
<trkpt lat="53.399644" lon="-1.984182"><ele>224</ele><time>2023-03-31T09:25:59Z</time><name>PT6</name></trkpt>
<trkpt lat="53.399640" lon="-1.984200"><ele>224</ele><time>2023-03-31T09:26:02Z</time><name>PT7</name></trkpt>
<trkpt lat="53.399639" lon="-1.984213"><ele>223</ele><time>2023-03-31T09:26:06Z</time><name>PT8</name></trkpt>
<trkpt lat="53.399637" lon="-1.984203"><ele>223</ele><time>2023-03-31T09:26:10Z</time><name>PT9</name></trkpt>
<trkpt lat="53.399645" lon="-1.984206"><ele>223</ele><time>2023-03-31T09:26:14Z</time><name>PT10</name></trkpt>
<trkpt lat="53.399644" lon="-1.984210"><ele>223</ele><time>2023-03-31T09:26:18Z</time><name>PT11</name></trkpt>
<trkpt lat="53.399649" lon="-1.984214"><ele>222</ele><time>2023-03-31T09:27:37Z</time><name>PT12</name></trkpt>
<trkpt lat="53.399650" lon="-1.984216"><ele>222</ele><time>2023-03-31T09:27:40Z</time><name>PT13</name></trkpt>
<trkpt lat="53.399646" lon="-1.984213"><ele>222</ele><time>2023-03-31T09:27:44Z</time><name>PT14</name></trkpt>
<trkpt lat="53.399651" lon="-1.984212"><ele>221</ele><time>2023-03-31T09:27:47Z</time><name>PT15</name></trkpt>
<trkpt lat="53.399649" lon="-1.984200"><ele>221</ele><time>2023-03-31T09:28:08Z</time><name>PT16</name></trkpt>
<trkpt lat="53.399651" lon="-1.984189"><ele>221</ele><time>2023-03-31T09:28:12Z</time><name>PT17</name></trkpt>
<trkpt lat="53.399645" lon="-1.984173"><ele>222</ele><time>2023-03-31T09:28:26Z</time><name>PT18</name></trkpt>
<trkpt lat="53.399638" lon="-1.984171"><ele>223</ele><time>2023-03-31T09:28:29Z</time><name>PT19</name></trkpt>
<trkpt lat="53.399637" lon="-1.984138"><ele>223</ele><time>2023-03-31T09:28:33Z</time><name>PT20</name></trkpt>
<trkpt lat="53.399642" lon="-1.984132"><ele>223</ele><time>2023-03-31T09:28:37Z</time><name>PT21</name></trkpt>
<trkpt lat="53.399649" lon="-1.984160"><ele>223</ele><time>2023-03-31T09:28:44Z</time><name>PT22</name></trkpt>
<trkpt lat="53.399658" lon="-1.984185"><ele>222</ele><time>2023-03-31T09:28:48Z</time><name>PT23</name></trkpt>
<trkpt lat="53.399656" lon="-1.984187"><ele>222</ele><time>2023-03-31T09:28:52Z</time><name>PT24</name></trkpt>
<trkpt lat="53.399657" lon="-1.984186"><ele>222</ele><time>2023-03-31T09:28:55Z</time><name>PT25</name></trkpt>
<trkpt lat="53.399656" lon="-1.984186"><ele>221</ele><time>2023-03-31T09:28:59Z</time><name>PT26</name></trkpt>
<trkpt lat="53.399648" lon="-1.984190"><ele>221</ele><time>2023-03-31T09:29:35Z</time><name>PT27</name></trkpt>
<trkpt lat="53.399637" lon="-1.984203"><ele>221</ele><time>2023-03-31T09:29:39Z</time><name>PT28</name></trkpt>
<trkpt lat="53.399630" lon="-1.984208"><ele>221</ele><time>2023-03-31T09:29:42Z</time><name>PT29</name></trkpt>
<trkpt lat="53.399628" lon="-1.984207"><ele>220</ele><time>2023-03-31T09:29:46Z</time><name>PT30</name></trkpt>
<trkpt lat="53.399617" lon="-1.984204"><ele>219</ele><time>2023-03-31T09:29:50Z</time><name>PT31</name></trkpt>
<trkpt lat="53.399625" lon="-1.984188"><ele>220</ele><time>2023-03-31T09:32:30Z</time><name>PT32</name></trkpt>
<trkpt lat="53.399630" lon="-1.984170"><ele>220</ele><time>2023-03-31T09:32:34Z</time><name>PT33</name></trkpt>
<trkpt lat="53.399623" lon="-1.984163"><ele>220</ele><time>2023-03-31T09:33:03Z</time><name>PT34</name></trkpt>
<trkpt lat="53.399620" lon="-1.984162"><ele>220</ele><time>2023-03-31T09:33:07Z</time><name>PT35</name></trkpt>
<trkpt lat="53.399614" lon="-1.984154"><ele>219</ele><time>2023-03-31T09:33:30Z</time><name>PT36</name></trkpt>
<trkpt lat="53.399609" lon="-1.984150"><ele>219</ele><time>2023-03-31T09:33:34Z</time><name>PT37</name></trkpt>
<trkpt lat="53.399609" lon="-1.984150"><ele>218</ele><time>2023-03-31T09:33:37Z</time><name>PT38</name></trkpt>
<trkpt lat="53.399609" lon="-1.984171"><ele>221</ele><time>2023-03-31T09:34:06Z</time><name>PT39</name></trkpt>
<trkpt lat="53.399625" lon="-1.984172"><ele>222</ele><time>2023-03-31T09:35:42Z</time><name>PT40</name></trkpt>
<trkpt lat="53.399632" lon="-1.984182"><ele>221</ele><time>2023-03-31T09:35:46Z</time><name>PT41</name></trkpt>
<trkpt lat="53.399630" lon="-1.984185"><ele>221</ele><time>2023-03-31T09:35:53Z</time><name>PT42</name></trkpt>
<trkpt lat="53.399622" lon="-1.984212"><ele>221</ele><time>2023-03-31T09:35:56Z</time><name>PT43</name></trkpt>
<trkpt lat="53.399626" lon="-1.984200"><ele>221</ele><time>2023-03-31T09:35:59Z</time><name>PT44</name></trkpt>
<trkpt lat="53.399632" lon="-1.984206"><ele>219</ele><time>2023-03-31T09:36:02Z</time><name>PT45</name></trkpt>
<trkpt lat="53.399630" lon="-1.984208"><ele>219</ele><time>2023-03-31T09:36:23Z</time><name>PT46</name></trkpt>
<trkpt lat="53.399626" lon="-1.984215"><ele>219</ele><time>2023-03-31T09:36:26Z</time><name>PT47</name></trkpt>
<trkpt lat="53.399625" lon="-1.984223"><ele>220</ele><time>2023-03-31T09:36:30Z</time><name>PT48</name></trkpt>
<trkpt lat="53.399625" lon="-1.984223"><ele>220</ele><time>2023-03-31T09:37:18Z</time><name>PT49</name></trkpt>
<trkpt lat="53.399629" lon="-1.984228"><ele>220</ele><time>2023-03-31T09:37:25Z</time><name>PT50</name></trkpt>
<trkpt lat="53.399626" lon="-1.984233"><ele>221</ele><time>2023-03-31T09:37:29Z</time><name>PT51</name></trkpt>
<trkpt lat="53.399623" lon="-1.984233"><ele>221</ele><time>2023-03-31T09:37:44Z</time><name>PT52</name></trkpt>
<trkpt lat="53.399611" lon="-1.984233"><ele>221</ele><time>2023-03-31T09:37:48Z</time><name>PT53</name></trkpt>
<trkpt lat="53.399607" lon="-1.984213"><ele>222</ele><time>2023-03-31T09:37:59Z</time><name>PT54</name></trkpt>
<trkpt lat="53.399606" lon="-1.984209"><ele>222</ele><time>2023-03-31T09:38:02Z</time><name>PT55</name></trkpt>
<trkpt lat="53.399603" lon="-1.984205"><ele>222</ele><time>2023-03-31T09:38:24Z</time><name>PT56</name></trkpt>
<trkpt lat="53.399601" lon="-1.984217"><ele>221</ele><time>2023-03-31T09:38:28Z</time><name>PT57</name></trkpt>
<trkpt lat="53.399592" lon="-1.984164"><ele>221</ele><time>2023-03-31T09:38:57Z</time><name>PT58</name></trkpt>
<trkpt lat="53.399599" lon="-1.984136"><ele>220</ele><time>2023-03-31T09:39:00Z</time><name>PT59</name></trkpt>
<trkpt lat="53.399613" lon="-1.984095"><ele>220</ele><time>2023-03-31T09:39:03Z</time><name>PT60</name></trkpt>
<trkpt lat="53.399654" lon="-1.984055"><ele>219</ele><time>2023-03-31T09:39:06Z</time><name>PT61</name></trkpt>
<trkpt lat="53.399692" lon="-1.984050"><ele>220</ele><time>2023-03-31T09:39:09Z</time><name>PT62</name></trkpt>
<trkpt lat="53.399729" lon="-1.984071"><ele>220</ele><time>2023-03-31T09:39:12Z</time><name>PT63</name></trkpt>
<trkpt lat="53.399762" lon="-1.984111"><ele>221</ele><time>2023-03-31T09:39:16Z</time><name>PT64</name></trkpt>
<trkpt lat="53.399775" lon="-1.984176"><ele>222</ele><time>2023-03-31T09:39:20Z</time><name>PT65</name></trkpt>
<trkpt lat="53.399776" lon="-1.984228"><ele>222</ele><time>2023-03-31T09:39:23Z</time><name>PT66</name></trkpt>
<trkpt lat="53.399768" lon="-1.984288"><ele>221</ele><time>2023-03-31T09:39:27Z</time><name>PT67</name></trkpt>
<trkpt lat="53.399757" lon="-1.984327"><ele>221</ele><time>2023-03-31T09:39:30Z</time><name>PT68</name></trkpt>
<trkpt lat="53.399736" lon="-1.984399"><ele>222</ele><time>2023-03-31T09:39:34Z</time><name>PT69</name></trkpt>
<trkpt lat="53.399728" lon="-1.984457"><ele>222</ele><time>2023-03-31T09:39:38Z</time><name>PT70</name></trkpt>
<trkpt lat="53.399723" lon="-1.984496"><ele>220</ele><time>2023-03-31T09:39:42Z</time><name>PT71</name></trkpt>
<trkpt lat="53.399723" lon="-1.984602"><ele>221</ele><time>2023-03-31T09:39:46Z</time><name>PT72</name></trkpt>
<trkpt lat="53.399717" lon="-1.984676"><ele>221</ele><time>2023-03-31T09:39:49Z</time><name>PT73</name></trkpt>
<trkpt lat="53.399716" lon="-1.984745"><ele>221</ele><time>2023-03-31T09:39:53Z</time><name>PT74</name></trkpt>
<trkpt lat="53.399709" lon="-1.984792"><ele>221</ele><time>2023-03-31T09:39:56Z</time><name>PT75</name></trkpt>
<trkpt lat="53.399701" lon="-1.984844"><ele>220</ele><time>2023-03-31T09:39:59Z</time><name>PT76</name></trkpt>
<trkpt lat="53.399694" lon="-1.984899"><ele>220</ele><time>2023-03-31T09:40:02Z</time><name>PT77</name></trkpt>
<trkpt lat="53.399685" lon="-1.984970"><ele>219</ele><time>2023-03-31T09:40:06Z</time><name>PT78</name></trkpt>
<trkpt lat="53.399679" lon="-1.985045"><ele>219</ele><time>2023-03-31T09:40:10Z</time><name>PT79</name></trkpt>
<trkpt lat="53.399680" lon="-1.985098"><ele>218</ele><time>2023-03-31T09:40:13Z</time><name>PT80</name></trkpt>
<trkpt lat="53.399685" lon="-1.985149"><ele>217</ele><time>2023-03-31T09:40:16Z</time><name>PT81</name></trkpt>
<trkpt lat="53.399688" lon="-1.985202"><ele>216</ele><time>2023-03-31T09:40:19Z</time><name>PT82</name></trkpt>
<trkpt lat="53.399688" lon="-1.985294"><ele>217</ele><time>2023-03-31T09:40:23Z</time><name>PT83</name></trkpt>
<trkpt lat="53.399684" lon="-1.985354"><ele>217</ele><time>2023-03-31T09:40:26Z</time><name>PT84</name></trkpt>
<trkpt lat="53.399694" lon="-1.985438"><ele>217</ele><time>2023-03-31T09:40:30Z</time><name>PT85</name></trkpt>
<trkpt lat="53.399710" lon="-1.985540"><ele>217</ele><time>2023-03-31T09:40:34Z</time><name>PT86</name></trkpt>
<trkpt lat="53.399724" lon="-1.985603"><ele>218</ele><time>2023-03-31T09:40:37Z</time><name>PT87</name></trkpt>
<trkpt lat="53.399742" lon="-1.985667"><ele>218</ele><time>2023-03-31T09:40:40Z</time><name>PT88</name></trkpt>
<trkpt lat="53.399762" lon="-1.985727"><ele>219</ele><time>2023-03-31T09:40:43Z</time><name>PT89</name></trkpt>
<trkpt lat="53.399782" lon="-1.985786"><ele>218</ele><time>2023-03-31T09:40:46Z</time><name>PT90</name></trkpt>
<trkpt lat="53.399800" lon="-1.985839"><ele>218</ele><time>2023-03-31T09:40:49Z</time><name>PT91</name></trkpt>
<trkpt lat="53.399810" lon="-1.985924"><ele>218</ele><time>2023-03-31T09:40:53Z</time><name>PT92</name></trkpt>
<trkpt lat="53.399807" lon="-1.986002"><ele>218</ele><time>2023-03-31T09:40:57Z</time><name>PT93</name></trkpt>
<trkpt lat="53.399793" lon="-1.986059"><ele>217</ele><time>2023-03-31T09:41:00Z</time><name>PT94</name></trkpt>
<trkpt lat="53.399775" lon="-1.986114"><ele>216</ele><time>2023-03-31T09:41:03Z</time><name>PT95</name></trkpt>
<trkpt lat="53.399742" lon="-1.986200"><ele>217</ele><time>2023-03-31T09:41:07Z</time><name>PT96</name></trkpt>
<trkpt lat="53.399719" lon="-1.986248"><ele>217</ele><time>2023-03-31T09:41:10Z</time><name>PT97</name></trkpt>
<trkpt lat="53.399695" lon="-1.986313"><ele>216</ele><time>2023-03-31T09:41:14Z</time><name>PT98</name></trkpt>
<trkpt lat="53.399671" lon="-1.986349"><ele>217</ele><time>2023-03-31T09:41:17Z</time><name>PT99</name></trkpt>
<trkpt lat="53.399642" lon="-1.986388"><ele>216</ele><time>2023-03-31T09:41:21Z</time><name>PT100</name></trkpt>
<trkpt lat="53.399622" lon="-1.986424"><ele>215</ele><time>2023-03-31T09:41:25Z</time><name>PT101</name></trkpt>
<trkpt lat="53.399596" lon="-1.986435"><ele>214</ele><time>2023-03-31T09:41:29Z</time><name>PT102</name></trkpt>
<trkpt lat="53.399564" lon="-1.986478"><ele>211</ele><time>2023-03-31T09:41:33Z</time><name>PT103</name></trkpt>
<trkpt lat="53.399508" lon="-1.986609"><ele>214</ele><time>2023-03-31T09:41:36Z</time><name>PT104</name></trkpt>
<trkpt lat="53.399453" lon="-1.986678"><ele>215</ele><time>2023-03-31T09:41:40Z</time><name>PT105</name></trkpt>
<trkpt lat="53.399411" lon="-1.986737"><ele>215</ele><time>2023-03-31T09:41:43Z</time><name>PT106</name></trkpt>
<trkpt lat="53.399375" lon="-1.986779"><ele>215</ele><time>2023-03-31T09:41:47Z</time><name>PT107</name></trkpt>
<trkpt lat="53.399354" lon="-1.986807"><ele>214</ele><time>2023-03-31T09:41:50Z</time><name>PT108</name></trkpt>
<trkpt lat="53.399328" lon="-1.986829"><ele>213</ele><time>2023-03-31T09:41:53Z</time><name>PT109</name></trkpt>
<trkpt lat="53.399303" lon="-1.986873"><ele>213</ele><time>2023-03-31T09:41:56Z</time><name>PT110</name></trkpt>
<trkpt lat="53.399268" lon="-1.986910"><ele>211</ele><time>2023-03-31T09:42:00Z</time><name>PT111</name></trkpt>
<trkpt lat="53.399240" lon="-1.986941"><ele>211</ele><time>2023-03-31T09:42:03Z</time><name>PT112</name></trkpt>
<trkpt lat="53.399204" lon="-1.986979"><ele>210</ele><time>2023-03-31T09:42:07Z</time><name>PT113</name></trkpt>
<trkpt lat="53.399167" lon="-1.987014"><ele>208</ele><time>2023-03-31T09:42:11Z</time><name>PT114</name></trkpt>
<trkpt lat="53.399133" lon="-1.987048"><ele>207</ele><time>2023-03-31T09:42:15Z</time><name>PT115</name></trkpt>
<trkpt lat="53.399096" lon="-1.987088"><ele>206</ele><time>2023-03-31T09:42:19Z</time><name>PT116</name></trkpt>
<trkpt lat="53.399058" lon="-1.987151"><ele>206</ele><time>2023-03-31T09:42:23Z</time><name>PT117</name></trkpt>
<trkpt lat="53.399041" lon="-1.987234"><ele>207</ele><time>2023-03-31T09:42:26Z</time><name>PT118</name></trkpt>
<trkpt lat="53.399043" lon="-1.987311"><ele>208</ele><time>2023-03-31T09:42:29Z</time><name>PT119</name></trkpt>
<trkpt lat="53.399046" lon="-1.987368"><ele>209</ele><time>2023-03-31T09:42:32Z</time><name>PT120</name></trkpt>
<trkpt lat="53.399059" lon="-1.987449"><ele>209</ele><time>2023-03-31T09:42:36Z</time><name>PT121</name></trkpt>
<trkpt lat="53.399066" lon="-1.987507"><ele>208</ele><time>2023-03-31T09:42:39Z</time><name>PT122</name></trkpt>
<trkpt lat="53.399080" lon="-1.987540"><ele>207</ele><time>2023-03-31T09:42:42Z</time><name>PT123</name></trkpt>
<trkpt lat="53.399106" lon="-1.987612"><ele>207</ele><time>2023-03-31T09:42:46Z</time><name>PT124</name></trkpt>
<trkpt lat="53.399124" lon="-1.987683"><ele>208</ele><time>2023-03-31T09:42:49Z</time><name>PT125</name></trkpt>
<trkpt lat="53.399143" lon="-1.987743"><ele>208</ele><time>2023-03-31T09:42:52Z</time><name>PT126</name></trkpt>
<trkpt lat="53.399164" lon="-1.987833"><ele>208</ele><time>2023-03-31T09:42:56Z</time><name>PT127</name></trkpt>
<trkpt lat="53.399191" lon="-1.987895"><ele>208</ele><time>2023-03-31T09:43:00Z</time><name>PT128</name></trkpt>
<trkpt lat="53.399210" lon="-1.987950"><ele>207</ele><time>2023-03-31T09:43:04Z</time><name>PT129</name></trkpt>
<trkpt lat="53.399222" lon="-1.988008"><ele>208</ele><time>2023-03-31T09:43:07Z</time><name>PT130</name></trkpt>
<trkpt lat="53.399225" lon="-1.988055"><ele>207</ele><time>2023-03-31T09:43:10Z</time><name>PT131</name></trkpt>
<trkpt lat="53.399229" lon="-1.988132"><ele>207</ele><time>2023-03-31T09:43:14Z</time><name>PT132</name></trkpt>
<trkpt lat="53.399235" lon="-1.988188"><ele>207</ele><time>2023-03-31T09:43:17Z</time><name>PT133</name></trkpt>
<trkpt lat="53.399239" lon="-1.988244"><ele>207</ele><time>2023-03-31T09:43:20Z</time><name>PT134</name></trkpt>
<trkpt lat="53.399246" lon="-1.988302"><ele>207</ele><time>2023-03-31T09:43:23Z</time><name>PT135</name></trkpt>
<trkpt lat="53.399246" lon="-1.988376"><ele>207</ele><time>2023-03-31T09:43:27Z</time><name>PT136</name></trkpt>
<trkpt lat="53.399246" lon="-1.988435"><ele>207</ele><time>2023-03-31T09:43:30Z</time><name>PT137</name></trkpt>
<trkpt lat="53.399254" lon="-1.988528"><ele>207</ele><time>2023-03-31T09:43:34Z</time><name>PT138</name></trkpt>
<trkpt lat="53.399254" lon="-1.988594"><ele>207</ele><time>2023-03-31T09:43:37Z</time><name>PT139</name></trkpt>
<trkpt lat="53.399270" lon="-1.988677"><ele>210</ele><time>2023-03-31T09:43:41Z</time><name>PT140</name></trkpt>
<trkpt lat="53.399287" lon="-1.988766"><ele>211</ele><time>2023-03-31T09:43:45Z</time><name>PT141</name></trkpt>
<trkpt lat="53.399303" lon="-1.988859"><ele>213</ele><time>2023-03-31T09:43:48Z</time><name>PT142</name></trkpt>
<trkpt lat="53.399319" lon="-1.988929"><ele>214</ele><time>2023-03-31T09:43:51Z</time><name>PT143</name></trkpt>
<trkpt lat="53.399335" lon="-1.989018"><ele>215</ele><time>2023-03-31T09:43:55Z</time><name>PT144</name></trkpt>
<trkpt lat="53.399357" lon="-1.989105"><ele>217</ele><time>2023-03-31T09:43:59Z</time><name>PT145</name></trkpt>
<trkpt lat="53.399370" lon="-1.989163"><ele>218</ele><time>2023-03-31T09:44:02Z</time><name>PT146</name></trkpt>
<trkpt lat="53.399391" lon="-1.989247"><ele>218</ele><time>2023-03-31T09:44:06Z</time><name>PT147</name></trkpt>
<trkpt lat="53.399411" lon="-1.989317"><ele>218</ele><time>2023-03-31T09:44:10Z</time><name>PT148</name></trkpt>
<trkpt lat="53.399430" lon="-1.989372"><ele>217</ele><time>2023-03-31T09:44:13Z</time><name>PT149</name></trkpt>
<trkpt lat="53.399452" lon="-1.989453"><ele>218</ele><time>2023-03-31T09:44:17Z</time><name>PT150</name></trkpt>
<trkpt lat="53.399469" lon="-1.989513"><ele>218</ele><time>2023-03-31T09:44:20Z</time><name>PT151</name></trkpt>
<trkpt lat="53.399487" lon="-1.989585"><ele>217</ele><time>2023-03-31T09:44:24Z</time><name>PT152</name></trkpt>
<trkpt lat="53.399512" lon="-1.989663"><ele>217</ele><time>2023-03-31T09:44:28Z</time><name>PT153</name></trkpt>
<trkpt lat="53.399524" lon="-1.989717"><ele>216</ele><time>2023-03-31T09:44:31Z</time><name>PT154</name></trkpt>
<trkpt lat="53.399543" lon="-1.989797"><ele>216</ele><time>2023-03-31T09:44:35Z</time><name>PT155</name></trkpt>
<trkpt lat="53.399559" lon="-1.989872"><ele>216</ele><time>2023-03-31T09:44:39Z</time><name>PT156</name></trkpt>
<trkpt lat="53.399576" lon="-1.989952"><ele>217</ele><time>2023-03-31T09:44:43Z</time><name>PT157</name></trkpt>
<trkpt lat="53.399592" lon="-1.990029"><ele>218</ele><time>2023-03-31T09:44:47Z</time><name>PT158</name></trkpt>
<trkpt lat="53.399604" lon="-1.990078"><ele>218</ele><time>2023-03-31T09:44:50Z</time><name>PT159</name></trkpt>
<trkpt lat="53.399618" lon="-1.990157"><ele>217</ele><time>2023-03-31T09:44:54Z</time><name>PT160</name></trkpt>
<trkpt lat="53.399634" lon="-1.990233"><ele>218</ele><time>2023-03-31T09:44:58Z</time><name>PT161</name></trkpt>
<trkpt lat="53.399648" lon="-1.990308"><ele>218</ele><time>2023-03-31T09:45:02Z</time><name>PT162</name></trkpt>
<trkpt lat="53.399659" lon="-1.990356"><ele>217</ele><time>2023-03-31T09:45:05Z</time><name>PT163</name></trkpt>
<trkpt lat="53.399675" lon="-1.990423"><ele>217</ele><time>2023-03-31T09:45:09Z</time><name>PT164</name></trkpt>
<trkpt lat="53.399679" lon="-1.990471"><ele>215</ele><time>2023-03-31T09:45:12Z</time><name>PT165</name></trkpt>
<trkpt lat="53.399684" lon="-1.990528"><ele>213</ele><time>2023-03-31T09:45:16Z</time><name>PT166</name></trkpt>
<trkpt lat="53.399708" lon="-1.990607"><ele>214</ele><time>2023-03-31T09:45:20Z</time><name>PT167</name></trkpt>
<trkpt lat="53.399725" lon="-1.990685"><ele>215</ele><time>2023-03-31T09:45:23Z</time><name>PT168</name></trkpt>
<trkpt lat="53.399744" lon="-1.990787"><ele>217</ele><time>2023-03-31T09:45:27Z</time><name>PT169</name></trkpt>
<trkpt lat="53.399761" lon="-1.990853"><ele>217</ele><time>2023-03-31T09:45:31Z</time><name>PT170</name></trkpt>
<trkpt lat="53.399775" lon="-1.990910"><ele>218</ele><time>2023-03-31T09:45:34Z</time><name>PT171</name></trkpt>
<trkpt lat="53.399787" lon="-1.990963"><ele>217</ele><time>2023-03-31T09:45:37Z</time><name>PT172</name></trkpt>
<trkpt lat="53.399802" lon="-1.991012"><ele>217</ele><time>2023-03-31T09:45:40Z</time><name>PT173</name></trkpt>
<trkpt lat="53.399813" lon="-1.991073"><ele>217</ele><time>2023-03-31T09:45:43Z</time><name>PT174</name></trkpt>
<trkpt lat="53.399825" lon="-1.991158"><ele>217</ele><time>2023-03-31T09:45:47Z</time><name>PT175</name></trkpt>
<trkpt lat="53.399838" lon="-1.991219"><ele>217</ele><time>2023-03-31T09:45:50Z</time><name>PT176</name></trkpt>
<trkpt lat="53.399849" lon="-1.991283"><ele>217</ele><time>2023-03-31T09:45:53Z</time><name>PT177</name></trkpt>
<trkpt lat="53.399878" lon="-1.991394"><ele>219</ele><time>2023-03-31T09:45:57Z</time><name>PT178</name></trkpt>
<trkpt lat="53.399898" lon="-1.991449"><ele>220</ele><time>2023-03-31T09:46:00Z</time><name>PT179</name></trkpt>
<trkpt lat="53.399928" lon="-1.991534"><ele>220</ele><time>2023-03-31T09:46:04Z</time><name>PT180</name></trkpt>
<trkpt lat="53.399946" lon="-1.991607"><ele>222</ele><time>2023-03-31T09:46:07Z</time><name>PT181</name></trkpt>
<trkpt lat="53.399967" lon="-1.991692"><ele>222</ele><time>2023-03-31T09:46:11Z</time><name>PT182</name></trkpt>
<trkpt lat="53.399984" lon="-1.991753"><ele>223</ele><time>2023-03-31T09:46:14Z</time><name>PT183</name></trkpt>
<trkpt lat="53.400014" lon="-1.991809"><ele>224</ele><time>2023-03-31T09:46:17Z</time><name>PT184</name></trkpt>
<trkpt lat="53.400044" lon="-1.991843"><ele>224</ele><time>2023-03-31T09:46:20Z</time><name>PT185</name></trkpt>
<trkpt lat="53.400086" lon="-1.991864"><ele>225</ele><time>2023-03-31T09:46:24Z</time><name>PT186</name></trkpt>
<trkpt lat="53.400115" lon="-1.991871"><ele>225</ele><time>2023-03-31T09:46:27Z</time><name>PT187</name></trkpt>
<trkpt lat="53.400160" lon="-1.991888"><ele>225</ele><time>2023-03-31T09:46:31Z</time><name>PT188</name></trkpt>
<trkpt lat="53.400209" lon="-1.991903"><ele>225</ele><time>2023-03-31T09:46:35Z</time><name>PT189</name></trkpt>
<trkpt lat="53.400258" lon="-1.991914"><ele>225</ele><time>2023-03-31T09:46:39Z</time><name>PT190</name></trkpt>
<trkpt lat="53.400295" lon="-1.991924"><ele>225</ele><time>2023-03-31T09:46:42Z</time><name>PT191</name></trkpt>
<trkpt lat="53.400333" lon="-1.991938"><ele>225</ele><time>2023-03-31T09:46:45Z</time><name>PT192</name></trkpt>
<trkpt lat="53.400384" lon="-1.991951"><ele>226</ele><time>2023-03-31T09:46:49Z</time><name>PT193</name></trkpt>
<trkpt lat="53.400430" lon="-1.991957"><ele>226</ele><time>2023-03-31T09:46:53Z</time><name>PT194</name></trkpt>
<trkpt lat="53.400457" lon="-1.991960"><ele>226</ele><time>2023-03-31T09:46:56Z</time><name>PT195</name></trkpt>
<trkpt lat="53.400501" lon="-1.991969"><ele>227</ele><time>2023-03-31T09:47:00Z</time><name>PT196</name></trkpt>
<trkpt lat="53.400543" lon="-1.991964"><ele>227</ele><time>2023-03-31T09:47:04Z</time><name>PT197</name></trkpt>
<trkpt lat="53.400582" lon="-1.991969"><ele>228</ele><time>2023-03-31T09:47:07Z</time><name>PT198</name></trkpt>
<trkpt lat="53.400618" lon="-1.991974"><ele>228</ele><time>2023-03-31T09:47:10Z</time><name>PT199</name></trkpt>
<trkpt lat="53.400666" lon="-1.991985"><ele>228</ele><time>2023-03-31T09:47:14Z</time><name>PT200</name></trkpt>
<trkpt lat="53.400706" lon="-1.991996"><ele>227</ele><time>2023-03-31T09:47:17Z</time><name>PT201</name></trkpt>
<trkpt lat="53.400744" lon="-1.992004"><ele>227</ele><time>2023-03-31T09:47:20Z</time><name>PT202</name></trkpt>
<trkpt lat="53.400783" lon="-1.992014"><ele>227</ele><time>2023-03-31T09:47:23Z</time><name>PT203</name></trkpt>
<trkpt lat="53.400833" lon="-1.992024"><ele>228</ele><time>2023-03-31T09:47:27Z</time><name>PT204</name></trkpt>
<trkpt lat="53.400872" lon="-1.992030"><ele>228</ele><time>2023-03-31T09:47:30Z</time><name>PT205</name></trkpt>
<trkpt lat="53.400925" lon="-1.992039"><ele>229</ele><time>2023-03-31T09:47:34Z</time><name>PT206</name></trkpt>
<trkpt lat="53.400976" lon="-1.992051"><ele>230</ele><time>2023-03-31T09:47:38Z</time><name>PT207</name></trkpt>
<trkpt lat="53.401026" lon="-1.992063"><ele>231</ele><time>2023-03-31T09:47:42Z</time><name>PT208</name></trkpt>
<trkpt lat="53.401079" lon="-1.992072"><ele>231</ele><time>2023-03-31T09:47:46Z</time><name>PT209</name></trkpt>
<trkpt lat="53.401117" lon="-1.992078"><ele>232</ele><time>2023-03-31T09:47:49Z</time><name>PT210</name></trkpt>
<trkpt lat="53.401170" lon="-1.992089"><ele>233</ele><time>2023-03-31T09:47:53Z</time><name>PT211</name></trkpt>
<trkpt lat="53.401229" lon="-1.992095"><ele>234</ele><time>2023-03-31T09:47:57Z</time><name>PT212</name></trkpt>
<trkpt lat="53.401279" lon="-1.992103"><ele>236</ele><time>2023-03-31T09:48:01Z</time><name>PT213</name></trkpt>
<trkpt lat="53.401320" lon="-1.992115"><ele>236</ele><time>2023-03-31T09:48:05Z</time><name>PT214</name></trkpt>
<trkpt lat="53.401362" lon="-1.992127"><ele>237</ele><time>2023-03-31T09:48:09Z</time><name>PT215</name></trkpt>
<trkpt lat="53.401394" lon="-1.992139"><ele>237</ele><time>2023-03-31T09:48:13Z</time><name>PT216</name></trkpt>
<trkpt lat="53.401426" lon="-1.992143"><ele>237</ele><time>2023-03-31T09:48:16Z</time><name>PT217</name></trkpt>
<trkpt lat="53.401456" lon="-1.992158"><ele>239</ele><time>2023-03-31T09:48:20Z</time><name>PT218</name></trkpt>
<trkpt lat="53.401487" lon="-1.992160"><ele>237</ele><time>2023-03-31T09:48:24Z</time><name>PT219</name></trkpt>
<trkpt lat="53.401523" lon="-1.992172"><ele>238</ele><time>2023-03-31T09:48:27Z</time><name>PT220</name></trkpt>
<trkpt lat="53.401561" lon="-1.992175"><ele>239</ele><time>2023-03-31T09:48:30Z</time><name>PT221</name></trkpt>
<trkpt lat="53.401599" lon="-1.992183"><ele>239</ele><time>2023-03-31T09:48:33Z</time><name>PT222</name></trkpt>
<trkpt lat="53.401641" lon="-1.992188"><ele>239</ele><time>2023-03-31T09:48:36Z</time><name>PT223</name></trkpt>
<trkpt lat="53.401683" lon="-1.992197"><ele>238</ele><time>2023-03-31T09:48:39Z</time><name>PT224</name></trkpt>
<trkpt lat="53.401738" lon="-1.992209"><ele>240</ele><time>2023-03-31T09:48:43Z</time><name>PT225</name></trkpt>
<trkpt lat="53.401788" lon="-1.992227"><ele>240</ele><time>2023-03-31T09:48:47Z</time><name>PT226</name></trkpt>
<trkpt lat="53.401824" lon="-1.992242"><ele>241</ele><time>2023-03-31T09:48:50Z</time><name>PT227</name></trkpt>
<trkpt lat="53.401871" lon="-1.992263"><ele>242</ele><time>2023-03-31T09:48:54Z</time><name>PT228</name></trkpt>
<trkpt lat="53.401906" lon="-1.992284"><ele>242</ele><time>2023-03-31T09:48:57Z</time><name>PT229</name></trkpt>
<trkpt lat="53.401950" lon="-1.992312"><ele>243</ele><time>2023-03-31T09:49:01Z</time><name>PT230</name></trkpt>
<trkpt lat="53.401993" lon="-1.992347"><ele>244</ele><time>2023-03-31T09:49:05Z</time><name>PT231</name></trkpt>
<trkpt lat="53.402034" lon="-1.992384"><ele>245</ele><time>2023-03-31T09:49:09Z</time><name>PT232</name></trkpt>
<trkpt lat="53.402065" lon="-1.992406"><ele>245</ele><time>2023-03-31T09:49:12Z</time><name>PT233</name></trkpt>
<trkpt lat="53.402096" lon="-1.992433"><ele>245</ele><time>2023-03-31T09:49:15Z</time><name>PT234</name></trkpt>
<trkpt lat="53.402138" lon="-1.992467"><ele>246</ele><time>2023-03-31T09:49:19Z</time><name>PT235</name></trkpt>
<trkpt lat="53.402167" lon="-1.992489"><ele>247</ele><time>2023-03-31T09:49:22Z</time><name>PT236</name></trkpt>
<trkpt lat="53.402215" lon="-1.992520"><ele>248</ele><time>2023-03-31T09:49:26Z</time><name>PT237</name></trkpt>
<trkpt lat="53.402247" lon="-1.992542"><ele>248</ele><time>2023-03-31T09:49:29Z</time><name>PT238</name></trkpt>
<trkpt lat="53.402294" lon="-1.992561"><ele>249</ele><time>2023-03-31T09:49:33Z</time><name>PT239</name></trkpt>
<trkpt lat="53.402334" lon="-1.992579"><ele>249</ele><time>2023-03-31T09:49:37Z</time><name>PT240</name></trkpt>
<trkpt lat="53.402362" lon="-1.992587"><ele>248</ele><time>2023-03-31T09:49:40Z</time><name>PT241</name></trkpt>
<trkpt lat="53.402394" lon="-1.992598"><ele>247</ele><time>2023-03-31T09:49:44Z</time><name>PT242</name></trkpt>
<trkpt lat="53.402422" lon="-1.992611"><ele>247</ele><time>2023-03-31T09:49:47Z</time><name>PT243</name></trkpt>
<trkpt lat="53.402453" lon="-1.992628"><ele>247</ele><time>2023-03-31T09:49:50Z</time><name>PT244</name></trkpt>
<trkpt lat="53.402485" lon="-1.992642"><ele>247</ele><time>2023-03-31T09:49:53Z</time><name>PT245</name></trkpt>
<trkpt lat="53.402520" lon="-1.992650"><ele>248</ele><time>2023-03-31T09:49:57Z</time><name>PT246</name></trkpt>
<trkpt lat="53.402557" lon="-1.992660"><ele>247</ele><time>2023-03-31T09:50:01Z</time><name>PT247</name></trkpt>
<trkpt lat="53.402590" lon="-1.992670"><ele>248</ele><time>2023-03-31T09:50:04Z</time><name>PT248</name></trkpt>
<trkpt lat="53.402624" lon="-1.992681"><ele>247</ele><time>2023-03-31T09:50:07Z</time><name>PT249</name></trkpt>
<trkpt lat="53.402669" lon="-1.992687"><ele>247</ele><time>2023-03-31T09:50:11Z</time><name>PT250</name></trkpt>
<trkpt lat="53.402706" lon="-1.992705"><ele>247</ele><time>2023-03-31T09:50:14Z</time><name>PT251</name></trkpt>
<trkpt lat="53.402752" lon="-1.992719"><ele>248</ele><time>2023-03-31T09:50:18Z</time><name>PT252</name></trkpt>
<trkpt lat="53.402788" lon="-1.992726"><ele>247</ele><time>2023-03-31T09:50:22Z</time><name>PT253</name></trkpt>
<trkpt lat="53.402835" lon="-1.992737"><ele>248</ele><time>2023-03-31T09:50:26Z</time><name>PT254</name></trkpt>
<trkpt lat="53.402900" lon="-1.992734"><ele>249</ele><time>2023-03-31T09:50:30Z</time><name>PT255</name></trkpt>
<trkpt lat="53.402934" lon="-1.992737"><ele>249</ele><time>2023-03-31T09:50:33Z</time><name>PT256</name></trkpt>
<trkpt lat="53.402971" lon="-1.992740"><ele>249</ele><time>2023-03-31T09:50:37Z</time><name>PT257</name></trkpt>
<trkpt lat="53.403011" lon="-1.992731"><ele>249</ele><time>2023-03-31T09:50:41Z</time><name>PT258</name></trkpt>
<trkpt lat="53.403055" lon="-1.992739"><ele>251</ele><time>2023-03-31T09:50:44Z</time><name>PT259</name></trkpt>
<trkpt lat="53.403105" lon="-1.992746"><ele>253</ele><time>2023-03-31T09:50:48Z</time><name>PT260</name></trkpt>
<trkpt lat="53.403145" lon="-1.992734"><ele>254</ele><time>2023-03-31T09:50:52Z</time><name>PT261</name></trkpt>
<trkpt lat="53.403168" lon="-1.992725"><ele>255</ele><time>2023-03-31T09:50:55Z</time><name>PT262</name></trkpt>
<trkpt lat="53.403202" lon="-1.992713"><ele>256</ele><time>2023-03-31T09:50:58Z</time><name>PT263</name></trkpt>
<trkpt lat="53.403244" lon="-1.992712"><ele>257</ele><time>2023-03-31T09:51:02Z</time><name>PT264</name></trkpt>
<trkpt lat="53.403268" lon="-1.992703"><ele>256</ele><time>2023-03-31T09:51:05Z</time><name>PT265</name></trkpt>
<trkpt lat="53.403291" lon="-1.992690"><ele>255</ele><time>2023-03-31T09:51:08Z</time><name>PT266</name></trkpt>
<trkpt lat="53.403323" lon="-1.992678"><ele>254</ele><time>2023-03-31T09:51:12Z</time><name>PT267</name></trkpt>
<trkpt lat="53.403354" lon="-1.992665"><ele>254</ele><time>2023-03-31T09:51:15Z</time><name>PT268</name></trkpt>
<trkpt lat="53.403400" lon="-1.992655"><ele>255</ele><time>2023-03-31T09:51:19Z</time><name>PT269</name></trkpt>
<trkpt lat="53.403434" lon="-1.992648"><ele>255</ele><time>2023-03-31T09:51:22Z</time><name>PT270</name></trkpt>
<trkpt lat="53.403465" lon="-1.992653"><ele>255</ele><time>2023-03-31T09:51:25Z</time><name>PT271</name></trkpt>
<trkpt lat="53.403495" lon="-1.992653"><ele>254</ele><time>2023-03-31T09:51:28Z</time><name>PT272</name></trkpt>
<trkpt lat="53.403530" lon="-1.992654"><ele>255</ele><time>2023-03-31T09:51:31Z</time><name>PT273</name></trkpt>
<trkpt lat="53.403566" lon="-1.992667"><ele>256</ele><time>2023-03-31T09:51:34Z</time><name>PT274</name></trkpt>
<trkpt lat="53.403618" lon="-1.992693"><ele>258</ele><time>2023-03-31T09:51:38Z</time><name>PT275</name></trkpt>
<trkpt lat="53.403659" lon="-1.992710"><ele>258</ele><time>2023-03-31T09:51:42Z</time><name>PT276</name></trkpt>
<trkpt lat="53.403685" lon="-1.992721"><ele>259</ele><time>2023-03-31T09:51:45Z</time><name>PT277</name></trkpt>
<trkpt lat="53.403718" lon="-1.992734"><ele>259</ele><time>2023-03-31T09:51:48Z</time><name>PT278</name></trkpt>
<trkpt lat="53.403760" lon="-1.992770"><ele>260</ele><time>2023-03-31T09:51:52Z</time><name>PT279</name></trkpt>
<trkpt lat="53.403798" lon="-1.992789"><ele>261</ele><time>2023-03-31T09:51:56Z</time><name>PT280</name></trkpt>
<trkpt lat="53.403827" lon="-1.992805"><ele>261</ele><time>2023-03-31T09:51:59Z</time><name>PT281</name></trkpt>
<trkpt lat="53.403867" lon="-1.992826"><ele>261</ele><time>2023-03-31T09:52:03Z</time><name>PT282</name></trkpt>
<trkpt lat="53.403899" lon="-1.992848"><ele>261</ele><time>2023-03-31T09:52:06Z</time><name>PT283</name></trkpt>
<trkpt lat="53.403933" lon="-1.992857"><ele>262</ele><time>2023-03-31T09:52:09Z</time><name>PT284</name></trkpt>
<trkpt lat="53.403959" lon="-1.992860"><ele>262</ele><time>2023-03-31T09:52:12Z</time><name>PT285</name></trkpt>
<trkpt lat="53.403988" lon="-1.992864"><ele>263</ele><time>2023-03-31T09:52:15Z</time><name>PT286</name></trkpt>
<trkpt lat="53.404027" lon="-1.992885"><ele>263</ele><time>2023-03-31T09:52:19Z</time><name>PT287</name></trkpt>
<trkpt lat="53.404069" lon="-1.992901"><ele>263</ele><time>2023-03-31T09:52:23Z</time><name>PT288</name></trkpt>
<trkpt lat="53.404109" lon="-1.992913"><ele>264</ele><time>2023-03-31T09:52:27Z</time><name>PT289</name></trkpt>
<trkpt lat="53.404147" lon="-1.992920"><ele>263</ele><time>2023-03-31T09:52:31Z</time><name>PT290</name></trkpt>
<trkpt lat="53.404176" lon="-1.992928"><ele>263</ele><time>2023-03-31T09:52:34Z</time><name>PT291</name></trkpt>
<trkpt lat="53.404205" lon="-1.992932"><ele>264</ele><time>2023-03-31T09:52:37Z</time><name>PT292</name></trkpt>
<trkpt lat="53.404249" lon="-1.992940"><ele>265</ele><time>2023-03-31T09:52:41Z</time><name>PT293</name></trkpt>
<trkpt lat="53.404285" lon="-1.992951"><ele>265</ele><time>2023-03-31T09:52:44Z</time><name>PT294</name></trkpt>
<trkpt lat="53.404328" lon="-1.992966"><ele>267</ele><time>2023-03-31T09:52:48Z</time><name>PT295</name></trkpt>
<trkpt lat="53.404363" lon="-1.992980"><ele>267</ele><time>2023-03-31T09:52:52Z</time><name>PT296</name></trkpt>
<trkpt lat="53.404397" lon="-1.993004"><ele>268</ele><time>2023-03-31T09:52:55Z</time><name>PT297</name></trkpt>
<trkpt lat="53.404432" lon="-1.993015"><ele>268</ele><time>2023-03-31T09:52:58Z</time><name>PT298</name></trkpt>
<trkpt lat="53.404479" lon="-1.993041"><ele>269</ele><time>2023-03-31T09:53:02Z</time><name>PT299</name></trkpt>
<trkpt lat="53.404517" lon="-1.993061"><ele>269</ele><time>2023-03-31T09:53:06Z</time><name>PT300</name></trkpt>
<trkpt lat="53.404560" lon="-1.993081"><ele>270</ele><time>2023-03-31T09:53:10Z</time><name>PT301</name></trkpt>
<trkpt lat="53.404593" lon="-1.993097"><ele>270</ele><time>2023-03-31T09:53:13Z</time><name>PT302</name></trkpt>
<trkpt lat="53.404625" lon="-1.993114"><ele>270</ele><time>2023-03-31T09:53:16Z</time><name>PT303</name></trkpt>
<trkpt lat="53.404667" lon="-1.993131"><ele>271</ele><time>2023-03-31T09:53:20Z</time><name>PT304</name></trkpt>
<trkpt lat="53.404709" lon="-1.993148"><ele>270</ele><time>2023-03-31T09:53:24Z</time><name>PT305</name></trkpt>
<trkpt lat="53.404737" lon="-1.993165"><ele>271</ele><time>2023-03-31T09:53:27Z</time><name>PT306</name></trkpt>
<trkpt lat="53.404778" lon="-1.993190"><ele>271</ele><time>2023-03-31T09:53:31Z</time><name>PT307</name></trkpt>
<trkpt lat="53.404822" lon="-1.993228"><ele>271</ele><time>2023-03-31T09:53:35Z</time><name>PT308</name></trkpt>
<trkpt lat="53.404854" lon="-1.993265"><ele>271</ele><time>2023-03-31T09:53:38Z</time><name>PT309</name></trkpt>
<trkpt lat="53.404885" lon="-1.993319"><ele>271</ele><time>2023-03-31T09:53:42Z</time><name>PT310</name></trkpt>
<trkpt lat="53.404910" lon="-1.993363"><ele>272</ele><time>2023-03-31T09:53:45Z</time><name>PT311</name></trkpt>
<trkpt lat="53.404935" lon="-1.993421"><ele>271</ele><time>2023-03-31T09:53:49Z</time><name>PT312</name></trkpt>
<trkpt lat="53.404957" lon="-1.993466"><ele>271</ele><time>2023-03-31T09:53:52Z</time><name>PT313</name></trkpt>
<trkpt lat="53.404989" lon="-1.993529"><ele>271</ele><time>2023-03-31T09:53:56Z</time><name>PT314</name></trkpt>
<trkpt lat="53.405020" lon="-1.993589"><ele>272</ele><time>2023-03-31T09:54:00Z</time><name>PT315</name></trkpt>
<trkpt lat="53.405049" lon="-1.993649"><ele>272</ele><time>2023-03-31T09:54:04Z</time><name>PT316</name></trkpt>
<trkpt lat="53.405073" lon="-1.993691"><ele>272</ele><time>2023-03-31T09:54:07Z</time><name>PT317</name></trkpt>
<trkpt lat="53.405105" lon="-1.993753"><ele>273</ele><time>2023-03-31T09:54:11Z</time><name>PT318</name></trkpt>
<trkpt lat="53.405141" lon="-1.993809"><ele>273</ele><time>2023-03-31T09:54:15Z</time><name>PT319</name></trkpt>
<trkpt lat="53.405169" lon="-1.993851"><ele>274</ele><time>2023-03-31T09:54:18Z</time><name>PT320</name></trkpt>
<trkpt lat="53.405197" lon="-1.993901"><ele>274</ele><time>2023-03-31T09:54:22Z</time><name>PT321</name></trkpt>
<trkpt lat="53.405233" lon="-1.993959"><ele>274</ele><time>2023-03-31T09:54:26Z</time><name>PT322</name></trkpt>
<trkpt lat="53.405260" lon="-1.994016"><ele>274</ele><time>2023-03-31T09:54:30Z</time><name>PT323</name></trkpt>
<trkpt lat="53.405287" lon="-1.994068"><ele>274</ele><time>2023-03-31T09:54:34Z</time><name>PT324</name></trkpt>
<trkpt lat="53.405320" lon="-1.994128"><ele>274</ele><time>2023-03-31T09:54:38Z</time><name>PT325</name></trkpt>
<trkpt lat="53.405350" lon="-1.994181"><ele>274</ele><time>2023-03-31T09:54:42Z</time><name>PT326</name></trkpt>
<trkpt lat="53.405369" lon="-1.994230"><ele>274</ele><time>2023-03-31T09:54:45Z</time><name>PT327</name></trkpt>
<trkpt lat="53.405389" lon="-1.994280"><ele>275</ele><time>2023-03-31T09:54:48Z</time><name>PT328</name></trkpt>
<trkpt lat="53.405407" lon="-1.994329"><ele>276</ele><time>2023-03-31T09:54:51Z</time><name>PT329</name></trkpt>
<trkpt lat="53.405429" lon="-1.994392"><ele>277</ele><time>2023-03-31T09:54:55Z</time><name>PT330</name></trkpt>
<trkpt lat="53.405455" lon="-1.994458"><ele>277</ele><time>2023-03-31T09:54:59Z</time><name>PT331</name></trkpt>
<trkpt lat="53.405478" lon="-1.994519"><ele>277</ele><time>2023-03-31T09:55:03Z</time><name>PT332</name></trkpt>
<trkpt lat="53.405498" lon="-1.994570"><ele>278</ele><time>2023-03-31T09:55:06Z</time><name>PT333</name></trkpt>
<trkpt lat="53.405516" lon="-1.994618"><ele>278</ele><time>2023-03-31T09:55:09Z</time><name>PT334</name></trkpt>
<trkpt lat="53.405545" lon="-1.994688"><ele>278</ele><time>2023-03-31T09:55:13Z</time><name>PT335</name></trkpt>
<trkpt lat="53.405564" lon="-1.994732"><ele>279</ele><time>2023-03-31T09:55:16Z</time><name>PT336</name></trkpt>
<trkpt lat="53.405583" lon="-1.994785"><ele>278</ele><time>2023-03-31T09:55:19Z</time><name>PT337</name></trkpt>
<trkpt lat="53.405604" lon="-1.994848"><ele>278</ele><time>2023-03-31T09:55:23Z</time><name>PT338</name></trkpt>
<trkpt lat="53.405623" lon="-1.994895"><ele>279</ele><time>2023-03-31T09:55:26Z</time><name>PT339</name></trkpt>
<trkpt lat="53.405645" lon="-1.994959"><ele>279</ele><time>2023-03-31T09:55:30Z</time><name>PT340</name></trkpt>
<trkpt lat="53.405665" lon="-1.995011"><ele>279</ele><time>2023-03-31T09:55:33Z</time><name>PT341</name></trkpt>
<trkpt lat="53.405687" lon="-1.995080"><ele>279</ele><time>2023-03-31T09:55:37Z</time><name>PT342</name></trkpt>
<trkpt lat="53.405711" lon="-1.995154"><ele>279</ele><time>2023-03-31T09:55:41Z</time><name>PT343</name></trkpt>
<trkpt lat="53.405736" lon="-1.995225"><ele>279</ele><time>2023-03-31T09:55:45Z</time><name>PT344</name></trkpt>
<trkpt lat="53.405760" lon="-1.995295"><ele>279</ele><time>2023-03-31T09:55:49Z</time><name>PT345</name></trkpt>
<trkpt lat="53.405778" lon="-1.995349"><ele>279</ele><time>2023-03-31T09:55:52Z</time><name>PT346</name></trkpt>
<trkpt lat="53.405801" lon="-1.995418"><ele>279</ele><time>2023-03-31T09:55:56Z</time><name>PT347</name></trkpt>
<trkpt lat="53.405823" lon="-1.995467"><ele>279</ele><time>2023-03-31T09:55:59Z</time><name>PT348</name></trkpt>
<trkpt lat="53.405848" lon="-1.995531"><ele>279</ele><time>2023-03-31T09:56:03Z</time><name>PT349</name></trkpt>
<trkpt lat="53.405878" lon="-1.995599"><ele>280</ele><time>2023-03-31T09:56:07Z</time><name>PT350</name></trkpt>
<trkpt lat="53.405904" lon="-1.995668"><ele>280</ele><time>2023-03-31T09:56:11Z</time><name>PT351</name></trkpt>
<trkpt lat="53.405933" lon="-1.995724"><ele>281</ele><time>2023-03-31T09:56:15Z</time><name>PT352</name></trkpt>
<trkpt lat="53.405960" lon="-1.995742"><ele>281</ele><time>2023-03-31T09:56:18Z</time><name>PT353</name></trkpt>
<trkpt lat="53.405990" lon="-1.995737"><ele>282</ele><time>2023-03-31T09:56:21Z</time><name>PT354</name></trkpt>
<trkpt lat="53.406021" lon="-1.995722"><ele>282</ele><time>2023-03-31T09:56:24Z</time><name>PT355</name></trkpt>
<trkpt lat="53.406063" lon="-1.995705"><ele>283</ele><time>2023-03-31T09:56:28Z</time><name>PT356</name></trkpt>
<trkpt lat="53.406097" lon="-1.995692"><ele>283</ele><time>2023-03-31T09:56:32Z</time><name>PT357</name></trkpt>
<trkpt lat="53.406127" lon="-1.995682"><ele>283</ele><time>2023-03-31T09:56:35Z</time><name>PT358</name></trkpt>
<trkpt lat="53.406160" lon="-1.995664"><ele>283</ele><time>2023-03-31T09:56:38Z</time><name>PT359</name></trkpt>
<trkpt lat="53.406193" lon="-1.995654"><ele>283</ele><time>2023-03-31T09:56:42Z</time><name>PT360</name></trkpt>
<trkpt lat="53.406231" lon="-1.995632"><ele>284</ele><time>2023-03-31T09:56:46Z</time><name>PT361</name></trkpt>
<trkpt lat="53.406261" lon="-1.995622"><ele>284</ele><time>2023-03-31T09:56:49Z</time><name>PT362</name></trkpt>
<trkpt lat="53.406303" lon="-1.995607"><ele>284</ele><time>2023-03-31T09:56:53Z</time><name>PT363</name></trkpt>
<trkpt lat="53.406335" lon="-1.995597"><ele>284</ele><time>2023-03-31T09:56:56Z</time><name>PT364</name></trkpt>
<trkpt lat="53.406364" lon="-1.995594"><ele>284</ele><time>2023-03-31T09:56:59Z</time><name>PT365</name></trkpt>
<trkpt lat="53.406391" lon="-1.995580"><ele>285</ele><time>2023-03-31T09:57:02Z</time><name>PT366</name></trkpt>
<trkpt lat="53.406432" lon="-1.995562"><ele>285</ele><time>2023-03-31T09:57:06Z</time><name>PT367</name></trkpt>
<trkpt lat="53.406475" lon="-1.995555"><ele>285</ele><time>2023-03-31T09:57:10Z</time><name>PT368</name></trkpt>
<trkpt lat="53.406519" lon="-1.995551"><ele>285</ele><time>2023-03-31T09:57:14Z</time><name>PT369</name></trkpt>
<trkpt lat="53.406560" lon="-1.995533"><ele>286</ele><time>2023-03-31T09:57:18Z</time><name>PT370</name></trkpt>
<trkpt lat="53.406593" lon="-1.995520"><ele>287</ele><time>2023-03-31T09:57:21Z</time><name>PT371</name></trkpt>
<trkpt lat="53.406631" lon="-1.995512"><ele>289</ele><time>2023-03-31T09:57:24Z</time><name>PT372</name></trkpt>
<trkpt lat="53.406667" lon="-1.995494"><ele>290</ele><time>2023-03-31T09:57:27Z</time><name>PT373</name></trkpt>
<trkpt lat="53.406709" lon="-1.995479"><ele>290</ele><time>2023-03-31T09:57:31Z</time><name>PT374</name></trkpt>
<trkpt lat="53.406754" lon="-1.995465"><ele>291</ele><time>2023-03-31T09:57:35Z</time><name>PT375</name></trkpt>
<trkpt lat="53.406785" lon="-1.995453"><ele>291</ele><time>2023-03-31T09:57:38Z</time><name>PT376</name></trkpt>
<trkpt lat="53.406833" lon="-1.995438"><ele>292</ele><time>2023-03-31T09:57:42Z</time><name>PT377</name></trkpt>
<trkpt lat="53.406866" lon="-1.995430"><ele>292</ele><time>2023-03-31T09:57:45Z</time><name>PT378</name></trkpt>
<trkpt lat="53.406905" lon="-1.995416"><ele>293</ele><time>2023-03-31T09:57:49Z</time><name>PT379</name></trkpt>
<trkpt lat="53.406940" lon="-1.995401"><ele>293</ele><time>2023-03-31T09:57:52Z</time><name>PT380</name></trkpt>
<trkpt lat="53.406984" lon="-1.995389"><ele>294</ele><time>2023-03-31T09:57:56Z</time><name>PT381</name></trkpt>
<trkpt lat="53.407032" lon="-1.995375"><ele>294</ele><time>2023-03-31T09:58:00Z</time><name>PT382</name></trkpt>
<trkpt lat="53.407079" lon="-1.995361"><ele>294</ele><time>2023-03-31T09:58:04Z</time><name>PT383</name></trkpt>
<trkpt lat="53.407125" lon="-1.995344"><ele>295</ele><time>2023-03-31T09:58:08Z</time><name>PT384</name></trkpt>
<trkpt lat="53.407159" lon="-1.995335"><ele>295</ele><time>2023-03-31T09:58:11Z</time><name>PT385</name></trkpt>
<trkpt lat="53.407206" lon="-1.995322"><ele>295</ele><time>2023-03-31T09:58:15Z</time><name>PT386</name></trkpt>
<trkpt lat="53.407243" lon="-1.995317"><ele>295</ele><time>2023-03-31T09:58:18Z</time><name>PT387</name></trkpt>
<trkpt lat="53.407293" lon="-1.995310"><ele>296</ele><time>2023-03-31T09:58:22Z</time><name>PT388</name></trkpt>
<trkpt lat="53.407344" lon="-1.995313"><ele>295</ele><time>2023-03-31T09:58:26Z</time><name>PT389</name></trkpt>
<trkpt lat="53.407381" lon="-1.995305"><ele>297</ele><time>2023-03-31T09:58:29Z</time><name>PT390</name></trkpt>
<trkpt lat="53.407413" lon="-1.995295"><ele>297</ele><time>2023-03-31T09:58:32Z</time><name>PT391</name></trkpt>
<trkpt lat="53.407457" lon="-1.995284"><ele>297</ele><time>2023-03-31T09:58:36Z</time><name>PT392</name></trkpt>
<trkpt lat="53.407502" lon="-1.995278"><ele>297</ele><time>2023-03-31T09:58:40Z</time><name>PT393</name></trkpt>
<trkpt lat="53.407542" lon="-1.995273"><ele>298</ele><time>2023-03-31T09:58:43Z</time><name>PT394</name></trkpt>
<trkpt lat="53.407593" lon="-1.995263"><ele>298</ele><time>2023-03-31T09:58:47Z</time><name>PT395</name></trkpt>
<trkpt lat="53.407629" lon="-1.995257"><ele>298</ele><time>2023-03-31T09:58:50Z</time><name>PT396</name></trkpt>
<trkpt lat="53.407665" lon="-1.995247"><ele>298</ele><time>2023-03-31T09:58:53Z</time><name>PT397</name></trkpt>
<trkpt lat="53.407699" lon="-1.995242"><ele>299</ele><time>2023-03-31T09:58:56Z</time><name>PT398</name></trkpt>
<trkpt lat="53.407748" lon="-1.995230"><ele>298</ele><time>2023-03-31T09:59:00Z</time><name>PT399</name></trkpt>
<trkpt lat="53.407781" lon="-1.995222"><ele>298</ele><time>2023-03-31T09:59:03Z</time><name>PT400</name></trkpt>
<trkpt lat="53.407819" lon="-1.995209"><ele>298</ele><time>2023-03-31T09:59:06Z</time><name>PT401</name></trkpt>
<trkpt lat="53.407871" lon="-1.995190"><ele>299</ele><time>2023-03-31T09:59:10Z</time><name>PT402</name></trkpt>
<trkpt lat="53.407922" lon="-1.995170"><ele>300</ele><time>2023-03-31T09:59:14Z</time><name>PT403</name></trkpt>
<trkpt lat="53.407969" lon="-1.995149"><ele>300</ele><time>2023-03-31T09:59:18Z</time><name>PT404</name></trkpt>
<trkpt lat="53.408003" lon="-1.995140"><ele>300</ele><time>2023-03-31T09:59:21Z</time><name>PT405</name></trkpt>
<trkpt lat="53.408046" lon="-1.995131"><ele>299</ele><time>2023-03-31T09:59:25Z</time><name>PT406</name></trkpt>
<trkpt lat="53.408080" lon="-1.995125"><ele>299</ele><time>2023-03-31T09:59:28Z</time><name>PT407</name></trkpt>
<trkpt lat="53.408128" lon="-1.995104"><ele>299</ele><time>2023-03-31T09:59:32Z</time><name>PT408</name></trkpt>
<trkpt lat="53.408159" lon="-1.995096"><ele>299</ele><time>2023-03-31T09:59:35Z</time><name>PT409</name></trkpt>
<trkpt lat="53.408187" lon="-1.995083"><ele>299</ele><time>2023-03-31T09:59:38Z</time><name>PT410</name></trkpt>
<trkpt lat="53.408232" lon="-1.995050"><ele>300</ele><time>2023-03-31T09:59:41Z</time><name>PT411</name></trkpt>
<trkpt lat="53.408272" lon="-1.995016"><ele>300</ele><time>2023-03-31T09:59:44Z</time><name>PT412</name></trkpt>
<trkpt lat="53.408313" lon="-1.994999"><ele>299</ele><time>2023-03-31T09:59:48Z</time><name>PT413</name></trkpt>
<trkpt lat="53.408358" lon="-1.994989"><ele>299</ele><time>2023-03-31T09:59:52Z</time><name>PT414</name></trkpt>
<trkpt lat="53.408407" lon="-1.994946"><ele>300</ele><time>2023-03-31T09:59:56Z</time><name>PT415</name></trkpt>
<trkpt lat="53.408470" lon="-1.994904"><ele>300</ele><time>2023-03-31T10:00:00Z</time><name>PT416</name></trkpt>
<trkpt lat="53.408509" lon="-1.994881"><ele>301</ele><time>2023-03-31T10:00:03Z</time><name>PT417</name></trkpt>
<trkpt lat="53.408544" lon="-1.994857"><ele>302</ele><time>2023-03-31T10:00:06Z</time><name>PT418</name></trkpt>
<trkpt lat="53.408586" lon="-1.994815"><ele>302</ele><time>2023-03-31T10:00:10Z</time><name>PT419</name></trkpt>
<trkpt lat="53.408613" lon="-1.994782"><ele>302</ele><time>2023-03-31T10:00:13Z</time><name>PT420</name></trkpt>
<trkpt lat="53.408645" lon="-1.994744"><ele>302</ele><time>2023-03-31T10:00:16Z</time><name>PT421</name></trkpt>
<trkpt lat="53.408678" lon="-1.994712"><ele>302</ele><time>2023-03-31T10:00:19Z</time><name>PT422</name></trkpt>
<trkpt lat="53.408720" lon="-1.994666"><ele>302</ele><time>2023-03-31T10:00:23Z</time><name>PT423</name></trkpt>
<trkpt lat="53.408759" lon="-1.994629"><ele>302</ele><time>2023-03-31T10:00:27Z</time><name>PT424</name></trkpt>
<trkpt lat="53.408787" lon="-1.994599"><ele>302</ele><time>2023-03-31T10:00:30Z</time><name>PT425</name></trkpt>
<trkpt lat="53.408827" lon="-1.994557"><ele>302</ele><time>2023-03-31T10:00:34Z</time><name>PT426</name></trkpt>
<trkpt lat="53.408868" lon="-1.994497"><ele>303</ele><time>2023-03-31T10:00:38Z</time><name>PT427</name></trkpt>
<trkpt lat="53.408907" lon="-1.994436"><ele>304</ele><time>2023-03-31T10:00:42Z</time><name>PT428</name></trkpt>
<trkpt lat="53.408939" lon="-1.994381"><ele>304</ele><time>2023-03-31T10:00:46Z</time><name>PT429</name></trkpt>
<trkpt lat="53.408977" lon="-1.994324"><ele>305</ele><time>2023-03-31T10:00:50Z</time><name>PT430</name></trkpt>
<trkpt lat="53.409002" lon="-1.994277"><ele>305</ele><time>2023-03-31T10:00:53Z</time><name>PT431</name></trkpt>
<trkpt lat="53.409039" lon="-1.994222"><ele>306</ele><time>2023-03-31T10:00:57Z</time><name>PT432</name></trkpt>
<trkpt lat="53.409075" lon="-1.994167"><ele>306</ele><time>2023-03-31T10:01:01Z</time><name>PT433</name></trkpt>
<trkpt lat="53.409107" lon="-1.994121"><ele>306</ele><time>2023-03-31T10:01:04Z</time><name>PT434</name></trkpt>
<trkpt lat="53.409134" lon="-1.994086"><ele>306</ele><time>2023-03-31T10:01:07Z</time><name>PT435</name></trkpt>
<trkpt lat="53.409157" lon="-1.994066"><ele>306</ele><time>2023-03-31T10:01:10Z</time><name>PT436</name></trkpt>
<trkpt lat="53.409195" lon="-1.994026"><ele>307</ele><time>2023-03-31T10:01:14Z</time><name>PT437</name></trkpt>
<trkpt lat="53.409230" lon="-1.993993"><ele>307</ele><time>2023-03-31T10:01:18Z</time><name>PT438</name></trkpt>
<trkpt lat="53.409244" lon="-1.993994"><ele>307</ele><time>2023-03-31T10:01:21Z</time><name>PT439</name></trkpt>
<trkpt lat="53.409253" lon="-1.994024"><ele>307</ele><time>2023-03-31T10:01:24Z</time><name>PT440</name></trkpt>
<trkpt lat="53.409261" lon="-1.994020"><ele>307</ele><time>2023-03-31T10:01:27Z</time><name>PT441</name></trkpt>
<trkpt lat="53.409289" lon="-1.993978"><ele>307</ele><time>2023-03-31T10:01:31Z</time><name>PT442</name></trkpt>
<trkpt lat="53.409323" lon="-1.993963"><ele>308</ele><time>2023-03-31T10:01:35Z</time><name>PT443</name></trkpt>
<trkpt lat="53.409337" lon="-1.993958"><ele>308</ele><time>2023-03-31T10:01:38Z</time><name>PT444</name></trkpt>
<trkpt lat="53.409350" lon="-1.993950"><ele>307</ele><time>2023-03-31T10:01:41Z</time><name>PT445</name></trkpt>
<trkpt lat="53.409377" lon="-1.993936"><ele>308</ele><time>2023-03-31T10:01:45Z</time><name>PT446</name></trkpt>
<trkpt lat="53.409401" lon="-1.993924"><ele>308</ele><time>2023-03-31T10:01:48Z</time><name>PT447</name></trkpt>
<trkpt lat="53.409423" lon="-1.993916"><ele>308</ele><time>2023-03-31T10:01:51Z</time><name>PT448</name></trkpt>
<trkpt lat="53.409454" lon="-1.993903"><ele>308</ele><time>2023-03-31T10:01:55Z</time><name>PT449</name></trkpt>
<trkpt lat="53.409488" lon="-1.993893"><ele>308</ele><time>2023-03-31T10:01:59Z</time><name>PT450</name></trkpt>
<trkpt lat="53.409521" lon="-1.993889"><ele>309</ele><time>2023-03-31T10:02:02Z</time><name>PT451</name></trkpt>
<trkpt lat="53.409566" lon="-1.993872"><ele>310</ele><time>2023-03-31T10:02:06Z</time><name>PT452</name></trkpt>
<trkpt lat="53.409595" lon="-1.993861"><ele>310</ele><time>2023-03-31T10:02:09Z</time><name>PT453</name></trkpt>
<trkpt lat="53.409642" lon="-1.993858"><ele>310</ele><time>2023-03-31T10:02:13Z</time><name>PT454</name></trkpt>
<trkpt lat="53.409685" lon="-1.993853"><ele>310</ele><time>2023-03-31T10:02:17Z</time><name>PT455</name></trkpt>
<trkpt lat="53.409720" lon="-1.993842"><ele>310</ele><time>2023-03-31T10:02:21Z</time><name>PT456</name></trkpt>
<trkpt lat="53.409763" lon="-1.993833"><ele>311</ele><time>2023-03-31T10:02:25Z</time><name>PT457</name></trkpt>
<trkpt lat="53.409797" lon="-1.993829"><ele>312</ele><time>2023-03-31T10:02:28Z</time><name>PT458</name></trkpt>
<trkpt lat="53.409845" lon="-1.993823"><ele>312</ele><time>2023-03-31T10:02:32Z</time><name>PT459</name></trkpt>
<trkpt lat="53.409888" lon="-1.993819"><ele>313</ele><time>2023-03-31T10:02:36Z</time><name>PT460</name></trkpt>
<trkpt lat="53.409922" lon="-1.993815"><ele>312</ele><time>2023-03-31T10:02:39Z</time><name>PT461</name></trkpt>
<trkpt lat="53.409956" lon="-1.993804"><ele>312</ele><time>2023-03-31T10:02:42Z</time><name>PT462</name></trkpt>
<trkpt lat="53.409989" lon="-1.993802"><ele>312</ele><time>2023-03-31T10:02:45Z</time><name>PT463</name></trkpt>
<trkpt lat="53.410033" lon="-1.993790"><ele>312</ele><time>2023-03-31T10:02:49Z</time><name>PT464</name></trkpt>
<trkpt lat="53.410079" lon="-1.993784"><ele>312</ele><time>2023-03-31T10:02:53Z</time><name>PT465</name></trkpt>
<trkpt lat="53.410113" lon="-1.993773"><ele>313</ele><time>2023-03-31T10:02:56Z</time><name>PT466</name></trkpt>
<trkpt lat="53.410148" lon="-1.993764"><ele>313</ele><time>2023-03-31T10:02:59Z</time><name>PT467</name></trkpt>
<trkpt lat="53.410196" lon="-1.993748"><ele>313</ele><time>2023-03-31T10:03:03Z</time><name>PT468</name></trkpt>
<trkpt lat="53.410245" lon="-1.993735"><ele>313</ele><time>2023-03-31T10:03:07Z</time><name>PT469</name></trkpt>
<trkpt lat="53.410280" lon="-1.993716"><ele>314</ele><time>2023-03-31T10:03:10Z</time><name>PT470</name></trkpt>
<trkpt lat="53.410315" lon="-1.993705"><ele>314</ele><time>2023-03-31T10:03:13Z</time><name>PT471</name></trkpt>
<trkpt lat="53.410353" lon="-1.993690"><ele>314</ele><time>2023-03-31T10:03:16Z</time><name>PT472</name></trkpt>
<trkpt lat="53.410391" lon="-1.993680"><ele>314</ele><time>2023-03-31T10:03:19Z</time><name>PT473</name></trkpt>
<trkpt lat="53.410429" lon="-1.993665"><ele>314</ele><time>2023-03-31T10:03:22Z</time><name>PT474</name></trkpt>
<trkpt lat="53.410477" lon="-1.993651"><ele>314</ele><time>2023-03-31T10:03:26Z</time><name>PT475</name></trkpt>
<trkpt lat="53.410517" lon="-1.993642"><ele>314</ele><time>2023-03-31T10:03:29Z</time><name>PT476</name></trkpt>
<trkpt lat="53.410554" lon="-1.993630"><ele>314</ele><time>2023-03-31T10:03:32Z</time><name>PT477</name></trkpt>
<trkpt lat="53.410603" lon="-1.993615"><ele>314</ele><time>2023-03-31T10:03:36Z</time><name>PT478</name></trkpt>
<trkpt lat="53.410654" lon="-1.993604"><ele>314</ele><time>2023-03-31T10:03:40Z</time><name>PT479</name></trkpt>
<trkpt lat="53.410705" lon="-1.993593"><ele>314</ele><time>2023-03-31T10:03:44Z</time><name>PT480</name></trkpt>
<trkpt lat="53.410741" lon="-1.993592"><ele>314</ele><time>2023-03-31T10:03:47Z</time><name>PT481</name></trkpt>
<trkpt lat="53.410779" lon="-1.993585"><ele>314</ele><time>2023-03-31T10:03:50Z</time><name>PT482</name></trkpt>
<trkpt lat="53.410830" lon="-1.993579"><ele>315</ele><time>2023-03-31T10:03:54Z</time><name>PT483</name></trkpt>
<trkpt lat="53.410869" lon="-1.993574"><ele>315</ele><time>2023-03-31T10:03:57Z</time><name>PT484</name></trkpt>
<trkpt lat="53.410911" lon="-1.993600"><ele>315</ele><time>2023-03-31T10:04:01Z</time><name>PT485</name></trkpt>
<trkpt lat="53.410953" lon="-1.993572"><ele>315</ele><time>2023-03-31T10:04:05Z</time><name>PT486</name></trkpt>
<trkpt lat="53.410992" lon="-1.993559"><ele>315</ele><time>2023-03-31T10:04:08Z</time><name>PT487</name></trkpt>
<trkpt lat="53.411030" lon="-1.993549"><ele>315</ele><time>2023-03-31T10:04:11Z</time><name>PT488</name></trkpt>
<trkpt lat="53.411082" lon="-1.993533"><ele>316</ele><time>2023-03-31T10:04:15Z</time><name>PT489</name></trkpt>
<trkpt lat="53.411123" lon="-1.993520"><ele>316</ele><time>2023-03-31T10:04:18Z</time><name>PT490</name></trkpt>
<trkpt lat="53.411173" lon="-1.993491"><ele>316</ele><time>2023-03-31T10:04:22Z</time><name>PT491</name></trkpt>
<trkpt lat="53.411218" lon="-1.993464"><ele>317</ele><time>2023-03-31T10:04:26Z</time><name>PT492</name></trkpt>
<trkpt lat="53.411252" lon="-1.993440"><ele>317</ele><time>2023-03-31T10:04:29Z</time><name>PT493</name></trkpt>
<trkpt lat="53.411297" lon="-1.993409"><ele>317</ele><time>2023-03-31T10:04:33Z</time><name>PT494</name></trkpt>
<trkpt lat="53.411335" lon="-1.993386"><ele>317</ele><time>2023-03-31T10:04:36Z</time><name>PT495</name></trkpt>
<trkpt lat="53.411382" lon="-1.993363"><ele>317</ele><time>2023-03-31T10:04:40Z</time><name>PT496</name></trkpt>
<trkpt lat="53.411432" lon="-1.993345"><ele>316</ele><time>2023-03-31T10:04:44Z</time><name>PT497</name></trkpt>
<trkpt lat="53.411485" lon="-1.993329"><ele>317</ele><time>2023-03-31T10:04:48Z</time><name>PT498</name></trkpt>
<trkpt lat="53.411537" lon="-1.993322"><ele>317</ele><time>2023-03-31T10:04:52Z</time><name>PT499</name></trkpt>
<trkpt lat="53.411587" lon="-1.993315"><ele>317</ele><time>2023-03-31T10:04:56Z</time><name>PT500</name></trkpt>
<trkpt lat="53.411621" lon="-1.993315"><ele>317</ele><time>2023-03-31T10:04:59Z</time><name>PT501</name></trkpt>
<trkpt lat="53.411657" lon="-1.993309"><ele>318</ele><time>2023-03-31T10:05:02Z</time><name>PT502</name></trkpt>
<trkpt lat="53.411691" lon="-1.993297"><ele>317</ele><time>2023-03-31T10:05:05Z</time><name>PT503</name></trkpt>
<trkpt lat="53.411730" lon="-1.993292"><ele>317</ele><time>2023-03-31T10:05:08Z</time><name>PT504</name></trkpt>
<trkpt lat="53.411779" lon="-1.993287"><ele>317</ele><time>2023-03-31T10:05:12Z</time><name>PT505</name></trkpt>
<trkpt lat="53.411816" lon="-1.993288"><ele>317</ele><time>2023-03-31T10:05:15Z</time><name>PT506</name></trkpt>
<trkpt lat="53.411867" lon="-1.993282"><ele>318</ele><time>2023-03-31T10:05:19Z</time><name>PT507</name></trkpt>
<trkpt lat="53.411911" lon="-1.993282"><ele>318</ele><time>2023-03-31T10:05:22Z</time><name>PT508</name></trkpt>
<trkpt lat="53.411952" lon="-1.993276"><ele>319</ele><time>2023-03-31T10:05:25Z</time><name>PT509</name></trkpt>
<trkpt lat="53.412004" lon="-1.993265"><ele>319</ele><time>2023-03-31T10:05:29Z</time><name>PT510</name></trkpt>
<trkpt lat="53.412043" lon="-1.993260"><ele>319</ele><time>2023-03-31T10:05:32Z</time><name>PT511</name></trkpt>
<trkpt lat="53.412093" lon="-1.993265"><ele>319</ele><time>2023-03-31T10:05:36Z</time><name>PT512</name></trkpt>
<trkpt lat="53.412130" lon="-1.993275"><ele>319</ele><time>2023-03-31T10:05:39Z</time><name>PT513</name></trkpt>
<trkpt lat="53.412178" lon="-1.993283"><ele>319</ele><time>2023-03-31T10:05:43Z</time><name>PT514</name></trkpt>
<trkpt lat="53.412214" lon="-1.993291"><ele>319</ele><time>2023-03-31T10:05:46Z</time><name>PT515</name></trkpt>
<trkpt lat="53.412256" lon="-1.993309"><ele>318</ele><time>2023-03-31T10:05:50Z</time><name>PT516</name></trkpt>
<trkpt lat="53.412290" lon="-1.993357"><ele>319</ele><time>2023-03-31T10:05:54Z</time><name>PT517</name></trkpt>
<trkpt lat="53.412312" lon="-1.993394"><ele>319</ele><time>2023-03-31T10:05:57Z</time><name>PT518</name></trkpt>
<trkpt lat="53.412340" lon="-1.993432"><ele>320</ele><time>2023-03-31T10:06:01Z</time><name>PT519</name></trkpt>
<trkpt lat="53.412367" lon="-1.993446"><ele>319</ele><time>2023-03-31T10:06:04Z</time><name>PT520</name></trkpt>
<trkpt lat="53.412398" lon="-1.993451"><ele>319</ele><time>2023-03-31T10:06:07Z</time><name>PT521</name></trkpt>
<trkpt lat="53.412446" lon="-1.993479"><ele>319</ele><time>2023-03-31T10:06:11Z</time><name>PT522</name></trkpt>
<trkpt lat="53.412483" lon="-1.993482"><ele>320</ele><time>2023-03-31T10:06:14Z</time><name>PT523</name></trkpt>
<trkpt lat="53.412523" lon="-1.993489"><ele>319</ele><time>2023-03-31T10:06:17Z</time><name>PT524</name></trkpt>
<trkpt lat="53.412564" lon="-1.993505"><ele>319</ele><time>2023-03-31T10:06:21Z</time><name>PT525</name></trkpt>
<trkpt lat="53.412594" lon="-1.993518"><ele>320</ele><time>2023-03-31T10:06:24Z</time><name>PT526</name></trkpt>
<trkpt lat="53.412640" lon="-1.993534"><ele>320</ele><time>2023-03-31T10:06:28Z</time><name>PT527</name></trkpt>
<trkpt lat="53.412678" lon="-1.993546"><ele>321</ele><time>2023-03-31T10:06:31Z</time><name>PT528</name></trkpt>
<trkpt lat="53.412718" lon="-1.993562"><ele>321</ele><time>2023-03-31T10:06:35Z</time><name>PT529</name></trkpt>
<trkpt lat="53.412762" lon="-1.993583"><ele>321</ele><time>2023-03-31T10:06:39Z</time><name>PT530</name></trkpt>
<trkpt lat="53.412791" lon="-1.993605"><ele>321</ele><time>2023-03-31T10:06:42Z</time><name>PT531</name></trkpt>
<trkpt lat="53.412827" lon="-1.993627"><ele>321</ele><time>2023-03-31T10:06:46Z</time><name>PT532</name></trkpt>
<trkpt lat="53.412862" lon="-1.993639"><ele>321</ele><time>2023-03-31T10:06:49Z</time><name>PT533</name></trkpt>
<trkpt lat="53.412906" lon="-1.993660"><ele>321</ele><time>2023-03-31T10:06:53Z</time><name>PT534</name></trkpt>
<trkpt lat="53.412947" lon="-1.993670"><ele>321</ele><time>2023-03-31T10:06:57Z</time><name>PT535</name></trkpt>
<trkpt lat="53.412979" lon="-1.993689"><ele>321</ele><time>2023-03-31T10:07:00Z</time><name>PT536</name></trkpt>
<trkpt lat="53.413008" lon="-1.993710"><ele>320</ele><time>2023-03-31T10:07:03Z</time><name>PT537</name></trkpt>
<trkpt lat="53.413036" lon="-1.993740"><ele>320</ele><time>2023-03-31T10:07:06Z</time><name>PT538</name></trkpt>
<trkpt lat="53.413071" lon="-1.993790"><ele>321</ele><time>2023-03-31T10:07:10Z</time><name>PT539</name></trkpt>
<trkpt lat="53.413107" lon="-1.993838"><ele>321</ele><time>2023-03-31T10:07:14Z</time><name>PT540</name></trkpt>
<trkpt lat="53.413132" lon="-1.993859"><ele>321</ele><time>2023-03-31T10:07:17Z</time><name>PT541</name></trkpt>
<trkpt lat="53.413167" lon="-1.993891"><ele>321</ele><time>2023-03-31T10:07:21Z</time><name>PT542</name></trkpt>
<trkpt lat="53.413191" lon="-1.993914"><ele>321</ele><time>2023-03-31T10:07:24Z</time><name>PT543</name></trkpt>
<trkpt lat="53.413221" lon="-1.993958"><ele>321</ele><time>2023-03-31T10:07:28Z</time><name>PT544</name></trkpt>
<trkpt lat="53.413226" lon="-1.993986"><ele>321</ele><time>2023-03-31T10:07:31Z</time><name>PT545</name></trkpt>
<trkpt lat="53.413233" lon="-1.994004"><ele>321</ele><time>2023-03-31T10:07:35Z</time><name>PT546</name></trkpt>
<trkpt lat="53.413236" lon="-1.994008"><ele>321</ele><time>2023-03-31T10:07:39Z</time><name>PT547</name></trkpt>
<trkpt lat="53.413229" lon="-1.994017"><ele>320</ele><time>2023-03-31T10:07:49Z</time><name>PT548</name></trkpt>
<trkpt lat="53.413215" lon="-1.994013"><ele>320</ele><time>2023-03-31T10:07:52Z</time><name>PT549</name></trkpt>
<trkpt lat="53.413219" lon="-1.994025"><ele>321</ele><time>2023-03-31T10:07:55Z</time><name>PT550</name></trkpt>
<trkpt lat="53.413212" lon="-1.994021"><ele>321</ele><time>2023-03-31T10:07:59Z</time><name>PT551</name></trkpt>
<trkpt lat="53.413203" lon="-1.994014"><ele>321</ele><time>2023-03-31T10:08:02Z</time><name>PT552</name></trkpt>
<trkpt lat="53.413193" lon="-1.994000"><ele>321</ele><time>2023-03-31T10:08:06Z</time><name>PT553</name></trkpt>
<trkpt lat="53.413194" lon="-1.993998"><ele>321</ele><time>2023-03-31T10:08:09Z</time><name>PT554</name></trkpt>
<trkpt lat="53.413196" lon="-1.993998"><ele>321</ele><time>2023-03-31T10:08:16Z</time><name>PT555</name></trkpt>
<trkpt lat="53.413190" lon="-1.994005"><ele>322</ele><time>2023-03-31T10:08:20Z</time><name>PT556</name></trkpt>
<trkpt lat="53.413192" lon="-1.993991"><ele>322</ele><time>2023-03-31T10:08:23Z</time><name>PT557</name></trkpt>
<trkpt lat="53.413194" lon="-1.993970"><ele>322</ele><time>2023-03-31T10:08:44Z</time><name>PT558</name></trkpt>
<trkpt lat="53.413184" lon="-1.993974"><ele>322</ele><time>2023-03-31T10:09:46Z</time><name>PT559</name></trkpt>
<trkpt lat="53.413186" lon="-1.993972"><ele>321</ele><time>2023-03-31T10:09:50Z</time><name>PT560</name></trkpt>
<trkpt lat="53.413187" lon="-1.993978"><ele>321</ele><time>2023-03-31T10:09:57Z</time><name>PT561</name></trkpt>
<trkpt lat="53.413187" lon="-1.993974"><ele>321</ele><time>2023-03-31T10:10:00Z</time><name>PT562</name></trkpt>
<trkpt lat="53.413195" lon="-1.993994"><ele>321</ele><time>2023-03-31T10:10:10Z</time><name>PT563</name></trkpt>
<trkpt lat="53.413211" lon="-1.994043"><ele>322</ele><time>2023-03-31T10:10:13Z</time><name>PT564</name></trkpt>
<trkpt lat="53.413229" lon="-1.994078"><ele>322</ele><time>2023-03-31T10:10:16Z</time><name>PT565</name></trkpt>
<trkpt lat="53.413247" lon="-1.994116"><ele>322</ele><time>2023-03-31T10:10:19Z</time><name>PT566</name></trkpt>
<trkpt lat="53.413269" lon="-1.994151"><ele>322</ele><time>2023-03-31T10:10:23Z</time><name>PT567</name></trkpt>
<trkpt lat="53.413281" lon="-1.994191"><ele>322</ele><time>2023-03-31T10:10:26Z</time><name>PT568</name></trkpt>
<trkpt lat="53.413300" lon="-1.994250"><ele>322</ele><time>2023-03-31T10:10:30Z</time><name>PT569</name></trkpt>
<trkpt lat="53.413318" lon="-1.994305"><ele>322</ele><time>2023-03-31T10:10:34Z</time><name>PT570</name></trkpt>
<trkpt lat="53.413330" lon="-1.994343"><ele>322</ele><time>2023-03-31T10:10:37Z</time><name>PT571</name></trkpt>
<trkpt lat="53.413342" lon="-1.994401"><ele>322</ele><time>2023-03-31T10:10:41Z</time><name>PT572</name></trkpt>
<trkpt lat="53.413355" lon="-1.994450"><ele>322</ele><time>2023-03-31T10:10:45Z</time><name>PT573</name></trkpt>
<trkpt lat="53.413365" lon="-1.994474"><ele>322</ele><time>2023-03-31T10:10:48Z</time><name>PT574</name></trkpt>
<trkpt lat="53.413365" lon="-1.994470"><ele>323</ele><time>2023-03-31T10:10:51Z</time><name>PT575</name></trkpt>
<trkpt lat="53.413369" lon="-1.994499"><ele>323</ele><time>2023-03-31T10:10:54Z</time><name>PT576</name></trkpt>
<trkpt lat="53.413392" lon="-1.994576"><ele>323</ele><time>2023-03-31T10:10:58Z</time><name>PT577</name></trkpt>
<trkpt lat="53.413405" lon="-1.994636"><ele>323</ele><time>2023-03-31T10:11:01Z</time><name>PT578</name></trkpt>
<trkpt lat="53.413419" lon="-1.994704"><ele>322</ele><time>2023-03-31T10:11:05Z</time><name>PT579</name></trkpt>
<trkpt lat="53.413429" lon="-1.994784"><ele>322</ele><time>2023-03-31T10:11:09Z</time><name>PT580</name></trkpt>
<trkpt lat="53.413440" lon="-1.994840"><ele>321</ele><time>2023-03-31T10:11:12Z</time><name>PT581</name></trkpt>
<trkpt lat="53.413456" lon="-1.994914"><ele>321</ele><time>2023-03-31T10:11:16Z</time><name>PT582</name></trkpt>
<trkpt lat="53.413464" lon="-1.994967"><ele>321</ele><time>2023-03-31T10:11:19Z</time><name>PT583</name></trkpt>
<trkpt lat="53.413470" lon="-1.995023"><ele>320</ele><time>2023-03-31T10:11:23Z</time><name>PT584</name></trkpt>
<trkpt lat="53.413475" lon="-1.995037"><ele>320</ele><time>2023-03-31T10:11:27Z</time><name>PT585</name></trkpt>
<trkpt lat="53.413478" lon="-1.995042"><ele>320</ele><time>2023-03-31T10:11:30Z</time><name>PT586</name></trkpt>
<trkpt lat="53.413509" lon="-1.995050"><ele>320</ele><time>2023-03-31T10:11:33Z</time><name>PT587</name></trkpt>
<trkpt lat="53.413532" lon="-1.995067"><ele>320</ele><time>2023-03-31T10:11:36Z</time><name>PT588</name></trkpt>
<trkpt lat="53.413559" lon="-1.995102"><ele>320</ele><time>2023-03-31T10:11:40Z</time><name>PT589</name></trkpt>
<trkpt lat="53.413573" lon="-1.995134"><ele>320</ele><time>2023-03-31T10:11:43Z</time><name>PT590</name></trkpt>
<trkpt lat="53.413599" lon="-1.995187"><ele>320</ele><time>2023-03-31T10:11:47Z</time><name>PT591</name></trkpt>
<trkpt lat="53.413621" lon="-1.995218"><ele>320</ele><time>2023-03-31T10:11:50Z</time><name>PT592</name></trkpt>
<trkpt lat="53.413641" lon="-1.995245"><ele>320</ele><time>2023-03-31T10:11:53Z</time><name>PT593</name></trkpt>
<trkpt lat="53.413666" lon="-1.995267"><ele>320</ele><time>2023-03-31T10:11:56Z</time><name>PT594</name></trkpt>
<trkpt lat="53.413699" lon="-1.995289"><ele>320</ele><time>2023-03-31T10:12:00Z</time><name>PT595</name></trkpt>
<trkpt lat="53.413720" lon="-1.995321"><ele>320</ele><time>2023-03-31T10:12:03Z</time><name>PT596</name></trkpt>
<trkpt lat="53.413749" lon="-1.995367"><ele>320</ele><time>2023-03-31T10:12:07Z</time><name>PT597</name></trkpt>
<trkpt lat="53.413782" lon="-1.995403"><ele>320</ele><time>2023-03-31T10:12:11Z</time><name>PT598</name></trkpt>
<trkpt lat="53.413808" lon="-1.995432"><ele>321</ele><time>2023-03-31T10:12:14Z</time><name>PT599</name></trkpt>
<trkpt lat="53.413838" lon="-1.995467"><ele>321</ele><time>2023-03-31T10:12:18Z</time><name>PT600</name></trkpt>
<trkpt lat="53.413864" lon="-1.995491"><ele>321</ele><time>2023-03-31T10:12:21Z</time><name>PT601</name></trkpt>
<trkpt lat="53.413902" lon="-1.995522"><ele>320</ele><time>2023-03-31T10:12:25Z</time><name>PT602</name></trkpt>
<trkpt lat="53.413931" lon="-1.995546"><ele>320</ele><time>2023-03-31T10:12:28Z</time><name>PT603</name></trkpt>
<trkpt lat="53.413966" lon="-1.995595"><ele>320</ele><time>2023-03-31T10:12:32Z</time><name>PT604</name></trkpt>
<trkpt lat="53.414003" lon="-1.995648"><ele>320</ele><time>2023-03-31T10:12:36Z</time><name>PT605</name></trkpt>
<trkpt lat="53.414045" lon="-1.995681"><ele>320</ele><time>2023-03-31T10:12:40Z</time><name>PT606</name></trkpt>
<trkpt lat="53.414087" lon="-1.995698"><ele>320</ele><time>2023-03-31T10:12:44Z</time><name>PT607</name></trkpt>
<trkpt lat="53.414101" lon="-1.995706"><ele>320</ele><time>2023-03-31T10:12:47Z</time><name>PT608</name></trkpt>
<trkpt lat="53.414125" lon="-1.995725"><ele>319</ele><time>2023-03-31T10:12:51Z</time><name>PT609</name></trkpt>
<trkpt lat="53.414166" lon="-1.995757"><ele>319</ele><time>2023-03-31T10:12:55Z</time><name>PT610</name></trkpt>
<trkpt lat="53.414195" lon="-1.995782"><ele>319</ele><time>2023-03-31T10:12:58Z</time><name>PT611</name></trkpt>
<trkpt lat="53.414213" lon="-1.995801"><ele>318</ele><time>2023-03-31T10:13:01Z</time><name>PT612</name></trkpt>
<trkpt lat="53.414224" lon="-1.995808"><ele>319</ele><time>2023-03-31T10:13:04Z</time><name>PT613</name></trkpt>
<trkpt lat="53.414240" lon="-1.995816"><ele>319</ele><time>2023-03-31T10:13:08Z</time><name>PT614</name></trkpt>
<trkpt lat="53.414274" lon="-1.995840"><ele>320</ele><time>2023-03-31T10:13:11Z</time><name>PT615</name></trkpt>
<trkpt lat="53.414316" lon="-1.995856"><ele>320</ele><time>2023-03-31T10:13:15Z</time><name>PT616</name></trkpt>
<trkpt lat="53.414360" lon="-1.995889"><ele>320</ele><time>2023-03-31T10:13:19Z</time><name>PT617</name></trkpt>
<trkpt lat="53.414403" lon="-1.995934"><ele>319</ele><time>2023-03-31T10:13:23Z</time><name>PT618</name></trkpt>
<trkpt lat="53.414439" lon="-1.995984"><ele>319</ele><time>2023-03-31T10:13:27Z</time><name>PT619</name></trkpt>
<trkpt lat="53.414468" lon="-1.996021"><ele>319</ele><time>2023-03-31T10:13:30Z</time><name>PT620</name></trkpt>
<trkpt lat="53.414511" lon="-1.996064"><ele>319</ele><time>2023-03-31T10:13:34Z</time><name>PT621</name></trkpt>
<trkpt lat="53.414544" lon="-1.996089"><ele>319</ele><time>2023-03-31T10:13:37Z</time><name>PT622</name></trkpt>
<trkpt lat="53.414579" lon="-1.996133"><ele>318</ele><time>2023-03-31T10:13:41Z</time><name>PT623</name></trkpt>
<trkpt lat="53.414618" lon="-1.996182"><ele>318</ele><time>2023-03-31T10:13:45Z</time><name>PT624</name></trkpt>
<trkpt lat="53.414655" lon="-1.996229"><ele>318</ele><time>2023-03-31T10:13:49Z</time><name>PT625</name></trkpt>
<trkpt lat="53.414697" lon="-1.996279"><ele>317</ele><time>2023-03-31T10:13:53Z</time><name>PT626</name></trkpt>
<trkpt lat="53.414739" lon="-1.996330"><ele>317</ele><time>2023-03-31T10:13:57Z</time><name>PT627</name></trkpt>
<trkpt lat="53.414771" lon="-1.996365"><ele>318</ele><time>2023-03-31T10:14:00Z</time><name>PT628</name></trkpt>
<trkpt lat="53.414807" lon="-1.996395"><ele>318</ele><time>2023-03-31T10:14:03Z</time><name>PT629</name></trkpt>
<trkpt lat="53.414847" lon="-1.996434"><ele>318</ele><time>2023-03-31T10:14:07Z</time><name>PT630</name></trkpt>
<trkpt lat="53.414867" lon="-1.996443"><ele>317</ele><time>2023-03-31T10:14:11Z</time><name>PT631</name></trkpt>
<trkpt lat="53.414907" lon="-1.996460"><ele>318</ele><time>2023-03-31T10:14:15Z</time><name>PT632</name></trkpt>
<trkpt lat="53.414935" lon="-1.996499"><ele>317</ele><time>2023-03-31T10:14:18Z</time><name>PT633</name></trkpt>
<trkpt lat="53.414958" lon="-1.996538"><ele>317</ele><time>2023-03-31T10:14:22Z</time><name>PT634</name></trkpt>
<trkpt lat="53.414962" lon="-1.996539"><ele>317</ele><time>2023-03-31T10:14:26Z</time><name>PT635</name></trkpt>
<trkpt lat="53.414991" lon="-1.996571"><ele>316</ele><time>2023-03-31T10:14:30Z</time><name>PT636</name></trkpt>
<trkpt lat="53.415027" lon="-1.996615"><ele>316</ele><time>2023-03-31T10:14:34Z</time><name>PT637</name></trkpt>
<trkpt lat="53.415057" lon="-1.996651"><ele>316</ele><time>2023-03-31T10:14:37Z</time><name>PT638</name></trkpt>
<trkpt lat="53.415100" lon="-1.996694"><ele>316</ele><time>2023-03-31T10:14:41Z</time><name>PT639</name></trkpt>
<trkpt lat="53.415144" lon="-1.996739"><ele>316</ele><time>2023-03-31T10:14:45Z</time><name>PT640</name></trkpt>
<trkpt lat="53.415180" lon="-1.996772"><ele>316</ele><time>2023-03-31T10:14:48Z</time><name>PT641</name></trkpt>
<trkpt lat="53.415219" lon="-1.996816"><ele>315</ele><time>2023-03-31T10:14:52Z</time><name>PT642</name></trkpt>
<trkpt lat="53.415250" lon="-1.996841"><ele>315</ele><time>2023-03-31T10:14:55Z</time><name>PT643</name></trkpt>
<trkpt lat="53.415277" lon="-1.996864"><ele>314</ele><time>2023-03-31T10:14:59Z</time><name>PT644</name></trkpt>
<trkpt lat="53.415285" lon="-1.996862"><ele>315</ele><time>2023-03-31T10:15:03Z</time><name>PT645</name></trkpt>
<trkpt lat="53.415286" lon="-1.996860"><ele>315</ele><time>2023-03-31T10:15:06Z</time><name>PT646</name></trkpt>
<trkpt lat="53.415293" lon="-1.996863"><ele>315</ele><time>2023-03-31T10:15:10Z</time><name>PT647</name></trkpt>
<trkpt lat="53.415307" lon="-1.996835"><ele>315</ele><time>2023-03-31T10:15:14Z</time><name>PT648</name></trkpt>
<trkpt lat="53.415315" lon="-1.996807"><ele>315</ele><time>2023-03-31T10:15:17Z</time><name>PT649</name></trkpt>
<trkpt lat="53.415315" lon="-1.996784"><ele>315</ele><time>2023-03-31T10:15:20Z</time><name>PT650</name></trkpt>
<trkpt lat="53.415310" lon="-1.996755"><ele>315</ele><time>2023-03-31T10:15:24Z</time><name>PT651</name></trkpt>
<trkpt lat="53.415305" lon="-1.996753"><ele>314</ele><time>2023-03-31T10:15:27Z</time><name>PT652</name></trkpt>
<trkpt lat="53.415305" lon="-1.996748"><ele>313</ele><time>2023-03-31T10:15:30Z</time><name>PT653</name></trkpt>
<trkpt lat="53.415306" lon="-1.996744"><ele>313</ele><time>2023-03-31T10:15:34Z</time><name>PT654</name></trkpt>
<trkpt lat="53.415304" lon="-1.996742"><ele>313</ele><time>2023-03-31T10:15:41Z</time><name>PT655</name></trkpt>
<trkpt lat="53.415304" lon="-1.996739"><ele>314</ele><time>2023-03-31T10:15:44Z</time><name>PT656</name></trkpt>
<trkpt lat="53.415307" lon="-1.996714"><ele>314</ele><time>2023-03-31T10:15:50Z</time><name>PT657</name></trkpt>
<trkpt lat="53.415308" lon="-1.996711"><ele>314</ele><time>2023-03-31T10:15:53Z</time><name>PT658</name></trkpt>
<trkpt lat="53.415315" lon="-1.996702"><ele>313</ele><time>2023-03-31T10:15:57Z</time><name>PT659</name></trkpt>
<trkpt lat="53.415321" lon="-1.996694"><ele>313</ele><time>2023-03-31T10:16:01Z</time><name>PT660</name></trkpt>
<trkpt lat="53.415325" lon="-1.996688"><ele>313</ele><time>2023-03-31T10:16:05Z</time><name>PT661</name></trkpt>
<trkpt lat="53.415328" lon="-1.996685"><ele>313</ele><time>2023-03-31T10:16:12Z</time><name>PT662</name></trkpt>
<trkpt lat="53.415324" lon="-1.996687"><ele>313</ele><time>2023-03-31T10:16:16Z</time><name>PT663</name></trkpt>
<trkpt lat="53.415323" lon="-1.996652"><ele>314</ele><time>2023-03-31T10:16:37Z</time><name>PT664</name></trkpt>
<trkpt lat="53.415320" lon="-1.996604"><ele>314</ele><time>2023-03-31T10:16:40Z</time><name>PT665</name></trkpt>
<trkpt lat="53.415316" lon="-1.996531"><ele>315</ele><time>2023-03-31T10:16:44Z</time><name>PT666</name></trkpt>
<trkpt lat="53.415317" lon="-1.996452"><ele>316</ele><time>2023-03-31T10:16:48Z</time><name>PT667</name></trkpt>
<trkpt lat="53.415319" lon="-1.996393"><ele>316</ele><time>2023-03-31T10:16:51Z</time><name>PT668</name></trkpt>
<trkpt lat="53.415322" lon="-1.996331"><ele>316</ele><time>2023-03-31T10:16:55Z</time><name>PT669</name></trkpt>
<trkpt lat="53.415321" lon="-1.996282"><ele>316</ele><time>2023-03-31T10:16:58Z</time><name>PT670</name></trkpt>
<trkpt lat="53.415323" lon="-1.996231"><ele>316</ele><time>2023-03-31T10:17:01Z</time><name>PT671</name></trkpt>
<trkpt lat="53.415323" lon="-1.996153"><ele>318</ele><time>2023-03-31T10:17:05Z</time><name>PT672</name></trkpt>
<trkpt lat="53.415325" lon="-1.996097"><ele>318</ele><time>2023-03-31T10:17:08Z</time><name>PT673</name></trkpt>
<trkpt lat="53.415325" lon="-1.996035"><ele>318</ele><time>2023-03-31T10:17:11Z</time><name>PT674</name></trkpt>
<trkpt lat="53.415325" lon="-1.995955"><ele>318</ele><time>2023-03-31T10:17:15Z</time><name>PT675</name></trkpt>
<trkpt lat="53.415323" lon="-1.995901"><ele>319</ele><time>2023-03-31T10:17:18Z</time><name>PT676</name></trkpt>
<trkpt lat="53.415322" lon="-1.995829"><ele>319</ele><time>2023-03-31T10:17:22Z</time><name>PT677</name></trkpt>
<trkpt lat="53.415319" lon="-1.995773"><ele>319</ele><time>2023-03-31T10:17:25Z</time><name>PT678</name></trkpt>
<trkpt lat="53.415317" lon="-1.995696"><ele>319</ele><time>2023-03-31T10:17:29Z</time><name>PT679</name></trkpt>
<trkpt lat="53.415318" lon="-1.995638"><ele>320</ele><time>2023-03-31T10:17:32Z</time><name>PT680</name></trkpt>
<trkpt lat="53.415319" lon="-1.995554"><ele>320</ele><time>2023-03-31T10:17:36Z</time><name>PT681</name></trkpt>
<trkpt lat="53.415319" lon="-1.995475"><ele>321</ele><time>2023-03-31T10:17:40Z</time><name>PT682</name></trkpt>
<trkpt lat="53.415318" lon="-1.995398"><ele>321</ele><time>2023-03-31T10:17:44Z</time><name>PT683</name></trkpt>
<trkpt lat="53.415317" lon="-1.995335"><ele>321</ele><time>2023-03-31T10:17:47Z</time><name>PT684</name></trkpt>
<trkpt lat="53.415318" lon="-1.995249"><ele>321</ele><time>2023-03-31T10:17:51Z</time><name>PT685</name></trkpt>
<trkpt lat="53.415315" lon="-1.995173"><ele>321</ele><time>2023-03-31T10:17:55Z</time><name>PT686</name></trkpt>
<trkpt lat="53.415314" lon="-1.995114"><ele>320</ele><time>2023-03-31T10:17:58Z</time><name>PT687</name></trkpt>
<trkpt lat="53.415313" lon="-1.995063"><ele>320</ele><time>2023-03-31T10:18:01Z</time><name>PT688</name></trkpt>
<trkpt lat="53.415313" lon="-1.995006"><ele>320</ele><time>2023-03-31T10:18:04Z</time><name>PT689</name></trkpt>
<trkpt lat="53.415316" lon="-1.994928"><ele>320</ele><time>2023-03-31T10:18:08Z</time><name>PT690</name></trkpt>
<trkpt lat="53.415316" lon="-1.994869"><ele>320</ele><time>2023-03-31T10:18:11Z</time><name>PT691</name></trkpt>
<trkpt lat="53.415317" lon="-1.994807"><ele>321</ele><time>2023-03-31T10:18:14Z</time><name>PT692</name></trkpt>
<trkpt lat="53.415317" lon="-1.994723"><ele>321</ele><time>2023-03-31T10:18:18Z</time><name>PT693</name></trkpt>
<trkpt lat="53.415315" lon="-1.994639"><ele>322</ele><time>2023-03-31T10:18:22Z</time><name>PT694</name></trkpt>
<trkpt lat="53.415316" lon="-1.994579"><ele>322</ele><time>2023-03-31T10:18:25Z</time><name>PT695</name></trkpt>
<trkpt lat="53.415317" lon="-1.994502"><ele>323</ele><time>2023-03-31T10:18:29Z</time><name>PT696</name></trkpt>
<trkpt lat="53.415318" lon="-1.994446"><ele>324</ele><time>2023-03-31T10:18:32Z</time><name>PT697</name></trkpt>
<trkpt lat="53.415317" lon="-1.994370"><ele>324</ele><time>2023-03-31T10:18:36Z</time><name>PT698</name></trkpt>
<trkpt lat="53.415316" lon="-1.994310"><ele>324</ele><time>2023-03-31T10:18:39Z</time><name>PT699</name></trkpt>
<trkpt lat="53.415317" lon="-1.994243"><ele>325</ele><time>2023-03-31T10:18:43Z</time><name>PT700</name></trkpt>
<trkpt lat="53.415317" lon="-1.994189"><ele>325</ele><time>2023-03-31T10:18:46Z</time><name>PT701</name></trkpt>
<trkpt lat="53.415318" lon="-1.994133"><ele>325</ele><time>2023-03-31T10:18:49Z</time><name>PT702</name></trkpt>
<trkpt lat="53.415316" lon="-1.994058"><ele>325</ele><time>2023-03-31T10:18:53Z</time><name>PT703</name></trkpt>
<trkpt lat="53.415318" lon="-1.993978"><ele>326</ele><time>2023-03-31T10:18:57Z</time><name>PT704</name></trkpt>
<trkpt lat="53.415318" lon="-1.993933"><ele>327</ele><time>2023-03-31T10:19:00Z</time><name>PT705</name></trkpt>
<trkpt lat="53.415312" lon="-1.993885"><ele>327</ele><time>2023-03-31T10:19:03Z</time><name>PT706</name></trkpt>
<trkpt lat="53.415313" lon="-1.993813"><ele>327</ele><time>2023-03-31T10:19:07Z</time><name>PT707</name></trkpt>
<trkpt lat="53.415313" lon="-1.993748"><ele>327</ele><time>2023-03-31T10:19:11Z</time><name>PT708</name></trkpt>
<trkpt lat="53.415317" lon="-1.993674"><ele>328</ele><time>2023-03-31T10:19:15Z</time><name>PT709</name></trkpt>
<trkpt lat="53.415318" lon="-1.993621"><ele>328</ele><time>2023-03-31T10:19:18Z</time><name>PT710</name></trkpt>
<trkpt lat="53.415320" lon="-1.993550"><ele>329</ele><time>2023-03-31T10:19:22Z</time><name>PT711</name></trkpt>
<trkpt lat="53.415323" lon="-1.993491"><ele>329</ele><time>2023-03-31T10:19:25Z</time><name>PT712</name></trkpt>
<trkpt lat="53.415322" lon="-1.993435"><ele>328</ele><time>2023-03-31T10:19:28Z</time><name>PT713</name></trkpt>
<trkpt lat="53.415322" lon="-1.993363"><ele>329</ele><time>2023-03-31T10:19:32Z</time><name>PT714</name></trkpt>
<trkpt lat="53.415321" lon="-1.993304"><ele>329</ele><time>2023-03-31T10:19:35Z</time><name>PT715</name></trkpt>
<trkpt lat="53.415322" lon="-1.993253"><ele>329</ele><time>2023-03-31T10:19:38Z</time><name>PT716</name></trkpt>
<trkpt lat="53.415320" lon="-1.993176"><ele>329</ele><time>2023-03-31T10:19:42Z</time><name>PT717</name></trkpt>
<trkpt lat="53.415315" lon="-1.993099"><ele>328</ele><time>2023-03-31T10:19:46Z</time><name>PT718</name></trkpt>
<trkpt lat="53.415315" lon="-1.993019"><ele>328</ele><time>2023-03-31T10:19:50Z</time><name>PT719</name></trkpt>
<trkpt lat="53.415314" lon="-1.992958"><ele>328</ele><time>2023-03-31T10:19:53Z</time><name>PT720</name></trkpt>
<trkpt lat="53.415310" lon="-1.992893"><ele>327</ele><time>2023-03-31T10:19:57Z</time><name>PT721</name></trkpt>
<trkpt lat="53.415308" lon="-1.992832"><ele>327</ele><time>2023-03-31T10:20:00Z</time><name>PT722</name></trkpt>
<trkpt lat="53.415305" lon="-1.992753"><ele>327</ele><time>2023-03-31T10:20:04Z</time><name>PT723</name></trkpt>
<trkpt lat="53.415306" lon="-1.992684"><ele>326</ele><time>2023-03-31T10:20:07Z</time><name>PT724</name></trkpt>
<trkpt lat="53.415301" lon="-1.992607"><ele>327</ele><time>2023-03-31T10:20:11Z</time><name>PT725</name></trkpt>
<trkpt lat="53.415299" lon="-1.992537"><ele>327</ele><time>2023-03-31T10:20:14Z</time><name>PT726</name></trkpt>
<trkpt lat="53.415300" lon="-1.992481"><ele>328</ele><time>2023-03-31T10:20:17Z</time><name>PT727</name></trkpt>
<trkpt lat="53.415297" lon="-1.992436"><ele>328</ele><time>2023-03-31T10:20:20Z</time><name>PT728</name></trkpt>
<trkpt lat="53.415296" lon="-1.992421"><ele>328</ele><time>2023-03-31T10:20:24Z</time><name>PT729</name></trkpt>
<trkpt lat="53.415296" lon="-1.992385"><ele>327</ele><time>2023-03-31T10:20:43Z</time><name>PT730</name></trkpt>
<trkpt lat="53.415294" lon="-1.992378"><ele>328</ele><time>2023-03-31T10:20:47Z</time><name>PT731</name></trkpt>
<trkpt lat="53.415295" lon="-1.992358"><ele>329</ele><time>2023-03-31T10:20:58Z</time><name>PT732</name></trkpt>
<trkpt lat="53.415298" lon="-1.992346"><ele>329</ele><time>2023-03-31T10:21:02Z</time><name>PT733</name></trkpt>
<trkpt lat="53.415300" lon="-1.992342"><ele>329</ele><time>2023-03-31T10:21:05Z</time><name>PT734</name></trkpt>
<trkpt lat="53.415298" lon="-1.992323"><ele>330</ele><time>2023-03-31T10:21:12Z</time><name>PT735</name></trkpt>
<trkpt lat="53.415304" lon="-1.992275"><ele>330</ele><time>2023-03-31T10:21:16Z</time><name>PT736</name></trkpt>
<trkpt lat="53.415299" lon="-1.992228"><ele>330</ele><time>2023-03-31T10:21:20Z</time><name>PT737</name></trkpt>
<trkpt lat="53.415293" lon="-1.992185"><ele>329</ele><time>2023-03-31T10:21:23Z</time><name>PT738</name></trkpt>
<trkpt lat="53.415285" lon="-1.992138"><ele>329</ele><time>2023-03-31T10:21:27Z</time><name>PT739</name></trkpt>
<trkpt lat="53.415283" lon="-1.992078"><ele>329</ele><time>2023-03-31T10:21:31Z</time><name>PT740</name></trkpt>
<trkpt lat="53.415277" lon="-1.992036"><ele>328</ele><time>2023-03-31T10:21:34Z</time><name>PT741</name></trkpt>
<trkpt lat="53.415274" lon="-1.991977"><ele>328</ele><time>2023-03-31T10:21:38Z</time><name>PT742</name></trkpt>
<trkpt lat="53.415273" lon="-1.991923"><ele>329</ele><time>2023-03-31T10:21:41Z</time><name>PT743</name></trkpt>
<trkpt lat="53.415266" lon="-1.991855"><ele>330</ele><time>2023-03-31T10:21:45Z</time><name>PT744</name></trkpt>
<trkpt lat="53.415263" lon="-1.991798"><ele>330</ele><time>2023-03-31T10:21:48Z</time><name>PT745</name></trkpt>
<trkpt lat="53.415253" lon="-1.991730"><ele>330</ele><time>2023-03-31T10:21:52Z</time><name>PT746</name></trkpt>
<trkpt lat="53.415255" lon="-1.991658"><ele>331</ele><time>2023-03-31T10:21:55Z</time><name>PT747</name></trkpt>
<trkpt lat="53.415254" lon="-1.991561"><ele>331</ele><time>2023-03-31T10:21:59Z</time><name>PT748</name></trkpt>
<trkpt lat="53.415252" lon="-1.991499"><ele>331</ele><time>2023-03-31T10:22:03Z</time><name>PT749</name></trkpt>
<trkpt lat="53.415248" lon="-1.991438"><ele>331</ele><time>2023-03-31T10:22:06Z</time><name>PT750</name></trkpt>
<trkpt lat="53.415248" lon="-1.991384"><ele>331</ele><time>2023-03-31T10:22:09Z</time><name>PT751</name></trkpt>
<trkpt lat="53.415246" lon="-1.991329"><ele>332</ele><time>2023-03-31T10:22:12Z</time><name>PT752</name></trkpt>
<trkpt lat="53.415244" lon="-1.991263"><ele>332</ele><time>2023-03-31T10:22:15Z</time><name>PT753</name></trkpt>
<trkpt lat="53.415241" lon="-1.991185"><ele>332</ele><time>2023-03-31T10:22:19Z</time><name>PT754</name></trkpt>
<trkpt lat="53.415237" lon="-1.991129"><ele>332</ele><time>2023-03-31T10:22:22Z</time><name>PT755</name></trkpt>
<trkpt lat="53.415234" lon="-1.991044"><ele>333</ele><time>2023-03-31T10:22:26Z</time><name>PT756</name></trkpt>
<trkpt lat="53.415230" lon="-1.990982"><ele>332</ele><time>2023-03-31T10:22:29Z</time><name>PT757</name></trkpt>
<trkpt lat="53.415225" lon="-1.990896"><ele>332</ele><time>2023-03-31T10:22:33Z</time><name>PT758</name></trkpt>
<trkpt lat="53.415228" lon="-1.990803"><ele>333</ele><time>2023-03-31T10:22:37Z</time><name>PT759</name></trkpt>
<trkpt lat="53.415229" lon="-1.990737"><ele>332</ele><time>2023-03-31T10:22:40Z</time><name>PT760</name></trkpt>
<trkpt lat="53.415227" lon="-1.990647"><ele>333</ele><time>2023-03-31T10:22:44Z</time><name>PT761</name></trkpt>
<trkpt lat="53.415223" lon="-1.990585"><ele>333</ele><time>2023-03-31T10:22:47Z</time><name>PT762</name></trkpt>
<trkpt lat="53.415225" lon="-1.990498"><ele>332</ele><time>2023-03-31T10:22:51Z</time><name>PT763</name></trkpt>
<trkpt lat="53.415224" lon="-1.990419"><ele>333</ele><time>2023-03-31T10:22:55Z</time><name>PT764</name></trkpt>
<trkpt lat="53.415221" lon="-1.990339"><ele>333</ele><time>2023-03-31T10:22:59Z</time><name>PT765</name></trkpt>
<trkpt lat="53.415219" lon="-1.990276"><ele>333</ele><time>2023-03-31T10:23:02Z</time><name>PT766</name></trkpt>
<trkpt lat="53.415218" lon="-1.990214"><ele>334</ele><time>2023-03-31T10:23:05Z</time><name>PT767</name></trkpt>
<trkpt lat="53.415221" lon="-1.990147"><ele>334</ele><time>2023-03-31T10:23:08Z</time><name>PT768</name></trkpt>
<trkpt lat="53.415222" lon="-1.990080"><ele>334</ele><time>2023-03-31T10:23:12Z</time><name>PT769</name></trkpt>
<trkpt lat="53.415218" lon="-1.990023"><ele>334</ele><time>2023-03-31T10:23:15Z</time><name>PT770</name></trkpt>
<trkpt lat="53.415206" lon="-1.989975"><ele>334</ele><time>2023-03-31T10:23:18Z</time><name>PT771</name></trkpt>
<trkpt lat="53.415191" lon="-1.989869"><ele>334</ele><time>2023-03-31T10:23:22Z</time><name>PT772</name></trkpt>
<trkpt lat="53.415189" lon="-1.989793"><ele>333</ele><time>2023-03-31T10:23:26Z</time><name>PT773</name></trkpt>
<trkpt lat="53.415190" lon="-1.989734"><ele>333</ele><time>2023-03-31T10:23:29Z</time><name>PT774</name></trkpt>
<trkpt lat="53.415184" lon="-1.989675"><ele>332</ele><time>2023-03-31T10:23:33Z</time><name>PT775</name></trkpt>
<trkpt lat="53.415178" lon="-1.989607"><ele>332</ele><time>2023-03-31T10:23:37Z</time><name>PT776</name></trkpt>
<trkpt lat="53.415175" lon="-1.989535"><ele>332</ele><time>2023-03-31T10:23:41Z</time><name>PT777</name></trkpt>
<trkpt lat="53.415172" lon="-1.989454"><ele>332</ele><time>2023-03-31T10:23:45Z</time><name>PT778</name></trkpt>
<trkpt lat="53.415171" lon="-1.989393"><ele>332</ele><time>2023-03-31T10:23:48Z</time><name>PT779</name></trkpt>
<trkpt lat="53.415169" lon="-1.989320"><ele>332</ele><time>2023-03-31T10:23:51Z</time><name>PT780</name></trkpt>
<trkpt lat="53.415167" lon="-1.989253"><ele>333</ele><time>2023-03-31T10:23:54Z</time><name>PT781</name></trkpt>
<trkpt lat="53.415166" lon="-1.989165"><ele>333</ele><time>2023-03-31T10:23:58Z</time><name>PT782</name></trkpt>
<trkpt lat="53.415166" lon="-1.989106"><ele>333</ele><time>2023-03-31T10:24:01Z</time><name>PT783</name></trkpt>
<trkpt lat="53.415158" lon="-1.989026"><ele>333</ele><time>2023-03-31T10:24:05Z</time><name>PT784</name></trkpt>
<trkpt lat="53.415155" lon="-1.988964"><ele>333</ele><time>2023-03-31T10:24:08Z</time><name>PT785</name></trkpt>
<trkpt lat="53.415153" lon="-1.988901"><ele>334</ele><time>2023-03-31T10:24:11Z</time><name>PT786</name></trkpt>
<trkpt lat="53.415146" lon="-1.988838"><ele>334</ele><time>2023-03-31T10:24:14Z</time><name>PT787</name></trkpt>
<trkpt lat="53.415139" lon="-1.988757"><ele>335</ele><time>2023-03-31T10:24:18Z</time><name>PT788</name></trkpt>
<trkpt lat="53.415135" lon="-1.988700"><ele>336</ele><time>2023-03-31T10:24:21Z</time><name>PT789</name></trkpt>
<trkpt lat="53.415134" lon="-1.988613"><ele>335</ele><time>2023-03-31T10:24:25Z</time><name>PT790</name></trkpt>
<trkpt lat="53.415129" lon="-1.988541"><ele>335</ele><time>2023-03-31T10:24:28Z</time><name>PT791</name></trkpt>
<trkpt lat="53.415127" lon="-1.988481"><ele>335</ele><time>2023-03-31T10:24:31Z</time><name>PT792</name></trkpt>
<trkpt lat="53.415123" lon="-1.988411"><ele>335</ele><time>2023-03-31T10:24:35Z</time><name>PT793</name></trkpt>
<trkpt lat="53.415133" lon="-1.988366"><ele>335</ele><time>2023-03-31T10:24:38Z</time><name>PT794</name></trkpt>
<trkpt lat="53.415140" lon="-1.988290"><ele>335</ele><time>2023-03-31T10:24:42Z</time><name>PT795</name></trkpt>
<trkpt lat="53.415127" lon="-1.988264"><ele>335</ele><time>2023-03-31T10:24:45Z</time><name>PT796</name></trkpt>
<trkpt lat="53.415114" lon="-1.988184"><ele>335</ele><time>2023-03-31T10:24:49Z</time><name>PT797</name></trkpt>
<trkpt lat="53.415109" lon="-1.988104"><ele>334</ele><time>2023-03-31T10:24:53Z</time><name>PT798</name></trkpt>
<trkpt lat="53.415107" lon="-1.988053"><ele>335</ele><time>2023-03-31T10:24:56Z</time><name>PT799</name></trkpt>
<trkpt lat="53.415105" lon="-1.987972"><ele>334</ele><time>2023-03-31T10:25:00Z</time><name>PT800</name></trkpt>
<trkpt lat="53.415103" lon="-1.987921"><ele>334</ele><time>2023-03-31T10:25:03Z</time><name>PT801</name></trkpt>
<trkpt lat="53.415096" lon="-1.987851"><ele>335</ele><time>2023-03-31T10:25:07Z</time><name>PT802</name></trkpt>
<trkpt lat="53.415092" lon="-1.987767"><ele>335</ele><time>2023-03-31T10:25:11Z</time><name>PT803</name></trkpt>
<trkpt lat="53.415074" lon="-1.987721"><ele>335</ele><time>2023-03-31T10:25:15Z</time><name>PT804</name></trkpt>
<trkpt lat="53.415076" lon="-1.987681"><ele>337</ele><time>2023-03-31T10:25:18Z</time><name>PT805</name></trkpt>
<trkpt lat="53.415076" lon="-1.987621"><ele>337</ele><time>2023-03-31T10:25:21Z</time><name>PT806</name></trkpt>
<trkpt lat="53.415074" lon="-1.987576"><ele>337</ele><time>2023-03-31T10:25:24Z</time><name>PT807</name></trkpt>
<trkpt lat="53.415072" lon="-1.987513"><ele>337</ele><time>2023-03-31T10:25:28Z</time><name>PT808</name></trkpt>
<trkpt lat="53.415075" lon="-1.987447"><ele>337</ele><time>2023-03-31T10:25:32Z</time><name>PT809</name></trkpt>
<trkpt lat="53.415079" lon="-1.987401"><ele>338</ele><time>2023-03-31T10:25:35Z</time><name>PT810</name></trkpt>
<trkpt lat="53.415081" lon="-1.987337"><ele>338</ele><time>2023-03-31T10:25:39Z</time><name>PT811</name></trkpt>
<trkpt lat="53.415086" lon="-1.987288"><ele>339</ele><time>2023-03-31T10:25:42Z</time><name>PT812</name></trkpt>
<trkpt lat="53.415088" lon="-1.987246"><ele>339</ele><time>2023-03-31T10:25:45Z</time><name>PT813</name></trkpt>
<trkpt lat="53.415089" lon="-1.987205"><ele>339</ele><time>2023-03-31T10:25:48Z</time><name>PT814</name></trkpt>
<trkpt lat="53.415091" lon="-1.987139"><ele>339</ele><time>2023-03-31T10:25:52Z</time><name>PT815</name></trkpt>
<trkpt lat="53.415093" lon="-1.987088"><ele>339</ele><time>2023-03-31T10:25:55Z</time><name>PT816</name></trkpt>
<trkpt lat="53.415097" lon="-1.987023"><ele>340</ele><time>2023-03-31T10:25:59Z</time><name>PT817</name></trkpt>
<trkpt lat="53.415101" lon="-1.986974"><ele>340</ele><time>2023-03-31T10:26:02Z</time><name>PT818</name></trkpt>
<trkpt lat="53.415111" lon="-1.986911"><ele>340</ele><time>2023-03-31T10:26:06Z</time><name>PT819</name></trkpt>
<trkpt lat="53.415119" lon="-1.986843"><ele>341</ele><time>2023-03-31T10:26:10Z</time><name>PT820</name></trkpt>
<trkpt lat="53.415130" lon="-1.986778"><ele>342</ele><time>2023-03-31T10:26:14Z</time><name>PT821</name></trkpt>
<trkpt lat="53.415140" lon="-1.986721"><ele>342</ele><time>2023-03-31T10:26:17Z</time><name>PT822</name></trkpt>
<trkpt lat="53.415151" lon="-1.986655"><ele>343</ele><time>2023-03-31T10:26:21Z</time><name>PT823</name></trkpt>
<trkpt lat="53.415158" lon="-1.986607"><ele>343</ele><time>2023-03-31T10:26:24Z</time><name>PT824</name></trkpt>
<trkpt lat="53.415165" lon="-1.986555"><ele>343</ele><time>2023-03-31T10:26:27Z</time><name>PT825</name></trkpt>
<trkpt lat="53.415178" lon="-1.986485"><ele>344</ele><time>2023-03-31T10:26:31Z</time><name>PT826</name></trkpt>
<trkpt lat="53.415188" lon="-1.986436"><ele>344</ele><time>2023-03-31T10:26:34Z</time><name>PT827</name></trkpt>
<trkpt lat="53.415204" lon="-1.986372"><ele>345</ele><time>2023-03-31T10:26:38Z</time><name>PT828</name></trkpt>
<trkpt lat="53.415218" lon="-1.986297"><ele>345</ele><time>2023-03-31T10:26:42Z</time><name>PT829</name></trkpt>
<trkpt lat="53.415235" lon="-1.986221"><ele>346</ele><time>2023-03-31T10:26:46Z</time><name>PT830</name></trkpt>
<trkpt lat="53.415252" lon="-1.986153"><ele>346</ele><time>2023-03-31T10:26:50Z</time><name>PT831</name></trkpt>
<trkpt lat="53.415260" lon="-1.986086"><ele>345</ele><time>2023-03-31T10:26:53Z</time><name>PT832</name></trkpt>
<trkpt lat="53.415272" lon="-1.986038"><ele>345</ele><time>2023-03-31T10:26:56Z</time><name>PT833</name></trkpt>
<trkpt lat="53.415283" lon="-1.985987"><ele>345</ele><time>2023-03-31T10:26:59Z</time><name>PT834</name></trkpt>
<trkpt lat="53.415293" lon="-1.985937"><ele>345</ele><time>2023-03-31T10:27:02Z</time><name>PT835</name></trkpt>
<trkpt lat="53.415302" lon="-1.985887"><ele>345</ele><time>2023-03-31T10:27:05Z</time><name>PT836</name></trkpt>
<trkpt lat="53.415316" lon="-1.985818"><ele>345</ele><time>2023-03-31T10:27:09Z</time><name>PT837</name></trkpt>
<trkpt lat="53.415326" lon="-1.985767"><ele>345</ele><time>2023-03-31T10:27:12Z</time><name>PT838</name></trkpt>
<trkpt lat="53.415343" lon="-1.985692"><ele>345</ele><time>2023-03-31T10:27:16Z</time><name>PT839</name></trkpt>
<trkpt lat="53.415356" lon="-1.985639"><ele>346</ele><time>2023-03-31T10:27:19Z</time><name>PT840</name></trkpt>
<trkpt lat="53.415368" lon="-1.985568"><ele>346</ele><time>2023-03-31T10:27:23Z</time><name>PT841</name></trkpt>
<trkpt lat="53.415381" lon="-1.985517"><ele>346</ele><time>2023-03-31T10:27:26Z</time><name>PT842</name></trkpt>
<trkpt lat="53.415393" lon="-1.985461"><ele>347</ele><time>2023-03-31T10:27:29Z</time><name>PT843</name></trkpt>
<trkpt lat="53.415411" lon="-1.985386"><ele>347</ele><time>2023-03-31T10:27:33Z</time><name>PT844</name></trkpt>
<trkpt lat="53.415422" lon="-1.985330"><ele>347</ele><time>2023-03-31T10:27:36Z</time><name>PT845</name></trkpt>
<trkpt lat="53.415438" lon="-1.985256"><ele>347</ele><time>2023-03-31T10:27:40Z</time><name>PT846</name></trkpt>
<trkpt lat="53.415448" lon="-1.985171"><ele>346</ele><time>2023-03-31T10:27:44Z</time><name>PT847</name></trkpt>
<trkpt lat="53.415464" lon="-1.985118"><ele>346</ele><time>2023-03-31T10:27:48Z</time><name>PT848</name></trkpt>
<trkpt lat="53.415476" lon="-1.985065"><ele>347</ele><time>2023-03-31T10:27:51Z</time><name>PT849</name></trkpt>
<trkpt lat="53.415493" lon="-1.985015"><ele>347</ele><time>2023-03-31T10:27:54Z</time><name>PT850</name></trkpt>
<trkpt lat="53.415512" lon="-1.984946"><ele>347</ele><time>2023-03-31T10:27:58Z</time><name>PT851</name></trkpt>
<trkpt lat="53.415534" lon="-1.984876"><ele>347</ele><time>2023-03-31T10:28:02Z</time><name>PT852</name></trkpt>
<trkpt lat="53.415558" lon="-1.984802"><ele>348</ele><time>2023-03-31T10:28:06Z</time><name>PT853</name></trkpt>
<trkpt lat="53.415572" lon="-1.984735"><ele>348</ele><time>2023-03-31T10:28:10Z</time><name>PT854</name></trkpt>
<trkpt lat="53.415584" lon="-1.984683"><ele>349</ele><time>2023-03-31T10:28:13Z</time><name>PT855</name></trkpt>
<trkpt lat="53.415595" lon="-1.984631"><ele>349</ele><time>2023-03-31T10:28:16Z</time><name>PT856</name></trkpt>
<trkpt lat="53.415609" lon="-1.984560"><ele>350</ele><time>2023-03-31T10:28:20Z</time><name>PT857</name></trkpt>
<trkpt lat="53.415629" lon="-1.984487"><ele>351</ele><time>2023-03-31T10:28:24Z</time><name>PT858</name></trkpt>
<trkpt lat="53.415642" lon="-1.984427"><ele>352</ele><time>2023-03-31T10:28:27Z</time><name>PT859</name></trkpt>
<trkpt lat="53.415655" lon="-1.984373"><ele>352</ele><time>2023-03-31T10:28:30Z</time><name>PT860</name></trkpt>
<trkpt lat="53.415665" lon="-1.984319"><ele>352</ele><time>2023-03-31T10:28:33Z</time><name>PT861</name></trkpt>
<trkpt lat="53.415677" lon="-1.984255"><ele>352</ele><time>2023-03-31T10:28:37Z</time><name>PT862</name></trkpt>
<trkpt lat="53.415687" lon="-1.984206"><ele>352</ele><time>2023-03-31T10:28:40Z</time><name>PT863</name></trkpt>
<trkpt lat="53.415702" lon="-1.984141"><ele>352</ele><time>2023-03-31T10:28:44Z</time><name>PT864</name></trkpt>
<trkpt lat="53.415717" lon="-1.984079"><ele>353</ele><time>2023-03-31T10:28:48Z</time><name>PT865</name></trkpt>
<trkpt lat="53.415732" lon="-1.984024"><ele>354</ele><time>2023-03-31T10:28:52Z</time><name>PT866</name></trkpt>
<trkpt lat="53.415746" lon="-1.983975"><ele>355</ele><time>2023-03-31T10:28:55Z</time><name>PT867</name></trkpt>
<trkpt lat="53.415762" lon="-1.983919"><ele>356</ele><time>2023-03-31T10:28:59Z</time><name>PT868</name></trkpt>
<trkpt lat="53.415776" lon="-1.983857"><ele>356</ele><time>2023-03-31T10:29:03Z</time><name>PT869</name></trkpt>
<trkpt lat="53.415788" lon="-1.983812"><ele>357</ele><time>2023-03-31T10:29:06Z</time><name>PT870</name></trkpt>
<trkpt lat="53.415799" lon="-1.983767"><ele>357</ele><time>2023-03-31T10:29:09Z</time><name>PT871</name></trkpt>
<trkpt lat="53.415814" lon="-1.983705"><ele>358</ele><time>2023-03-31T10:29:13Z</time><name>PT872</name></trkpt>
<trkpt lat="53.415829" lon="-1.983644"><ele>357</ele><time>2023-03-31T10:29:17Z</time><name>PT873</name></trkpt>
<trkpt lat="53.415842" lon="-1.983601"><ele>358</ele><time>2023-03-31T10:29:20Z</time><name>PT874</name></trkpt>
<trkpt lat="53.415854" lon="-1.983561"><ele>359</ele><time>2023-03-31T10:29:23Z</time><name>PT875</name></trkpt>
<trkpt lat="53.415863" lon="-1.983516"><ele>359</ele><time>2023-03-31T10:29:26Z</time><name>PT876</name></trkpt>
<trkpt lat="53.415878" lon="-1.983453"><ele>359</ele><time>2023-03-31T10:29:30Z</time><name>PT877</name></trkpt>
<trkpt lat="53.415890" lon="-1.983400"><ele>361</ele><time>2023-03-31T10:29:33Z</time><name>PT878</name></trkpt>
<trkpt lat="53.415894" lon="-1.983351"><ele>362</ele><time>2023-03-31T10:29:36Z</time><name>PT879</name></trkpt>
<trkpt lat="53.415894" lon="-1.983285"><ele>361</ele><time>2023-03-31T10:29:40Z</time><name>PT880</name></trkpt>
<trkpt lat="53.415893" lon="-1.983216"><ele>364</ele><time>2023-03-31T10:29:44Z</time><name>PT881</name></trkpt>
<trkpt lat="53.415894" lon="-1.983169"><ele>364</ele><time>2023-03-31T10:29:47Z</time><name>PT882</name></trkpt>
<trkpt lat="53.415899" lon="-1.983078"><ele>365</ele><time>2023-03-31T10:29:51Z</time><name>PT883</name></trkpt>
<trkpt lat="53.415902" lon="-1.983005"><ele>364</ele><time>2023-03-31T10:29:54Z</time><name>PT884</name></trkpt>
<trkpt lat="53.415898" lon="-1.982945"><ele>364</ele><time>2023-03-31T10:29:58Z</time><name>PT885</name></trkpt>
<trkpt lat="53.415900" lon="-1.982882"><ele>365</ele><time>2023-03-31T10:30:02Z</time><name>PT886</name></trkpt>
<trkpt lat="53.415897" lon="-1.982814"><ele>365</ele><time>2023-03-31T10:30:06Z</time><name>PT887</name></trkpt>
<trkpt lat="53.415890" lon="-1.982770"><ele>366</ele><time>2023-03-31T10:30:09Z</time><name>PT888</name></trkpt>
<trkpt lat="53.415882" lon="-1.982709"><ele>366</ele><time>2023-03-31T10:30:13Z</time><name>PT889</name></trkpt>
<trkpt lat="53.415883" lon="-1.982660"><ele>366</ele><time>2023-03-31T10:30:16Z</time><name>PT890</name></trkpt>
<trkpt lat="53.415882" lon="-1.982599"><ele>367</ele><time>2023-03-31T10:30:20Z</time><name>PT891</name></trkpt>
<trkpt lat="53.415878" lon="-1.982545"><ele>367</ele><time>2023-03-31T10:30:24Z</time><name>PT892</name></trkpt>
<trkpt lat="53.415872" lon="-1.982495"><ele>367</ele><time>2023-03-31T10:30:27Z</time><name>PT893</name></trkpt>
<trkpt lat="53.415870" lon="-1.982422"><ele>368</ele><time>2023-03-31T10:30:31Z</time><name>PT894</name></trkpt>
<trkpt lat="53.415866" lon="-1.982368"><ele>368</ele><time>2023-03-31T10:30:34Z</time><name>PT895</name></trkpt>
<trkpt lat="53.415863" lon="-1.982323"><ele>368</ele><time>2023-03-31T10:30:37Z</time><name>PT896</name></trkpt>
<trkpt lat="53.415860" lon="-1.982276"><ele>368</ele><time>2023-03-31T10:30:40Z</time><name>PT897</name></trkpt>
<trkpt lat="53.415860" lon="-1.982218"><ele>368</ele><time>2023-03-31T10:30:44Z</time><name>PT898</name></trkpt>
<trkpt lat="53.415856" lon="-1.982167"><ele>369</ele><time>2023-03-31T10:30:47Z</time><name>PT899</name></trkpt>
<trkpt lat="53.415852" lon="-1.982107"><ele>369</ele><time>2023-03-31T10:30:50Z</time><name>PT900</name></trkpt>
<trkpt lat="53.415849" lon="-1.982029"><ele>370</ele><time>2023-03-31T10:30:54Z</time><name>PT901</name></trkpt>
<trkpt lat="53.415849" lon="-1.981980"><ele>371</ele><time>2023-03-31T10:30:57Z</time><name>PT902</name></trkpt>
<trkpt lat="53.415849" lon="-1.981931"><ele>371</ele><time>2023-03-31T10:31:00Z</time><name>PT903</name></trkpt>
<trkpt lat="53.415848" lon="-1.981894"><ele>372</ele><time>2023-03-31T10:31:03Z</time><name>PT904</name></trkpt>
<trkpt lat="53.415849" lon="-1.981844"><ele>371</ele><time>2023-03-31T10:31:07Z</time><name>PT905</name></trkpt>
<trkpt lat="53.415846" lon="-1.981838"><ele>371</ele><time>2023-03-31T10:31:25Z</time><name>PT906</name></trkpt>
<trkpt lat="53.415841" lon="-1.981793"><ele>372</ele><time>2023-03-31T10:31:56Z</time><name>PT907</name></trkpt>
<trkpt lat="53.415844" lon="-1.981788"><ele>372</ele><time>2023-03-31T10:31:59Z</time><name>PT908</name></trkpt>
<trkpt lat="53.415844" lon="-1.981753"><ele>373</ele><time>2023-03-31T10:32:03Z</time><name>PT909</name></trkpt>
<trkpt lat="53.415841" lon="-1.981730"><ele>371</ele><time>2023-03-31T10:32:10Z</time><name>PT910</name></trkpt>
<trkpt lat="53.415841" lon="-1.981725"><ele>372</ele><time>2023-03-31T10:32:14Z</time><name>PT911</name></trkpt>
<trkpt lat="53.415836" lon="-1.981730"><ele>372</ele><time>2023-03-31T10:33:18Z</time><name>PT912</name></trkpt>
<trkpt lat="53.415849" lon="-1.981721"><ele>372</ele><time>2023-03-31T10:33:22Z</time><name>PT913</name></trkpt>
<trkpt lat="53.415861" lon="-1.981710"><ele>373</ele><time>2023-03-31T10:33:25Z</time><name>PT914</name></trkpt>
<trkpt lat="53.415877" lon="-1.981710"><ele>375</ele><time>2023-03-31T10:33:29Z</time><name>PT915</name></trkpt>
<trkpt lat="53.415879" lon="-1.981711"><ele>376</ele><time>2023-03-31T10:33:32Z</time><name>PT916</name></trkpt>
<trkpt lat="53.415863" lon="-1.981708"><ele>377</ele><time>2023-03-31T10:34:24Z</time><name>PT917</name></trkpt>
<trkpt lat="53.415861" lon="-1.981706"><ele>376</ele><time>2023-03-31T10:34:28Z</time><name>PT918</name></trkpt>
<trkpt lat="53.415858" lon="-1.981695"><ele>376</ele><time>2023-03-31T10:34:47Z</time><name>PT919</name></trkpt>
<trkpt lat="53.415857" lon="-1.981692"><ele>377</ele><time>2023-03-31T10:34:50Z</time><name>PT920</name></trkpt>
<trkpt lat="53.415852" lon="-1.981677"><ele>377</ele><time>2023-03-31T10:35:32Z</time><name>PT921</name></trkpt>
<trkpt lat="53.415852" lon="-1.981677"><ele>377</ele><time>2023-03-31T10:35:35Z</time><name>PT922</name></trkpt>
<trkpt lat="53.415861" lon="-1.981686"><ele>377</ele><time>2023-03-31T10:36:34Z</time><name>PT923</name></trkpt>
<trkpt lat="53.415858" lon="-1.981702"><ele>378</ele><time>2023-03-31T10:39:13Z</time><name>PT924</name></trkpt>
<trkpt lat="53.415862" lon="-1.981700"><ele>379</ele><time>2023-03-31T10:39:17Z</time><name>PT925</name></trkpt>
<trkpt lat="53.415862" lon="-1.981697"><ele>379</ele><time>2023-03-31T10:39:20Z</time><name>PT926</name></trkpt>
<trkpt lat="53.415860" lon="-1.981702"><ele>378</ele><time>2023-03-31T10:40:06Z</time><name>PT927</name></trkpt>
<trkpt lat="53.415857" lon="-1.981703"><ele>378</ele><time>2023-03-31T10:40:32Z</time><name>PT928</name></trkpt>
<trkpt lat="53.415857" lon="-1.981695"><ele>377</ele><time>2023-03-31T10:40:35Z</time><name>PT929</name></trkpt>
<trkpt lat="53.415859" lon="-1.981694"><ele>376</ele><time>2023-03-31T10:40:39Z</time><name>PT930</name></trkpt>
<trkpt lat="53.415854" lon="-1.981629"><ele>376</ele><time>2023-03-31T10:41:35Z</time><name>PT931</name></trkpt>
<trkpt lat="53.415865" lon="-1.981583"><ele>376</ele><time>2023-03-31T10:41:39Z</time><name>PT932</name></trkpt>
<trkpt lat="53.415892" lon="-1.981587"><ele>375</ele><time>2023-03-31T10:41:42Z</time><name>PT933</name></trkpt>
<trkpt lat="53.415921" lon="-1.981602"><ele>375</ele><time>2023-03-31T10:41:45Z</time><name>PT934</name></trkpt>
<trkpt lat="53.415957" lon="-1.981625"><ele>374</ele><time>2023-03-31T10:41:49Z</time><name>PT935</name></trkpt>
<trkpt lat="53.415990" lon="-1.981646"><ele>374</ele><time>2023-03-31T10:41:52Z</time><name>PT936</name></trkpt>
<trkpt lat="53.416024" lon="-1.981658"><ele>375</ele><time>2023-03-31T10:41:55Z</time><name>PT937</name></trkpt>
<trkpt lat="53.416060" lon="-1.981673"><ele>375</ele><time>2023-03-31T10:41:58Z</time><name>PT938</name></trkpt>
<trkpt lat="53.416091" lon="-1.981691"><ele>374</ele><time>2023-03-31T10:42:01Z</time><name>PT939</name></trkpt>
<trkpt lat="53.416129" lon="-1.981701"><ele>375</ele><time>2023-03-31T10:42:04Z</time><name>PT940</name></trkpt>
<trkpt lat="53.416148" lon="-1.981694"><ele>375</ele><time>2023-03-31T10:42:07Z</time><name>PT941</name></trkpt>
<trkpt lat="53.416156" lon="-1.981692"><ele>376</ele><time>2023-03-31T10:42:11Z</time><name>PT942</name></trkpt>
<trkpt lat="53.416167" lon="-1.981622"><ele>376</ele><time>2023-03-31T10:42:22Z</time><name>PT943</name></trkpt>
<trkpt lat="53.416168" lon="-1.981555"><ele>373</ele><time>2023-03-31T10:42:25Z</time><name>PT944</name></trkpt>
<trkpt lat="53.416168" lon="-1.981483"><ele>374</ele><time>2023-03-31T10:42:29Z</time><name>PT945</name></trkpt>
<trkpt lat="53.416168" lon="-1.981434"><ele>374</ele><time>2023-03-31T10:42:32Z</time><name>PT946</name></trkpt>
<trkpt lat="53.416171" lon="-1.981369"><ele>375</ele><time>2023-03-31T10:42:36Z</time><name>PT947</name></trkpt>
<trkpt lat="53.416164" lon="-1.981303"><ele>375</ele><time>2023-03-31T10:42:40Z</time><name>PT948</name></trkpt>
<trkpt lat="53.416152" lon="-1.981243"><ele>375</ele><time>2023-03-31T10:42:44Z</time><name>PT949</name></trkpt>
<trkpt lat="53.416150" lon="-1.981194"><ele>374</ele><time>2023-03-31T10:42:47Z</time><name>PT950</name></trkpt>
<trkpt lat="53.416152" lon="-1.981141"><ele>375</ele><time>2023-03-31T10:42:50Z</time><name>PT951</name></trkpt>
<trkpt lat="53.416150" lon="-1.981091"><ele>375</ele><time>2023-03-31T10:42:53Z</time><name>PT952</name></trkpt>
<trkpt lat="53.416154" lon="-1.981026"><ele>376</ele><time>2023-03-31T10:42:57Z</time><name>PT953</name></trkpt>
<trkpt lat="53.416153" lon="-1.980955"><ele>378</ele><time>2023-03-31T10:43:01Z</time><name>PT954</name></trkpt>
<trkpt lat="53.416149" lon="-1.980912"><ele>378</ele><time>2023-03-31T10:43:04Z</time><name>PT955</name></trkpt>
<trkpt lat="53.416142" lon="-1.980846"><ele>379</ele><time>2023-03-31T10:43:08Z</time><name>PT956</name></trkpt>
<trkpt lat="53.416139" lon="-1.980775"><ele>378</ele><time>2023-03-31T10:43:12Z</time><name>PT957</name></trkpt>
<trkpt lat="53.416135" lon="-1.980730"><ele>378</ele><time>2023-03-31T10:43:15Z</time><name>PT958</name></trkpt>
<trkpt lat="53.416133" lon="-1.980668"><ele>378</ele><time>2023-03-31T10:43:19Z</time><name>PT959</name></trkpt>
<trkpt lat="53.416136" lon="-1.980617"><ele>379</ele><time>2023-03-31T10:43:22Z</time><name>PT960</name></trkpt>
<trkpt lat="53.416135" lon="-1.980568"><ele>378</ele><time>2023-03-31T10:43:25Z</time><name>PT961</name></trkpt>
<trkpt lat="53.416136" lon="-1.980518"><ele>379</ele><time>2023-03-31T10:43:28Z</time><name>PT962</name></trkpt>
<trkpt lat="53.416137" lon="-1.980468"><ele>380</ele><time>2023-03-31T10:43:31Z</time><name>PT963</name></trkpt>
<trkpt lat="53.416136" lon="-1.980425"><ele>380</ele><time>2023-03-31T10:43:34Z</time><name>PT964</name></trkpt>
<trkpt lat="53.416135" lon="-1.980379"><ele>378</ele><time>2023-03-31T10:43:38Z</time><name>PT965</name></trkpt>
<trkpt lat="53.416132" lon="-1.980341"><ele>380</ele><time>2023-03-31T10:43:41Z</time><name>PT966</name></trkpt>
<trkpt lat="53.416135" lon="-1.980329"><ele>381</ele><time>2023-03-31T10:43:45Z</time><name>PT967</name></trkpt>
<trkpt lat="53.416138" lon="-1.980292"><ele>381</ele><time>2023-03-31T10:43:49Z</time><name>PT968</name></trkpt>
<trkpt lat="53.416136" lon="-1.980286"><ele>381</ele><time>2023-03-31T10:43:53Z</time><name>PT969</name></trkpt>
<trkpt lat="53.416121" lon="-1.980266"><ele>381</ele><time>2023-03-31T10:43:57Z</time><name>PT970</name></trkpt>
<trkpt lat="53.416126" lon="-1.980270"><ele>381</ele><time>2023-03-31T10:44:01Z</time><name>PT971</name></trkpt>
<trkpt lat="53.416136" lon="-1.980274"><ele>381</ele><time>2023-03-31T10:44:05Z</time><name>PT972</name></trkpt>
<trkpt lat="53.416146" lon="-1.980285"><ele>382</ele><time>2023-03-31T10:44:09Z</time><name>PT973</name></trkpt>
<trkpt lat="53.416146" lon="-1.980294"><ele>382</ele><time>2023-03-31T10:44:13Z</time><name>PT974</name></trkpt>
<trkpt lat="53.416158" lon="-1.980316"><ele>381</ele><time>2023-03-31T10:44:17Z</time><name>PT975</name></trkpt>
<trkpt lat="53.416198" lon="-1.980302"><ele>382</ele><time>2023-03-31T10:44:21Z</time><name>PT976</name></trkpt>
<trkpt lat="53.416223" lon="-1.980289"><ele>383</ele><time>2023-03-31T10:44:24Z</time><name>PT977</name></trkpt>
<trkpt lat="53.416237" lon="-1.980282"><ele>384</ele><time>2023-03-31T10:44:27Z</time><name>PT978</name></trkpt>
<trkpt lat="53.416238" lon="-1.980279"><ele>384</ele><time>2023-03-31T10:44:30Z</time><name>PT979</name></trkpt>
<trkpt lat="53.416273" lon="-1.980291"><ele>384</ele><time>2023-03-31T10:44:34Z</time><name>PT980</name></trkpt>
<trkpt lat="53.416299" lon="-1.980298"><ele>384</ele><time>2023-03-31T10:44:38Z</time><name>PT981</name></trkpt>
<trkpt lat="53.416341" lon="-1.980301"><ele>384</ele><time>2023-03-31T10:44:42Z</time><name>PT982</name></trkpt>
<trkpt lat="53.416382" lon="-1.980309"><ele>384</ele><time>2023-03-31T10:44:46Z</time><name>PT983</name></trkpt>
<trkpt lat="53.416427" lon="-1.980328"><ele>384</ele><time>2023-03-31T10:44:50Z</time><name>PT984</name></trkpt>
<trkpt lat="53.416461" lon="-1.980337"><ele>384</ele><time>2023-03-31T10:44:53Z</time><name>PT985</name></trkpt>
<trkpt lat="53.416507" lon="-1.980343"><ele>384</ele><time>2023-03-31T10:44:57Z</time><name>PT986</name></trkpt>
<trkpt lat="53.416550" lon="-1.980354"><ele>385</ele><time>2023-03-31T10:45:01Z</time><name>PT987</name></trkpt>
<trkpt lat="53.416598" lon="-1.980371"><ele>384</ele><time>2023-03-31T10:45:05Z</time><name>PT988</name></trkpt>
<trkpt lat="53.416634" lon="-1.980381"><ele>384</ele><time>2023-03-31T10:45:08Z</time><name>PT989</name></trkpt>
<trkpt lat="53.416670" lon="-1.980393"><ele>384</ele><time>2023-03-31T10:45:11Z</time><name>PT990</name></trkpt>
<trkpt lat="53.416719" lon="-1.980403"><ele>385</ele><time>2023-03-31T10:45:15Z</time><name>PT991</name></trkpt>
<trkpt lat="53.416769" lon="-1.980430"><ele>385</ele><time>2023-03-31T10:45:19Z</time><name>PT992</name></trkpt>
<trkpt lat="53.416808" lon="-1.980447"><ele>385</ele><time>2023-03-31T10:45:22Z</time><name>PT993</name></trkpt>
<trkpt lat="53.416855" lon="-1.980478"><ele>385</ele><time>2023-03-31T10:45:26Z</time><name>PT994</name></trkpt>
<trkpt lat="53.416891" lon="-1.980506"><ele>385</ele><time>2023-03-31T10:45:29Z</time><name>PT995</name></trkpt>
<trkpt lat="53.416925" lon="-1.980530"><ele>385</ele><time>2023-03-31T10:45:32Z</time><name>PT996</name></trkpt>
<trkpt lat="53.416969" lon="-1.980562"><ele>385</ele><time>2023-03-31T10:45:36Z</time><name>PT997</name></trkpt>
<trkpt lat="53.417015" lon="-1.980585"><ele>385</ele><time>2023-03-31T10:45:40Z</time><name>PT998</name></trkpt>
<trkpt lat="53.417051" lon="-1.980596"><ele>385</ele><time>2023-03-31T10:45:43Z</time><name>PT999</name></trkpt>
<trkpt lat="53.417101" lon="-1.980624"><ele>385</ele><time>2023-03-31T10:45:47Z</time><name>PT1000</name></trkpt>
<trkpt lat="53.417147" lon="-1.980646"><ele>385</ele><time>2023-03-31T10:45:51Z</time><name>PT1001</name></trkpt>
<trkpt lat="53.417186" lon="-1.980657"><ele>385</ele><time>2023-03-31T10:45:54Z</time><name>PT1002</name></trkpt>
<trkpt lat="53.417218" lon="-1.980667"><ele>386</ele><time>2023-03-31T10:45:57Z</time><name>PT1003</name></trkpt>
<trkpt lat="53.417264" lon="-1.980692"><ele>387</ele><time>2023-03-31T10:46:01Z</time><name>PT1004</name></trkpt>
<trkpt lat="53.417311" lon="-1.980725"><ele>387</ele><time>2023-03-31T10:46:05Z</time><name>PT1005</name></trkpt>
<trkpt lat="53.417356" lon="-1.980752"><ele>388</ele><time>2023-03-31T10:46:09Z</time><name>PT1006</name></trkpt>
<trkpt lat="53.417386" lon="-1.980769"><ele>388</ele><time>2023-03-31T10:46:12Z</time><name>PT1007</name></trkpt>
<trkpt lat="53.417432" lon="-1.980794"><ele>388</ele><time>2023-03-31T10:46:16Z</time><name>PT1008</name></trkpt>
<trkpt lat="53.417477" lon="-1.980809"><ele>388</ele><time>2023-03-31T10:46:20Z</time><name>PT1009</name></trkpt>
<trkpt lat="53.417516" lon="-1.980820"><ele>389</ele><time>2023-03-31T10:46:23Z</time><name>PT1010</name></trkpt>
<trkpt lat="53.417567" lon="-1.980832"><ele>390</ele><time>2023-03-31T10:46:27Z</time><name>PT1011</name></trkpt>
<trkpt lat="53.417601" lon="-1.980834"><ele>390</ele><time>2023-03-31T10:46:30Z</time><name>PT1012</name></trkpt>
<trkpt lat="53.417645" lon="-1.980848"><ele>390</ele><time>2023-03-31T10:46:34Z</time><name>PT1013</name></trkpt>
<trkpt lat="53.417682" lon="-1.980861"><ele>391</ele><time>2023-03-31T10:46:37Z</time><name>PT1014</name></trkpt>
<trkpt lat="53.417731" lon="-1.980870"><ele>392</ele><time>2023-03-31T10:46:41Z</time><name>PT1015</name></trkpt>
<trkpt lat="53.417765" lon="-1.980874"><ele>391</ele><time>2023-03-31T10:46:44Z</time><name>PT1016</name></trkpt>
<trkpt lat="53.417805" lon="-1.980880"><ele>392</ele><time>2023-03-31T10:46:47Z</time><name>PT1017</name></trkpt>
<trkpt lat="53.417841" lon="-1.980877"><ele>391</ele><time>2023-03-31T10:46:50Z</time><name>PT1018</name></trkpt>
<trkpt lat="53.417889" lon="-1.980884"><ele>392</ele><time>2023-03-31T10:46:54Z</time><name>PT1019</name></trkpt>
<trkpt lat="53.417921" lon="-1.980887"><ele>392</ele><time>2023-03-31T10:46:57Z</time><name>PT1020</name></trkpt>
<trkpt lat="53.417954" lon="-1.980881"><ele>392</ele><time>2023-03-31T10:47:00Z</time><name>PT1021</name></trkpt>
<trkpt lat="53.417986" lon="-1.980876"><ele>392</ele><time>2023-03-31T10:47:03Z</time><name>PT1022</name></trkpt>
<trkpt lat="53.418032" lon="-1.980870"><ele>391</ele><time>2023-03-31T10:47:07Z</time><name>PT1023</name></trkpt>
<trkpt lat="53.418079" lon="-1.980858"><ele>391</ele><time>2023-03-31T10:47:11Z</time><name>PT1024</name></trkpt>
<trkpt lat="53.418121" lon="-1.980846"><ele>392</ele><time>2023-03-31T10:47:14Z</time><name>PT1025</name></trkpt>
<trkpt lat="53.418152" lon="-1.980837"><ele>391</ele><time>2023-03-31T10:47:17Z</time><name>PT1026</name></trkpt>
<trkpt lat="53.418185" lon="-1.980833"><ele>392</ele><time>2023-03-31T10:47:20Z</time><name>PT1027</name></trkpt>
<trkpt lat="53.418224" lon="-1.980832"><ele>390</ele><time>2023-03-31T10:47:24Z</time><name>PT1028</name></trkpt>
<trkpt lat="53.418266" lon="-1.980817"><ele>390</ele><time>2023-03-31T10:47:28Z</time><name>PT1029</name></trkpt>
<trkpt lat="53.418305" lon="-1.980803"><ele>389</ele><time>2023-03-31T10:47:32Z</time><name>PT1030</name></trkpt>
<trkpt lat="53.418337" lon="-1.980794"><ele>389</ele><time>2023-03-31T10:47:35Z</time><name>PT1031</name></trkpt>
<trkpt lat="53.418369" lon="-1.980778"><ele>389</ele><time>2023-03-31T10:47:38Z</time><name>PT1032</name></trkpt>
<trkpt lat="53.418413" lon="-1.980747"><ele>388</ele><time>2023-03-31T10:47:42Z</time><name>PT1033</name></trkpt>
<trkpt lat="53.418444" lon="-1.980731"><ele>389</ele><time>2023-03-31T10:47:45Z</time><name>PT1034</name></trkpt>
<trkpt lat="53.418476" lon="-1.980708"><ele>390</ele><time>2023-03-31T10:47:48Z</time><name>PT1035</name></trkpt>
<trkpt lat="53.418511" lon="-1.980668"><ele>390</ele><time>2023-03-31T10:47:52Z</time><name>PT1036</name></trkpt>
<trkpt lat="53.418539" lon="-1.980624"><ele>387</ele><time>2023-03-31T10:47:56Z</time><name>PT1037</name></trkpt>
<trkpt lat="53.418567" lon="-1.980590"><ele>388</ele><time>2023-03-31T10:47:59Z</time><name>PT1038</name></trkpt>
<trkpt lat="53.418590" lon="-1.980551"><ele>386</ele><time>2023-03-31T10:48:02Z</time><name>PT1039</name></trkpt>
<trkpt lat="53.418619" lon="-1.980510"><ele>386</ele><time>2023-03-31T10:48:05Z</time><name>PT1040</name></trkpt>
<trkpt lat="53.418653" lon="-1.980448"><ele>387</ele><time>2023-03-31T10:48:09Z</time><name>PT1041</name></trkpt>
<trkpt lat="53.418701" lon="-1.980379"><ele>388</ele><time>2023-03-31T10:48:13Z</time><name>PT1042</name></trkpt>
<trkpt lat="53.418730" lon="-1.980343"><ele>389</ele><time>2023-03-31T10:48:16Z</time><name>PT1043</name></trkpt>
<trkpt lat="53.418764" lon="-1.980291"><ele>389</ele><time>2023-03-31T10:48:20Z</time><name>PT1044</name></trkpt>
<trkpt lat="53.418796" lon="-1.980235"><ele>389</ele><time>2023-03-31T10:48:24Z</time><name>PT1045</name></trkpt>
<trkpt lat="53.418819" lon="-1.980188"><ele>389</ele><time>2023-03-31T10:48:27Z</time><name>PT1046</name></trkpt>
<trkpt lat="53.418844" lon="-1.980129"><ele>388</ele><time>2023-03-31T10:48:30Z</time><name>PT1047</name></trkpt>
<trkpt lat="53.418890" lon="-1.980049"><ele>386</ele><time>2023-03-31T10:48:34Z</time><name>PT1048</name></trkpt>
<trkpt lat="53.418913" lon="-1.979987"><ele>386</ele><time>2023-03-31T10:48:37Z</time><name>PT1049</name></trkpt>
<trkpt lat="53.418949" lon="-1.979927"><ele>386</ele><time>2023-03-31T10:48:41Z</time><name>PT1050</name></trkpt>
<trkpt lat="53.418984" lon="-1.979870"><ele>386</ele><time>2023-03-31T10:48:45Z</time><name>PT1051</name></trkpt>
<trkpt lat="53.419013" lon="-1.979815"><ele>387</ele><time>2023-03-31T10:48:49Z</time><name>PT1052</name></trkpt>
<trkpt lat="53.419039" lon="-1.979747"><ele>387</ele><time>2023-03-31T10:48:53Z</time><name>PT1053</name></trkpt>
<trkpt lat="53.419073" lon="-1.979691"><ele>389</ele><time>2023-03-31T10:48:57Z</time><name>PT1054</name></trkpt>
<trkpt lat="53.419100" lon="-1.979647"><ele>390</ele><time>2023-03-31T10:49:00Z</time><name>PT1055</name></trkpt>
<trkpt lat="53.419135" lon="-1.979596"><ele>390</ele><time>2023-03-31T10:49:04Z</time><name>PT1056</name></trkpt>
<trkpt lat="53.419161" lon="-1.979557"><ele>391</ele><time>2023-03-31T10:49:07Z</time><name>PT1057</name></trkpt>
<trkpt lat="53.419199" lon="-1.979501"><ele>391</ele><time>2023-03-31T10:49:11Z</time><name>PT1058</name></trkpt>
<trkpt lat="53.419223" lon="-1.979458"><ele>391</ele><time>2023-03-31T10:49:14Z</time><name>PT1059</name></trkpt>
<trkpt lat="53.419243" lon="-1.979420"><ele>391</ele><time>2023-03-31T10:49:17Z</time><name>PT1060</name></trkpt>
<trkpt lat="53.419270" lon="-1.979384"><ele>391</ele><time>2023-03-31T10:49:20Z</time><name>PT1061</name></trkpt>
<trkpt lat="53.419300" lon="-1.979323"><ele>391</ele><time>2023-03-31T10:49:24Z</time><name>PT1062</name></trkpt>
<trkpt lat="53.419329" lon="-1.979261"><ele>391</ele><time>2023-03-31T10:49:28Z</time><name>PT1063</name></trkpt>
<trkpt lat="53.419355" lon="-1.979215"><ele>392</ele><time>2023-03-31T10:49:31Z</time><name>PT1064</name></trkpt>
<trkpt lat="53.419380" lon="-1.979169"><ele>392</ele><time>2023-03-31T10:49:34Z</time><name>PT1065</name></trkpt>
<trkpt lat="53.419403" lon="-1.979126"><ele>393</ele><time>2023-03-31T10:49:37Z</time><name>PT1066</name></trkpt>
<trkpt lat="53.419425" lon="-1.979076"><ele>393</ele><time>2023-03-31T10:49:40Z</time><name>PT1067</name></trkpt>
<trkpt lat="53.419447" lon="-1.979029"><ele>393</ele><time>2023-03-31T10:49:43Z</time><name>PT1068</name></trkpt>
<trkpt lat="53.419476" lon="-1.978971"><ele>393</ele><time>2023-03-31T10:49:47Z</time><name>PT1069</name></trkpt>
<trkpt lat="53.419500" lon="-1.978927"><ele>392</ele><time>2023-03-31T10:49:50Z</time><name>PT1070</name></trkpt>
<trkpt lat="53.419530" lon="-1.978864"><ele>393</ele><time>2023-03-31T10:49:54Z</time><name>PT1071</name></trkpt>
<trkpt lat="53.419564" lon="-1.978797"><ele>392</ele><time>2023-03-31T10:49:58Z</time><name>PT1072</name></trkpt>
<trkpt lat="53.419596" lon="-1.978727"><ele>394</ele><time>2023-03-31T10:50:02Z</time><name>PT1073</name></trkpt>
<trkpt lat="53.419617" lon="-1.978683"><ele>394</ele><time>2023-03-31T10:50:05Z</time><name>PT1074</name></trkpt>
<trkpt lat="53.419646" lon="-1.978622"><ele>395</ele><time>2023-03-31T10:50:09Z</time><name>PT1075</name></trkpt>
<trkpt lat="53.419675" lon="-1.978559"><ele>395</ele><time>2023-03-31T10:50:13Z</time><name>PT1076</name></trkpt>
<trkpt lat="53.419696" lon="-1.978517"><ele>396</ele><time>2023-03-31T10:50:16Z</time><name>PT1077</name></trkpt>
<trkpt lat="53.419716" lon="-1.978468"><ele>397</ele><time>2023-03-31T10:50:19Z</time><name>PT1078</name></trkpt>
<trkpt lat="53.419732" lon="-1.978420"><ele>398</ele><time>2023-03-31T10:50:22Z</time><name>PT1079</name></trkpt>
<trkpt lat="53.419767" lon="-1.978368"><ele>396</ele><time>2023-03-31T10:50:26Z</time><name>PT1080</name></trkpt>
<trkpt lat="53.419790" lon="-1.978311"><ele>396</ele><time>2023-03-31T10:50:30Z</time><name>PT1081</name></trkpt>
<trkpt lat="53.419823" lon="-1.978252"><ele>395</ele><time>2023-03-31T10:50:34Z</time><name>PT1082</name></trkpt>
<trkpt lat="53.419856" lon="-1.978188"><ele>394</ele><time>2023-03-31T10:50:38Z</time><name>PT1083</name></trkpt>
<trkpt lat="53.419884" lon="-1.978144"><ele>395</ele><time>2023-03-31T10:50:41Z</time><name>PT1084</name></trkpt>
<trkpt lat="53.419904" lon="-1.978105"><ele>395</ele><time>2023-03-31T10:50:44Z</time><name>PT1085</name></trkpt>
<trkpt lat="53.419922" lon="-1.978063"><ele>396</ele><time>2023-03-31T10:50:47Z</time><name>PT1086</name></trkpt>
<trkpt lat="53.419950" lon="-1.978003"><ele>396</ele><time>2023-03-31T10:50:51Z</time><name>PT1087</name></trkpt>
<trkpt lat="53.419970" lon="-1.977954"><ele>395</ele><time>2023-03-31T10:50:54Z</time><name>PT1088</name></trkpt>
<trkpt lat="53.419992" lon="-1.977905"><ele>396</ele><time>2023-03-31T10:50:57Z</time><name>PT1089</name></trkpt>
<trkpt lat="53.420010" lon="-1.977859"><ele>393</ele><time>2023-03-31T10:51:00Z</time><name>PT1090</name></trkpt>
<trkpt lat="53.420032" lon="-1.977814"><ele>394</ele><time>2023-03-31T10:51:03Z</time><name>PT1091</name></trkpt>
<trkpt lat="53.420058" lon="-1.977757"><ele>394</ele><time>2023-03-31T10:51:07Z</time><name>PT1092</name></trkpt>
<trkpt lat="53.420098" lon="-1.977660"><ele>393</ele><time>2023-03-31T10:51:11Z</time><name>PT1093</name></trkpt>
<trkpt lat="53.420119" lon="-1.977605"><ele>393</ele><time>2023-03-31T10:51:14Z</time><name>PT1094</name></trkpt>
<trkpt lat="53.420142" lon="-1.977534"><ele>393</ele><time>2023-03-31T10:51:18Z</time><name>PT1095</name></trkpt>
<trkpt lat="53.420155" lon="-1.977491"><ele>393</ele><time>2023-03-31T10:51:21Z</time><name>PT1096</name></trkpt>
<trkpt lat="53.420163" lon="-1.977427"><ele>394</ele><time>2023-03-31T10:51:25Z</time><name>PT1097</name></trkpt>
<trkpt lat="53.420171" lon="-1.977369"><ele>395</ele><time>2023-03-31T10:51:29Z</time><name>PT1098</name></trkpt>
<trkpt lat="53.420185" lon="-1.977308"><ele>394</ele><time>2023-03-31T10:51:33Z</time><name>PT1099</name></trkpt>
<trkpt lat="53.420193" lon="-1.977261"><ele>394</ele><time>2023-03-31T10:51:36Z</time><name>PT1100</name></trkpt>
<trkpt lat="53.420204" lon="-1.977188"><ele>395</ele><time>2023-03-31T10:51:40Z</time><name>PT1101</name></trkpt>
<trkpt lat="53.420217" lon="-1.977118"><ele>396</ele><time>2023-03-31T10:51:44Z</time><name>PT1102</name></trkpt>
<trkpt lat="53.420233" lon="-1.977069"><ele>396</ele><time>2023-03-31T10:51:47Z</time><name>PT1103</name></trkpt>
<trkpt lat="53.420259" lon="-1.977018"><ele>397</ele><time>2023-03-31T10:51:50Z</time><name>PT1104</name></trkpt>
<trkpt lat="53.420297" lon="-1.976958"><ele>396</ele><time>2023-03-31T10:51:54Z</time><name>PT1105</name></trkpt>
<trkpt lat="53.420331" lon="-1.976912"><ele>397</ele><time>2023-03-31T10:51:58Z</time><name>PT1106</name></trkpt>
<trkpt lat="53.420355" lon="-1.976867"><ele>398</ele><time>2023-03-31T10:52:01Z</time><name>PT1107</name></trkpt>
<trkpt lat="53.420394" lon="-1.976822"><ele>398</ele><time>2023-03-31T10:52:05Z</time><name>PT1108</name></trkpt>
<trkpt lat="53.420431" lon="-1.976791"><ele>397</ele><time>2023-03-31T10:52:08Z</time><name>PT1109</name></trkpt>
<trkpt lat="53.420462" lon="-1.976755"><ele>394</ele><time>2023-03-31T10:52:12Z</time><name>PT1110</name></trkpt>
<trkpt lat="53.420488" lon="-1.976726"><ele>394</ele><time>2023-03-31T10:52:15Z</time><name>PT1111</name></trkpt>
<trkpt lat="53.420528" lon="-1.976685"><ele>394</ele><time>2023-03-31T10:52:19Z</time><name>PT1112</name></trkpt>
<trkpt lat="53.420548" lon="-1.976656"><ele>394</ele><time>2023-03-31T10:52:22Z</time><name>PT1113</name></trkpt>
<trkpt lat="53.420580" lon="-1.976611"><ele>389</ele><time>2023-03-31T10:52:26Z</time><name>PT1114</name></trkpt>
<trkpt lat="53.420594" lon="-1.976595"><ele>389</ele><time>2023-03-31T10:52:29Z</time><name>PT1115</name></trkpt>
<trkpt lat="53.420612" lon="-1.976598"><ele>390</ele><time>2023-03-31T10:52:33Z</time><name>PT1116</name></trkpt>
<trkpt lat="53.420613" lon="-1.976593"><ele>390</ele><time>2023-03-31T10:52:37Z</time><name>PT1117</name></trkpt>
<trkpt lat="53.420627" lon="-1.976605"><ele>390</ele><time>2023-03-31T10:52:44Z</time><name>PT1118</name></trkpt>
<trkpt lat="53.420643" lon="-1.976618"><ele>390</ele><time>2023-03-31T10:52:47Z</time><name>PT1119</name></trkpt>
<trkpt lat="53.420648" lon="-1.976635"><ele>390</ele><time>2023-03-31T10:52:50Z</time><name>PT1120</name></trkpt>
<trkpt lat="53.420651" lon="-1.976641"><ele>390</ele><time>2023-03-31T10:52:53Z</time><name>PT1121</name></trkpt>
<trkpt lat="53.420669" lon="-1.976639"><ele>391</ele><time>2023-03-31T10:53:19Z</time><name>PT1122</name></trkpt>
<trkpt lat="53.420676" lon="-1.976632"><ele>391</ele><time>2023-03-31T10:53:23Z</time><name>PT1123</name></trkpt>
<trkpt lat="53.420677" lon="-1.976630"><ele>391</ele><time>2023-03-31T10:53:26Z</time><name>PT1124</name></trkpt>
<trkpt lat="53.420682" lon="-1.976643"><ele>393</ele><time>2023-03-31T10:53:30Z</time><name>PT1125</name></trkpt>
<trkpt lat="53.420701" lon="-1.976640"><ele>393</ele><time>2023-03-31T10:53:34Z</time><name>PT1126</name></trkpt>
<trkpt lat="53.420703" lon="-1.976640"><ele>394</ele><time>2023-03-31T10:53:37Z</time><name>PT1127</name></trkpt>
<trkpt lat="53.420710" lon="-1.976636"><ele>394</ele><time>2023-03-31T10:53:52Z</time><name>PT1128</name></trkpt>
<trkpt lat="53.420714" lon="-1.976632"><ele>394</ele><time>2023-03-31T10:53:56Z</time><name>PT1129</name></trkpt>
<trkpt lat="53.420715" lon="-1.976627"><ele>394</ele><time>2023-03-31T10:54:00Z</time><name>PT1130</name></trkpt>
<trkpt lat="53.420717" lon="-1.976633"><ele>394</ele><time>2023-03-31T10:54:10Z</time><name>PT1131</name></trkpt>
<trkpt lat="53.420726" lon="-1.976640"><ele>394</ele><time>2023-03-31T10:54:13Z</time><name>PT1132</name></trkpt>
<trkpt lat="53.420730" lon="-1.976640"><ele>394</ele><time>2023-03-31T10:54:17Z</time><name>PT1133</name></trkpt>
<trkpt lat="53.420752" lon="-1.976617"><ele>394</ele><time>2023-03-31T10:54:27Z</time><name>PT1134</name></trkpt>
<trkpt lat="53.420770" lon="-1.976592"><ele>394</ele><time>2023-03-31T10:54:30Z</time><name>PT1135</name></trkpt>
<trkpt lat="53.420794" lon="-1.976558"><ele>394</ele><time>2023-03-31T10:54:34Z</time><name>PT1136</name></trkpt>
<trkpt lat="53.420804" lon="-1.976543"><ele>394</ele><time>2023-03-31T10:54:38Z</time><name>PT1137</name></trkpt>
<trkpt lat="53.420826" lon="-1.976538"><ele>394</ele><time>2023-03-31T10:54:41Z</time><name>PT1138</name></trkpt>
<trkpt lat="53.420852" lon="-1.976518"><ele>393</ele><time>2023-03-31T10:54:45Z</time><name>PT1139</name></trkpt>
<trkpt lat="53.420876" lon="-1.976485"><ele>393</ele><time>2023-03-31T10:54:49Z</time><name>PT1140</name></trkpt>
<trkpt lat="53.420883" lon="-1.976474"><ele>393</ele><time>2023-03-31T10:54:52Z</time><name>PT1141</name></trkpt>
<trkpt lat="53.420884" lon="-1.976471"><ele>393</ele><time>2023-03-31T10:54:55Z</time><name>PT1142</name></trkpt>
<trkpt lat="53.420882" lon="-1.976464"><ele>393</ele><time>2023-03-31T10:54:59Z</time><name>PT1143</name></trkpt>
<trkpt lat="53.420900" lon="-1.976396"><ele>393</ele><time>2023-03-31T10:55:03Z</time><name>PT1144</name></trkpt>
<trkpt lat="53.420918" lon="-1.976350"><ele>393</ele><time>2023-03-31T10:55:06Z</time><name>PT1145</name></trkpt>
<trkpt lat="53.420937" lon="-1.976296"><ele>393</ele><time>2023-03-31T10:55:10Z</time><name>PT1146</name></trkpt>
<trkpt lat="53.420959" lon="-1.976246"><ele>392</ele><time>2023-03-31T10:55:13Z</time><name>PT1147</name></trkpt>
<trkpt lat="53.420984" lon="-1.976204"><ele>393</ele><time>2023-03-31T10:55:17Z</time><name>PT1148</name></trkpt>
<trkpt lat="53.421002" lon="-1.976154"><ele>394</ele><time>2023-03-31T10:55:20Z</time><name>PT1149</name></trkpt>
<trkpt lat="53.421020" lon="-1.976109"><ele>394</ele><time>2023-03-31T10:55:23Z</time><name>PT1150</name></trkpt>
<trkpt lat="53.421030" lon="-1.976055"><ele>394</ele><time>2023-03-31T10:55:26Z</time><name>PT1151</name></trkpt>
<trkpt lat="53.421045" lon="-1.975992"><ele>394</ele><time>2023-03-31T10:55:30Z</time><name>PT1152</name></trkpt>
<trkpt lat="53.421053" lon="-1.975949"><ele>395</ele><time>2023-03-31T10:55:33Z</time><name>PT1153</name></trkpt>
<trkpt lat="53.421069" lon="-1.975926"><ele>395</ele><time>2023-03-31T10:55:36Z</time><name>PT1154</name></trkpt>
<trkpt lat="53.421085" lon="-1.975899"><ele>395</ele><time>2023-03-31T10:55:39Z</time><name>PT1155</name></trkpt>
<trkpt lat="53.421117" lon="-1.975883"><ele>394</ele><time>2023-03-31T10:55:43Z</time><name>PT1156</name></trkpt>
<trkpt lat="53.421145" lon="-1.975884"><ele>394</ele><time>2023-03-31T10:55:46Z</time><name>PT1157</name></trkpt>
<trkpt lat="53.421186" lon="-1.975864"><ele>394</ele><time>2023-03-31T10:55:50Z</time><name>PT1158</name></trkpt>
<trkpt lat="53.421215" lon="-1.975842"><ele>393</ele><time>2023-03-31T10:55:53Z</time><name>PT1159</name></trkpt>
<trkpt lat="53.421249" lon="-1.975820"><ele>391</ele><time>2023-03-31T10:55:57Z</time><name>PT1160</name></trkpt>
<trkpt lat="53.421294" lon="-1.975790"><ele>392</ele><time>2023-03-31T10:56:01Z</time><name>PT1161</name></trkpt>
<trkpt lat="53.421315" lon="-1.975764"><ele>391</ele><time>2023-03-31T10:56:04Z</time><name>PT1162</name></trkpt>
<trkpt lat="53.421353" lon="-1.975730"><ele>391</ele><time>2023-03-31T10:56:08Z</time><name>PT1163</name></trkpt>
<trkpt lat="53.421380" lon="-1.975686"><ele>390</ele><time>2023-03-31T10:56:12Z</time><name>PT1164</name></trkpt>
<trkpt lat="53.421401" lon="-1.975651"><ele>390</ele><time>2023-03-31T10:56:15Z</time><name>PT1165</name></trkpt>
<trkpt lat="53.421428" lon="-1.975621"><ele>391</ele><time>2023-03-31T10:56:18Z</time><name>PT1166</name></trkpt>
<trkpt lat="53.421464" lon="-1.975577"><ele>392</ele><time>2023-03-31T10:56:22Z</time><name>PT1167</name></trkpt>
<trkpt lat="53.421493" lon="-1.975555"><ele>391</ele><time>2023-03-31T10:56:25Z</time><name>PT1168</name></trkpt>
<trkpt lat="53.421517" lon="-1.975528"><ele>391</ele><time>2023-03-31T10:56:28Z</time><name>PT1169</name></trkpt>
<trkpt lat="53.421553" lon="-1.975503"><ele>390</ele><time>2023-03-31T10:56:32Z</time><name>PT1170</name></trkpt>
<trkpt lat="53.421578" lon="-1.975487"><ele>391</ele><time>2023-03-31T10:56:35Z</time><name>PT1171</name></trkpt>
<trkpt lat="53.421583" lon="-1.975485"><ele>392</ele><time>2023-03-31T10:56:38Z</time><name>PT1172</name></trkpt>
<trkpt lat="53.421587" lon="-1.975495"><ele>391</ele><time>2023-03-31T10:56:41Z</time><name>PT1173</name></trkpt>
<trkpt lat="53.421596" lon="-1.975467"><ele>390</ele><time>2023-03-31T10:56:45Z</time><name>PT1174</name></trkpt>
<trkpt lat="53.421632" lon="-1.975435"><ele>391</ele><time>2023-03-31T10:56:48Z</time><name>PT1175</name></trkpt>
<trkpt lat="53.421694" lon="-1.975401"><ele>392</ele><time>2023-03-31T10:56:52Z</time><name>PT1176</name></trkpt>
<trkpt lat="53.421726" lon="-1.975372"><ele>392</ele><time>2023-03-31T10:56:56Z</time><name>PT1177</name></trkpt>
<trkpt lat="53.421763" lon="-1.975337"><ele>392</ele><time>2023-03-31T10:56:59Z</time><name>PT1178</name></trkpt>
<trkpt lat="53.421802" lon="-1.975291"><ele>392</ele><time>2023-03-31T10:57:03Z</time><name>PT1179</name></trkpt>
<trkpt lat="53.421819" lon="-1.975270"><ele>392</ele><time>2023-03-31T10:57:06Z</time><name>PT1180</name></trkpt>
<trkpt lat="53.421841" lon="-1.975229"><ele>392</ele><time>2023-03-31T10:57:09Z</time><name>PT1181</name></trkpt>
<trkpt lat="53.421868" lon="-1.975190"><ele>391</ele><time>2023-03-31T10:57:12Z</time><name>PT1182</name></trkpt>
<trkpt lat="53.421903" lon="-1.975130"><ele>391</ele><time>2023-03-31T10:57:16Z</time><name>PT1183</name></trkpt>
<trkpt lat="53.421929" lon="-1.975091"><ele>392</ele><time>2023-03-31T10:57:19Z</time><name>PT1184</name></trkpt>
<trkpt lat="53.421963" lon="-1.975034"><ele>392</ele><time>2023-03-31T10:57:23Z</time><name>PT1185</name></trkpt>
<trkpt lat="53.421989" lon="-1.975001"><ele>391</ele><time>2023-03-31T10:57:26Z</time><name>PT1186</name></trkpt>
<trkpt lat="53.422013" lon="-1.974966"><ele>391</ele><time>2023-03-31T10:57:29Z</time><name>PT1187</name></trkpt>
<trkpt lat="53.422035" lon="-1.974926"><ele>390</ele><time>2023-03-31T10:57:32Z</time><name>PT1188</name></trkpt>
<trkpt lat="53.422067" lon="-1.974871"><ele>391</ele><time>2023-03-31T10:57:36Z</time><name>PT1189</name></trkpt>
<trkpt lat="53.422088" lon="-1.974828"><ele>391</ele><time>2023-03-31T10:57:39Z</time><name>PT1190</name></trkpt>
<trkpt lat="53.422128" lon="-1.974780"><ele>390</ele><time>2023-03-31T10:57:43Z</time><name>PT1191</name></trkpt>
<trkpt lat="53.422158" lon="-1.974741"><ele>390</ele><time>2023-03-31T10:57:46Z</time><name>PT1192</name></trkpt>
<trkpt lat="53.422192" lon="-1.974686"><ele>392</ele><time>2023-03-31T10:57:50Z</time><name>PT1193</name></trkpt>
<trkpt lat="53.422220" lon="-1.974635"><ele>391</ele><time>2023-03-31T10:57:54Z</time><name>PT1194</name></trkpt>
<trkpt lat="53.422258" lon="-1.974597"><ele>392</ele><time>2023-03-31T10:57:57Z</time><name>PT1195</name></trkpt>
<trkpt lat="53.422307" lon="-1.974542"><ele>393</ele><time>2023-03-31T10:58:01Z</time><name>PT1196</name></trkpt>
<trkpt lat="53.422331" lon="-1.974516"><ele>393</ele><time>2023-03-31T10:58:04Z</time><name>PT1197</name></trkpt>
<trkpt lat="53.422367" lon="-1.974467"><ele>392</ele><time>2023-03-31T10:58:08Z</time><name>PT1198</name></trkpt>
<trkpt lat="53.422388" lon="-1.974419"><ele>392</ele><time>2023-03-31T10:58:12Z</time><name>PT1199</name></trkpt>
<trkpt lat="53.422415" lon="-1.974363"><ele>391</ele><time>2023-03-31T10:58:16Z</time><name>PT1200</name></trkpt>
<trkpt lat="53.422441" lon="-1.974304"><ele>391</ele><time>2023-03-31T10:58:20Z</time><name>PT1201</name></trkpt>
<trkpt lat="53.422464" lon="-1.974263"><ele>391</ele><time>2023-03-31T10:58:23Z</time><name>PT1202</name></trkpt>
<trkpt lat="53.422486" lon="-1.974227"><ele>390</ele><time>2023-03-31T10:58:26Z</time><name>PT1203</name></trkpt>
<trkpt lat="53.422529" lon="-1.974175"><ele>390</ele><time>2023-03-31T10:58:30Z</time><name>PT1204</name></trkpt>
<trkpt lat="53.422581" lon="-1.974122"><ele>393</ele><time>2023-03-31T10:58:34Z</time><name>PT1205</name></trkpt>
<trkpt lat="53.422619" lon="-1.974072"><ele>393</ele><time>2023-03-31T10:58:38Z</time><name>PT1206</name></trkpt>
<trkpt lat="53.422661" lon="-1.974023"><ele>393</ele><time>2023-03-31T10:58:42Z</time><name>PT1207</name></trkpt>
<trkpt lat="53.422687" lon="-1.973993"><ele>393</ele><time>2023-03-31T10:58:45Z</time><name>PT1208</name></trkpt>
<trkpt lat="53.422720" lon="-1.973951"><ele>393</ele><time>2023-03-31T10:58:48Z</time><name>PT1209</name></trkpt>
<trkpt lat="53.422766" lon="-1.973903"><ele>394</ele><time>2023-03-31T10:58:52Z</time><name>PT1210</name></trkpt>
<trkpt lat="53.422806" lon="-1.973845"><ele>393</ele><time>2023-03-31T10:58:56Z</time><name>PT1211</name></trkpt>
<trkpt lat="53.422843" lon="-1.973799"><ele>394</ele><time>2023-03-31T10:58:59Z</time><name>PT1212</name></trkpt>
<trkpt lat="53.422871" lon="-1.973756"><ele>395</ele><time>2023-03-31T10:59:02Z</time><name>PT1213</name></trkpt>
<trkpt lat="53.422901" lon="-1.973714"><ele>395</ele><time>2023-03-31T10:59:06Z</time><name>PT1214</name></trkpt>
<trkpt lat="53.422921" lon="-1.973679"><ele>394</ele><time>2023-03-31T10:59:10Z</time><name>PT1215</name></trkpt>
<trkpt lat="53.422956" lon="-1.973631"><ele>395</ele><time>2023-03-31T10:59:14Z</time><name>PT1216</name></trkpt>
<trkpt lat="53.422982" lon="-1.973591"><ele>395</ele><time>2023-03-31T10:59:17Z</time><name>PT1217</name></trkpt>
<trkpt lat="53.423018" lon="-1.973547"><ele>396</ele><time>2023-03-31T10:59:21Z</time><name>PT1218</name></trkpt>
<trkpt lat="53.423060" lon="-1.973508"><ele>396</ele><time>2023-03-31T10:59:25Z</time><name>PT1219</name></trkpt>
<trkpt lat="53.423084" lon="-1.973458"><ele>398</ele><time>2023-03-31T10:59:29Z</time><name>PT1220</name></trkpt>
<trkpt lat="53.423108" lon="-1.973417"><ele>397</ele><time>2023-03-31T10:59:32Z</time><name>PT1221</name></trkpt>
<trkpt lat="53.423132" lon="-1.973377"><ele>397</ele><time>2023-03-31T10:59:35Z</time><name>PT1222</name></trkpt>
<trkpt lat="53.423156" lon="-1.973334"><ele>398</ele><time>2023-03-31T10:59:38Z</time><name>PT1223</name></trkpt>
<trkpt lat="53.423187" lon="-1.973280"><ele>397</ele><time>2023-03-31T10:59:42Z</time><name>PT1224</name></trkpt>
<trkpt lat="53.423225" lon="-1.973217"><ele>398</ele><time>2023-03-31T10:59:46Z</time><name>PT1225</name></trkpt>
<trkpt lat="53.423254" lon="-1.973170"><ele>399</ele><time>2023-03-31T10:59:49Z</time><name>PT1226</name></trkpt>
<trkpt lat="53.423287" lon="-1.973113"><ele>399</ele><time>2023-03-31T10:59:53Z</time><name>PT1227</name></trkpt>
<trkpt lat="53.423320" lon="-1.973064"><ele>399</ele><time>2023-03-31T10:59:57Z</time><name>PT1228</name></trkpt>
<trkpt lat="53.423341" lon="-1.973024"><ele>399</ele><time>2023-03-31T11:00:00Z</time><name>PT1229</name></trkpt>
<trkpt lat="53.423376" lon="-1.972967"><ele>399</ele><time>2023-03-31T11:00:04Z</time><name>PT1230</name></trkpt>
<trkpt lat="53.423405" lon="-1.972931"><ele>400</ele><time>2023-03-31T11:00:07Z</time><name>PT1231</name></trkpt>
<trkpt lat="53.423436" lon="-1.972889"><ele>401</ele><time>2023-03-31T11:00:10Z</time><name>PT1232</name></trkpt>
<trkpt lat="53.423475" lon="-1.972837"><ele>401</ele><time>2023-03-31T11:00:14Z</time><name>PT1233</name></trkpt>
<trkpt lat="53.423513" lon="-1.972783"><ele>402</ele><time>2023-03-31T11:00:18Z</time><name>PT1234</name></trkpt>
<trkpt lat="53.423537" lon="-1.972738"><ele>403</ele><time>2023-03-31T11:00:21Z</time><name>PT1235</name></trkpt>
<trkpt lat="53.423564" lon="-1.972696"><ele>404</ele><time>2023-03-31T11:00:24Z</time><name>PT1236</name></trkpt>
<trkpt lat="53.423601" lon="-1.972652"><ele>403</ele><time>2023-03-31T11:00:28Z</time><name>PT1237</name></trkpt>
<trkpt lat="53.423631" lon="-1.972620"><ele>403</ele><time>2023-03-31T11:00:31Z</time><name>PT1238</name></trkpt>
<trkpt lat="53.423665" lon="-1.972588"><ele>402</ele><time>2023-03-31T11:00:34Z</time><name>PT1239</name></trkpt>
<trkpt lat="53.423708" lon="-1.972549"><ele>402</ele><time>2023-03-31T11:00:38Z</time><name>PT1240</name></trkpt>
<trkpt lat="53.423742" lon="-1.972523"><ele>402</ele><time>2023-03-31T11:00:41Z</time><name>PT1241</name></trkpt>
<trkpt lat="53.423782" lon="-1.972483"><ele>402</ele><time>2023-03-31T11:00:45Z</time><name>PT1242</name></trkpt>
<trkpt lat="53.423817" lon="-1.972462"><ele>403</ele><time>2023-03-31T11:00:48Z</time><name>PT1243</name></trkpt>
<trkpt lat="53.423860" lon="-1.972444"><ele>402</ele><time>2023-03-31T11:00:52Z</time><name>PT1244</name></trkpt>
<trkpt lat="53.423913" lon="-1.972437"><ele>402</ele><time>2023-03-31T11:00:56Z</time><name>PT1245</name></trkpt>
<trkpt lat="53.423945" lon="-1.972425"><ele>401</ele><time>2023-03-31T11:00:59Z</time><name>PT1246</name></trkpt>
<trkpt lat="53.423987" lon="-1.972415"><ele>401</ele><time>2023-03-31T11:01:02Z</time><name>PT1247</name></trkpt>
<trkpt lat="53.424028" lon="-1.972411"><ele>401</ele><time>2023-03-31T11:01:05Z</time><name>PT1248</name></trkpt>
<trkpt lat="53.424076" lon="-1.972401"><ele>401</ele><time>2023-03-31T11:01:09Z</time><name>PT1249</name></trkpt>
<trkpt lat="53.424122" lon="-1.972395"><ele>400</ele><time>2023-03-31T11:01:13Z</time><name>PT1250</name></trkpt>
<trkpt lat="53.424163" lon="-1.972385"><ele>401</ele><time>2023-03-31T11:01:16Z</time><name>PT1251</name></trkpt>
<trkpt lat="53.424200" lon="-1.972370"><ele>401</ele><time>2023-03-31T11:01:19Z</time><name>PT1252</name></trkpt>
<trkpt lat="53.424247" lon="-1.972365"><ele>401</ele><time>2023-03-31T11:01:23Z</time><name>PT1253</name></trkpt>
<trkpt lat="53.424281" lon="-1.972353"><ele>401</ele><time>2023-03-31T11:01:26Z</time><name>PT1254</name></trkpt>
<trkpt lat="53.424317" lon="-1.972350"><ele>401</ele><time>2023-03-31T11:01:30Z</time><name>PT1255</name></trkpt>
<trkpt lat="53.424330" lon="-1.972328"><ele>401</ele><time>2023-03-31T11:01:34Z</time><name>PT1256</name></trkpt>
<trkpt lat="53.424335" lon="-1.972290"><ele>401</ele><time>2023-03-31T11:01:38Z</time><name>PT1257</name></trkpt>
<trkpt lat="53.424339" lon="-1.972266"><ele>401</ele><time>2023-03-31T11:01:41Z</time><name>PT1258</name></trkpt>
<trkpt lat="53.424335" lon="-1.972235"><ele>402</ele><time>2023-03-31T11:01:44Z</time><name>PT1259</name></trkpt>
<trkpt lat="53.424336" lon="-1.972224"><ele>401</ele><time>2023-03-31T11:01:48Z</time><name>PT1260</name></trkpt>
<trkpt lat="53.424340" lon="-1.972219"><ele>401</ele><time>2023-03-31T11:01:51Z</time><name>PT1261</name></trkpt>
<trkpt lat="53.424350" lon="-1.972204"><ele>402</ele><time>2023-03-31T11:01:55Z</time><name>PT1262</name></trkpt>
<trkpt lat="53.424356" lon="-1.972182"><ele>403</ele><time>2023-03-31T11:01:59Z</time><name>PT1263</name></trkpt>
<trkpt lat="53.424354" lon="-1.972180"><ele>403</ele><time>2023-03-31T11:02:02Z</time><name>PT1264</name></trkpt>
<trkpt lat="53.424359" lon="-1.972164"><ele>403</ele><time>2023-03-31T11:02:10Z</time><name>PT1265</name></trkpt>
<trkpt lat="53.424372" lon="-1.972167"><ele>402</ele><time>2023-03-31T11:02:13Z</time><name>PT1266</name></trkpt>
<trkpt lat="53.424373" lon="-1.972172"><ele>402</ele><time>2023-03-31T11:02:16Z</time><name>PT1267</name></trkpt>
<trkpt lat="53.424370" lon="-1.972162"><ele>401</ele><time>2023-03-31T11:02:19Z</time><name>PT1268</name></trkpt>
<trkpt lat="53.424347" lon="-1.972134"><ele>401</ele><time>2023-03-31T11:02:22Z</time><name>PT1269</name></trkpt>
<trkpt lat="53.424340" lon="-1.972114"><ele>402</ele><time>2023-03-31T11:02:26Z</time><name>PT1270</name></trkpt>
<trkpt lat="53.424342" lon="-1.972082"><ele>401</ele><time>2023-03-31T11:02:29Z</time><name>PT1271</name></trkpt>
<trkpt lat="53.424348" lon="-1.972065"><ele>401</ele><time>2023-03-31T11:02:32Z</time><name>PT1272</name></trkpt>
<trkpt lat="53.424349" lon="-1.972054"><ele>401</ele><time>2023-03-31T11:02:36Z</time><name>PT1273</name></trkpt>
<trkpt lat="53.424384" lon="-1.972049"><ele>402</ele><time>2023-03-31T11:02:40Z</time><name>PT1274</name></trkpt>
<trkpt lat="53.424417" lon="-1.972039"><ele>403</ele><time>2023-03-31T11:02:43Z</time><name>PT1275</name></trkpt>
<trkpt lat="53.424455" lon="-1.972035"><ele>402</ele><time>2023-03-31T11:02:46Z</time><name>PT1276</name></trkpt>
<trkpt lat="53.424507" lon="-1.972028"><ele>402</ele><time>2023-03-31T11:02:50Z</time><name>PT1277</name></trkpt>
<trkpt lat="53.424559" lon="-1.972025"><ele>402</ele><time>2023-03-31T11:02:54Z</time><name>PT1278</name></trkpt>
<trkpt lat="53.424609" lon="-1.972015"><ele>402</ele><time>2023-03-31T11:02:58Z</time><name>PT1279</name></trkpt>
<trkpt lat="53.424657" lon="-1.972001"><ele>402</ele><time>2023-03-31T11:03:02Z</time><name>PT1280</name></trkpt>
<trkpt lat="53.424695" lon="-1.971991"><ele>401</ele><time>2023-03-31T11:03:05Z</time><name>PT1281</name></trkpt>
<trkpt lat="53.424729" lon="-1.971978"><ele>401</ele><time>2023-03-31T11:03:08Z</time><name>PT1282</name></trkpt>
<trkpt lat="53.424765" lon="-1.971958"><ele>401</ele><time>2023-03-31T11:03:11Z</time><name>PT1283</name></trkpt>
<trkpt lat="53.424816" lon="-1.971946"><ele>401</ele><time>2023-03-31T11:03:15Z</time><name>PT1284</name></trkpt>
<trkpt lat="53.424852" lon="-1.971933"><ele>401</ele><time>2023-03-31T11:03:18Z</time><name>PT1285</name></trkpt>
<trkpt lat="53.424900" lon="-1.971925"><ele>401</ele><time>2023-03-31T11:03:22Z</time><name>PT1286</name></trkpt>
<trkpt lat="53.424939" lon="-1.971925"><ele>400</ele><time>2023-03-31T11:03:25Z</time><name>PT1287</name></trkpt>
<trkpt lat="53.424991" lon="-1.971934"><ele>400</ele><time>2023-03-31T11:03:29Z</time><name>PT1288</name></trkpt>
<trkpt lat="53.425031" lon="-1.971933"><ele>400</ele><time>2023-03-31T11:03:32Z</time><name>PT1289</name></trkpt>
<trkpt lat="53.425089" lon="-1.971944"><ele>400</ele><time>2023-03-31T11:03:36Z</time><name>PT1290</name></trkpt>
<trkpt lat="53.425139" lon="-1.971944"><ele>399</ele><time>2023-03-31T11:03:40Z</time><name>PT1291</name></trkpt>
<trkpt lat="53.425175" lon="-1.971929"><ele>399</ele><time>2023-03-31T11:03:43Z</time><name>PT1292</name></trkpt>
<trkpt lat="53.425224" lon="-1.971913"><ele>399</ele><time>2023-03-31T11:03:47Z</time><name>PT1293</name></trkpt>
<trkpt lat="53.425259" lon="-1.971913"><ele>399</ele><time>2023-03-31T11:03:50Z</time><name>PT1294</name></trkpt>
<trkpt lat="53.425312" lon="-1.971911"><ele>399</ele><time>2023-03-31T11:03:54Z</time><name>PT1295</name></trkpt>
<trkpt lat="53.425364" lon="-1.971905"><ele>399</ele><time>2023-03-31T11:03:58Z</time><name>PT1296</name></trkpt>
<trkpt lat="53.425404" lon="-1.971910"><ele>399</ele><time>2023-03-31T11:04:01Z</time><name>PT1297</name></trkpt>
<trkpt lat="53.425443" lon="-1.971909"><ele>399</ele><time>2023-03-31T11:04:05Z</time><name>PT1298</name></trkpt>
<trkpt lat="53.425475" lon="-1.971900"><ele>399</ele><time>2023-03-31T11:04:08Z</time><name>PT1299</name></trkpt>
<trkpt lat="53.425519" lon="-1.971902"><ele>398</ele><time>2023-03-31T11:04:12Z</time><name>PT1300</name></trkpt>
<trkpt lat="53.425572" lon="-1.971899"><ele>399</ele><time>2023-03-31T11:04:16Z</time><name>PT1301</name></trkpt>
<trkpt lat="53.425606" lon="-1.971889"><ele>399</ele><time>2023-03-31T11:04:19Z</time><name>PT1302</name></trkpt>
<trkpt lat="53.425642" lon="-1.971853"><ele>398</ele><time>2023-03-31T11:04:23Z</time><name>PT1303</name></trkpt>
<trkpt lat="53.425658" lon="-1.971842"><ele>398</ele><time>2023-03-31T11:04:26Z</time><name>PT1304</name></trkpt>
<trkpt lat="53.425708" lon="-1.971833"><ele>398</ele><time>2023-03-31T11:04:30Z</time><name>PT1305</name></trkpt>
<trkpt lat="53.425755" lon="-1.971829"><ele>398</ele><time>2023-03-31T11:04:34Z</time><name>PT1306</name></trkpt>
<trkpt lat="53.425793" lon="-1.971824"><ele>397</ele><time>2023-03-31T11:04:37Z</time><name>PT1307</name></trkpt>
<trkpt lat="53.425839" lon="-1.971811"><ele>397</ele><time>2023-03-31T11:04:41Z</time><name>PT1308</name></trkpt>
<trkpt lat="53.425870" lon="-1.971796"><ele>396</ele><time>2023-03-31T11:04:44Z</time><name>PT1309</name></trkpt>
<trkpt lat="53.425917" lon="-1.971789"><ele>395</ele><time>2023-03-31T11:04:48Z</time><name>PT1310</name></trkpt>
<trkpt lat="53.425955" lon="-1.971784"><ele>395</ele><time>2023-03-31T11:04:51Z</time><name>PT1311</name></trkpt>
<trkpt lat="53.425999" lon="-1.971785"><ele>395</ele><time>2023-03-31T11:04:54Z</time><name>PT1312</name></trkpt>
<trkpt lat="53.426038" lon="-1.971787"><ele>395</ele><time>2023-03-31T11:04:57Z</time><name>PT1313</name></trkpt>
<trkpt lat="53.426088" lon="-1.971787"><ele>395</ele><time>2023-03-31T11:05:01Z</time><name>PT1314</name></trkpt>
<trkpt lat="53.426117" lon="-1.971791"><ele>394</ele><time>2023-03-31T11:05:04Z</time><name>PT1315</name></trkpt>
<trkpt lat="53.426159" lon="-1.971795"><ele>393</ele><time>2023-03-31T11:05:08Z</time><name>PT1316</name></trkpt>
<trkpt lat="53.426193" lon="-1.971786"><ele>393</ele><time>2023-03-31T11:05:11Z</time><name>PT1317</name></trkpt>
<trkpt lat="53.426238" lon="-1.971774"><ele>393</ele><time>2023-03-31T11:05:15Z</time><name>PT1318</name></trkpt>
<trkpt lat="53.426276" lon="-1.971745"><ele>393</ele><time>2023-03-31T11:05:19Z</time><name>PT1319</name></trkpt>
<trkpt lat="53.426298" lon="-1.971717"><ele>394</ele><time>2023-03-31T11:05:22Z</time><name>PT1320</name></trkpt>
<trkpt lat="53.426349" lon="-1.971690"><ele>395</ele><time>2023-03-31T11:05:26Z</time><name>PT1321</name></trkpt>
<trkpt lat="53.426392" lon="-1.971682"><ele>396</ele><time>2023-03-31T11:05:29Z</time><name>PT1322</name></trkpt>
<trkpt lat="53.426433" lon="-1.971671"><ele>396</ele><time>2023-03-31T11:05:33Z</time><name>PT1323</name></trkpt>
<trkpt lat="53.426477" lon="-1.971648"><ele>396</ele><time>2023-03-31T11:05:37Z</time><name>PT1324</name></trkpt>
<trkpt lat="53.426522" lon="-1.971625"><ele>396</ele><time>2023-03-31T11:05:41Z</time><name>PT1325</name></trkpt>
<trkpt lat="53.426558" lon="-1.971619"><ele>396</ele><time>2023-03-31T11:05:44Z</time><name>PT1326</name></trkpt>
<trkpt lat="53.426606" lon="-1.971588"><ele>396</ele><time>2023-03-31T11:05:48Z</time><name>PT1327</name></trkpt>
<trkpt lat="53.426639" lon="-1.971557"><ele>397</ele><time>2023-03-31T11:05:51Z</time><name>PT1328</name></trkpt>
<trkpt lat="53.426670" lon="-1.971522"><ele>396</ele><time>2023-03-31T11:05:54Z</time><name>PT1329</name></trkpt>
<trkpt lat="53.426700" lon="-1.971487"><ele>396</ele><time>2023-03-31T11:05:57Z</time><name>PT1330</name></trkpt>
<trkpt lat="53.426728" lon="-1.971451"><ele>396</ele><time>2023-03-31T11:06:00Z</time><name>PT1331</name></trkpt>
<trkpt lat="53.426749" lon="-1.971407"><ele>396</ele><time>2023-03-31T11:06:03Z</time><name>PT1332</name></trkpt>
<trkpt lat="53.426775" lon="-1.971344"><ele>395</ele><time>2023-03-31T11:06:07Z</time><name>PT1333</name></trkpt>
<trkpt lat="53.426800" lon="-1.971289"><ele>395</ele><time>2023-03-31T11:06:11Z</time><name>PT1334</name></trkpt>
<trkpt lat="53.426834" lon="-1.971241"><ele>394</ele><time>2023-03-31T11:06:15Z</time><name>PT1335</name></trkpt>
<trkpt lat="53.426864" lon="-1.971188"><ele>393</ele><time>2023-03-31T11:06:19Z</time><name>PT1336</name></trkpt>
<trkpt lat="53.426892" lon="-1.971135"><ele>393</ele><time>2023-03-31T11:06:23Z</time><name>PT1337</name></trkpt>
<trkpt lat="53.426927" lon="-1.971085"><ele>393</ele><time>2023-03-31T11:06:27Z</time><name>PT1338</name></trkpt>
<trkpt lat="53.426949" lon="-1.971046"><ele>392</ele><time>2023-03-31T11:06:30Z</time><name>PT1339</name></trkpt>
<trkpt lat="53.426984" lon="-1.971001"><ele>391</ele><time>2023-03-31T11:06:34Z</time><name>PT1340</name></trkpt>
<trkpt lat="53.427011" lon="-1.970971"><ele>390</ele><time>2023-03-31T11:06:37Z</time><name>PT1341</name></trkpt>
<trkpt lat="53.427050" lon="-1.970919"><ele>389</ele><time>2023-03-31T11:06:41Z</time><name>PT1342</name></trkpt>
<trkpt lat="53.427073" lon="-1.970877"><ele>389</ele><time>2023-03-31T11:06:44Z</time><name>PT1343</name></trkpt>
<trkpt lat="53.427087" lon="-1.970828"><ele>388</ele><time>2023-03-31T11:06:47Z</time><name>PT1344</name></trkpt>
<trkpt lat="53.427109" lon="-1.970756"><ele>388</ele><time>2023-03-31T11:06:51Z</time><name>PT1345</name></trkpt>
<trkpt lat="53.427117" lon="-1.970704"><ele>386</ele><time>2023-03-31T11:06:54Z</time><name>PT1346</name></trkpt>
<trkpt lat="53.427123" lon="-1.970649"><ele>386</ele><time>2023-03-31T11:06:57Z</time><name>PT1347</name></trkpt>
<trkpt lat="53.427137" lon="-1.970581"><ele>385</ele><time>2023-03-31T11:07:01Z</time><name>PT1348</name></trkpt>
<trkpt lat="53.427130" lon="-1.970512"><ele>384</ele><time>2023-03-31T11:07:05Z</time><name>PT1349</name></trkpt>
<trkpt lat="53.427127" lon="-1.970441"><ele>384</ele><time>2023-03-31T11:07:09Z</time><name>PT1350</name></trkpt>
<trkpt lat="53.427131" lon="-1.970385"><ele>384</ele><time>2023-03-31T11:07:12Z</time><name>PT1351</name></trkpt>
<trkpt lat="53.427133" lon="-1.970316"><ele>383</ele><time>2023-03-31T11:07:16Z</time><name>PT1352</name></trkpt>
<trkpt lat="53.427124" lon="-1.970263"><ele>382</ele><time>2023-03-31T11:07:19Z</time><name>PT1353</name></trkpt>
<trkpt lat="53.427109" lon="-1.970201"><ele>383</ele><time>2023-03-31T11:07:22Z</time><name>PT1354</name></trkpt>
<trkpt lat="53.427086" lon="-1.970150"><ele>383</ele><time>2023-03-31T11:07:26Z</time><name>PT1355</name></trkpt>
<trkpt lat="53.427078" lon="-1.970106"><ele>382</ele><time>2023-03-31T11:07:29Z</time><name>PT1356</name></trkpt>
<trkpt lat="53.427066" lon="-1.970051"><ele>382</ele><time>2023-03-31T11:07:32Z</time><name>PT1357</name></trkpt>
<trkpt lat="53.427059" lon="-1.970009"><ele>382</ele><time>2023-03-31T11:07:35Z</time><name>PT1358</name></trkpt>
<trkpt lat="53.427045" lon="-1.969957"><ele>381</ele><time>2023-03-31T11:07:39Z</time><name>PT1359</name></trkpt>
<trkpt lat="53.427032" lon="-1.969905"><ele>381</ele><time>2023-03-31T11:07:42Z</time><name>PT1360</name></trkpt>
<trkpt lat="53.427018" lon="-1.969860"><ele>381</ele><time>2023-03-31T11:07:45Z</time><name>PT1361</name></trkpt>
<trkpt lat="53.427008" lon="-1.969807"><ele>381</ele><time>2023-03-31T11:07:48Z</time><name>PT1362</name></trkpt>
<trkpt lat="53.426995" lon="-1.969753"><ele>382</ele><time>2023-03-31T11:07:51Z</time><name>PT1363</name></trkpt>
<trkpt lat="53.426983" lon="-1.969675"><ele>382</ele><time>2023-03-31T11:07:55Z</time><name>PT1364</name></trkpt>
<trkpt lat="53.426975" lon="-1.969603"><ele>381</ele><time>2023-03-31T11:07:59Z</time><name>PT1365</name></trkpt>
<trkpt lat="53.426977" lon="-1.969545"><ele>380</ele><time>2023-03-31T11:08:02Z</time><name>PT1366</name></trkpt>
<trkpt lat="53.426979" lon="-1.969466"><ele>380</ele><time>2023-03-31T11:08:06Z</time><name>PT1367</name></trkpt>
<trkpt lat="53.426973" lon="-1.969404"><ele>380</ele><time>2023-03-31T11:08:09Z</time><name>PT1368</name></trkpt>
<trkpt lat="53.426976" lon="-1.969321"><ele>380</ele><time>2023-03-31T11:08:13Z</time><name>PT1369</name></trkpt>
<trkpt lat="53.426979" lon="-1.969242"><ele>379</ele><time>2023-03-31T11:08:17Z</time><name>PT1370</name></trkpt>
<trkpt lat="53.426983" lon="-1.969187"><ele>378</ele><time>2023-03-31T11:08:20Z</time><name>PT1371</name></trkpt>
<trkpt lat="53.426985" lon="-1.969111"><ele>377</ele><time>2023-03-31T11:08:24Z</time><name>PT1372</name></trkpt>
<trkpt lat="53.426983" lon="-1.969049"><ele>377</ele><time>2023-03-31T11:08:28Z</time><name>PT1373</name></trkpt>
<trkpt lat="53.426977" lon="-1.969013"><ele>375</ele><time>2023-03-31T11:08:31Z</time><name>PT1374</name></trkpt>
<trkpt lat="53.426970" lon="-1.968953"><ele>375</ele><time>2023-03-31T11:08:35Z</time><name>PT1375</name></trkpt>
<trkpt lat="53.426962" lon="-1.968898"><ele>374</ele><time>2023-03-31T11:08:38Z</time><name>PT1376</name></trkpt>
<trkpt lat="53.426954" lon="-1.968812"><ele>374</ele><time>2023-03-31T11:08:42Z</time><name>PT1377</name></trkpt>
<trkpt lat="53.426946" lon="-1.968765"><ele>375</ele><time>2023-03-31T11:08:45Z</time><name>PT1378</name></trkpt>
<trkpt lat="53.426944" lon="-1.968713"><ele>374</ele><time>2023-03-31T11:08:48Z</time><name>PT1379</name></trkpt>
<trkpt lat="53.426936" lon="-1.968678"><ele>373</ele><time>2023-03-31T11:08:52Z</time><name>PT1380</name></trkpt>
<trkpt lat="53.426936" lon="-1.968661"><ele>373</ele><time>2023-03-31T11:08:55Z</time><name>PT1381</name></trkpt>
<trkpt lat="53.426935" lon="-1.968651"><ele>373</ele><time>2023-03-31T11:08:59Z</time><name>PT1382</name></trkpt>
<trkpt lat="53.426922" lon="-1.968653"><ele>372</ele><time>2023-03-31T11:09:02Z</time><name>PT1383</name></trkpt>
<trkpt lat="53.426907" lon="-1.968652"><ele>372</ele><time>2023-03-31T11:09:05Z</time><name>PT1384</name></trkpt>
<trkpt lat="53.426886" lon="-1.968662"><ele>373</ele><time>2023-03-31T11:09:09Z</time><name>PT1385</name></trkpt>
<trkpt lat="53.426875" lon="-1.968668"><ele>374</ele><time>2023-03-31T11:09:13Z</time><name>PT1386</name></trkpt>
<trkpt lat="53.426859" lon="-1.968675"><ele>377</ele><time>2023-03-31T11:09:16Z</time><name>PT1387</name></trkpt>
<trkpt lat="53.426837" lon="-1.968687"><ele>379</ele><time>2023-03-31T11:09:19Z</time><name>PT1388</name></trkpt>
<trkpt lat="53.426814" lon="-1.968695"><ele>380</ele><time>2023-03-31T11:09:23Z</time><name>PT1389</name></trkpt>
<trkpt lat="53.426804" lon="-1.968705"><ele>380</ele><time>2023-03-31T11:09:26Z</time><name>PT1390</name></trkpt>
<trkpt lat="53.426751" lon="-1.968765"><ele>382</ele><time>2023-03-31T11:09:47Z</time><name>PT1391</name></trkpt>
<trkpt lat="53.426717" lon="-1.968788"><ele>382</ele><time>2023-03-31T11:09:50Z</time><name>PT1392</name></trkpt>
<trkpt lat="53.426691" lon="-1.968813"><ele>383</ele><time>2023-03-31T11:09:53Z</time><name>PT1393</name></trkpt>
<trkpt lat="53.426664" lon="-1.968829"><ele>383</ele><time>2023-03-31T11:09:56Z</time><name>PT1394</name></trkpt>
<trkpt lat="53.426631" lon="-1.968835"><ele>383</ele><time>2023-03-31T11:10:00Z</time><name>PT1395</name></trkpt>
<trkpt lat="53.426609" lon="-1.968834"><ele>384</ele><time>2023-03-31T11:10:03Z</time><name>PT1396</name></trkpt>
<trkpt lat="53.426585" lon="-1.968835"><ele>384</ele><time>2023-03-31T11:10:07Z</time><name>PT1397</name></trkpt>
<trkpt lat="53.426575" lon="-1.968840"><ele>384</ele><time>2023-03-31T11:10:11Z</time><name>PT1398</name></trkpt>
<trkpt lat="53.426543" lon="-1.968846"><ele>384</ele><time>2023-03-31T11:10:15Z</time><name>PT1399</name></trkpt>
<trkpt lat="53.426511" lon="-1.968858"><ele>385</ele><time>2023-03-31T11:10:19Z</time><name>PT1400</name></trkpt>
<trkpt lat="53.426479" lon="-1.968858"><ele>385</ele><time>2023-03-31T11:10:23Z</time><name>PT1401</name></trkpt>
<trkpt lat="53.426460" lon="-1.968865"><ele>386</ele><time>2023-03-31T11:10:26Z</time><name>PT1402</name></trkpt>
<trkpt lat="53.426440" lon="-1.968865"><ele>386</ele><time>2023-03-31T11:10:29Z</time><name>PT1403</name></trkpt>
<trkpt lat="53.426422" lon="-1.968869"><ele>387</ele><time>2023-03-31T11:10:32Z</time><name>PT1404</name></trkpt>
<trkpt lat="53.426403" lon="-1.968875"><ele>387</ele><time>2023-03-31T11:10:35Z</time><name>PT1405</name></trkpt>
<trkpt lat="53.426380" lon="-1.968887"><ele>388</ele><time>2023-03-31T11:10:39Z</time><name>PT1406</name></trkpt>
<trkpt lat="53.426353" lon="-1.968890"><ele>389</ele><time>2023-03-31T11:10:43Z</time><name>PT1407</name></trkpt>
<trkpt lat="53.426319" lon="-1.968892"><ele>390</ele><time>2023-03-31T11:10:47Z</time><name>PT1408</name></trkpt>
<trkpt lat="53.426300" lon="-1.968901"><ele>390</ele><time>2023-03-31T11:10:50Z</time><name>PT1409</name></trkpt>
<trkpt lat="53.426270" lon="-1.968904"><ele>391</ele><time>2023-03-31T11:10:54Z</time><name>PT1410</name></trkpt>
<trkpt lat="53.426243" lon="-1.968909"><ele>392</ele><time>2023-03-31T11:10:58Z</time><name>PT1411</name></trkpt>
<trkpt lat="53.426215" lon="-1.968914"><ele>393</ele><time>2023-03-31T11:11:02Z</time><name>PT1412</name></trkpt>
<trkpt lat="53.426186" lon="-1.968919"><ele>394</ele><time>2023-03-31T11:11:06Z</time><name>PT1413</name></trkpt>
<trkpt lat="53.426163" lon="-1.968917"><ele>395</ele><time>2023-03-31T11:11:10Z</time><name>PT1414</name></trkpt>
<trkpt lat="53.426136" lon="-1.968924"><ele>396</ele><time>2023-03-31T11:11:14Z</time><name>PT1415</name></trkpt>
<trkpt lat="53.426117" lon="-1.968929"><ele>396</ele><time>2023-03-31T11:11:17Z</time><name>PT1416</name></trkpt>
<trkpt lat="53.426085" lon="-1.968930"><ele>398</ele><time>2023-03-31T11:11:21Z</time><name>PT1417</name></trkpt>
<trkpt lat="53.426056" lon="-1.968936"><ele>399</ele><time>2023-03-31T11:11:25Z</time><name>PT1418</name></trkpt>
<trkpt lat="53.426041" lon="-1.968942"><ele>400</ele><time>2023-03-31T11:11:28Z</time><name>PT1419</name></trkpt>
<trkpt lat="53.426024" lon="-1.968950"><ele>401</ele><time>2023-03-31T11:11:31Z</time><name>PT1420</name></trkpt>
<trkpt lat="53.425994" lon="-1.968956"><ele>401</ele><time>2023-03-31T11:11:38Z</time><name>PT1421</name></trkpt>
<trkpt lat="53.425964" lon="-1.968959"><ele>401</ele><time>2023-03-31T11:11:41Z</time><name>PT1422</name></trkpt>
<trkpt lat="53.425929" lon="-1.968961"><ele>402</ele><time>2023-03-31T11:11:45Z</time><name>PT1423</name></trkpt>
<trkpt lat="53.425902" lon="-1.968965"><ele>403</ele><time>2023-03-31T11:11:48Z</time><name>PT1424</name></trkpt>
<trkpt lat="53.425880" lon="-1.968972"><ele>403</ele><time>2023-03-31T11:11:51Z</time><name>PT1425</name></trkpt>
<trkpt lat="53.425847" lon="-1.968981"><ele>403</ele><time>2023-03-31T11:11:55Z</time><name>PT1426</name></trkpt>
<trkpt lat="53.425824" lon="-1.968987"><ele>403</ele><time>2023-03-31T11:11:58Z</time><name>PT1427</name></trkpt>
<trkpt lat="53.425795" lon="-1.968986"><ele>404</ele><time>2023-03-31T11:12:02Z</time><name>PT1428</name></trkpt>
<trkpt lat="53.425770" lon="-1.968995"><ele>404</ele><time>2023-03-31T11:12:05Z</time><name>PT1429</name></trkpt>
<trkpt lat="53.425749" lon="-1.968998"><ele>405</ele><time>2023-03-31T11:12:08Z</time><name>PT1430</name></trkpt>
<trkpt lat="53.425716" lon="-1.969007"><ele>406</ele><time>2023-03-31T11:12:12Z</time><name>PT1431</name></trkpt>
<trkpt lat="53.425687" lon="-1.969016"><ele>407</ele><time>2023-03-31T11:12:16Z</time><name>PT1432</name></trkpt>
<trkpt lat="53.425665" lon="-1.969026"><ele>408</ele><time>2023-03-31T11:12:19Z</time><name>PT1433</name></trkpt>
<trkpt lat="53.425644" lon="-1.969035"><ele>409</ele><time>2023-03-31T11:12:23Z</time><name>PT1434</name></trkpt>
<trkpt lat="53.425627" lon="-1.969034"><ele>411</ele><time>2023-03-31T11:12:26Z</time><name>PT1435</name></trkpt>
<trkpt lat="53.425592" lon="-1.969049"><ele>412</ele><time>2023-03-31T11:12:30Z</time><name>PT1436</name></trkpt>
<trkpt lat="53.425572" lon="-1.969063"><ele>413</ele><time>2023-03-31T11:12:33Z</time><name>PT1437</name></trkpt>
<trkpt lat="53.425550" lon="-1.969067"><ele>414</ele><time>2023-03-31T11:12:37Z</time><name>PT1438</name></trkpt>
<trkpt lat="53.425522" lon="-1.969079"><ele>414</ele><time>2023-03-31T11:12:41Z</time><name>PT1439</name></trkpt>
<trkpt lat="53.425498" lon="-1.969100"><ele>415</ele><time>2023-03-31T11:12:45Z</time><name>PT1440</name></trkpt>
<trkpt lat="53.425484" lon="-1.969108"><ele>415</ele><time>2023-03-31T11:12:48Z</time><name>PT1441</name></trkpt>
<trkpt lat="53.425458" lon="-1.969118"><ele>416</ele><time>2023-03-31T11:12:52Z</time><name>PT1442</name></trkpt>
<trkpt lat="53.425427" lon="-1.969114"><ele>417</ele><time>2023-03-31T11:12:55Z</time><name>PT1443</name></trkpt>
<trkpt lat="53.425399" lon="-1.969125"><ele>417</ele><time>2023-03-31T11:12:58Z</time><name>PT1444</name></trkpt>
<trkpt lat="53.425375" lon="-1.969141"><ele>417</ele><time>2023-03-31T11:13:02Z</time><name>PT1445</name></trkpt>
<trkpt lat="53.425347" lon="-1.969125"><ele>416</ele><time>2023-03-31T11:13:06Z</time><name>PT1446</name></trkpt>
<trkpt lat="53.425345" lon="-1.969120"><ele>417</ele><time>2023-03-31T11:13:10Z</time><name>PT1447</name></trkpt>
<trkpt lat="53.425313" lon="-1.969118"><ele>417</ele><time>2023-03-31T11:13:13Z</time><name>PT1448</name></trkpt>
<trkpt lat="53.425284" lon="-1.969136"><ele>417</ele><time>2023-03-31T11:13:16Z</time><name>PT1449</name></trkpt>
<trkpt lat="53.425246" lon="-1.969150"><ele>417</ele><time>2023-03-31T11:13:20Z</time><name>PT1450</name></trkpt>
<trkpt lat="53.425203" lon="-1.969155"><ele>416</ele><time>2023-03-31T11:13:24Z</time><name>PT1451</name></trkpt>
<trkpt lat="53.425159" lon="-1.969157"><ele>416</ele><time>2023-03-31T11:13:28Z</time><name>PT1452</name></trkpt>
<trkpt lat="53.425116" lon="-1.969162"><ele>416</ele><time>2023-03-31T11:13:32Z</time><name>PT1453</name></trkpt>
<trkpt lat="53.425072" lon="-1.969152"><ele>416</ele><time>2023-03-31T11:13:36Z</time><name>PT1454</name></trkpt>
<trkpt lat="53.425028" lon="-1.969152"><ele>416</ele><time>2023-03-31T11:13:40Z</time><name>PT1455</name></trkpt>
<trkpt lat="53.425010" lon="-1.969170"><ele>406</ele><time>2023-03-31T11:13:43Z</time><name>PT1456</name></trkpt>
<trkpt lat="53.424973" lon="-1.969183"><ele>405</ele><time>2023-03-31T11:13:47Z</time><name>PT1457</name></trkpt>
<trkpt lat="53.424942" lon="-1.969189"><ele>407</ele><time>2023-03-31T11:13:50Z</time><name>PT1458</name></trkpt>
<trkpt lat="53.424914" lon="-1.969189"><ele>407</ele><time>2023-03-31T11:13:53Z</time><name>PT1459</name></trkpt>
<trkpt lat="53.424873" lon="-1.969189"><ele>408</ele><time>2023-03-31T11:13:57Z</time><name>PT1460</name></trkpt>
<trkpt lat="53.424834" lon="-1.969196"><ele>409</ele><time>2023-03-31T11:14:01Z</time><name>PT1461</name></trkpt>
<trkpt lat="53.424800" lon="-1.969203"><ele>410</ele><time>2023-03-31T11:14:05Z</time><name>PT1462</name></trkpt>
<trkpt lat="53.424773" lon="-1.969209"><ele>410</ele><time>2023-03-31T11:14:08Z</time><name>PT1463</name></trkpt>
<trkpt lat="53.424748" lon="-1.969206"><ele>409</ele><time>2023-03-31T11:14:11Z</time><name>PT1464</name></trkpt>
<trkpt lat="53.424722" lon="-1.969201"><ele>410</ele><time>2023-03-31T11:14:14Z</time><name>PT1465</name></trkpt>
<trkpt lat="53.424692" lon="-1.969190"><ele>410</ele><time>2023-03-31T11:14:18Z</time><name>PT1466</name></trkpt>
<trkpt lat="53.424659" lon="-1.969189"><ele>410</ele><time>2023-03-31T11:14:21Z</time><name>PT1467</name></trkpt>
<trkpt lat="53.424616" lon="-1.969195"><ele>411</ele><time>2023-03-31T11:14:25Z</time><name>PT1468</name></trkpt>
<trkpt lat="53.424570" lon="-1.969198"><ele>410</ele><time>2023-03-31T11:14:29Z</time><name>PT1469</name></trkpt>
<trkpt lat="53.424532" lon="-1.969194"><ele>412</ele><time>2023-03-31T11:14:32Z</time><name>PT1470</name></trkpt>
<trkpt lat="53.424483" lon="-1.969192"><ele>411</ele><time>2023-03-31T11:14:36Z</time><name>PT1471</name></trkpt>
<trkpt lat="53.424442" lon="-1.969193"><ele>413</ele><time>2023-03-31T11:14:40Z</time><name>PT1472</name></trkpt>
<trkpt lat="53.424411" lon="-1.969195"><ele>413</ele><time>2023-03-31T11:14:43Z</time><name>PT1473</name></trkpt>
<trkpt lat="53.424382" lon="-1.969202"><ele>412</ele><time>2023-03-31T11:14:46Z</time><name>PT1474</name></trkpt>
<trkpt lat="53.424338" lon="-1.969221"><ele>413</ele><time>2023-03-31T11:14:50Z</time><name>PT1475</name></trkpt>
<trkpt lat="53.424300" lon="-1.969241"><ele>414</ele><time>2023-03-31T11:14:53Z</time><name>PT1476</name></trkpt>
<trkpt lat="53.424263" lon="-1.969260"><ele>414</ele><time>2023-03-31T11:14:56Z</time><name>PT1477</name></trkpt>
<trkpt lat="53.424220" lon="-1.969295"><ele>413</ele><time>2023-03-31T11:15:00Z</time><name>PT1478</name></trkpt>
<trkpt lat="53.424184" lon="-1.969319"><ele>413</ele><time>2023-03-31T11:15:04Z</time><name>PT1479</name></trkpt>
<trkpt lat="53.424148" lon="-1.969342"><ele>412</ele><time>2023-03-31T11:15:07Z</time><name>PT1480</name></trkpt>
<trkpt lat="53.424115" lon="-1.969369"><ele>412</ele><time>2023-03-31T11:15:10Z</time><name>PT1481</name></trkpt>
<trkpt lat="53.424072" lon="-1.969401"><ele>413</ele><time>2023-03-31T11:15:14Z</time><name>PT1482</name></trkpt>
<trkpt lat="53.424031" lon="-1.969430"><ele>414</ele><time>2023-03-31T11:15:18Z</time><name>PT1483</name></trkpt>
<trkpt lat="53.423985" lon="-1.969466"><ele>415</ele><time>2023-03-31T11:15:22Z</time><name>PT1484</name></trkpt>
<trkpt lat="53.423935" lon="-1.969497"><ele>414</ele><time>2023-03-31T11:15:26Z</time><name>PT1485</name></trkpt>
<trkpt lat="53.423895" lon="-1.969525"><ele>415</ele><time>2023-03-31T11:15:30Z</time><name>PT1486</name></trkpt>
<trkpt lat="53.423848" lon="-1.969552"><ele>416</ele><time>2023-03-31T11:15:34Z</time><name>PT1487</name></trkpt>
<trkpt lat="53.423806" lon="-1.969587"><ele>416</ele><time>2023-03-31T11:15:38Z</time><name>PT1488</name></trkpt>
<trkpt lat="53.423766" lon="-1.969619"><ele>416</ele><time>2023-03-31T11:15:42Z</time><name>PT1489</name></trkpt>
<trkpt lat="53.423723" lon="-1.969657"><ele>416</ele><time>2023-03-31T11:15:46Z</time><name>PT1490</name></trkpt>
<trkpt lat="53.423676" lon="-1.969683"><ele>416</ele><time>2023-03-31T11:15:50Z</time><name>PT1491</name></trkpt>
<trkpt lat="53.423644" lon="-1.969703"><ele>416</ele><time>2023-03-31T11:15:53Z</time><name>PT1492</name></trkpt>
<trkpt lat="53.423614" lon="-1.969735"><ele>416</ele><time>2023-03-31T11:15:56Z</time><name>PT1493</name></trkpt>
<trkpt lat="53.423578" lon="-1.969785"><ele>416</ele><time>2023-03-31T11:16:00Z</time><name>PT1494</name></trkpt>
<trkpt lat="53.423539" lon="-1.969831"><ele>416</ele><time>2023-03-31T11:16:04Z</time><name>PT1495</name></trkpt>
<trkpt lat="53.423500" lon="-1.969872"><ele>416</ele><time>2023-03-31T11:16:08Z</time><name>PT1496</name></trkpt>
<trkpt lat="53.423464" lon="-1.969904"><ele>415</ele><time>2023-03-31T11:16:12Z</time><name>PT1497</name></trkpt>
<trkpt lat="53.423424" lon="-1.969935"><ele>415</ele><time>2023-03-31T11:16:16Z</time><name>PT1498</name></trkpt>
<trkpt lat="53.423396" lon="-1.969954"><ele>414</ele><time>2023-03-31T11:16:19Z</time><name>PT1499</name></trkpt>
<trkpt lat="53.423363" lon="-1.969991"><ele>414</ele><time>2023-03-31T11:16:23Z</time><name>PT1500</name></trkpt>
<trkpt lat="53.423343" lon="-1.970025"><ele>413</ele><time>2023-03-31T11:16:26Z</time><name>PT1501</name></trkpt>
<trkpt lat="53.423307" lon="-1.970061"><ele>413</ele><time>2023-03-31T11:16:30Z</time><name>PT1502</name></trkpt>
<trkpt lat="53.423268" lon="-1.970072"><ele>412</ele><time>2023-03-31T11:16:34Z</time><name>PT1503</name></trkpt>
<trkpt lat="53.423237" lon="-1.970085"><ele>412</ele><time>2023-03-31T11:16:37Z</time><name>PT1504</name></trkpt>
<trkpt lat="53.423198" lon="-1.970114"><ele>412</ele><time>2023-03-31T11:16:41Z</time><name>PT1505</name></trkpt>
<trkpt lat="53.423168" lon="-1.970129"><ele>411</ele><time>2023-03-31T11:16:45Z</time><name>PT1506</name></trkpt>
<trkpt lat="53.423144" lon="-1.970147"><ele>410</ele><time>2023-03-31T11:16:48Z</time><name>PT1507</name></trkpt>
<trkpt lat="53.423115" lon="-1.970198"><ele>409</ele><time>2023-03-31T11:16:52Z</time><name>PT1508</name></trkpt>
<trkpt lat="53.423098" lon="-1.970248"><ele>409</ele><time>2023-03-31T11:16:55Z</time><name>PT1509</name></trkpt>
<trkpt lat="53.423078" lon="-1.970308"><ele>409</ele><time>2023-03-31T11:16:59Z</time><name>PT1510</name></trkpt>
<trkpt lat="53.423083" lon="-1.970351"><ele>409</ele><time>2023-03-31T11:17:02Z</time><name>PT1511</name></trkpt>
<trkpt lat="53.423066" lon="-1.970405"><ele>409</ele><time>2023-03-31T11:17:06Z</time><name>PT1512</name></trkpt>
<trkpt lat="53.423037" lon="-1.970444"><ele>409</ele><time>2023-03-31T11:17:10Z</time><name>PT1513</name></trkpt>
<trkpt lat="53.422997" lon="-1.970481"><ele>408</ele><time>2023-03-31T11:17:14Z</time><name>PT1514</name></trkpt>
<trkpt lat="53.422967" lon="-1.970504"><ele>408</ele><time>2023-03-31T11:17:17Z</time><name>PT1515</name></trkpt>
<trkpt lat="53.422934" lon="-1.970543"><ele>407</ele><time>2023-03-31T11:17:21Z</time><name>PT1516</name></trkpt>
<trkpt lat="53.422914" lon="-1.970567"><ele>407</ele><time>2023-03-31T11:17:24Z</time><name>PT1517</name></trkpt>
<trkpt lat="53.422882" lon="-1.970589"><ele>407</ele><time>2023-03-31T11:17:27Z</time><name>PT1518</name></trkpt>
<trkpt lat="53.422841" lon="-1.970625"><ele>407</ele><time>2023-03-31T11:17:31Z</time><name>PT1519</name></trkpt>
<trkpt lat="53.422809" lon="-1.970659"><ele>407</ele><time>2023-03-31T11:17:34Z</time><name>PT1520</name></trkpt>
<trkpt lat="53.422768" lon="-1.970685"><ele>407</ele><time>2023-03-31T11:17:38Z</time><name>PT1521</name></trkpt>
<trkpt lat="53.422742" lon="-1.970707"><ele>407</ele><time>2023-03-31T11:17:41Z</time><name>PT1522</name></trkpt>
<trkpt lat="53.422716" lon="-1.970730"><ele>407</ele><time>2023-03-31T11:17:44Z</time><name>PT1523</name></trkpt>
<trkpt lat="53.422688" lon="-1.970768"><ele>406</ele><time>2023-03-31T11:17:48Z</time><name>PT1524</name></trkpt>
<trkpt lat="53.422656" lon="-1.970817"><ele>406</ele><time>2023-03-31T11:17:52Z</time><name>PT1525</name></trkpt>
<trkpt lat="53.422637" lon="-1.970856"><ele>406</ele><time>2023-03-31T11:17:55Z</time><name>PT1526</name></trkpt>
<trkpt lat="53.422603" lon="-1.970905"><ele>405</ele><time>2023-03-31T11:17:59Z</time><name>PT1527</name></trkpt>
<trkpt lat="53.422569" lon="-1.970960"><ele>405</ele><time>2023-03-31T11:18:03Z</time><name>PT1528</name></trkpt>
<trkpt lat="53.422544" lon="-1.970985"><ele>403</ele><time>2023-03-31T11:18:06Z</time><name>PT1529</name></trkpt>
<trkpt lat="53.422513" lon="-1.971002"><ele>405</ele><time>2023-03-31T11:18:09Z</time><name>PT1530</name></trkpt>
<trkpt lat="53.422481" lon="-1.971021"><ele>405</ele><time>2023-03-31T11:18:12Z</time><name>PT1531</name></trkpt>
<trkpt lat="53.422452" lon="-1.971046"><ele>404</ele><time>2023-03-31T11:18:15Z</time><name>PT1532</name></trkpt>
<trkpt lat="53.422412" lon="-1.971079"><ele>405</ele><time>2023-03-31T11:18:19Z</time><name>PT1533</name></trkpt>
<trkpt lat="53.422360" lon="-1.971087"><ele>404</ele><time>2023-03-31T11:18:23Z</time><name>PT1534</name></trkpt>
<trkpt lat="53.422327" lon="-1.971098"><ele>404</ele><time>2023-03-31T11:18:26Z</time><name>PT1535</name></trkpt>
<trkpt lat="53.422282" lon="-1.971112"><ele>403</ele><time>2023-03-31T11:18:30Z</time><name>PT1536</name></trkpt>
<trkpt lat="53.422237" lon="-1.971125"><ele>403</ele><time>2023-03-31T11:18:34Z</time><name>PT1537</name></trkpt>
<trkpt lat="53.422205" lon="-1.971139"><ele>403</ele><time>2023-03-31T11:18:37Z</time><name>PT1538</name></trkpt>
<trkpt lat="53.422170" lon="-1.971157"><ele>402</ele><time>2023-03-31T11:18:40Z</time><name>PT1539</name></trkpt>
<trkpt lat="53.422130" lon="-1.971186"><ele>402</ele><time>2023-03-31T11:18:44Z</time><name>PT1540</name></trkpt>
<trkpt lat="53.422102" lon="-1.971206"><ele>402</ele><time>2023-03-31T11:18:47Z</time><name>PT1541</name></trkpt>
<trkpt lat="53.422061" lon="-1.971237"><ele>401</ele><time>2023-03-31T11:18:51Z</time><name>PT1542</name></trkpt>
<trkpt lat="53.422020" lon="-1.971270"><ele>401</ele><time>2023-03-31T11:18:55Z</time><name>PT1543</name></trkpt>
<trkpt lat="53.421976" lon="-1.971296"><ele>400</ele><time>2023-03-31T11:18:59Z</time><name>PT1544</name></trkpt>
<trkpt lat="53.421948" lon="-1.971314"><ele>399</ele><time>2023-03-31T11:19:02Z</time><name>PT1545</name></trkpt>
<trkpt lat="53.421909" lon="-1.971341"><ele>399</ele><time>2023-03-31T11:19:06Z</time><name>PT1546</name></trkpt>
<trkpt lat="53.421869" lon="-1.971378"><ele>398</ele><time>2023-03-31T11:19:10Z</time><name>PT1547</name></trkpt>
<trkpt lat="53.421844" lon="-1.971395"><ele>398</ele><time>2023-03-31T11:19:13Z</time><name>PT1548</name></trkpt>
<trkpt lat="53.421809" lon="-1.971421"><ele>397</ele><time>2023-03-31T11:19:17Z</time><name>PT1549</name></trkpt>
<trkpt lat="53.421783" lon="-1.971453"><ele>397</ele><time>2023-03-31T11:19:20Z</time><name>PT1550</name></trkpt>
<trkpt lat="53.421746" lon="-1.971487"><ele>396</ele><time>2023-03-31T11:19:24Z</time><name>PT1551</name></trkpt>
<trkpt lat="53.421708" lon="-1.971518"><ele>396</ele><time>2023-03-31T11:19:28Z</time><name>PT1552</name></trkpt>
<trkpt lat="53.421679" lon="-1.971547"><ele>395</ele><time>2023-03-31T11:19:31Z</time><name>PT1553</name></trkpt>
<trkpt lat="53.421636" lon="-1.971587"><ele>394</ele><time>2023-03-31T11:19:35Z</time><name>PT1554</name></trkpt>
<trkpt lat="53.421593" lon="-1.971626"><ele>393</ele><time>2023-03-31T11:19:39Z</time><name>PT1555</name></trkpt>
<trkpt lat="53.421560" lon="-1.971664"><ele>392</ele><time>2023-03-31T11:19:43Z</time><name>PT1556</name></trkpt>
<trkpt lat="53.421542" lon="-1.971705"><ele>392</ele><time>2023-03-31T11:19:46Z</time><name>PT1557</name></trkpt>
<trkpt lat="53.421508" lon="-1.971740"><ele>392</ele><time>2023-03-31T11:19:50Z</time><name>PT1558</name></trkpt>
<trkpt lat="53.421474" lon="-1.971764"><ele>392</ele><time>2023-03-31T11:19:53Z</time><name>PT1559</name></trkpt>
<trkpt lat="53.421445" lon="-1.971796"><ele>392</ele><time>2023-03-31T11:19:56Z</time><name>PT1560</name></trkpt>
<trkpt lat="53.421414" lon="-1.971818"><ele>391</ele><time>2023-03-31T11:19:59Z</time><name>PT1561</name></trkpt>
<trkpt lat="53.421375" lon="-1.971852"><ele>391</ele><time>2023-03-31T11:20:03Z</time><name>PT1562</name></trkpt>
<trkpt lat="53.421338" lon="-1.971900"><ele>391</ele><time>2023-03-31T11:20:07Z</time><name>PT1563</name></trkpt>
<trkpt lat="53.421299" lon="-1.971947"><ele>391</ele><time>2023-03-31T11:20:11Z</time><name>PT1564</name></trkpt>
<trkpt lat="53.421265" lon="-1.971992"><ele>391</ele><time>2023-03-31T11:20:15Z</time><name>PT1565</name></trkpt>
<trkpt lat="53.421235" lon="-1.972028"><ele>390</ele><time>2023-03-31T11:20:18Z</time><name>PT1566</name></trkpt>
<trkpt lat="53.421196" lon="-1.972061"><ele>391</ele><time>2023-03-31T11:20:22Z</time><name>PT1567</name></trkpt>
<trkpt lat="53.421156" lon="-1.972096"><ele>390</ele><time>2023-03-31T11:20:26Z</time><name>PT1568</name></trkpt>
<trkpt lat="53.421130" lon="-1.972115"><ele>390</ele><time>2023-03-31T11:20:29Z</time><name>PT1569</name></trkpt>
<trkpt lat="53.421102" lon="-1.972145"><ele>390</ele><time>2023-03-31T11:20:32Z</time><name>PT1570</name></trkpt>
<trkpt lat="53.421076" lon="-1.972170"><ele>389</ele><time>2023-03-31T11:20:35Z</time><name>PT1571</name></trkpt>
<trkpt lat="53.421046" lon="-1.972204"><ele>389</ele><time>2023-03-31T11:20:38Z</time><name>PT1572</name></trkpt>
<trkpt lat="53.421003" lon="-1.972243"><ele>389</ele><time>2023-03-31T11:20:42Z</time><name>PT1573</name></trkpt>
<trkpt lat="53.420971" lon="-1.972267"><ele>390</ele><time>2023-03-31T11:20:45Z</time><name>PT1574</name></trkpt>
<trkpt lat="53.420942" lon="-1.972301"><ele>389</ele><time>2023-03-31T11:20:48Z</time><name>PT1575</name></trkpt>
<trkpt lat="53.420906" lon="-1.972343"><ele>388</ele><time>2023-03-31T11:20:52Z</time><name>PT1576</name></trkpt>
<trkpt lat="53.420876" lon="-1.972367"><ele>388</ele><time>2023-03-31T11:20:55Z</time><name>PT1577</name></trkpt>
<trkpt lat="53.420844" lon="-1.972386"><ele>387</ele><time>2023-03-31T11:20:58Z</time><name>PT1578</name></trkpt>
<trkpt lat="53.420804" lon="-1.972394"><ele>386</ele><time>2023-03-31T11:21:02Z</time><name>PT1579</name></trkpt>
<trkpt lat="53.420759" lon="-1.972393"><ele>385</ele><time>2023-03-31T11:21:06Z</time><name>PT1580</name></trkpt>
<trkpt lat="53.420724" lon="-1.972393"><ele>384</ele><time>2023-03-31T11:21:09Z</time><name>PT1581</name></trkpt>
<trkpt lat="53.420692" lon="-1.972401"><ele>383</ele><time>2023-03-31T11:21:12Z</time><name>PT1582</name></trkpt>
<trkpt lat="53.420646" lon="-1.972407"><ele>382</ele><time>2023-03-31T11:21:16Z</time><name>PT1583</name></trkpt>
<trkpt lat="53.420603" lon="-1.972422"><ele>382</ele><time>2023-03-31T11:21:20Z</time><name>PT1584</name></trkpt>
<trkpt lat="53.420571" lon="-1.972427"><ele>381</ele><time>2023-03-31T11:21:23Z</time><name>PT1585</name></trkpt>
<trkpt lat="53.420536" lon="-1.972428"><ele>380</ele><time>2023-03-31T11:21:26Z</time><name>PT1586</name></trkpt>
<trkpt lat="53.420511" lon="-1.972439"><ele>379</ele><time>2023-03-31T11:21:29Z</time><name>PT1587</name></trkpt>
<trkpt lat="53.420471" lon="-1.972454"><ele>378</ele><time>2023-03-31T11:21:33Z</time><name>PT1588</name></trkpt>
<trkpt lat="53.420444" lon="-1.972470"><ele>378</ele><time>2023-03-31T11:21:36Z</time><name>PT1589</name></trkpt>
<trkpt lat="53.420402" lon="-1.972481"><ele>377</ele><time>2023-03-31T11:21:40Z</time><name>PT1590</name></trkpt>
<trkpt lat="53.420356" lon="-1.972492"><ele>376</ele><time>2023-03-31T11:21:44Z</time><name>PT1591</name></trkpt>
<trkpt lat="53.420309" lon="-1.972498"><ele>375</ele><time>2023-03-31T11:21:48Z</time><name>PT1592</name></trkpt>
<trkpt lat="53.420278" lon="-1.972501"><ele>375</ele><time>2023-03-31T11:21:52Z</time><name>PT1593</name></trkpt>
<trkpt lat="53.420240" lon="-1.972506"><ele>374</ele><time>2023-03-31T11:21:56Z</time><name>PT1594</name></trkpt>
<trkpt lat="53.420201" lon="-1.972515"><ele>372</ele><time>2023-03-31T11:22:00Z</time><name>PT1595</name></trkpt>
<trkpt lat="53.420173" lon="-1.972516"><ele>372</ele><time>2023-03-31T11:22:03Z</time><name>PT1596</name></trkpt>
<trkpt lat="53.420146" lon="-1.972520"><ele>371</ele><time>2023-03-31T11:22:06Z</time><name>PT1597</name></trkpt>
<trkpt lat="53.420107" lon="-1.972538"><ele>370</ele><time>2023-03-31T11:22:10Z</time><name>PT1598</name></trkpt>
<trkpt lat="53.420079" lon="-1.972541"><ele>369</ele><time>2023-03-31T11:22:14Z</time><name>PT1599</name></trkpt>
<trkpt lat="53.420057" lon="-1.972557"><ele>367</ele><time>2023-03-31T11:22:17Z</time><name>PT1600</name></trkpt>
<trkpt lat="53.420025" lon="-1.972583"><ele>366</ele><time>2023-03-31T11:22:21Z</time><name>PT1601</name></trkpt>
<trkpt lat="53.419995" lon="-1.972616"><ele>365</ele><time>2023-03-31T11:22:24Z</time><name>PT1602</name></trkpt>
<trkpt lat="53.419953" lon="-1.972655"><ele>363</ele><time>2023-03-31T11:22:28Z</time><name>PT1603</name></trkpt>
<trkpt lat="53.419948" lon="-1.972659"><ele>364</ele><time>2023-03-31T11:22:31Z</time><name>PT1604</name></trkpt>
<trkpt lat="53.419947" lon="-1.972658"><ele>364</ele><time>2023-03-31T11:22:34Z</time><name>PT1605</name></trkpt>
<trkpt lat="53.419917" lon="-1.972647"><ele>363</ele><time>2023-03-31T11:22:38Z</time><name>PT1606</name></trkpt>
<trkpt lat="53.419889" lon="-1.972647"><ele>361</ele><time>2023-03-31T11:22:41Z</time><name>PT1607</name></trkpt>
<trkpt lat="53.419867" lon="-1.972635"><ele>360</ele><time>2023-03-31T11:22:44Z</time><name>PT1608</name></trkpt>
<trkpt lat="53.419823" lon="-1.972621"><ele>359</ele><time>2023-03-31T11:22:48Z</time><name>PT1609</name></trkpt>
<trkpt lat="53.419790" lon="-1.972600"><ele>359</ele><time>2023-03-31T11:22:52Z</time><name>PT1610</name></trkpt>
<trkpt lat="53.419767" lon="-1.972591"><ele>359</ele><time>2023-03-31T11:22:55Z</time><name>PT1611</name></trkpt>
<trkpt lat="53.419748" lon="-1.972576"><ele>359</ele><time>2023-03-31T11:22:59Z</time><name>PT1612</name></trkpt>
<trkpt lat="53.419735" lon="-1.972546"><ele>358</ele><time>2023-03-31T11:23:02Z</time><name>PT1613</name></trkpt>
<trkpt lat="53.419728" lon="-1.972525"><ele>357</ele><time>2023-03-31T11:23:05Z</time><name>PT1614</name></trkpt>
<trkpt lat="53.419709" lon="-1.972510"><ele>356</ele><time>2023-03-31T11:23:08Z</time><name>PT1615</name></trkpt>
<trkpt lat="53.419700" lon="-1.972450"><ele>356</ele><time>2023-03-31T11:23:12Z</time><name>PT1616</name></trkpt>
<trkpt lat="53.419679" lon="-1.972364"><ele>358</ele><time>2023-03-31T11:23:15Z</time><name>PT1617</name></trkpt>
<trkpt lat="53.419671" lon="-1.972297"><ele>358</ele><time>2023-03-31T11:23:18Z</time><name>PT1618</name></trkpt>
<trkpt lat="53.419665" lon="-1.972227"><ele>358</ele><time>2023-03-31T11:23:22Z</time><name>PT1619</name></trkpt>
<trkpt lat="53.419657" lon="-1.972175"><ele>358</ele><time>2023-03-31T11:23:25Z</time><name>PT1620</name></trkpt>
<trkpt lat="53.419648" lon="-1.972119"><ele>358</ele><time>2023-03-31T11:23:28Z</time><name>PT1621</name></trkpt>
<trkpt lat="53.419635" lon="-1.972071"><ele>357</ele><time>2023-03-31T11:23:31Z</time><name>PT1622</name></trkpt>
<trkpt lat="53.419607" lon="-1.972017"><ele>358</ele><time>2023-03-31T11:23:35Z</time><name>PT1623</name></trkpt>
<trkpt lat="53.419600" lon="-1.971992"><ele>357</ele><time>2023-03-31T11:23:39Z</time><name>PT1624</name></trkpt>
<trkpt lat="53.419601" lon="-1.971998"><ele>357</ele><time>2023-03-31T11:23:43Z</time><name>PT1625</name></trkpt>
<trkpt lat="53.419604" lon="-1.972007"><ele>357</ele><time>2023-03-31T11:23:46Z</time><name>PT1626</name></trkpt>
<trkpt lat="53.419602" lon="-1.972008"><ele>356</ele><time>2023-03-31T11:23:50Z</time><name>PT1627</name></trkpt>
<trkpt lat="53.419581" lon="-1.971967"><ele>355</ele><time>2023-03-31T11:23:53Z</time><name>PT1628</name></trkpt>
<trkpt lat="53.419551" lon="-1.971915"><ele>355</ele><time>2023-03-31T11:23:57Z</time><name>PT1629</name></trkpt>
<trkpt lat="53.419517" lon="-1.971868"><ele>354</ele><time>2023-03-31T11:24:01Z</time><name>PT1630</name></trkpt>
<trkpt lat="53.419487" lon="-1.971799"><ele>354</ele><time>2023-03-31T11:24:05Z</time><name>PT1631</name></trkpt>
<trkpt lat="53.419466" lon="-1.971760"><ele>354</ele><time>2023-03-31T11:24:08Z</time><name>PT1632</name></trkpt>
<trkpt lat="53.419428" lon="-1.971708"><ele>353</ele><time>2023-03-31T11:24:11Z</time><name>PT1633</name></trkpt>
<trkpt lat="53.419395" lon="-1.971656"><ele>352</ele><time>2023-03-31T11:24:15Z</time><name>PT1634</name></trkpt>
<trkpt lat="53.419358" lon="-1.971589"><ele>352</ele><time>2023-03-31T11:24:19Z</time><name>PT1635</name></trkpt>
<trkpt lat="53.419324" lon="-1.971535"><ele>351</ele><time>2023-03-31T11:24:23Z</time><name>PT1636</name></trkpt>
<trkpt lat="53.419287" lon="-1.971475"><ele>351</ele><time>2023-03-31T11:24:27Z</time><name>PT1637</name></trkpt>
<trkpt lat="53.419262" lon="-1.971426"><ele>352</ele><time>2023-03-31T11:24:30Z</time><name>PT1638</name></trkpt>
<trkpt lat="53.419205" lon="-1.971361"><ele>353</ele><time>2023-03-31T11:24:34Z</time><name>PT1639</name></trkpt>
<trkpt lat="53.419178" lon="-1.971311"><ele>353</ele><time>2023-03-31T11:24:37Z</time><name>PT1640</name></trkpt>
<trkpt lat="53.419151" lon="-1.971250"><ele>353</ele><time>2023-03-31T11:24:41Z</time><name>PT1641</name></trkpt>
<trkpt lat="53.419117" lon="-1.971195"><ele>352</ele><time>2023-03-31T11:24:45Z</time><name>PT1642</name></trkpt>
<trkpt lat="53.419090" lon="-1.971154"><ele>351</ele><time>2023-03-31T11:24:48Z</time><name>PT1643</name></trkpt>
<trkpt lat="53.419064" lon="-1.971104"><ele>351</ele><time>2023-03-31T11:24:51Z</time><name>PT1644</name></trkpt>
<trkpt lat="53.419033" lon="-1.971047"><ele>350</ele><time>2023-03-31T11:24:55Z</time><name>PT1645</name></trkpt>
<trkpt lat="53.419002" lon="-1.971000"><ele>349</ele><time>2023-03-31T11:24:58Z</time><name>PT1646</name></trkpt>
<trkpt lat="53.418978" lon="-1.970957"><ele>350</ele><time>2023-03-31T11:25:01Z</time><name>PT1647</name></trkpt>
<trkpt lat="53.418943" lon="-1.970896"><ele>349</ele><time>2023-03-31T11:25:05Z</time><name>PT1648</name></trkpt>
<trkpt lat="53.418909" lon="-1.970842"><ele>349</ele><time>2023-03-31T11:25:09Z</time><name>PT1649</name></trkpt>
<trkpt lat="53.418878" lon="-1.970792"><ele>348</ele><time>2023-03-31T11:25:12Z</time><name>PT1650</name></trkpt>
<trkpt lat="53.418843" lon="-1.970727"><ele>347</ele><time>2023-03-31T11:25:16Z</time><name>PT1651</name></trkpt>
<trkpt lat="53.418821" lon="-1.970683"><ele>347</ele><time>2023-03-31T11:25:19Z</time><name>PT1652</name></trkpt>
<trkpt lat="53.418808" lon="-1.970638"><ele>346</ele><time>2023-03-31T11:25:22Z</time><name>PT1653</name></trkpt>
<trkpt lat="53.418789" lon="-1.970562"><ele>345</ele><time>2023-03-31T11:25:26Z</time><name>PT1654</name></trkpt>
<trkpt lat="53.418793" lon="-1.970473"><ele>345</ele><time>2023-03-31T11:25:30Z</time><name>PT1655</name></trkpt>
<trkpt lat="53.418793" lon="-1.970390"><ele>345</ele><time>2023-03-31T11:25:34Z</time><name>PT1656</name></trkpt>
<trkpt lat="53.418808" lon="-1.970314"><ele>344</ele><time>2023-03-31T11:25:38Z</time><name>PT1657</name></trkpt>
<trkpt lat="53.418814" lon="-1.970235"><ele>345</ele><time>2023-03-31T11:25:42Z</time><name>PT1658</name></trkpt>
<trkpt lat="53.418821" lon="-1.970178"><ele>344</ele><time>2023-03-31T11:25:45Z</time><name>PT1659</name></trkpt>
<trkpt lat="53.418824" lon="-1.970105"><ele>343</ele><time>2023-03-31T11:25:49Z</time><name>PT1660</name></trkpt>
<trkpt lat="53.418818" lon="-1.970037"><ele>345</ele><time>2023-03-31T11:25:52Z</time><name>PT1661</name></trkpt>
<trkpt lat="53.418816" lon="-1.969968"><ele>345</ele><time>2023-03-31T11:25:56Z</time><name>PT1662</name></trkpt>
<trkpt lat="53.418817" lon="-1.969903"><ele>346</ele><time>2023-03-31T11:26:00Z</time><name>PT1663</name></trkpt>
<trkpt lat="53.418816" lon="-1.969850"><ele>346</ele><time>2023-03-31T11:26:03Z</time><name>PT1664</name></trkpt>
<trkpt lat="53.418810" lon="-1.969794"><ele>347</ele><time>2023-03-31T11:26:06Z</time><name>PT1665</name></trkpt>
<trkpt lat="53.418794" lon="-1.969719"><ele>348</ele><time>2023-03-31T11:26:10Z</time><name>PT1666</name></trkpt>
<trkpt lat="53.418778" lon="-1.969644"><ele>347</ele><time>2023-03-31T11:26:14Z</time><name>PT1667</name></trkpt>
<trkpt lat="53.418761" lon="-1.969584"><ele>347</ele><time>2023-03-31T11:26:17Z</time><name>PT1668</name></trkpt>
<trkpt lat="53.418743" lon="-1.969508"><ele>347</ele><time>2023-03-31T11:26:21Z</time><name>PT1669</name></trkpt>
<trkpt lat="53.418725" lon="-1.969456"><ele>348</ele><time>2023-03-31T11:26:24Z</time><name>PT1670</name></trkpt>
<trkpt lat="53.418715" lon="-1.969396"><ele>347</ele><time>2023-03-31T11:26:28Z</time><name>PT1671</name></trkpt>
<trkpt lat="53.418700" lon="-1.969341"><ele>347</ele><time>2023-03-31T11:26:31Z</time><name>PT1672</name></trkpt>
<trkpt lat="53.418685" lon="-1.969275"><ele>347</ele><time>2023-03-31T11:26:35Z</time><name>PT1673</name></trkpt>
<trkpt lat="53.418667" lon="-1.969223"><ele>347</ele><time>2023-03-31T11:26:38Z</time><name>PT1674</name></trkpt>
<trkpt lat="53.418648" lon="-1.969151"><ele>347</ele><time>2023-03-31T11:26:42Z</time><name>PT1675</name></trkpt>
<trkpt lat="53.418636" lon="-1.969108"><ele>347</ele><time>2023-03-31T11:26:45Z</time><name>PT1676</name></trkpt>
<trkpt lat="53.418623" lon="-1.969046"><ele>346</ele><time>2023-03-31T11:26:49Z</time><name>PT1677</name></trkpt>
<trkpt lat="53.418610" lon="-1.968966"><ele>346</ele><time>2023-03-31T11:26:53Z</time><name>PT1678</name></trkpt>
<trkpt lat="53.418606" lon="-1.968913"><ele>346</ele><time>2023-03-31T11:26:56Z</time><name>PT1679</name></trkpt>
<trkpt lat="53.418589" lon="-1.968840"><ele>346</ele><time>2023-03-31T11:27:00Z</time><name>PT1680</name></trkpt>
<trkpt lat="53.418568" lon="-1.968766"><ele>348</ele><time>2023-03-31T11:27:04Z</time><name>PT1681</name></trkpt>
<trkpt lat="53.418558" lon="-1.968709"><ele>348</ele><time>2023-03-31T11:27:07Z</time><name>PT1682</name></trkpt>
<trkpt lat="53.418541" lon="-1.968640"><ele>347</ele><time>2023-03-31T11:27:11Z</time><name>PT1683</name></trkpt>
<trkpt lat="53.418538" lon="-1.968581"><ele>347</ele><time>2023-03-31T11:27:14Z</time><name>PT1684</name></trkpt>
<trkpt lat="53.418536" lon="-1.968525"><ele>349</ele><time>2023-03-31T11:27:17Z</time><name>PT1685</name></trkpt>
<trkpt lat="53.418525" lon="-1.968441"><ele>350</ele><time>2023-03-31T11:27:20Z</time><name>PT1686</name></trkpt>
<trkpt lat="53.418512" lon="-1.968366"><ele>350</ele><time>2023-03-31T11:27:24Z</time><name>PT1687</name></trkpt>
<trkpt lat="53.418485" lon="-1.968297"><ele>351</ele><time>2023-03-31T11:27:28Z</time><name>PT1688</name></trkpt>
<trkpt lat="53.418460" lon="-1.968246"><ele>351</ele><time>2023-03-31T11:27:31Z</time><name>PT1689</name></trkpt>
<trkpt lat="53.418436" lon="-1.968188"><ele>351</ele><time>2023-03-31T11:27:35Z</time><name>PT1690</name></trkpt>
<trkpt lat="53.418420" lon="-1.968144"><ele>351</ele><time>2023-03-31T11:27:38Z</time><name>PT1691</name></trkpt>
<trkpt lat="53.418396" lon="-1.968083"><ele>350</ele><time>2023-03-31T11:27:42Z</time><name>PT1692</name></trkpt>
<trkpt lat="53.418376" lon="-1.968015"><ele>350</ele><time>2023-03-31T11:27:46Z</time><name>PT1693</name></trkpt>
<trkpt lat="53.418364" lon="-1.967961"><ele>350</ele><time>2023-03-31T11:27:49Z</time><name>PT1694</name></trkpt>
<trkpt lat="53.418342" lon="-1.967883"><ele>351</ele><time>2023-03-31T11:27:53Z</time><name>PT1695</name></trkpt>
<trkpt lat="53.418331" lon="-1.967829"><ele>351</ele><time>2023-03-31T11:27:56Z</time><name>PT1696</name></trkpt>
<trkpt lat="53.418312" lon="-1.967754"><ele>351</ele><time>2023-03-31T11:28:00Z</time><name>PT1697</name></trkpt>
<trkpt lat="53.418295" lon="-1.967682"><ele>351</ele><time>2023-03-31T11:28:04Z</time><name>PT1698</name></trkpt>
<trkpt lat="53.418280" lon="-1.967627"><ele>351</ele><time>2023-03-31T11:28:07Z</time><name>PT1699</name></trkpt>
<trkpt lat="53.418262" lon="-1.967578"><ele>351</ele><time>2023-03-31T11:28:10Z</time><name>PT1700</name></trkpt>
<trkpt lat="53.418234" lon="-1.967508"><ele>351</ele><time>2023-03-31T11:28:14Z</time><name>PT1701</name></trkpt>
<trkpt lat="53.418204" lon="-1.967439"><ele>352</ele><time>2023-03-31T11:28:18Z</time><name>PT1702</name></trkpt>
<trkpt lat="53.418185" lon="-1.967367"><ele>351</ele><time>2023-03-31T11:28:22Z</time><name>PT1703</name></trkpt>
<trkpt lat="53.418166" lon="-1.967297"><ele>351</ele><time>2023-03-31T11:28:26Z</time><name>PT1704</name></trkpt>
<trkpt lat="53.418147" lon="-1.967229"><ele>352</ele><time>2023-03-31T11:28:30Z</time><name>PT1705</name></trkpt>
<trkpt lat="53.418130" lon="-1.967161"><ele>352</ele><time>2023-03-31T11:28:34Z</time><name>PT1706</name></trkpt>
<trkpt lat="53.418118" lon="-1.967108"><ele>353</ele><time>2023-03-31T11:28:37Z</time><name>PT1707</name></trkpt>
<trkpt lat="53.418099" lon="-1.967038"><ele>353</ele><time>2023-03-31T11:28:41Z</time><name>PT1708</name></trkpt>
<trkpt lat="53.418086" lon="-1.966969"><ele>353</ele><time>2023-03-31T11:28:45Z</time><name>PT1709</name></trkpt>
<trkpt lat="53.418066" lon="-1.966897"><ele>353</ele><time>2023-03-31T11:28:49Z</time><name>PT1710</name></trkpt>
<trkpt lat="53.418050" lon="-1.966823"><ele>353</ele><time>2023-03-31T11:28:53Z</time><name>PT1711</name></trkpt>
<trkpt lat="53.418040" lon="-1.966767"><ele>353</ele><time>2023-03-31T11:28:56Z</time><name>PT1712</name></trkpt>
<trkpt lat="53.418031" lon="-1.966723"><ele>353</ele><time>2023-03-31T11:28:59Z</time><name>PT1713</name></trkpt>
<trkpt lat="53.418013" lon="-1.966667"><ele>353</ele><time>2023-03-31T11:29:03Z</time><name>PT1714</name></trkpt>
<trkpt lat="53.418000" lon="-1.966614"><ele>354</ele><time>2023-03-31T11:29:07Z</time><name>PT1715</name></trkpt>
<trkpt lat="53.417999" lon="-1.966609"><ele>354</ele><time>2023-03-31T11:29:10Z</time><name>PT1716</name></trkpt>
<trkpt lat="53.417984" lon="-1.966582"><ele>353</ele><time>2023-03-31T11:29:20Z</time><name>PT1717</name></trkpt>
<trkpt lat="53.417986" lon="-1.966584"><ele>353</ele><time>2023-03-31T11:30:31Z</time><name>PT1718</name></trkpt>
<trkpt lat="53.417985" lon="-1.966589"><ele>353</ele><time>2023-03-31T11:30:35Z</time><name>PT1719</name></trkpt>
<trkpt lat="53.417983" lon="-1.966588"><ele>353</ele><time>2023-03-31T11:30:46Z</time><name>PT1720</name></trkpt>
<trkpt lat="53.417977" lon="-1.966576"><ele>353</ele><time>2023-03-31T11:30:50Z</time><name>PT1721</name></trkpt>
<trkpt lat="53.417966" lon="-1.966552"><ele>353</ele><time>2023-03-31T11:30:54Z</time><name>PT1722</name></trkpt>
<trkpt lat="53.417965" lon="-1.966547"><ele>354</ele><time>2023-03-31T11:30:57Z</time><name>PT1723</name></trkpt>
<trkpt lat="53.417957" lon="-1.966544"><ele>353</ele><time>2023-03-31T11:31:01Z</time><name>PT1724</name></trkpt>
<trkpt lat="53.417933" lon="-1.966547"><ele>353</ele><time>2023-03-31T11:31:05Z</time><name>PT1725</name></trkpt>
<trkpt lat="53.417916" lon="-1.966553"><ele>353</ele><time>2023-03-31T11:31:08Z</time><name>PT1726</name></trkpt>
<trkpt lat="53.417909" lon="-1.966554"><ele>352</ele><time>2023-03-31T11:31:12Z</time><name>PT1727</name></trkpt>
<trkpt lat="53.417902" lon="-1.966550"><ele>352</ele><time>2023-03-31T11:31:16Z</time><name>PT1728</name></trkpt>
<trkpt lat="53.417871" lon="-1.966578"><ele>352</ele><time>2023-03-31T11:31:19Z</time><name>PT1729</name></trkpt>
<trkpt lat="53.417837" lon="-1.966611"><ele>352</ele><time>2023-03-31T11:31:23Z</time><name>PT1730</name></trkpt>
<trkpt lat="53.417813" lon="-1.966638"><ele>352</ele><time>2023-03-31T11:31:26Z</time><name>PT1731</name></trkpt>
<trkpt lat="53.417784" lon="-1.966657"><ele>352</ele><time>2023-03-31T11:31:30Z</time><name>PT1732</name></trkpt>
<trkpt lat="53.417762" lon="-1.966655"><ele>352</ele><time>2023-03-31T11:31:33Z</time><name>PT1733</name></trkpt>
<trkpt lat="53.417730" lon="-1.966649"><ele>351</ele><time>2023-03-31T11:31:37Z</time><name>PT1734</name></trkpt>
<trkpt lat="53.417698" lon="-1.966652"><ele>350</ele><time>2023-03-31T11:31:41Z</time><name>PT1735</name></trkpt>
<trkpt lat="53.417675" lon="-1.966630"><ele>349</ele><time>2023-03-31T11:31:44Z</time><name>PT1736</name></trkpt>
<trkpt lat="53.417633" lon="-1.966631"><ele>349</ele><time>2023-03-31T11:31:48Z</time><name>PT1737</name></trkpt>
<trkpt lat="53.417588" lon="-1.966647"><ele>349</ele><time>2023-03-31T11:31:52Z</time><name>PT1738</name></trkpt>
<trkpt lat="53.417552" lon="-1.966654"><ele>349</ele><time>2023-03-31T11:31:55Z</time><name>PT1739</name></trkpt>
<trkpt lat="53.417523" lon="-1.966650"><ele>349</ele><time>2023-03-31T11:31:58Z</time><name>PT1740</name></trkpt>
<trkpt lat="53.417488" lon="-1.966651"><ele>349</ele><time>2023-03-31T11:32:01Z</time><name>PT1741</name></trkpt>
<trkpt lat="53.417457" lon="-1.966645"><ele>349</ele><time>2023-03-31T11:32:04Z</time><name>PT1742</name></trkpt>
<trkpt lat="53.417411" lon="-1.966639"><ele>348</ele><time>2023-03-31T11:32:08Z</time><name>PT1743</name></trkpt>
<trkpt lat="53.417373" lon="-1.966639"><ele>348</ele><time>2023-03-31T11:32:11Z</time><name>PT1744</name></trkpt>
<trkpt lat="53.417332" lon="-1.966624"><ele>347</ele><time>2023-03-31T11:32:15Z</time><name>PT1745</name></trkpt>
<trkpt lat="53.417290" lon="-1.966618"><ele>347</ele><time>2023-03-31T11:32:19Z</time><name>PT1746</name></trkpt>
<trkpt lat="53.417258" lon="-1.966611"><ele>346</ele><time>2023-03-31T11:32:22Z</time><name>PT1747</name></trkpt>
<trkpt lat="53.417213" lon="-1.966609"><ele>346</ele><time>2023-03-31T11:32:26Z</time><name>PT1748</name></trkpt>
<trkpt lat="53.417180" lon="-1.966614"><ele>345</ele><time>2023-03-31T11:32:29Z</time><name>PT1749</name></trkpt>
<trkpt lat="53.417135" lon="-1.966620"><ele>344</ele><time>2023-03-31T11:32:33Z</time><name>PT1750</name></trkpt>
<trkpt lat="53.417097" lon="-1.966622"><ele>344</ele><time>2023-03-31T11:32:36Z</time><name>PT1751</name></trkpt>
<trkpt lat="53.417041" lon="-1.966622"><ele>344</ele><time>2023-03-31T11:32:40Z</time><name>PT1752</name></trkpt>
<trkpt lat="53.417005" lon="-1.966618"><ele>345</ele><time>2023-03-31T11:32:43Z</time><name>PT1753</name></trkpt>
<trkpt lat="53.416952" lon="-1.966619"><ele>345</ele><time>2023-03-31T11:32:47Z</time><name>PT1754</name></trkpt>
<trkpt lat="53.416911" lon="-1.966599"><ele>344</ele><time>2023-03-31T11:32:51Z</time><name>PT1755</name></trkpt>
<trkpt lat="53.416872" lon="-1.966580"><ele>344</ele><time>2023-03-31T11:32:54Z</time><name>PT1756</name></trkpt>
<trkpt lat="53.416836" lon="-1.966578"><ele>343</ele><time>2023-03-31T11:32:57Z</time><name>PT1757</name></trkpt>
<trkpt lat="53.416799" lon="-1.966567"><ele>342</ele><time>2023-03-31T11:33:00Z</time><name>PT1758</name></trkpt>
<trkpt lat="53.416753" lon="-1.966554"><ele>341</ele><time>2023-03-31T11:33:04Z</time><name>PT1759</name></trkpt>
<trkpt lat="53.416719" lon="-1.966541"><ele>340</ele><time>2023-03-31T11:33:07Z</time><name>PT1760</name></trkpt>
<trkpt lat="53.416670" lon="-1.966534"><ele>340</ele><time>2023-03-31T11:33:11Z</time><name>PT1761</name></trkpt>
<trkpt lat="53.416629" lon="-1.966537"><ele>340</ele><time>2023-03-31T11:33:14Z</time><name>PT1762</name></trkpt>
<trkpt lat="53.416582" lon="-1.966531"><ele>339</ele><time>2023-03-31T11:33:18Z</time><name>PT1763</name></trkpt>
<trkpt lat="53.416536" lon="-1.966526"><ele>338</ele><time>2023-03-31T11:33:22Z</time><name>PT1764</name></trkpt>
<trkpt lat="53.416504" lon="-1.966525"><ele>337</ele><time>2023-03-31T11:33:25Z</time><name>PT1765</name></trkpt>
<trkpt lat="53.416452" lon="-1.966518"><ele>336</ele><time>2023-03-31T11:33:29Z</time><name>PT1766</name></trkpt>
<trkpt lat="53.416403" lon="-1.966517"><ele>336</ele><time>2023-03-31T11:33:33Z</time><name>PT1767</name></trkpt>
<trkpt lat="53.416350" lon="-1.966522"><ele>336</ele><time>2023-03-31T11:33:37Z</time><name>PT1768</name></trkpt>
<trkpt lat="53.416312" lon="-1.966515"><ele>337</ele><time>2023-03-31T11:33:40Z</time><name>PT1769</name></trkpt>
<trkpt lat="53.416278" lon="-1.966510"><ele>337</ele><time>2023-03-31T11:33:43Z</time><name>PT1770</name></trkpt>
<trkpt lat="53.416228" lon="-1.966504"><ele>335</ele><time>2023-03-31T11:33:47Z</time><name>PT1771</name></trkpt>
<trkpt lat="53.416191" lon="-1.966497"><ele>335</ele><time>2023-03-31T11:33:50Z</time><name>PT1772</name></trkpt>
<trkpt lat="53.416143" lon="-1.966485"><ele>334</ele><time>2023-03-31T11:33:54Z</time><name>PT1773</name></trkpt>
<trkpt lat="53.416108" lon="-1.966472"><ele>334</ele><time>2023-03-31T11:33:57Z</time><name>PT1774</name></trkpt>
<trkpt lat="53.416062" lon="-1.966460"><ele>334</ele><time>2023-03-31T11:34:01Z</time><name>PT1775</name></trkpt>
<trkpt lat="53.416024" lon="-1.966450"><ele>333</ele><time>2023-03-31T11:34:04Z</time><name>PT1776</name></trkpt>
<trkpt lat="53.415975" lon="-1.966433"><ele>333</ele><time>2023-03-31T11:34:08Z</time><name>PT1777</name></trkpt>
<trkpt lat="53.415940" lon="-1.966431"><ele>333</ele><time>2023-03-31T11:34:11Z</time><name>PT1778</name></trkpt>
<trkpt lat="53.415892" lon="-1.966413"><ele>333</ele><time>2023-03-31T11:34:15Z</time><name>PT1779</name></trkpt>
<trkpt lat="53.415848" lon="-1.966405"><ele>332</ele><time>2023-03-31T11:34:19Z</time><name>PT1780</name></trkpt>
<trkpt lat="53.415811" lon="-1.966397"><ele>331</ele><time>2023-03-31T11:34:23Z</time><name>PT1781</name></trkpt>
<trkpt lat="53.415800" lon="-1.966390"><ele>332</ele><time>2023-03-31T11:34:26Z</time><name>PT1782</name></trkpt>
<trkpt lat="53.415791" lon="-1.966393"><ele>332</ele><time>2023-03-31T11:34:29Z</time><name>PT1783</name></trkpt>
<trkpt lat="53.415768" lon="-1.966396"><ele>330</ele><time>2023-03-31T11:34:33Z</time><name>PT1784</name></trkpt>
<trkpt lat="53.415744" lon="-1.966409"><ele>330</ele><time>2023-03-31T11:34:36Z</time><name>PT1785</name></trkpt>
<trkpt lat="53.415719" lon="-1.966433"><ele>328</ele><time>2023-03-31T11:34:40Z</time><name>PT1786</name></trkpt>
<trkpt lat="53.415698" lon="-1.966468"><ele>330</ele><time>2023-03-31T11:34:43Z</time><name>PT1787</name></trkpt>
<trkpt lat="53.415679" lon="-1.966483"><ele>329</ele><time>2023-03-31T11:34:46Z</time><name>PT1788</name></trkpt>
<trkpt lat="53.415664" lon="-1.966496"><ele>329</ele><time>2023-03-31T11:34:50Z</time><name>PT1789</name></trkpt>
<trkpt lat="53.415662" lon="-1.966509"><ele>328</ele><time>2023-03-31T11:34:57Z</time><name>PT1790</name></trkpt>
<trkpt lat="53.415639" lon="-1.966510"><ele>328</ele><time>2023-03-31T11:35:07Z</time><name>PT1791</name></trkpt>
<trkpt lat="53.415606" lon="-1.966503"><ele>327</ele><time>2023-03-31T11:35:10Z</time><name>PT1792</name></trkpt>
<trkpt lat="53.415553" lon="-1.966495"><ele>327</ele><time>2023-03-31T11:35:14Z</time><name>PT1793</name></trkpt>
<trkpt lat="53.415510" lon="-1.966482"><ele>328</ele><time>2023-03-31T11:35:17Z</time><name>PT1794</name></trkpt>
<trkpt lat="53.415457" lon="-1.966470"><ele>327</ele><time>2023-03-31T11:35:21Z</time><name>PT1795</name></trkpt>
<trkpt lat="53.415422" lon="-1.966455"><ele>328</ele><time>2023-03-31T11:35:24Z</time><name>PT1796</name></trkpt>
<trkpt lat="53.415374" lon="-1.966444"><ele>328</ele><time>2023-03-31T11:35:28Z</time><name>PT1797</name></trkpt>
<trkpt lat="53.415338" lon="-1.966431"><ele>328</ele><time>2023-03-31T11:35:31Z</time><name>PT1798</name></trkpt>
<trkpt lat="53.415291" lon="-1.966410"><ele>327</ele><time>2023-03-31T11:35:35Z</time><name>PT1799</name></trkpt>
<trkpt lat="53.415256" lon="-1.966399"><ele>327</ele><time>2023-03-31T11:35:38Z</time><name>PT1800</name></trkpt>
<trkpt lat="53.415207" lon="-1.966382"><ele>326</ele><time>2023-03-31T11:35:42Z</time><name>PT1801</name></trkpt>
<trkpt lat="53.415171" lon="-1.966372"><ele>327</ele><time>2023-03-31T11:35:45Z</time><name>PT1802</name></trkpt>
<trkpt lat="53.415124" lon="-1.966356"><ele>328</ele><time>2023-03-31T11:35:49Z</time><name>PT1803</name></trkpt>
<trkpt lat="53.415088" lon="-1.966351"><ele>328</ele><time>2023-03-31T11:35:52Z</time><name>PT1804</name></trkpt>
<trkpt lat="53.415049" lon="-1.966334"><ele>328</ele><time>2023-03-31T11:35:56Z</time><name>PT1805</name></trkpt>
<trkpt lat="53.415015" lon="-1.966339"><ele>327</ele><time>2023-03-31T11:35:59Z</time><name>PT1806</name></trkpt>
<trkpt lat="53.414952" lon="-1.966351"><ele>328</ele><time>2023-03-31T11:36:03Z</time><name>PT1807</name></trkpt>
<trkpt lat="53.414901" lon="-1.966371"><ele>329</ele><time>2023-03-31T11:36:07Z</time><name>PT1808</name></trkpt>
<trkpt lat="53.414864" lon="-1.966386"><ele>329</ele><time>2023-03-31T11:36:10Z</time><name>PT1809</name></trkpt>
<trkpt lat="53.414814" lon="-1.966406"><ele>329</ele><time>2023-03-31T11:36:14Z</time><name>PT1810</name></trkpt>
<trkpt lat="53.414776" lon="-1.966422"><ele>329</ele><time>2023-03-31T11:36:17Z</time><name>PT1811</name></trkpt>
<trkpt lat="53.414739" lon="-1.966437"><ele>329</ele><time>2023-03-31T11:36:20Z</time><name>PT1812</name></trkpt>
<trkpt lat="53.414703" lon="-1.966453"><ele>329</ele><time>2023-03-31T11:36:23Z</time><name>PT1813</name></trkpt>
<trkpt lat="53.414656" lon="-1.966474"><ele>329</ele><time>2023-03-31T11:36:27Z</time><name>PT1814</name></trkpt>
<trkpt lat="53.414621" lon="-1.966490"><ele>329</ele><time>2023-03-31T11:36:30Z</time><name>PT1815</name></trkpt>
<trkpt lat="53.414577" lon="-1.966516"><ele>329</ele><time>2023-03-31T11:36:34Z</time><name>PT1816</name></trkpt>
<trkpt lat="53.414532" lon="-1.966538"><ele>329</ele><time>2023-03-31T11:36:38Z</time><name>PT1817</name></trkpt>
<trkpt lat="53.414489" lon="-1.966565"><ele>330</ele><time>2023-03-31T11:36:42Z</time><name>PT1818</name></trkpt>
<trkpt lat="53.414442" lon="-1.966581"><ele>330</ele><time>2023-03-31T11:36:46Z</time><name>PT1819</name></trkpt>
<trkpt lat="53.414397" lon="-1.966607"><ele>330</ele><time>2023-03-31T11:36:50Z</time><name>PT1820</name></trkpt>
<trkpt lat="53.414361" lon="-1.966624"><ele>330</ele><time>2023-03-31T11:36:53Z</time><name>PT1821</name></trkpt>
<trkpt lat="53.414327" lon="-1.966639"><ele>331</ele><time>2023-03-31T11:36:56Z</time><name>PT1822</name></trkpt>
<trkpt lat="53.414292" lon="-1.966658"><ele>331</ele><time>2023-03-31T11:36:59Z</time><name>PT1823</name></trkpt>
<trkpt lat="53.414246" lon="-1.966677"><ele>331</ele><time>2023-03-31T11:37:03Z</time><name>PT1824</name></trkpt>
<trkpt lat="53.414213" lon="-1.966697"><ele>331</ele><time>2023-03-31T11:37:06Z</time><name>PT1825</name></trkpt>
<trkpt lat="53.414182" lon="-1.966710"><ele>331</ele><time>2023-03-31T11:37:09Z</time><name>PT1826</name></trkpt>
<trkpt lat="53.414141" lon="-1.966719"><ele>331</ele><time>2023-03-31T11:37:13Z</time><name>PT1827</name></trkpt>
<trkpt lat="53.414113" lon="-1.966730"><ele>332</ele><time>2023-03-31T11:37:16Z</time><name>PT1828</name></trkpt>
<trkpt lat="53.414078" lon="-1.966756"><ele>332</ele><time>2023-03-31T11:37:20Z</time><name>PT1829</name></trkpt>
<trkpt lat="53.414051" lon="-1.966771"><ele>332</ele><time>2023-03-31T11:37:23Z</time><name>PT1830</name></trkpt>
<trkpt lat="53.414021" lon="-1.966780"><ele>330</ele><time>2023-03-31T11:37:26Z</time><name>PT1831</name></trkpt>
<trkpt lat="53.413980" lon="-1.966805"><ele>330</ele><time>2023-03-31T11:37:30Z</time><name>PT1832</name></trkpt>
<trkpt lat="53.413944" lon="-1.966828"><ele>330</ele><time>2023-03-31T11:37:33Z</time><name>PT1833</name></trkpt>
<trkpt lat="53.413902" lon="-1.966854"><ele>330</ele><time>2023-03-31T11:37:37Z</time><name>PT1834</name></trkpt>
<trkpt lat="53.413861" lon="-1.966878"><ele>330</ele><time>2023-03-31T11:37:41Z</time><name>PT1835</name></trkpt>
<trkpt lat="53.413813" lon="-1.966902"><ele>331</ele><time>2023-03-31T11:37:45Z</time><name>PT1836</name></trkpt>
<trkpt lat="53.413778" lon="-1.966913"><ele>330</ele><time>2023-03-31T11:37:48Z</time><name>PT1837</name></trkpt>
<trkpt lat="53.413732" lon="-1.966932"><ele>331</ele><time>2023-03-31T11:37:52Z</time><name>PT1838</name></trkpt>
<trkpt lat="53.413683" lon="-1.966960"><ele>332</ele><time>2023-03-31T11:37:56Z</time><name>PT1839</name></trkpt>
<trkpt lat="53.413631" lon="-1.966988"><ele>332</ele><time>2023-03-31T11:38:00Z</time><name>PT1840</name></trkpt>
<trkpt lat="53.413582" lon="-1.967008"><ele>333</ele><time>2023-03-31T11:38:04Z</time><name>PT1841</name></trkpt>
<trkpt lat="53.413545" lon="-1.967023"><ele>333</ele><time>2023-03-31T11:38:07Z</time><name>PT1842</name></trkpt>
<trkpt lat="53.413497" lon="-1.967047"><ele>334</ele><time>2023-03-31T11:38:11Z</time><name>PT1843</name></trkpt>
<trkpt lat="53.413463" lon="-1.967060"><ele>334</ele><time>2023-03-31T11:38:14Z</time><name>PT1844</name></trkpt>
<trkpt lat="53.413414" lon="-1.967083"><ele>334</ele><time>2023-03-31T11:38:18Z</time><name>PT1845</name></trkpt>
<trkpt lat="53.413382" lon="-1.967104"><ele>335</ele><time>2023-03-31T11:38:21Z</time><name>PT1846</name></trkpt>
<trkpt lat="53.413327" lon="-1.967122"><ele>336</ele><time>2023-03-31T11:38:25Z</time><name>PT1847</name></trkpt>
<trkpt lat="53.413297" lon="-1.967128"><ele>336</ele><time>2023-03-31T11:38:28Z</time><name>PT1848</name></trkpt>
<trkpt lat="53.413250" lon="-1.967156"><ele>335</ele><time>2023-03-31T11:38:32Z</time><name>PT1849</name></trkpt>
<trkpt lat="53.413213" lon="-1.967175"><ele>335</ele><time>2023-03-31T11:38:35Z</time><name>PT1850</name></trkpt>
<trkpt lat="53.413179" lon="-1.967195"><ele>335</ele><time>2023-03-31T11:38:38Z</time><name>PT1851</name></trkpt>
<trkpt lat="53.413143" lon="-1.967214"><ele>336</ele><time>2023-03-31T11:38:41Z</time><name>PT1852</name></trkpt>
<trkpt lat="53.413095" lon="-1.967238"><ele>337</ele><time>2023-03-31T11:38:45Z</time><name>PT1853</name></trkpt>
<trkpt lat="53.413061" lon="-1.967254"><ele>337</ele><time>2023-03-31T11:38:48Z</time><name>PT1854</name></trkpt>
<trkpt lat="53.413025" lon="-1.967267"><ele>336</ele><time>2023-03-31T11:38:51Z</time><name>PT1855</name></trkpt>
<trkpt lat="53.412992" lon="-1.967283"><ele>336</ele><time>2023-03-31T11:38:54Z</time><name>PT1856</name></trkpt>
<trkpt lat="53.412956" lon="-1.967304"><ele>337</ele><time>2023-03-31T11:38:57Z</time><name>PT1857</name></trkpt>
<trkpt lat="53.412908" lon="-1.967333"><ele>336</ele><time>2023-03-31T11:39:01Z</time><name>PT1858</name></trkpt>
<trkpt lat="53.412858" lon="-1.967363"><ele>337</ele><time>2023-03-31T11:39:05Z</time><name>PT1859</name></trkpt>
<trkpt lat="53.412810" lon="-1.967383"><ele>337</ele><time>2023-03-31T11:39:09Z</time><name>PT1860</name></trkpt>
<trkpt lat="53.412762" lon="-1.967409"><ele>337</ele><time>2023-03-31T11:39:13Z</time><name>PT1861</name></trkpt>
<trkpt lat="53.412716" lon="-1.967433"><ele>336</ele><time>2023-03-31T11:39:17Z</time><name>PT1862</name></trkpt>
<trkpt lat="53.412684" lon="-1.967451"><ele>336</ele><time>2023-03-31T11:39:20Z</time><name>PT1863</name></trkpt>
<trkpt lat="53.412638" lon="-1.967473"><ele>336</ele><time>2023-03-31T11:39:24Z</time><name>PT1864</name></trkpt>
<trkpt lat="53.412603" lon="-1.967488"><ele>336</ele><time>2023-03-31T11:39:27Z</time><name>PT1865</name></trkpt>
<trkpt lat="53.412557" lon="-1.967514"><ele>336</ele><time>2023-03-31T11:39:31Z</time><name>PT1866</name></trkpt>
<trkpt lat="53.412511" lon="-1.967532"><ele>336</ele><time>2023-03-31T11:39:35Z</time><name>PT1867</name></trkpt>
<trkpt lat="53.412466" lon="-1.967556"><ele>336</ele><time>2023-03-31T11:39:39Z</time><name>PT1868</name></trkpt>
<trkpt lat="53.412417" lon="-1.967583"><ele>337</ele><time>2023-03-31T11:39:43Z</time><name>PT1869</name></trkpt>
<trkpt lat="53.412372" lon="-1.967597"><ele>336</ele><time>2023-03-31T11:39:47Z</time><name>PT1870</name></trkpt>
<trkpt lat="53.412322" lon="-1.967618"><ele>336</ele><time>2023-03-31T11:39:51Z</time><name>PT1871</name></trkpt>
<trkpt lat="53.412284" lon="-1.967641"><ele>336</ele><time>2023-03-31T11:39:54Z</time><name>PT1872</name></trkpt>
<trkpt lat="53.412238" lon="-1.967662"><ele>336</ele><time>2023-03-31T11:39:58Z</time><name>PT1873</name></trkpt>
<trkpt lat="53.412185" lon="-1.967690"><ele>336</ele><time>2023-03-31T11:40:02Z</time><name>PT1874</name></trkpt>
<trkpt lat="53.412150" lon="-1.967701"><ele>336</ele><time>2023-03-31T11:40:05Z</time><name>PT1875</name></trkpt>
<trkpt lat="53.412117" lon="-1.967713"><ele>336</ele><time>2023-03-31T11:40:08Z</time><name>PT1876</name></trkpt>
<trkpt lat="53.412068" lon="-1.967733"><ele>335</ele><time>2023-03-31T11:40:12Z</time><name>PT1877</name></trkpt>
<trkpt lat="53.412015" lon="-1.967759"><ele>335</ele><time>2023-03-31T11:40:16Z</time><name>PT1878</name></trkpt>
<trkpt lat="53.411967" lon="-1.967783"><ele>336</ele><time>2023-03-31T11:40:20Z</time><name>PT1879</name></trkpt>
<trkpt lat="53.411919" lon="-1.967805"><ele>335</ele><time>2023-03-31T11:40:24Z</time><name>PT1880</name></trkpt>
<trkpt lat="53.411872" lon="-1.967829"><ele>335</ele><time>2023-03-31T11:40:28Z</time><name>PT1881</name></trkpt>
<trkpt lat="53.411836" lon="-1.967846"><ele>336</ele><time>2023-03-31T11:40:31Z</time><name>PT1882</name></trkpt>
<trkpt lat="53.411799" lon="-1.967871"><ele>336</ele><time>2023-03-31T11:40:34Z</time><name>PT1883</name></trkpt>
<trkpt lat="53.411750" lon="-1.967895"><ele>336</ele><time>2023-03-31T11:40:38Z</time><name>PT1884</name></trkpt>
<trkpt lat="53.411715" lon="-1.967909"><ele>335</ele><time>2023-03-31T11:40:41Z</time><name>PT1885</name></trkpt>
<trkpt lat="53.411666" lon="-1.967933"><ele>335</ele><time>2023-03-31T11:40:45Z</time><name>PT1886</name></trkpt>
<trkpt lat="53.411622" lon="-1.967953"><ele>335</ele><time>2023-03-31T11:40:49Z</time><name>PT1887</name></trkpt>
<trkpt lat="53.411585" lon="-1.967976"><ele>335</ele><time>2023-03-31T11:40:52Z</time><name>PT1888</name></trkpt>
<trkpt lat="53.411544" lon="-1.967994"><ele>335</ele><time>2023-03-31T11:40:55Z</time><name>PT1889</name></trkpt>
<trkpt lat="53.411505" lon="-1.968014"><ele>334</ele><time>2023-03-31T11:40:58Z</time><name>PT1890</name></trkpt>
<trkpt lat="53.411467" lon="-1.968036"><ele>335</ele><time>2023-03-31T11:41:01Z</time><name>PT1891</name></trkpt>
<trkpt lat="53.411417" lon="-1.968067"><ele>334</ele><time>2023-03-31T11:41:05Z</time><name>PT1892</name></trkpt>
<trkpt lat="53.411383" lon="-1.968083"><ele>335</ele><time>2023-03-31T11:41:08Z</time><name>PT1893</name></trkpt>
<trkpt lat="53.411348" lon="-1.968098"><ele>335</ele><time>2023-03-31T11:41:11Z</time><name>PT1894</name></trkpt>
<trkpt lat="53.411311" lon="-1.968120"><ele>335</ele><time>2023-03-31T11:41:14Z</time><name>PT1895</name></trkpt>
<trkpt lat="53.411259" lon="-1.968139"><ele>335</ele><time>2023-03-31T11:41:18Z</time><name>PT1896</name></trkpt>
<trkpt lat="53.411208" lon="-1.968161"><ele>335</ele><time>2023-03-31T11:41:22Z</time><name>PT1897</name></trkpt>
<trkpt lat="53.411169" lon="-1.968174"><ele>335</ele><time>2023-03-31T11:41:25Z</time><name>PT1898</name></trkpt>
<trkpt lat="53.411119" lon="-1.968198"><ele>335</ele><time>2023-03-31T11:41:29Z</time><name>PT1899</name></trkpt>
<trkpt lat="53.411081" lon="-1.968209"><ele>335</ele><time>2023-03-31T11:41:32Z</time><name>PT1900</name></trkpt>
<trkpt lat="53.411035" lon="-1.968227"><ele>335</ele><time>2023-03-31T11:41:36Z</time><name>PT1901</name></trkpt>
<trkpt lat="53.411001" lon="-1.968226"><ele>335</ele><time>2023-03-31T11:41:40Z</time><name>PT1902</name></trkpt>
<trkpt lat="53.410993" lon="-1.968218"><ele>335</ele><time>2023-03-31T11:41:43Z</time><name>PT1903</name></trkpt>
<trkpt lat="53.410984" lon="-1.968218"><ele>334</ele><time>2023-03-31T11:41:47Z</time><name>PT1904</name></trkpt>
<trkpt lat="53.410986" lon="-1.968214"><ele>334</ele><time>2023-03-31T11:41:50Z</time><name>PT1905</name></trkpt>
<trkpt lat="53.410953" lon="-1.968274"><ele>335</ele><time>2023-03-31T11:41:54Z</time><name>PT1906</name></trkpt>
<trkpt lat="53.410919" lon="-1.968312"><ele>334</ele><time>2023-03-31T11:41:58Z</time><name>PT1907</name></trkpt>
<trkpt lat="53.410884" lon="-1.968343"><ele>333</ele><time>2023-03-31T11:42:02Z</time><name>PT1908</name></trkpt>
<trkpt lat="53.410842" lon="-1.968369"><ele>334</ele><time>2023-03-31T11:42:06Z</time><name>PT1909</name></trkpt>
<trkpt lat="53.410815" lon="-1.968397"><ele>334</ele><time>2023-03-31T11:42:09Z</time><name>PT1910</name></trkpt>
<trkpt lat="53.410779" lon="-1.968440"><ele>334</ele><time>2023-03-31T11:42:13Z</time><name>PT1911</name></trkpt>
<trkpt lat="53.410760" lon="-1.968484"><ele>333</ele><time>2023-03-31T11:42:16Z</time><name>PT1912</name></trkpt>
<trkpt lat="53.410737" lon="-1.968533"><ele>333</ele><time>2023-03-31T11:42:20Z</time><name>PT1913</name></trkpt>
<trkpt lat="53.410713" lon="-1.968560"><ele>333</ele><time>2023-03-31T11:42:23Z</time><name>PT1914</name></trkpt>
<trkpt lat="53.410672" lon="-1.968602"><ele>333</ele><time>2023-03-31T11:42:27Z</time><name>PT1915</name></trkpt>
<trkpt lat="53.410643" lon="-1.968629"><ele>333</ele><time>2023-03-31T11:42:30Z</time><name>PT1916</name></trkpt>
<trkpt lat="53.410612" lon="-1.968670"><ele>333</ele><time>2023-03-31T11:42:34Z</time><name>PT1917</name></trkpt>
<trkpt lat="53.410581" lon="-1.968695"><ele>332</ele><time>2023-03-31T11:42:37Z</time><name>PT1918</name></trkpt>
<trkpt lat="53.410556" lon="-1.968725"><ele>331</ele><time>2023-03-31T11:42:40Z</time><name>PT1919</name></trkpt>
<trkpt lat="53.410512" lon="-1.968758"><ele>331</ele><time>2023-03-31T11:42:44Z</time><name>PT1920</name></trkpt>
<trkpt lat="53.410460" lon="-1.968785"><ele>330</ele><time>2023-03-31T11:42:48Z</time><name>PT1921</name></trkpt>
<trkpt lat="53.410415" lon="-1.968817"><ele>329</ele><time>2023-03-31T11:42:52Z</time><name>PT1922</name></trkpt>
<trkpt lat="53.410368" lon="-1.968839"><ele>329</ele><time>2023-03-31T11:42:56Z</time><name>PT1923</name></trkpt>
<trkpt lat="53.410336" lon="-1.968851"><ele>329</ele><time>2023-03-31T11:42:59Z</time><name>PT1924</name></trkpt>
<trkpt lat="53.410294" lon="-1.968874"><ele>329</ele><time>2023-03-31T11:43:03Z</time><name>PT1925</name></trkpt>
<trkpt lat="53.410261" lon="-1.968918"><ele>330</ele><time>2023-03-31T11:43:07Z</time><name>PT1926</name></trkpt>
<trkpt lat="53.410232" lon="-1.968970"><ele>329</ele><time>2023-03-31T11:43:11Z</time><name>PT1927</name></trkpt>
<trkpt lat="53.410197" lon="-1.968996"><ele>329</ele><time>2023-03-31T11:43:14Z</time><name>PT1928</name></trkpt>
<trkpt lat="53.410172" lon="-1.969028"><ele>330</ele><time>2023-03-31T11:43:17Z</time><name>PT1929</name></trkpt>
<trkpt lat="53.410125" lon="-1.969052"><ele>329</ele><time>2023-03-31T11:43:21Z</time><name>PT1930</name></trkpt>
<trkpt lat="53.410092" lon="-1.969094"><ele>329</ele><time>2023-03-31T11:43:25Z</time><name>PT1931</name></trkpt>
<trkpt lat="53.410063" lon="-1.969111"><ele>329</ele><time>2023-03-31T11:43:28Z</time><name>PT1932</name></trkpt>
<trkpt lat="53.410041" lon="-1.969134"><ele>329</ele><time>2023-03-31T11:43:31Z</time><name>PT1933</name></trkpt>
<trkpt lat="53.410019" lon="-1.969168"><ele>328</ele><time>2023-03-31T11:43:34Z</time><name>PT1934</name></trkpt>
<trkpt lat="53.409984" lon="-1.969190"><ele>327</ele><time>2023-03-31T11:43:38Z</time><name>PT1935</name></trkpt>
<trkpt lat="53.409977" lon="-1.969200"><ele>327</ele><time>2023-03-31T11:43:42Z</time><name>PT1936</name></trkpt>
<trkpt lat="53.409970" lon="-1.969201"><ele>326</ele><time>2023-03-31T11:43:46Z</time><name>PT1937</name></trkpt>
<trkpt lat="53.409967" lon="-1.969207"><ele>326</ele><time>2023-03-31T11:43:49Z</time><name>PT1938</name></trkpt>
<trkpt lat="53.409945" lon="-1.969231"><ele>325</ele><time>2023-03-31T11:43:52Z</time><name>PT1939</name></trkpt>
<trkpt lat="53.409911" lon="-1.969257"><ele>325</ele><time>2023-03-31T11:43:55Z</time><name>PT1940</name></trkpt>
<trkpt lat="53.409880" lon="-1.969301"><ele>325</ele><time>2023-03-31T11:43:59Z</time><name>PT1941</name></trkpt>
<trkpt lat="53.409858" lon="-1.969327"><ele>324</ele><time>2023-03-31T11:44:02Z</time><name>PT1942</name></trkpt>
<trkpt lat="53.409822" lon="-1.969366"><ele>324</ele><time>2023-03-31T11:44:06Z</time><name>PT1943</name></trkpt>
<trkpt lat="53.409787" lon="-1.969424"><ele>323</ele><time>2023-03-31T11:44:10Z</time><name>PT1944</name></trkpt>
<trkpt lat="53.409760" lon="-1.969462"><ele>323</ele><time>2023-03-31T11:44:13Z</time><name>PT1945</name></trkpt>
<trkpt lat="53.409732" lon="-1.969505"><ele>324</ele><time>2023-03-31T11:44:17Z</time><name>PT1946</name></trkpt>
<trkpt lat="53.409705" lon="-1.969533"><ele>323</ele><time>2023-03-31T11:44:20Z</time><name>PT1947</name></trkpt>
<trkpt lat="53.409662" lon="-1.969545"><ele>323</ele><time>2023-03-31T11:44:24Z</time><name>PT1948</name></trkpt>
<trkpt lat="53.409626" lon="-1.969553"><ele>324</ele><time>2023-03-31T11:44:27Z</time><name>PT1949</name></trkpt>
<trkpt lat="53.409582" lon="-1.969540"><ele>323</ele><time>2023-03-31T11:44:31Z</time><name>PT1950</name></trkpt>
<trkpt lat="53.409552" lon="-1.969535"><ele>323</ele><time>2023-03-31T11:44:34Z</time><name>PT1951</name></trkpt>
<trkpt lat="53.409519" lon="-1.969536"><ele>323</ele><time>2023-03-31T11:44:37Z</time><name>PT1952</name></trkpt>
<trkpt lat="53.409479" lon="-1.969531"><ele>323</ele><time>2023-03-31T11:44:41Z</time><name>PT1953</name></trkpt>
<trkpt lat="53.409450" lon="-1.969531"><ele>323</ele><time>2023-03-31T11:44:44Z</time><name>PT1954</name></trkpt>
<trkpt lat="53.409412" lon="-1.969528"><ele>323</ele><time>2023-03-31T11:44:47Z</time><name>PT1955</name></trkpt>
<trkpt lat="53.409359" lon="-1.969531"><ele>323</ele><time>2023-03-31T11:44:51Z</time><name>PT1956</name></trkpt>
<trkpt lat="53.409314" lon="-1.969517"><ele>322</ele><time>2023-03-31T11:44:55Z</time><name>PT1957</name></trkpt>
<trkpt lat="53.409279" lon="-1.969512"><ele>322</ele><time>2023-03-31T11:44:58Z</time><name>PT1958</name></trkpt>
<trkpt lat="53.409229" lon="-1.969515"><ele>322</ele><time>2023-03-31T11:45:02Z</time><name>PT1959</name></trkpt>
<trkpt lat="53.409197" lon="-1.969509"><ele>322</ele><time>2023-03-31T11:45:05Z</time><name>PT1960</name></trkpt>
<trkpt lat="53.409153" lon="-1.969507"><ele>322</ele><time>2023-03-31T11:45:09Z</time><name>PT1961</name></trkpt>
<trkpt lat="53.409109" lon="-1.969500"><ele>322</ele><time>2023-03-31T11:45:13Z</time><name>PT1962</name></trkpt>
<trkpt lat="53.409069" lon="-1.969486"><ele>321</ele><time>2023-03-31T11:45:17Z</time><name>PT1963</name></trkpt>
<trkpt lat="53.409039" lon="-1.969476"><ele>320</ele><time>2023-03-31T11:45:20Z</time><name>PT1964</name></trkpt>
<trkpt lat="53.408994" lon="-1.969463"><ele>320</ele><time>2023-03-31T11:45:24Z</time><name>PT1965</name></trkpt>
<trkpt lat="53.408960" lon="-1.969456"><ele>320</ele><time>2023-03-31T11:45:27Z</time><name>PT1966</name></trkpt>
<trkpt lat="53.408922" lon="-1.969445"><ele>319</ele><time>2023-03-31T11:45:30Z</time><name>PT1967</name></trkpt>
<trkpt lat="53.408868" lon="-1.969427"><ele>320</ele><time>2023-03-31T11:45:34Z</time><name>PT1968</name></trkpt>
<trkpt lat="53.408818" lon="-1.969417"><ele>319</ele><time>2023-03-31T11:45:38Z</time><name>PT1969</name></trkpt>
<trkpt lat="53.408781" lon="-1.969395"><ele>319</ele><time>2023-03-31T11:45:41Z</time><name>PT1970</name></trkpt>
<trkpt lat="53.408732" lon="-1.969381"><ele>319</ele><time>2023-03-31T11:45:45Z</time><name>PT1971</name></trkpt>
<trkpt lat="53.408685" lon="-1.969373"><ele>318</ele><time>2023-03-31T11:45:49Z</time><name>PT1972</name></trkpt>
<trkpt lat="53.408634" lon="-1.969369"><ele>318</ele><time>2023-03-31T11:45:53Z</time><name>PT1973</name></trkpt>
<trkpt lat="53.408599" lon="-1.969366"><ele>318</ele><time>2023-03-31T11:45:56Z</time><name>PT1974</name></trkpt>
<trkpt lat="53.408569" lon="-1.969361"><ele>318</ele><time>2023-03-31T11:45:59Z</time><name>PT1975</name></trkpt>
<trkpt lat="53.408534" lon="-1.969365"><ele>317</ele><time>2023-03-31T11:46:02Z</time><name>PT1976</name></trkpt>
<trkpt lat="53.408486" lon="-1.969361"><ele>316</ele><time>2023-03-31T11:46:06Z</time><name>PT1977</name></trkpt>
<trkpt lat="53.408437" lon="-1.969364"><ele>316</ele><time>2023-03-31T11:46:10Z</time><name>PT1978</name></trkpt>
<trkpt lat="53.408387" lon="-1.969365"><ele>316</ele><time>2023-03-31T11:46:14Z</time><name>PT1979</name></trkpt>
<trkpt lat="53.408341" lon="-1.969355"><ele>315</ele><time>2023-03-31T11:46:18Z</time><name>PT1980</name></trkpt>
<trkpt lat="53.408307" lon="-1.969335"><ele>317</ele><time>2023-03-31T11:46:21Z</time><name>PT1981</name></trkpt>
<trkpt lat="53.408260" lon="-1.969323"><ele>317</ele><time>2023-03-31T11:46:25Z</time><name>PT1982</name></trkpt>
<trkpt lat="53.408228" lon="-1.969322"><ele>315</ele><time>2023-03-31T11:46:28Z</time><name>PT1983</name></trkpt>
<trkpt lat="53.408192" lon="-1.969324"><ele>315</ele><time>2023-03-31T11:46:31Z</time><name>PT1984</name></trkpt>
<trkpt lat="53.408153" lon="-1.969317"><ele>314</ele><time>2023-03-31T11:46:34Z</time><name>PT1985</name></trkpt>
<trkpt lat="53.408112" lon="-1.969310"><ele>313</ele><time>2023-03-31T11:46:38Z</time><name>PT1986</name></trkpt>
<trkpt lat="53.408063" lon="-1.969307"><ele>312</ele><time>2023-03-31T11:46:42Z</time><name>PT1987</name></trkpt>
<trkpt lat="53.408017" lon="-1.969285"><ele>311</ele><time>2023-03-31T11:46:46Z</time><name>PT1988</name></trkpt>
<trkpt lat="53.407982" lon="-1.969267"><ele>311</ele><time>2023-03-31T11:46:49Z</time><name>PT1989</name></trkpt>
<trkpt lat="53.407946" lon="-1.969249"><ele>311</ele><time>2023-03-31T11:46:52Z</time><name>PT1990</name></trkpt>
<trkpt lat="53.407912" lon="-1.969241"><ele>311</ele><time>2023-03-31T11:46:55Z</time><name>PT1991</name></trkpt>
<trkpt lat="53.407865" lon="-1.969223"><ele>311</ele><time>2023-03-31T11:46:59Z</time><name>PT1992</name></trkpt>
<trkpt lat="53.407832" lon="-1.969210"><ele>311</ele><time>2023-03-31T11:47:02Z</time><name>PT1993</name></trkpt>
<trkpt lat="53.407795" lon="-1.969208"><ele>310</ele><time>2023-03-31T11:47:05Z</time><name>PT1994</name></trkpt>
<trkpt lat="53.407745" lon="-1.969181"><ele>310</ele><time>2023-03-31T11:47:09Z</time><name>PT1995</name></trkpt>
<trkpt lat="53.407708" lon="-1.969159"><ele>310</ele><time>2023-03-31T11:47:12Z</time><name>PT1996</name></trkpt>
<trkpt lat="53.407678" lon="-1.969137"><ele>310</ele><time>2023-03-31T11:47:15Z</time><name>PT1997</name></trkpt>
<trkpt lat="53.407632" lon="-1.969115"><ele>309</ele><time>2023-03-31T11:47:19Z</time><name>PT1998</name></trkpt>
<trkpt lat="53.407592" lon="-1.969086"><ele>308</ele><time>2023-03-31T11:47:23Z</time><name>PT1999</name></trkpt>
<trkpt lat="53.407545" lon="-1.969070"><ele>309</ele><time>2023-03-31T11:47:27Z</time><name>PT2000</name></trkpt>
<trkpt lat="53.407504" lon="-1.969065"><ele>308</ele><time>2023-03-31T11:47:31Z</time><name>PT2001</name></trkpt>
<trkpt lat="53.407477" lon="-1.969042"><ele>307</ele><time>2023-03-31T11:47:34Z</time><name>PT2002</name></trkpt>
<trkpt lat="53.407451" lon="-1.969023"><ele>307</ele><time>2023-03-31T11:47:37Z</time><name>PT2003</name></trkpt>
<trkpt lat="53.407438" lon="-1.969024"><ele>307</ele><time>2023-03-31T11:47:40Z</time><name>PT2004</name></trkpt>
<trkpt lat="53.407430" lon="-1.969018"><ele>306</ele><time>2023-03-31T11:47:43Z</time><name>PT2005</name></trkpt>
<trkpt lat="53.407431" lon="-1.969017"><ele>306</ele><time>2023-03-31T11:47:47Z</time><name>PT2006</name></trkpt>
<trkpt lat="53.407427" lon="-1.969002"><ele>306</ele><time>2023-03-31T11:47:51Z</time><name>PT2007</name></trkpt>
<trkpt lat="53.407418" lon="-1.969002"><ele>306</ele><time>2023-03-31T11:47:57Z</time><name>PT2008</name></trkpt>
<trkpt lat="53.407407" lon="-1.969000"><ele>306</ele><time>2023-03-31T11:48:01Z</time><name>PT2009</name></trkpt>
<trkpt lat="53.407380" lon="-1.968976"><ele>307</ele><time>2023-03-31T11:48:05Z</time><name>PT2010</name></trkpt>
<trkpt lat="53.407369" lon="-1.968951"><ele>307</ele><time>2023-03-31T11:48:08Z</time><name>PT2011</name></trkpt>
<trkpt lat="53.407359" lon="-1.968936"><ele>306</ele><time>2023-03-31T11:48:11Z</time><name>PT2012</name></trkpt>
<trkpt lat="53.407332" lon="-1.968935"><ele>306</ele><time>2023-03-31T11:48:15Z</time><name>PT2013</name></trkpt>
<trkpt lat="53.407325" lon="-1.968942"><ele>307</ele><time>2023-03-31T11:48:19Z</time><name>PT2014</name></trkpt>
<trkpt lat="53.407321" lon="-1.968939"><ele>306</ele><time>2023-03-31T11:48:22Z</time><name>PT2015</name></trkpt>
<trkpt lat="53.407304" lon="-1.968918"><ele>306</ele><time>2023-03-31T11:48:26Z</time><name>PT2016</name></trkpt>
<trkpt lat="53.407284" lon="-1.968900"><ele>307</ele><time>2023-03-31T11:48:29Z</time><name>PT2017</name></trkpt>
<trkpt lat="53.407262" lon="-1.968880"><ele>306</ele><time>2023-03-31T11:48:32Z</time><name>PT2018</name></trkpt>
<trkpt lat="53.407230" lon="-1.968847"><ele>306</ele><time>2023-03-31T11:48:36Z</time><name>PT2019</name></trkpt>
<trkpt lat="53.407200" lon="-1.968814"><ele>304</ele><time>2023-03-31T11:48:40Z</time><name>PT2020</name></trkpt>
<trkpt lat="53.407175" lon="-1.968791"><ele>304</ele><time>2023-03-31T11:48:43Z</time><name>PT2021</name></trkpt>
<trkpt lat="53.407139" lon="-1.968754"><ele>304</ele><time>2023-03-31T11:48:47Z</time><name>PT2022</name></trkpt>
<trkpt lat="53.407108" lon="-1.968731"><ele>304</ele><time>2023-03-31T11:48:50Z</time><name>PT2023</name></trkpt>
<trkpt lat="53.407071" lon="-1.968701"><ele>304</ele><time>2023-03-31T11:48:54Z</time><name>PT2024</name></trkpt>
<trkpt lat="53.407026" lon="-1.968666"><ele>304</ele><time>2023-03-31T11:48:58Z</time><name>PT2025</name></trkpt>
<trkpt lat="53.406987" lon="-1.968633"><ele>305</ele><time>2023-03-31T11:49:02Z</time><name>PT2026</name></trkpt>
<trkpt lat="53.406951" lon="-1.968607"><ele>305</ele><time>2023-03-31T11:49:06Z</time><name>PT2027</name></trkpt>
<trkpt lat="53.406930" lon="-1.968586"><ele>305</ele><time>2023-03-31T11:49:09Z</time><name>PT2028</name></trkpt>
<trkpt lat="53.406891" lon="-1.968541"><ele>303</ele><time>2023-03-31T11:49:13Z</time><name>PT2029</name></trkpt>
<trkpt lat="53.406849" lon="-1.968508"><ele>303</ele><time>2023-03-31T11:49:17Z</time><name>PT2030</name></trkpt>
<trkpt lat="53.406820" lon="-1.968484"><ele>301</ele><time>2023-03-31T11:49:21Z</time><name>PT2031</name></trkpt>
<trkpt lat="53.406776" lon="-1.968453"><ele>301</ele><time>2023-03-31T11:49:25Z</time><name>PT2032</name></trkpt>
<trkpt lat="53.406745" lon="-1.968417"><ele>301</ele><time>2023-03-31T11:49:28Z</time><name>PT2033</name></trkpt>
<trkpt lat="53.406714" lon="-1.968387"><ele>301</ele><time>2023-03-31T11:49:31Z</time><name>PT2034</name></trkpt>
<trkpt lat="53.406670" lon="-1.968345"><ele>301</ele><time>2023-03-31T11:49:35Z</time><name>PT2035</name></trkpt>
<trkpt lat="53.406624" lon="-1.968313"><ele>302</ele><time>2023-03-31T11:49:39Z</time><name>PT2036</name></trkpt>
<trkpt lat="53.406581" lon="-1.968277"><ele>301</ele><time>2023-03-31T11:49:43Z</time><name>PT2037</name></trkpt>
<trkpt lat="53.406536" lon="-1.968246"><ele>301</ele><time>2023-03-31T11:49:47Z</time><name>PT2038</name></trkpt>
<trkpt lat="53.406501" lon="-1.968224"><ele>302</ele><time>2023-03-31T11:49:50Z</time><name>PT2039</name></trkpt>
<trkpt lat="53.406468" lon="-1.968194"><ele>301</ele><time>2023-03-31T11:49:54Z</time><name>PT2040</name></trkpt>
<trkpt lat="53.406424" lon="-1.968177"><ele>301</ele><time>2023-03-31T11:49:58Z</time><name>PT2041</name></trkpt>
<trkpt lat="53.406394" lon="-1.968157"><ele>301</ele><time>2023-03-31T11:50:01Z</time><name>PT2042</name></trkpt>
<trkpt lat="53.406355" lon="-1.968129"><ele>300</ele><time>2023-03-31T11:50:05Z</time><name>PT2043</name></trkpt>
<trkpt lat="53.406319" lon="-1.968105"><ele>300</ele><time>2023-03-31T11:50:08Z</time><name>PT2044</name></trkpt>
<trkpt lat="53.406267" lon="-1.968092"><ele>301</ele><time>2023-03-31T11:50:12Z</time><name>PT2045</name></trkpt>
<trkpt lat="53.406222" lon="-1.968068"><ele>300</ele><time>2023-03-31T11:50:16Z</time><name>PT2046</name></trkpt>
<trkpt lat="53.406187" lon="-1.968048"><ele>300</ele><time>2023-03-31T11:50:19Z</time><name>PT2047</name></trkpt>
<trkpt lat="53.406156" lon="-1.968024"><ele>298</ele><time>2023-03-31T11:50:22Z</time><name>PT2048</name></trkpt>
<trkpt lat="53.406109" lon="-1.967997"><ele>298</ele><time>2023-03-31T11:50:26Z</time><name>PT2049</name></trkpt>
<trkpt lat="53.406065" lon="-1.967953"><ele>299</ele><time>2023-03-31T11:50:30Z</time><name>PT2050</name></trkpt>
<trkpt lat="53.406021" lon="-1.967915"><ele>299</ele><time>2023-03-31T11:50:34Z</time><name>PT2051</name></trkpt>
<trkpt lat="53.405991" lon="-1.967880"><ele>297</ele><time>2023-03-31T11:50:37Z</time><name>PT2052</name></trkpt>
<trkpt lat="53.405961" lon="-1.967842"><ele>297</ele><time>2023-03-31T11:50:40Z</time><name>PT2053</name></trkpt>
<trkpt lat="53.405914" lon="-1.967803"><ele>297</ele><time>2023-03-31T11:50:44Z</time><name>PT2054</name></trkpt>
<trkpt lat="53.405865" lon="-1.967771"><ele>298</ele><time>2023-03-31T11:50:48Z</time><name>PT2055</name></trkpt>
<trkpt lat="53.405823" lon="-1.967743"><ele>297</ele><time>2023-03-31T11:50:52Z</time><name>PT2056</name></trkpt>
<trkpt lat="53.405779" lon="-1.967706"><ele>297</ele><time>2023-03-31T11:50:56Z</time><name>PT2057</name></trkpt>
<trkpt lat="53.405740" lon="-1.967683"><ele>297</ele><time>2023-03-31T11:50:59Z</time><name>PT2058</name></trkpt>
<trkpt lat="53.405693" lon="-1.967642"><ele>296</ele><time>2023-03-31T11:51:03Z</time><name>PT2059</name></trkpt>
<trkpt lat="53.405656" lon="-1.967621"><ele>296</ele><time>2023-03-31T11:51:06Z</time><name>PT2060</name></trkpt>
<trkpt lat="53.405609" lon="-1.967599"><ele>296</ele><time>2023-03-31T11:51:10Z</time><name>PT2061</name></trkpt>
<trkpt lat="53.405568" lon="-1.967579"><ele>296</ele><time>2023-03-31T11:51:13Z</time><name>PT2062</name></trkpt>
<trkpt lat="53.405533" lon="-1.967562"><ele>295</ele><time>2023-03-31T11:51:16Z</time><name>PT2063</name></trkpt>
<trkpt lat="53.405488" lon="-1.967535"><ele>294</ele><time>2023-03-31T11:51:20Z</time><name>PT2064</name></trkpt>
<trkpt lat="53.405465" lon="-1.967507"><ele>293</ele><time>2023-03-31T11:51:23Z</time><name>PT2065</name></trkpt>
<trkpt lat="53.405428" lon="-1.967472"><ele>292</ele><time>2023-03-31T11:51:27Z</time><name>PT2066</name></trkpt>
<trkpt lat="53.405396" lon="-1.967432"><ele>293</ele><time>2023-03-31T11:51:30Z</time><name>PT2067</name></trkpt>
<trkpt lat="53.405349" lon="-1.967377"><ele>294</ele><time>2023-03-31T11:51:34Z</time><name>PT2068</name></trkpt>
<trkpt lat="53.405302" lon="-1.967330"><ele>295</ele><time>2023-03-31T11:51:38Z</time><name>PT2069</name></trkpt>
<trkpt lat="53.405264" lon="-1.967311"><ele>295</ele><time>2023-03-31T11:51:41Z</time><name>PT2070</name></trkpt>
<trkpt lat="53.405223" lon="-1.967279"><ele>294</ele><time>2023-03-31T11:51:45Z</time><name>PT2071</name></trkpt>
<trkpt lat="53.405174" lon="-1.967247"><ele>296</ele><time>2023-03-31T11:51:49Z</time><name>PT2072</name></trkpt>
<trkpt lat="53.405133" lon="-1.967218"><ele>295</ele><time>2023-03-31T11:51:53Z</time><name>PT2073</name></trkpt>
<trkpt lat="53.405099" lon="-1.967197"><ele>295</ele><time>2023-03-31T11:51:56Z</time><name>PT2074</name></trkpt>
<trkpt lat="53.405067" lon="-1.967166"><ele>295</ele><time>2023-03-31T11:52:00Z</time><name>PT2075</name></trkpt>
<trkpt lat="53.405027" lon="-1.967163"><ele>295</ele><time>2023-03-31T11:52:04Z</time><name>PT2076</name></trkpt>
<trkpt lat="53.404994" lon="-1.967142"><ele>295</ele><time>2023-03-31T11:52:07Z</time><name>PT2077</name></trkpt>
<trkpt lat="53.404949" lon="-1.967115"><ele>294</ele><time>2023-03-31T11:52:11Z</time><name>PT2078</name></trkpt>
<trkpt lat="53.404917" lon="-1.967096"><ele>294</ele><time>2023-03-31T11:52:14Z</time><name>PT2079</name></trkpt>
<trkpt lat="53.404864" lon="-1.967075"><ele>294</ele><time>2023-03-31T11:52:18Z</time><name>PT2080</name></trkpt>
<trkpt lat="53.404816" lon="-1.967035"><ele>293</ele><time>2023-03-31T11:52:22Z</time><name>PT2081</name></trkpt>
<trkpt lat="53.404781" lon="-1.967004"><ele>293</ele><time>2023-03-31T11:52:25Z</time><name>PT2082</name></trkpt>
<trkpt lat="53.404753" lon="-1.966965"><ele>294</ele><time>2023-03-31T11:52:28Z</time><name>PT2083</name></trkpt>
<trkpt lat="53.404717" lon="-1.966930"><ele>294</ele><time>2023-03-31T11:52:31Z</time><name>PT2084</name></trkpt>
<trkpt lat="53.404669" lon="-1.966881"><ele>294</ele><time>2023-03-31T11:52:35Z</time><name>PT2085</name></trkpt>
<trkpt lat="53.404638" lon="-1.966839"><ele>293</ele><time>2023-03-31T11:52:38Z</time><name>PT2086</name></trkpt>
<trkpt lat="53.404596" lon="-1.966791"><ele>294</ele><time>2023-03-31T11:52:42Z</time><name>PT2087</name></trkpt>
<trkpt lat="53.404562" lon="-1.966753"><ele>293</ele><time>2023-03-31T11:52:45Z</time><name>PT2088</name></trkpt>
<trkpt lat="53.404519" lon="-1.966712"><ele>292</ele><time>2023-03-31T11:52:49Z</time><name>PT2089</name></trkpt>
<trkpt lat="53.404483" lon="-1.966691"><ele>292</ele><time>2023-03-31T11:52:52Z</time><name>PT2090</name></trkpt>
<trkpt lat="53.404447" lon="-1.966666"><ele>292</ele><time>2023-03-31T11:52:55Z</time><name>PT2091</name></trkpt>
<trkpt lat="53.404405" lon="-1.966618"><ele>293</ele><time>2023-03-31T11:52:59Z</time><name>PT2092</name></trkpt>
<trkpt lat="53.404359" lon="-1.966567"><ele>294</ele><time>2023-03-31T11:53:03Z</time><name>PT2093</name></trkpt>
<trkpt lat="53.404323" lon="-1.966544"><ele>293</ele><time>2023-03-31T11:53:06Z</time><name>PT2094</name></trkpt>
<trkpt lat="53.404280" lon="-1.966519"><ele>294</ele><time>2023-03-31T11:53:09Z</time><name>PT2095</name></trkpt>
<trkpt lat="53.404234" lon="-1.966482"><ele>294</ele><time>2023-03-31T11:53:13Z</time><name>PT2096</name></trkpt>
<trkpt lat="53.404201" lon="-1.966462"><ele>294</ele><time>2023-03-31T11:53:16Z</time><name>PT2097</name></trkpt>
<trkpt lat="53.404165" lon="-1.966433"><ele>294</ele><time>2023-03-31T11:53:19Z</time><name>PT2098</name></trkpt>
<trkpt lat="53.404128" lon="-1.966409"><ele>294</ele><time>2023-03-31T11:53:22Z</time><name>PT2099</name></trkpt>
<trkpt lat="53.404078" lon="-1.966384"><ele>293</ele><time>2023-03-31T11:53:26Z</time><name>PT2100</name></trkpt>
<trkpt lat="53.404030" lon="-1.966349"><ele>293</ele><time>2023-03-31T11:53:30Z</time><name>PT2101</name></trkpt>
<trkpt lat="53.403986" lon="-1.966314"><ele>292</ele><time>2023-03-31T11:53:34Z</time><name>PT2102</name></trkpt>
<trkpt lat="53.403946" lon="-1.966292"><ele>292</ele><time>2023-03-31T11:53:37Z</time><name>PT2103</name></trkpt>
<trkpt lat="53.403897" lon="-1.966251"><ele>292</ele><time>2023-03-31T11:53:41Z</time><name>PT2104</name></trkpt>
<trkpt lat="53.403846" lon="-1.966210"><ele>292</ele><time>2023-03-31T11:53:45Z</time><name>PT2105</name></trkpt>
<trkpt lat="53.403802" lon="-1.966178"><ele>292</ele><time>2023-03-31T11:53:49Z</time><name>PT2106</name></trkpt>
<trkpt lat="53.403767" lon="-1.966156"><ele>292</ele><time>2023-03-31T11:53:52Z</time><name>PT2107</name></trkpt>
<trkpt lat="53.403719" lon="-1.966122"><ele>293</ele><time>2023-03-31T11:53:56Z</time><name>PT2108</name></trkpt>
<trkpt lat="53.403671" lon="-1.966089"><ele>294</ele><time>2023-03-31T11:54:00Z</time><name>PT2109</name></trkpt>
<trkpt lat="53.403633" lon="-1.966058"><ele>294</ele><time>2023-03-31T11:54:03Z</time><name>PT2110</name></trkpt>
<trkpt lat="53.403586" lon="-1.966024"><ele>293</ele><time>2023-03-31T11:54:07Z</time><name>PT2111</name></trkpt>
<trkpt lat="53.403552" lon="-1.965996"><ele>293</ele><time>2023-03-31T11:54:10Z</time><name>PT2112</name></trkpt>
<trkpt lat="53.403519" lon="-1.965972"><ele>293</ele><time>2023-03-31T11:54:13Z</time><name>PT2113</name></trkpt>
<trkpt lat="53.403470" lon="-1.965937"><ele>293</ele><time>2023-03-31T11:54:17Z</time><name>PT2114</name></trkpt>
<trkpt lat="53.403440" lon="-1.965906"><ele>292</ele><time>2023-03-31T11:54:20Z</time><name>PT2115</name></trkpt>
<trkpt lat="53.403394" lon="-1.965878"><ele>291</ele><time>2023-03-31T11:54:24Z</time><name>PT2116</name></trkpt>
<trkpt lat="53.403359" lon="-1.965854"><ele>292</ele><time>2023-03-31T11:54:27Z</time><name>PT2117</name></trkpt>
<trkpt lat="53.403311" lon="-1.965829"><ele>292</ele><time>2023-03-31T11:54:31Z</time><name>PT2118</name></trkpt>
<trkpt lat="53.403278" lon="-1.965804"><ele>291</ele><time>2023-03-31T11:54:34Z</time><name>PT2119</name></trkpt>
<trkpt lat="53.403233" lon="-1.965783"><ele>291</ele><time>2023-03-31T11:54:38Z</time><name>PT2120</name></trkpt>
<trkpt lat="53.403193" lon="-1.965757"><ele>292</ele><time>2023-03-31T11:54:42Z</time><name>PT2121</name></trkpt>
<trkpt lat="53.403152" lon="-1.965740"><ele>292</ele><time>2023-03-31T11:54:45Z</time><name>PT2122</name></trkpt>
<trkpt lat="53.403113" lon="-1.965718"><ele>292</ele><time>2023-03-31T11:54:48Z</time><name>PT2123</name></trkpt>
<trkpt lat="53.403063" lon="-1.965702"><ele>293</ele><time>2023-03-31T11:54:52Z</time><name>PT2124</name></trkpt>
<trkpt lat="53.403032" lon="-1.965686"><ele>294</ele><time>2023-03-31T11:54:55Z</time><name>PT2125</name></trkpt>
<trkpt lat="53.402994" lon="-1.965658"><ele>294</ele><time>2023-03-31T11:54:59Z</time><name>PT2126</name></trkpt>
<trkpt lat="53.402970" lon="-1.965622"><ele>292</ele><time>2023-03-31T11:55:02Z</time><name>PT2127</name></trkpt>
<trkpt lat="53.402928" lon="-1.965574"><ele>294</ele><time>2023-03-31T11:55:06Z</time><name>PT2128</name></trkpt>
<trkpt lat="53.402908" lon="-1.965540"><ele>293</ele><time>2023-03-31T11:55:09Z</time><name>PT2129</name></trkpt>
<trkpt lat="53.402884" lon="-1.965515"><ele>294</ele><time>2023-03-31T11:55:12Z</time><name>PT2130</name></trkpt>
<trkpt lat="53.402858" lon="-1.965465"><ele>294</ele><time>2023-03-31T11:55:15Z</time><name>PT2131</name></trkpt>
<trkpt lat="53.402823" lon="-1.965411"><ele>293</ele><time>2023-03-31T11:55:19Z</time><name>PT2132</name></trkpt>
<trkpt lat="53.402775" lon="-1.965374"><ele>294</ele><time>2023-03-31T11:55:22Z</time><name>PT2133</name></trkpt>
<trkpt lat="53.402713" lon="-1.965325"><ele>295</ele><time>2023-03-31T11:55:26Z</time><name>PT2134</name></trkpt>
<trkpt lat="53.402672" lon="-1.965292"><ele>296</ele><time>2023-03-31T11:55:29Z</time><name>PT2135</name></trkpt>
<trkpt lat="53.402628" lon="-1.965245"><ele>296</ele><time>2023-03-31T11:55:33Z</time><name>PT2136</name></trkpt>
<trkpt lat="53.402581" lon="-1.965193"><ele>296</ele><time>2023-03-31T11:55:37Z</time><name>PT2137</name></trkpt>
<trkpt lat="53.402543" lon="-1.965159"><ele>297</ele><time>2023-03-31T11:55:40Z</time><name>PT2138</name></trkpt>
<trkpt lat="53.402505" lon="-1.965125"><ele>297</ele><time>2023-03-31T11:55:43Z</time><name>PT2139</name></trkpt>
<trkpt lat="53.402463" lon="-1.965082"><ele>296</ele><time>2023-03-31T11:55:47Z</time><name>PT2140</name></trkpt>
<trkpt lat="53.402430" lon="-1.965050"><ele>296</ele><time>2023-03-31T11:55:50Z</time><name>PT2141</name></trkpt>
<trkpt lat="53.402395" lon="-1.965023"><ele>296</ele><time>2023-03-31T11:55:53Z</time><name>PT2142</name></trkpt>
<trkpt lat="53.402349" lon="-1.964985"><ele>296</ele><time>2023-03-31T11:55:57Z</time><name>PT2143</name></trkpt>
<trkpt lat="53.402314" lon="-1.964960"><ele>296</ele><time>2023-03-31T11:56:00Z</time><name>PT2144</name></trkpt>
<trkpt lat="53.402267" lon="-1.964919"><ele>296</ele><time>2023-03-31T11:56:04Z</time><name>PT2145</name></trkpt>
<trkpt lat="53.402232" lon="-1.964890"><ele>296</ele><time>2023-03-31T11:56:07Z</time><name>PT2146</name></trkpt>
<trkpt lat="53.402192" lon="-1.964857"><ele>295</ele><time>2023-03-31T11:56:11Z</time><name>PT2147</name></trkpt>
<trkpt lat="53.402158" lon="-1.964833"><ele>296</ele><time>2023-03-31T11:56:14Z</time><name>PT2148</name></trkpt>
<trkpt lat="53.402116" lon="-1.964791"><ele>295</ele><time>2023-03-31T11:56:18Z</time><name>PT2149</name></trkpt>
<trkpt lat="53.402074" lon="-1.964752"><ele>295</ele><time>2023-03-31T11:56:22Z</time><name>PT2150</name></trkpt>
<trkpt lat="53.402041" lon="-1.964717"><ele>295</ele><time>2023-03-31T11:56:25Z</time><name>PT2151</name></trkpt>
<trkpt lat="53.402008" lon="-1.964686"><ele>294</ele><time>2023-03-31T11:56:28Z</time><name>PT2152</name></trkpt>
<trkpt lat="53.401974" lon="-1.964658"><ele>293</ele><time>2023-03-31T11:56:31Z</time><name>PT2153</name></trkpt>
<trkpt lat="53.401928" lon="-1.964633"><ele>292</ele><time>2023-03-31T11:56:35Z</time><name>PT2154</name></trkpt>
<trkpt lat="53.401879" lon="-1.964624"><ele>291</ele><time>2023-03-31T11:56:39Z</time><name>PT2155</name></trkpt>
<trkpt lat="53.401844" lon="-1.964629"><ele>290</ele><time>2023-03-31T11:56:42Z</time><name>PT2156</name></trkpt>
<trkpt lat="53.401808" lon="-1.964644"><ele>290</ele><time>2023-03-31T11:56:45Z</time><name>PT2157</name></trkpt>
<trkpt lat="53.401760" lon="-1.964657"><ele>289</ele><time>2023-03-31T11:56:49Z</time><name>PT2158</name></trkpt>
<trkpt lat="53.401715" lon="-1.964676"><ele>288</ele><time>2023-03-31T11:56:53Z</time><name>PT2159</name></trkpt>
<trkpt lat="53.401683" lon="-1.964689"><ele>288</ele><time>2023-03-31T11:56:56Z</time><name>PT2160</name></trkpt>
<trkpt lat="53.401635" lon="-1.964711"><ele>288</ele><time>2023-03-31T11:57:00Z</time><name>PT2161</name></trkpt>
<trkpt lat="53.401600" lon="-1.964725"><ele>288</ele><time>2023-03-31T11:57:03Z</time><name>PT2162</name></trkpt>
<trkpt lat="53.401552" lon="-1.964751"><ele>287</ele><time>2023-03-31T11:57:07Z</time><name>PT2163</name></trkpt>
<trkpt lat="53.401511" lon="-1.964777"><ele>287</ele><time>2023-03-31T11:57:11Z</time><name>PT2164</name></trkpt>
<trkpt lat="53.401475" lon="-1.964802"><ele>286</ele><time>2023-03-31T11:57:14Z</time><name>PT2165</name></trkpt>
<trkpt lat="53.401423" lon="-1.964842"><ele>286</ele><time>2023-03-31T11:57:18Z</time><name>PT2166</name></trkpt>
<trkpt lat="53.401387" lon="-1.964860"><ele>285</ele><time>2023-03-31T11:57:21Z</time><name>PT2167</name></trkpt>
<trkpt lat="53.401349" lon="-1.964899"><ele>285</ele><time>2023-03-31T11:57:24Z</time><name>PT2168</name></trkpt>
<trkpt lat="53.401307" lon="-1.964944"><ele>285</ele><time>2023-03-31T11:57:28Z</time><name>PT2169</name></trkpt>
<trkpt lat="53.401273" lon="-1.964972"><ele>285</ele><time>2023-03-31T11:57:31Z</time><name>PT2170</name></trkpt>
<trkpt lat="53.401235" lon="-1.964999"><ele>285</ele><time>2023-03-31T11:57:34Z</time><name>PT2171</name></trkpt>
<trkpt lat="53.401184" lon="-1.965034"><ele>285</ele><time>2023-03-31T11:57:38Z</time><name>PT2172</name></trkpt>
<trkpt lat="53.401134" lon="-1.965068"><ele>285</ele><time>2023-03-31T11:57:42Z</time><name>PT2173</name></trkpt>
<trkpt lat="53.401100" lon="-1.965075"><ele>285</ele><time>2023-03-31T11:57:45Z</time><name>PT2174</name></trkpt>
<trkpt lat="53.401052" lon="-1.965091"><ele>285</ele><time>2023-03-31T11:57:49Z</time><name>PT2175</name></trkpt>
<trkpt lat="53.401012" lon="-1.965106"><ele>285</ele><time>2023-03-31T11:57:52Z</time><name>PT2176</name></trkpt>
<trkpt lat="53.400962" lon="-1.965120"><ele>286</ele><time>2023-03-31T11:57:56Z</time><name>PT2177</name></trkpt>
<trkpt lat="53.400928" lon="-1.965116"><ele>285</ele><time>2023-03-31T11:57:59Z</time><name>PT2178</name></trkpt>
<trkpt lat="53.400882" lon="-1.965109"><ele>284</ele><time>2023-03-31T11:58:03Z</time><name>PT2179</name></trkpt>
<trkpt lat="53.400849" lon="-1.965097"><ele>284</ele><time>2023-03-31T11:58:06Z</time><name>PT2180</name></trkpt>
<trkpt lat="53.400811" lon="-1.965092"><ele>284</ele><time>2023-03-31T11:58:09Z</time><name>PT2181</name></trkpt>
<trkpt lat="53.400761" lon="-1.965086"><ele>284</ele><time>2023-03-31T11:58:13Z</time><name>PT2182</name></trkpt>
<trkpt lat="53.400722" lon="-1.965079"><ele>284</ele><time>2023-03-31T11:58:16Z</time><name>PT2183</name></trkpt>
<trkpt lat="53.400684" lon="-1.965071"><ele>284</ele><time>2023-03-31T11:58:19Z</time><name>PT2184</name></trkpt>
<trkpt lat="53.400635" lon="-1.965069"><ele>285</ele><time>2023-03-31T11:58:23Z</time><name>PT2185</name></trkpt>
<trkpt lat="53.400600" lon="-1.965068"><ele>286</ele><time>2023-03-31T11:58:26Z</time><name>PT2186</name></trkpt>
<trkpt lat="53.400554" lon="-1.965065"><ele>286</ele><time>2023-03-31T11:58:30Z</time><name>PT2187</name></trkpt>
<trkpt lat="53.400509" lon="-1.965055"><ele>286</ele><time>2023-03-31T11:58:34Z</time><name>PT2188</name></trkpt>
<trkpt lat="53.400475" lon="-1.965045"><ele>286</ele><time>2023-03-31T11:58:37Z</time><name>PT2189</name></trkpt>
<trkpt lat="53.400425" lon="-1.965037"><ele>286</ele><time>2023-03-31T11:58:41Z</time><name>PT2190</name></trkpt>
<trkpt lat="53.400389" lon="-1.965023"><ele>286</ele><time>2023-03-31T11:58:44Z</time><name>PT2191</name></trkpt>
<trkpt lat="53.400341" lon="-1.965010"><ele>286</ele><time>2023-03-31T11:58:48Z</time><name>PT2192</name></trkpt>
<trkpt lat="53.400304" lon="-1.964998"><ele>285</ele><time>2023-03-31T11:58:51Z</time><name>PT2193</name></trkpt>
<trkpt lat="53.400258" lon="-1.964983"><ele>285</ele><time>2023-03-31T11:58:55Z</time><name>PT2194</name></trkpt>
<trkpt lat="53.400211" lon="-1.964977"><ele>284</ele><time>2023-03-31T11:58:59Z</time><name>PT2195</name></trkpt>
<trkpt lat="53.400176" lon="-1.964968"><ele>284</ele><time>2023-03-31T11:59:02Z</time><name>PT2196</name></trkpt>
<trkpt lat="53.400133" lon="-1.964968"><ele>284</ele><time>2023-03-31T11:59:06Z</time><name>PT2197</name></trkpt>
<trkpt lat="53.400094" lon="-1.964963"><ele>284</ele><time>2023-03-31T11:59:09Z</time><name>PT2198</name></trkpt>
<trkpt lat="53.400042" lon="-1.964963"><ele>285</ele><time>2023-03-31T11:59:13Z</time><name>PT2199</name></trkpt>
<trkpt lat="53.399994" lon="-1.964962"><ele>285</ele><time>2023-03-31T11:59:17Z</time><name>PT2200</name></trkpt>
<trkpt lat="53.399962" lon="-1.964955"><ele>285</ele><time>2023-03-31T11:59:20Z</time><name>PT2201</name></trkpt>
<trkpt lat="53.399926" lon="-1.964954"><ele>285</ele><time>2023-03-31T11:59:23Z</time><name>PT2202</name></trkpt>
<trkpt lat="53.399879" lon="-1.964950"><ele>285</ele><time>2023-03-31T11:59:27Z</time><name>PT2203</name></trkpt>
<trkpt lat="53.399837" lon="-1.964958"><ele>285</ele><time>2023-03-31T11:59:30Z</time><name>PT2204</name></trkpt>
<trkpt lat="53.399791" lon="-1.964953"><ele>285</ele><time>2023-03-31T11:59:34Z</time><name>PT2205</name></trkpt>
<trkpt lat="53.399758" lon="-1.964940"><ele>285</ele><time>2023-03-31T11:59:37Z</time><name>PT2206</name></trkpt>
<trkpt lat="53.399725" lon="-1.964932"><ele>284</ele><time>2023-03-31T11:59:40Z</time><name>PT2207</name></trkpt>
<trkpt lat="53.399677" lon="-1.964924"><ele>283</ele><time>2023-03-31T11:59:44Z</time><name>PT2208</name></trkpt>
<trkpt lat="53.399635" lon="-1.964913"><ele>283</ele><time>2023-03-31T11:59:47Z</time><name>PT2209</name></trkpt>
<trkpt lat="53.399587" lon="-1.964905"><ele>282</ele><time>2023-03-31T11:59:51Z</time><name>PT2210</name></trkpt>
<trkpt lat="53.399551" lon="-1.964894"><ele>282</ele><time>2023-03-31T11:59:54Z</time><name>PT2211</name></trkpt>
<trkpt lat="53.399500" lon="-1.964889"><ele>281</ele><time>2023-03-31T11:59:58Z</time><name>PT2212</name></trkpt>
<trkpt lat="53.399452" lon="-1.964875"><ele>280</ele><time>2023-03-31T12:00:02Z</time><name>PT2213</name></trkpt>
<trkpt lat="53.399418" lon="-1.964873"><ele>280</ele><time>2023-03-31T12:00:05Z</time><name>PT2214</name></trkpt>
<trkpt lat="53.399374" lon="-1.964863"><ele>280</ele><time>2023-03-31T12:00:09Z</time><name>PT2215</name></trkpt>
<trkpt lat="53.399335" lon="-1.964851"><ele>279</ele><time>2023-03-31T12:00:12Z</time><name>PT2216</name></trkpt>
<trkpt lat="53.399298" lon="-1.964842"><ele>279</ele><time>2023-03-31T12:00:15Z</time><name>PT2217</name></trkpt>
<trkpt lat="53.399242" lon="-1.964827"><ele>280</ele><time>2023-03-31T12:00:18Z</time><name>PT2218</name></trkpt>
<trkpt lat="53.399174" lon="-1.964832"><ele>283</ele><time>2023-03-31T12:00:21Z</time><name>PT2219</name></trkpt>
<trkpt lat="53.399128" lon="-1.964826"><ele>285</ele><time>2023-03-31T12:00:24Z</time><name>PT2220</name></trkpt>
<trkpt lat="53.399078" lon="-1.964813"><ele>284</ele><time>2023-03-31T12:00:28Z</time><name>PT2221</name></trkpt>
<trkpt lat="53.399028" lon="-1.964813"><ele>286</ele><time>2023-03-31T12:00:31Z</time><name>PT2222</name></trkpt>
<trkpt lat="53.398995" lon="-1.964804"><ele>284</ele><time>2023-03-31T12:00:35Z</time><name>PT2223</name></trkpt>
<trkpt lat="53.398960" lon="-1.964790"><ele>284</ele><time>2023-03-31T12:00:38Z</time><name>PT2224</name></trkpt>
<trkpt lat="53.398916" lon="-1.964778"><ele>284</ele><time>2023-03-31T12:00:42Z</time><name>PT2225</name></trkpt>
<trkpt lat="53.398873" lon="-1.964760"><ele>283</ele><time>2023-03-31T12:00:46Z</time><name>PT2226</name></trkpt>
<trkpt lat="53.398831" lon="-1.964745"><ele>281</ele><time>2023-03-31T12:00:50Z</time><name>PT2227</name></trkpt>
<trkpt lat="53.398802" lon="-1.964737"><ele>280</ele><time>2023-03-31T12:00:53Z</time><name>PT2228</name></trkpt>
<trkpt lat="53.398766" lon="-1.964731"><ele>279</ele><time>2023-03-31T12:00:56Z</time><name>PT2229</name></trkpt>
<trkpt lat="53.398723" lon="-1.964722"><ele>279</ele><time>2023-03-31T12:01:00Z</time><name>PT2230</name></trkpt>
<trkpt lat="53.398675" lon="-1.964704"><ele>278</ele><time>2023-03-31T12:01:04Z</time><name>PT2231</name></trkpt>
<trkpt lat="53.398635" lon="-1.964696"><ele>278</ele><time>2023-03-31T12:01:07Z</time><name>PT2232</name></trkpt>
<trkpt lat="53.398586" lon="-1.964688"><ele>278</ele><time>2023-03-31T12:01:11Z</time><name>PT2233</name></trkpt>
<trkpt lat="53.398538" lon="-1.964681"><ele>279</ele><time>2023-03-31T12:01:15Z</time><name>PT2234</name></trkpt>
<trkpt lat="53.398492" lon="-1.964667"><ele>280</ele><time>2023-03-31T12:01:19Z</time><name>PT2235</name></trkpt>
<trkpt lat="53.398450" lon="-1.964662"><ele>281</ele><time>2023-03-31T12:01:23Z</time><name>PT2236</name></trkpt>
<trkpt lat="53.398424" lon="-1.964634"><ele>280</ele><time>2023-03-31T12:01:26Z</time><name>PT2237</name></trkpt>
<trkpt lat="53.398374" lon="-1.964611"><ele>281</ele><time>2023-03-31T12:01:30Z</time><name>PT2238</name></trkpt>
<trkpt lat="53.398329" lon="-1.964587"><ele>280</ele><time>2023-03-31T12:01:34Z</time><name>PT2239</name></trkpt>
<trkpt lat="53.398277" lon="-1.964545"><ele>280</ele><time>2023-03-31T12:01:38Z</time><name>PT2240</name></trkpt>
<trkpt lat="53.398228" lon="-1.964512"><ele>280</ele><time>2023-03-31T12:01:42Z</time><name>PT2241</name></trkpt>
<trkpt lat="53.398189" lon="-1.964487"><ele>280</ele><time>2023-03-31T12:01:45Z</time><name>PT2242</name></trkpt>
<trkpt lat="53.398120" lon="-1.964465"><ele>283</ele><time>2023-03-31T12:01:49Z</time><name>PT2243</name></trkpt>
<trkpt lat="53.398052" lon="-1.964434"><ele>283</ele><time>2023-03-31T12:01:53Z</time><name>PT2244</name></trkpt>
<trkpt lat="53.398015" lon="-1.964405"><ele>283</ele><time>2023-03-31T12:01:56Z</time><name>PT2245</name></trkpt>
<trkpt lat="53.397977" lon="-1.964382"><ele>283</ele><time>2023-03-31T12:01:59Z</time><name>PT2246</name></trkpt>
<trkpt lat="53.397929" lon="-1.964331"><ele>284</ele><time>2023-03-31T12:02:03Z</time><name>PT2247</name></trkpt>
<trkpt lat="53.397898" lon="-1.964290"><ele>284</ele><time>2023-03-31T12:02:06Z</time><name>PT2248</name></trkpt>
<trkpt lat="53.397863" lon="-1.964233"><ele>285</ele><time>2023-03-31T12:02:10Z</time><name>PT2249</name></trkpt>
<trkpt lat="53.397835" lon="-1.964195"><ele>285</ele><time>2023-03-31T12:02:13Z</time><name>PT2250</name></trkpt>
<trkpt lat="53.397796" lon="-1.964155"><ele>286</ele><time>2023-03-31T12:02:17Z</time><name>PT2251</name></trkpt>
<trkpt lat="53.397765" lon="-1.964098"><ele>286</ele><time>2023-03-31T12:02:21Z</time><name>PT2252</name></trkpt>
<trkpt lat="53.397744" lon="-1.964059"><ele>286</ele><time>2023-03-31T12:02:24Z</time><name>PT2253</name></trkpt>
<trkpt lat="53.397726" lon="-1.964022"><ele>285</ele><time>2023-03-31T12:02:27Z</time><name>PT2254</name></trkpt>
<trkpt lat="53.397696" lon="-1.963980"><ele>284</ele><time>2023-03-31T12:02:31Z</time><name>PT2255</name></trkpt>
<trkpt lat="53.397681" lon="-1.963934"><ele>283</ele><time>2023-03-31T12:02:34Z</time><name>PT2256</name></trkpt>
<trkpt lat="53.397658" lon="-1.963885"><ele>282</ele><time>2023-03-31T12:02:37Z</time><name>PT2257</name></trkpt>
<trkpt lat="53.397624" lon="-1.963822"><ele>284</ele><time>2023-03-31T12:02:41Z</time><name>PT2258</name></trkpt>
<trkpt lat="53.397584" lon="-1.963762"><ele>286</ele><time>2023-03-31T12:02:45Z</time><name>PT2259</name></trkpt>
<trkpt lat="53.397561" lon="-1.963714"><ele>287</ele><time>2023-03-31T12:02:48Z</time><name>PT2260</name></trkpt>
<trkpt lat="53.397535" lon="-1.963667"><ele>287</ele><time>2023-03-31T12:02:51Z</time><name>PT2261</name></trkpt>
<trkpt lat="53.397505" lon="-1.963600"><ele>288</ele><time>2023-03-31T12:02:55Z</time><name>PT2262</name></trkpt>
<trkpt lat="53.397484" lon="-1.963552"><ele>288</ele><time>2023-03-31T12:02:58Z</time><name>PT2263</name></trkpt>
<trkpt lat="53.397463" lon="-1.963509"><ele>288</ele><time>2023-03-31T12:03:01Z</time><name>PT2264</name></trkpt>
<trkpt lat="53.397434" lon="-1.963448"><ele>289</ele><time>2023-03-31T12:03:05Z</time><name>PT2265</name></trkpt>
<trkpt lat="53.397407" lon="-1.963389"><ele>289</ele><time>2023-03-31T12:03:09Z</time><name>PT2266</name></trkpt>
<trkpt lat="53.397387" lon="-1.963355"><ele>289</ele><time>2023-03-31T12:03:12Z</time><name>PT2267</name></trkpt>
<trkpt lat="53.397374" lon="-1.963346"><ele>288</ele><time>2023-03-31T12:03:15Z</time><name>PT2268</name></trkpt>
<trkpt lat="53.397359" lon="-1.963349"><ele>288</ele><time>2023-03-31T12:03:18Z</time><name>PT2269</name></trkpt>
<trkpt lat="53.397349" lon="-1.963358"><ele>288</ele><time>2023-03-31T12:03:22Z</time><name>PT2270</name></trkpt>
<trkpt lat="53.397338" lon="-1.963356"><ele>288</ele><time>2023-03-31T12:03:26Z</time><name>PT2271</name></trkpt>
<trkpt lat="53.397331" lon="-1.963337"><ele>289</ele><time>2023-03-31T12:03:29Z</time><name>PT2272</name></trkpt>
<trkpt lat="53.397302" lon="-1.963321"><ele>290</ele><time>2023-03-31T12:03:33Z</time><name>PT2273</name></trkpt>
<trkpt lat="53.397288" lon="-1.963300"><ele>291</ele><time>2023-03-31T12:03:36Z</time><name>PT2274</name></trkpt>
<trkpt lat="53.397264" lon="-1.963260"><ele>291</ele><time>2023-03-31T12:03:40Z</time><name>PT2275</name></trkpt>
<trkpt lat="53.397255" lon="-1.963245"><ele>292</ele><time>2023-03-31T12:03:44Z</time><name>PT2276</name></trkpt>
<trkpt lat="53.397238" lon="-1.963212"><ele>293</ele><time>2023-03-31T12:03:47Z</time><name>PT2277</name></trkpt>
<trkpt lat="53.397203" lon="-1.963160"><ele>293</ele><time>2023-03-31T12:03:51Z</time><name>PT2278</name></trkpt>
<trkpt lat="53.397171" lon="-1.963111"><ele>293</ele><time>2023-03-31T12:03:55Z</time><name>PT2279</name></trkpt>
<trkpt lat="53.397138" lon="-1.963061"><ele>293</ele><time>2023-03-31T12:03:59Z</time><name>PT2280</name></trkpt>
<trkpt lat="53.397117" lon="-1.963024"><ele>293</ele><time>2023-03-31T12:04:02Z</time><name>PT2281</name></trkpt>
<trkpt lat="53.397089" lon="-1.962987"><ele>294</ele><time>2023-03-31T12:04:05Z</time><name>PT2282</name></trkpt>
<trkpt lat="53.397059" lon="-1.962933"><ele>294</ele><time>2023-03-31T12:04:09Z</time><name>PT2283</name></trkpt>
<trkpt lat="53.397027" lon="-1.962925"><ele>294</ele><time>2023-03-31T12:04:13Z</time><name>PT2284</name></trkpt>
<trkpt lat="53.396995" lon="-1.962931"><ele>294</ele><time>2023-03-31T12:04:16Z</time><name>PT2285</name></trkpt>
<trkpt lat="53.396952" lon="-1.962932"><ele>294</ele><time>2023-03-31T12:04:20Z</time><name>PT2286</name></trkpt>
<trkpt lat="53.396908" lon="-1.962953"><ele>294</ele><time>2023-03-31T12:04:24Z</time><name>PT2287</name></trkpt>
<trkpt lat="53.396863" lon="-1.962971"><ele>293</ele><time>2023-03-31T12:04:28Z</time><name>PT2288</name></trkpt>
<trkpt lat="53.396828" lon="-1.962976"><ele>293</ele><time>2023-03-31T12:04:31Z</time><name>PT2289</name></trkpt>
<trkpt lat="53.396781" lon="-1.962979"><ele>293</ele><time>2023-03-31T12:04:35Z</time><name>PT2290</name></trkpt>
<trkpt lat="53.396735" lon="-1.962975"><ele>293</ele><time>2023-03-31T12:04:39Z</time><name>PT2291</name></trkpt>
<trkpt lat="53.396701" lon="-1.962963"><ele>294</ele><time>2023-03-31T12:04:42Z</time><name>PT2292</name></trkpt>
<trkpt lat="53.396661" lon="-1.962939"><ele>294</ele><time>2023-03-31T12:04:46Z</time><name>PT2293</name></trkpt>
<trkpt lat="53.396627" lon="-1.962921"><ele>294</ele><time>2023-03-31T12:04:49Z</time><name>PT2294</name></trkpt>
<trkpt lat="53.396586" lon="-1.962902"><ele>294</ele><time>2023-03-31T12:04:53Z</time><name>PT2295</name></trkpt>
<trkpt lat="53.396552" lon="-1.962886"><ele>294</ele><time>2023-03-31T12:04:56Z</time><name>PT2296</name></trkpt>
<trkpt lat="53.396514" lon="-1.962861"><ele>294</ele><time>2023-03-31T12:05:00Z</time><name>PT2297</name></trkpt>
<trkpt lat="53.396483" lon="-1.962841"><ele>294</ele><time>2023-03-31T12:05:03Z</time><name>PT2298</name></trkpt>
<trkpt lat="53.396451" lon="-1.962818"><ele>295</ele><time>2023-03-31T12:05:06Z</time><name>PT2299</name></trkpt>
<trkpt lat="53.396412" lon="-1.962779"><ele>295</ele><time>2023-03-31T12:05:10Z</time><name>PT2300</name></trkpt>
<trkpt lat="53.396383" lon="-1.962754"><ele>295</ele><time>2023-03-31T12:05:13Z</time><name>PT2301</name></trkpt>
<trkpt lat="53.396351" lon="-1.962730"><ele>296</ele><time>2023-03-31T12:05:16Z</time><name>PT2302</name></trkpt>
<trkpt lat="53.396312" lon="-1.962712"><ele>296</ele><time>2023-03-31T12:05:20Z</time><name>PT2303</name></trkpt>
<trkpt lat="53.396277" lon="-1.962692"><ele>297</ele><time>2023-03-31T12:05:23Z</time><name>PT2304</name></trkpt>
<trkpt lat="53.396238" lon="-1.962657"><ele>298</ele><time>2023-03-31T12:05:27Z</time><name>PT2305</name></trkpt>
<trkpt lat="53.396205" lon="-1.962628"><ele>299</ele><time>2023-03-31T12:05:30Z</time><name>PT2306</name></trkpt>
<trkpt lat="53.396166" lon="-1.962585"><ele>299</ele><time>2023-03-31T12:05:34Z</time><name>PT2307</name></trkpt>
<trkpt lat="53.396137" lon="-1.962552"><ele>299</ele><time>2023-03-31T12:05:37Z</time><name>PT2308</name></trkpt>
<trkpt lat="53.396101" lon="-1.962509"><ele>299</ele><time>2023-03-31T12:05:41Z</time><name>PT2309</name></trkpt>
<trkpt lat="53.396061" lon="-1.962467"><ele>300</ele><time>2023-03-31T12:05:45Z</time><name>PT2310</name></trkpt>
<trkpt lat="53.396032" lon="-1.962443"><ele>300</ele><time>2023-03-31T12:05:48Z</time><name>PT2311</name></trkpt>
<trkpt lat="53.396001" lon="-1.962408"><ele>301</ele><time>2023-03-31T12:05:51Z</time><name>PT2312</name></trkpt>
<trkpt lat="53.395963" lon="-1.962373"><ele>301</ele><time>2023-03-31T12:05:55Z</time><name>PT2313</name></trkpt>
<trkpt lat="53.395933" lon="-1.962342"><ele>302</ele><time>2023-03-31T12:05:58Z</time><name>PT2314</name></trkpt>
<trkpt lat="53.395892" lon="-1.962316"><ele>302</ele><time>2023-03-31T12:06:02Z</time><name>PT2315</name></trkpt>
<trkpt lat="53.395856" lon="-1.962303"><ele>302</ele><time>2023-03-31T12:06:05Z</time><name>PT2316</name></trkpt>
<trkpt lat="53.395819" lon="-1.962293"><ele>301</ele><time>2023-03-31T12:06:08Z</time><name>PT2317</name></trkpt>
<trkpt lat="53.395785" lon="-1.962277"><ele>301</ele><time>2023-03-31T12:06:11Z</time><name>PT2318</name></trkpt>
<trkpt lat="53.395736" lon="-1.962259"><ele>301</ele><time>2023-03-31T12:06:15Z</time><name>PT2319</name></trkpt>
<trkpt lat="53.395688" lon="-1.962240"><ele>302</ele><time>2023-03-31T12:06:19Z</time><name>PT2320</name></trkpt>
<trkpt lat="53.395638" lon="-1.962216"><ele>302</ele><time>2023-03-31T12:06:23Z</time><name>PT2321</name></trkpt>
<trkpt lat="53.395607" lon="-1.962192"><ele>302</ele><time>2023-03-31T12:06:26Z</time><name>PT2322</name></trkpt>
<trkpt lat="53.395563" lon="-1.962168"><ele>301</ele><time>2023-03-31T12:06:30Z</time><name>PT2323</name></trkpt>
<trkpt lat="53.395529" lon="-1.962158"><ele>302</ele><time>2023-03-31T12:06:33Z</time><name>PT2324</name></trkpt>
<trkpt lat="53.395485" lon="-1.962132"><ele>302</ele><time>2023-03-31T12:06:37Z</time><name>PT2325</name></trkpt>
<trkpt lat="53.395453" lon="-1.962112"><ele>302</ele><time>2023-03-31T12:06:40Z</time><name>PT2326</name></trkpt>
<trkpt lat="53.395413" lon="-1.962088"><ele>302</ele><time>2023-03-31T12:06:44Z</time><name>PT2327</name></trkpt>
<trkpt lat="53.395370" lon="-1.962069"><ele>303</ele><time>2023-03-31T12:06:48Z</time><name>PT2328</name></trkpt>
<trkpt lat="53.395337" lon="-1.962044"><ele>303</ele><time>2023-03-31T12:06:51Z</time><name>PT2329</name></trkpt>
<trkpt lat="53.395292" lon="-1.962012"><ele>306</ele><time>2023-03-31T12:06:55Z</time><name>PT2330</name></trkpt>
<trkpt lat="53.395262" lon="-1.961995"><ele>307</ele><time>2023-03-31T12:06:58Z</time><name>PT2331</name></trkpt>
<trkpt lat="53.395232" lon="-1.961975"><ele>307</ele><time>2023-03-31T12:07:01Z</time><name>PT2332</name></trkpt>
<trkpt lat="53.395197" lon="-1.961948"><ele>308</ele><time>2023-03-31T12:07:05Z</time><name>PT2333</name></trkpt>
<trkpt lat="53.395154" lon="-1.961918"><ele>308</ele><time>2023-03-31T12:07:09Z</time><name>PT2334</name></trkpt>
<trkpt lat="53.395113" lon="-1.961878"><ele>308</ele><time>2023-03-31T12:07:13Z</time><name>PT2335</name></trkpt>
<trkpt lat="53.395075" lon="-1.961840"><ele>308</ele><time>2023-03-31T12:07:17Z</time><name>PT2336</name></trkpt>
<trkpt lat="53.395034" lon="-1.961801"><ele>308</ele><time>2023-03-31T12:07:21Z</time><name>PT2337</name></trkpt>
<trkpt lat="53.395003" lon="-1.961771"><ele>308</ele><time>2023-03-31T12:07:24Z</time><name>PT2338</name></trkpt>
<trkpt lat="53.394957" lon="-1.961737"><ele>309</ele><time>2023-03-31T12:07:28Z</time><name>PT2339</name></trkpt>
<trkpt lat="53.394922" lon="-1.961717"><ele>309</ele><time>2023-03-31T12:07:31Z</time><name>PT2340</name></trkpt>
<trkpt lat="53.394881" lon="-1.961688"><ele>309</ele><time>2023-03-31T12:07:35Z</time><name>PT2341</name></trkpt>
<trkpt lat="53.394840" lon="-1.961650"><ele>310</ele><time>2023-03-31T12:07:39Z</time><name>PT2342</name></trkpt>
<trkpt lat="53.394801" lon="-1.961611"><ele>310</ele><time>2023-03-31T12:07:43Z</time><name>PT2343</name></trkpt>
<trkpt lat="53.394764" lon="-1.961574"><ele>310</ele><time>2023-03-31T12:07:47Z</time><name>PT2344</name></trkpt>
<trkpt lat="53.394733" lon="-1.961540"><ele>311</ele><time>2023-03-31T12:07:50Z</time><name>PT2345</name></trkpt>
<trkpt lat="53.394704" lon="-1.961509"><ele>311</ele><time>2023-03-31T12:07:53Z</time><name>PT2346</name></trkpt>
<trkpt lat="53.394666" lon="-1.961466"><ele>311</ele><time>2023-03-31T12:07:57Z</time><name>PT2347</name></trkpt>
<trkpt lat="53.394635" lon="-1.961449"><ele>311</ele><time>2023-03-31T12:08:00Z</time><name>PT2348</name></trkpt>
<trkpt lat="53.394595" lon="-1.961419"><ele>312</ele><time>2023-03-31T12:08:04Z</time><name>PT2349</name></trkpt>
<trkpt lat="53.394551" lon="-1.961399"><ele>312</ele><time>2023-03-31T12:08:08Z</time><name>PT2350</name></trkpt>
<trkpt lat="53.394507" lon="-1.961370"><ele>312</ele><time>2023-03-31T12:08:12Z</time><name>PT2351</name></trkpt>
<trkpt lat="53.394463" lon="-1.961349"><ele>313</ele><time>2023-03-31T12:08:16Z</time><name>PT2352</name></trkpt>
<trkpt lat="53.394432" lon="-1.961322"><ele>312</ele><time>2023-03-31T12:08:19Z</time><name>PT2353</name></trkpt>
<trkpt lat="53.394402" lon="-1.961303"><ele>313</ele><time>2023-03-31T12:08:22Z</time><name>PT2354</name></trkpt>
<trkpt lat="53.394365" lon="-1.961272"><ele>313</ele><time>2023-03-31T12:08:26Z</time><name>PT2355</name></trkpt>
<trkpt lat="53.394341" lon="-1.961237"><ele>312</ele><time>2023-03-31T12:08:29Z</time><name>PT2356</name></trkpt>
<trkpt lat="53.394312" lon="-1.961206"><ele>312</ele><time>2023-03-31T12:08:32Z</time><name>PT2357</name></trkpt>
<trkpt lat="53.394268" lon="-1.961174"><ele>311</ele><time>2023-03-31T12:08:36Z</time><name>PT2358</name></trkpt>
<trkpt lat="53.394236" lon="-1.961158"><ele>312</ele><time>2023-03-31T12:08:39Z</time><name>PT2359</name></trkpt>
<trkpt lat="53.394197" lon="-1.961146"><ele>312</ele><time>2023-03-31T12:08:43Z</time><name>PT2360</name></trkpt>
<trkpt lat="53.394146" lon="-1.961128"><ele>314</ele><time>2023-03-31T12:08:47Z</time><name>PT2361</name></trkpt>
<trkpt lat="53.394106" lon="-1.961112"><ele>315</ele><time>2023-03-31T12:08:51Z</time><name>PT2362</name></trkpt>
<trkpt lat="53.394072" lon="-1.961093"><ele>316</ele><time>2023-03-31T12:08:54Z</time><name>PT2363</name></trkpt>
<trkpt lat="53.394030" lon="-1.961080"><ele>316</ele><time>2023-03-31T12:08:58Z</time><name>PT2364</name></trkpt>
<trkpt lat="53.393983" lon="-1.961065"><ele>316</ele><time>2023-03-31T12:09:02Z</time><name>PT2365</name></trkpt>
<trkpt lat="53.393951" lon="-1.961059"><ele>315</ele><time>2023-03-31T12:09:05Z</time><name>PT2366</name></trkpt>
<trkpt lat="53.393917" lon="-1.961060"><ele>316</ele><time>2023-03-31T12:09:08Z</time><name>PT2367</name></trkpt>
<trkpt lat="53.393873" lon="-1.961057"><ele>315</ele><time>2023-03-31T12:09:12Z</time><name>PT2368</name></trkpt>
<trkpt lat="53.393842" lon="-1.961048"><ele>316</ele><time>2023-03-31T12:09:15Z</time><name>PT2369</name></trkpt>
<trkpt lat="53.393811" lon="-1.961031"><ele>315</ele><time>2023-03-31T12:09:18Z</time><name>PT2370</name></trkpt>
<trkpt lat="53.393773" lon="-1.961024"><ele>315</ele><time>2023-03-31T12:09:22Z</time><name>PT2371</name></trkpt>
<trkpt lat="53.393732" lon="-1.961039"><ele>315</ele><time>2023-03-31T12:09:26Z</time><name>PT2372</name></trkpt>
<trkpt lat="53.393700" lon="-1.961054"><ele>315</ele><time>2023-03-31T12:09:29Z</time><name>PT2373</name></trkpt>
<trkpt lat="53.393673" lon="-1.961096"><ele>316</ele><time>2023-03-31T12:09:32Z</time><name>PT2374</name></trkpt>
<trkpt lat="53.393646" lon="-1.961152"><ele>314</ele><time>2023-03-31T12:09:36Z</time><name>PT2375</name></trkpt>
<trkpt lat="53.393618" lon="-1.961210"><ele>314</ele><time>2023-03-31T12:09:40Z</time><name>PT2376</name></trkpt>
<trkpt lat="53.393594" lon="-1.961250"><ele>314</ele><time>2023-03-31T12:09:43Z</time><name>PT2377</name></trkpt>
<trkpt lat="53.393562" lon="-1.961299"><ele>315</ele><time>2023-03-31T12:09:47Z</time><name>PT2378</name></trkpt>
<trkpt lat="53.393531" lon="-1.961323"><ele>314</ele><time>2023-03-31T12:09:50Z</time><name>PT2379</name></trkpt>
<trkpt lat="53.393497" lon="-1.961350"><ele>315</ele><time>2023-03-31T12:09:54Z</time><name>PT2380</name></trkpt>
<trkpt lat="53.393459" lon="-1.961361"><ele>316</ele><time>2023-03-31T12:09:58Z</time><name>PT2381</name></trkpt>
<trkpt lat="53.393429" lon="-1.961362"><ele>316</ele><time>2023-03-31T12:10:02Z</time><name>PT2382</name></trkpt>
<trkpt lat="53.393395" lon="-1.961415"><ele>318</ele><time>2023-03-31T12:10:06Z</time><name>PT2383</name></trkpt>
<trkpt lat="53.393377" lon="-1.961437"><ele>319</ele><time>2023-03-31T12:10:09Z</time><name>PT2384</name></trkpt>
<trkpt lat="53.393357" lon="-1.961450"><ele>319</ele><time>2023-03-31T12:10:13Z</time><name>PT2385</name></trkpt>
<trkpt lat="53.393356" lon="-1.961461"><ele>318</ele><time>2023-03-31T12:10:16Z</time><name>PT2386</name></trkpt>
<trkpt lat="53.393352" lon="-1.961519"><ele>319</ele><time>2023-03-31T12:10:20Z</time><name>PT2387</name></trkpt>
<trkpt lat="53.393354" lon="-1.961556"><ele>319</ele><time>2023-03-31T12:10:23Z</time><name>PT2388</name></trkpt>
<trkpt lat="53.393351" lon="-1.961585"><ele>319</ele><time>2023-03-31T12:10:27Z</time><name>PT2389</name></trkpt>
<trkpt lat="53.393346" lon="-1.961607"><ele>319</ele><time>2023-03-31T12:10:31Z</time><name>PT2390</name></trkpt>
<trkpt lat="53.393331" lon="-1.961630"><ele>319</ele><time>2023-03-31T12:10:35Z</time><name>PT2391</name></trkpt>
<trkpt lat="53.393331" lon="-1.961654"><ele>319</ele><time>2023-03-31T12:10:38Z</time><name>PT2392</name></trkpt>
<trkpt lat="53.393333" lon="-1.961693"><ele>320</ele><time>2023-03-31T12:10:42Z</time><name>PT2393</name></trkpt>
<trkpt lat="53.393332" lon="-1.961700"><ele>320</ele><time>2023-03-31T12:10:45Z</time><name>PT2394</name></trkpt>
<trkpt lat="53.393330" lon="-1.961686"><ele>320</ele><time>2023-03-31T12:11:26Z</time><name>PT2395</name></trkpt>
<trkpt lat="53.393331" lon="-1.961681"><ele>321</ele><time>2023-03-31T12:11:30Z</time><name>PT2396</name></trkpt>
<trkpt lat="53.393334" lon="-1.961672"><ele>321</ele><time>2023-03-31T12:14:00Z</time><name>PT2397</name></trkpt>
<trkpt lat="53.393333" lon="-1.961674"><ele>320</ele><time>2023-03-31T12:14:03Z</time><name>PT2398</name></trkpt>
<trkpt lat="53.393335" lon="-1.961671"><ele>319</ele><time>2023-03-31T12:14:06Z</time><name>PT2399</name></trkpt>
<trkpt lat="53.393332" lon="-1.961666"><ele>319</ele><time>2023-03-31T12:14:10Z</time><name>PT2400</name></trkpt>
<trkpt lat="53.393334" lon="-1.961674"><ele>319</ele><time>2023-03-31T12:14:14Z</time><name>PT2401</name></trkpt>
<trkpt lat="53.393331" lon="-1.961662"><ele>319</ele><time>2023-03-31T12:14:48Z</time><name>PT2402</name></trkpt>
<trkpt lat="53.393338" lon="-1.961653"><ele>318</ele><time>2023-03-31T12:14:52Z</time><name>PT2403</name></trkpt>
<trkpt lat="53.393339" lon="-1.961648"><ele>319</ele><time>2023-03-31T12:14:55Z</time><name>PT2404</name></trkpt>
<trkpt lat="53.393338" lon="-1.961644"><ele>318</ele><time>2023-03-31T12:14:58Z</time><name>PT2405</name></trkpt>
<trkpt lat="53.393343" lon="-1.961646"><ele>318</ele><time>2023-03-31T12:15:05Z</time><name>PT2406</name></trkpt>
<trkpt lat="53.393344" lon="-1.961652"><ele>318</ele><time>2023-03-31T12:15:12Z</time><name>PT2407</name></trkpt>
<trkpt lat="53.393347" lon="-1.961645"><ele>318</ele><time>2023-03-31T12:15:16Z</time><name>PT2408</name></trkpt>
<trkpt lat="53.393348" lon="-1.961646"><ele>318</ele><time>2023-03-31T12:15:19Z</time><name>PT2409</name></trkpt>
<trkpt lat="53.393343" lon="-1.961652"><ele>318</ele><time>2023-03-31T12:22:44Z</time><name>PT2410</name></trkpt>
<trkpt lat="53.393337" lon="-1.961647"><ele>318</ele><time>2023-03-31T12:22:47Z</time><name>PT2411</name></trkpt>
<trkpt lat="53.393346" lon="-1.961639"><ele>318</ele><time>2023-03-31T12:24:01Z</time><name>PT2412</name></trkpt>
<trkpt lat="53.393341" lon="-1.961652"><ele>318</ele><time>2023-03-31T12:24:23Z</time><name>PT2413</name></trkpt>
<trkpt lat="53.393323" lon="-1.961652"><ele>319</ele><time>2023-03-31T12:24:26Z</time><name>PT2414</name></trkpt>
<trkpt lat="53.393322" lon="-1.961655"><ele>319</ele><time>2023-03-31T12:24:29Z</time><name>PT2415</name></trkpt>
<trkpt lat="53.393324" lon="-1.961667"><ele>319</ele><time>2023-03-31T12:28:32Z</time><name>PT2416</name></trkpt>
<trkpt lat="53.393326" lon="-1.961672"><ele>319</ele><time>2023-03-31T12:28:35Z</time><name>PT2417</name></trkpt>
<trkpt lat="53.393316" lon="-1.961661"><ele>320</ele><time>2023-03-31T12:31:42Z</time><name>PT2418</name></trkpt>
<trkpt lat="53.393317" lon="-1.961648"><ele>321</ele><time>2023-03-31T12:31:45Z</time><name>PT2419</name></trkpt>
<trkpt lat="53.393304" lon="-1.961672"><ele>321</ele><time>2023-03-31T12:31:49Z</time><name>PT2420</name></trkpt>
<trkpt lat="53.393300" lon="-1.961706"><ele>322</ele><time>2023-03-31T12:31:53Z</time><name>PT2421</name></trkpt>
<trkpt lat="53.393300" lon="-1.961709"><ele>322</ele><time>2023-03-31T12:31:56Z</time><name>PT2422</name></trkpt>
<trkpt lat="53.393301" lon="-1.961712"><ele>322</ele><time>2023-03-31T12:32:03Z</time><name>PT2423</name></trkpt>
<trkpt lat="53.393303" lon="-1.961708"><ele>323</ele><time>2023-03-31T12:32:07Z</time><name>PT2424</name></trkpt>
<trkpt lat="53.393300" lon="-1.961692"><ele>323</ele><time>2023-03-31T12:32:17Z</time><name>PT2425</name></trkpt>
<trkpt lat="53.393295" lon="-1.961665"><ele>323</ele><time>2023-03-31T12:32:21Z</time><name>PT2426</name></trkpt>
<trkpt lat="53.393293" lon="-1.961657"><ele>323</ele><time>2023-03-31T12:32:25Z</time><name>PT2427</name></trkpt>
<trkpt lat="53.393299" lon="-1.961616"><ele>323</ele><time>2023-03-31T12:32:28Z</time><name>PT2428</name></trkpt>
<trkpt lat="53.393313" lon="-1.961586"><ele>322</ele><time>2023-03-31T12:32:31Z</time><name>PT2429</name></trkpt>
<trkpt lat="53.393318" lon="-1.961526"><ele>320</ele><time>2023-03-31T12:32:35Z</time><name>PT2430</name></trkpt>
<trkpt lat="53.393315" lon="-1.961491"><ele>320</ele><time>2023-03-31T12:32:38Z</time><name>PT2431</name></trkpt>
<trkpt lat="53.393293" lon="-1.961477"><ele>319</ele><time>2023-03-31T12:32:42Z</time><name>PT2432</name></trkpt>
<trkpt lat="53.393287" lon="-1.961474"><ele>320</ele><time>2023-03-31T12:32:45Z</time><name>PT2433</name></trkpt>
<trkpt lat="53.393260" lon="-1.961468"><ele>320</ele><time>2023-03-31T12:32:49Z</time><name>PT2434</name></trkpt>
<trkpt lat="53.393236" lon="-1.961461"><ele>320</ele><time>2023-03-31T12:32:53Z</time><name>PT2435</name></trkpt>
<trkpt lat="53.393210" lon="-1.961461"><ele>321</ele><time>2023-03-31T12:32:56Z</time><name>PT2436</name></trkpt>
<trkpt lat="53.393181" lon="-1.961464"><ele>321</ele><time>2023-03-31T12:33:00Z</time><name>PT2437</name></trkpt>
<trkpt lat="53.393161" lon="-1.961467"><ele>322</ele><time>2023-03-31T12:33:03Z</time><name>PT2438</name></trkpt>
<trkpt lat="53.393143" lon="-1.961478"><ele>322</ele><time>2023-03-31T12:33:06Z</time><name>PT2439</name></trkpt>
<trkpt lat="53.393125" lon="-1.961484"><ele>322</ele><time>2023-03-31T12:33:09Z</time><name>PT2440</name></trkpt>
<trkpt lat="53.393102" lon="-1.961501"><ele>322</ele><time>2023-03-31T12:33:13Z</time><name>PT2441</name></trkpt>
<trkpt lat="53.393082" lon="-1.961511"><ele>322</ele><time>2023-03-31T12:33:16Z</time><name>PT2442</name></trkpt>
<trkpt lat="53.393053" lon="-1.961538"><ele>324</ele><time>2023-03-31T12:33:20Z</time><name>PT2443</name></trkpt>
<trkpt lat="53.393027" lon="-1.961556"><ele>325</ele><time>2023-03-31T12:33:24Z</time><name>PT2444</name></trkpt>
<trkpt lat="53.392999" lon="-1.961578"><ele>326</ele><time>2023-03-31T12:33:28Z</time><name>PT2445</name></trkpt>
<trkpt lat="53.392976" lon="-1.961597"><ele>326</ele><time>2023-03-31T12:33:31Z</time><name>PT2446</name></trkpt>
<trkpt lat="53.392951" lon="-1.961615"><ele>327</ele><time>2023-03-31T12:33:35Z</time><name>PT2447</name></trkpt>
<trkpt lat="53.392937" lon="-1.961632"><ele>327</ele><time>2023-03-31T12:33:38Z</time><name>PT2448</name></trkpt>
<trkpt lat="53.392919" lon="-1.961650"><ele>328</ele><time>2023-03-31T12:33:41Z</time><name>PT2449</name></trkpt>
<trkpt lat="53.392897" lon="-1.961673"><ele>328</ele><time>2023-03-31T12:33:45Z</time><name>PT2450</name></trkpt>
<trkpt lat="53.392874" lon="-1.961697"><ele>330</ele><time>2023-03-31T12:33:49Z</time><name>PT2451</name></trkpt>
<trkpt lat="53.392845" lon="-1.961711"><ele>331</ele><time>2023-03-31T12:33:53Z</time><name>PT2452</name></trkpt>
<trkpt lat="53.392825" lon="-1.961711"><ele>331</ele><time>2023-03-31T12:33:56Z</time><name>PT2453</name></trkpt>
<trkpt lat="53.392805" lon="-1.961703"><ele>331</ele><time>2023-03-31T12:33:59Z</time><name>PT2454</name></trkpt>
<trkpt lat="53.392774" lon="-1.961706"><ele>331</ele><time>2023-03-31T12:34:03Z</time><name>PT2455</name></trkpt>
<trkpt lat="53.392750" lon="-1.961708"><ele>332</ele><time>2023-03-31T12:34:06Z</time><name>PT2456</name></trkpt>
<trkpt lat="53.392730" lon="-1.961716"><ele>333</ele><time>2023-03-31T12:34:10Z</time><name>PT2457</name></trkpt>
<trkpt lat="53.392701" lon="-1.961727"><ele>333</ele><time>2023-03-31T12:34:14Z</time><name>PT2458</name></trkpt>
<trkpt lat="53.392678" lon="-1.961736"><ele>333</ele><time>2023-03-31T12:34:17Z</time><name>PT2459</name></trkpt>
<trkpt lat="53.392658" lon="-1.961732"><ele>333</ele><time>2023-03-31T12:34:20Z</time><name>PT2460</name></trkpt>
<trkpt lat="53.392632" lon="-1.961716"><ele>333</ele><time>2023-03-31T12:34:24Z</time><name>PT2461</name></trkpt>
<trkpt lat="53.392606" lon="-1.961709"><ele>334</ele><time>2023-03-31T12:34:28Z</time><name>PT2462</name></trkpt>
<trkpt lat="53.392578" lon="-1.961704"><ele>336</ele><time>2023-03-31T12:34:31Z</time><name>PT2463</name></trkpt>
<trkpt lat="53.392542" lon="-1.961690"><ele>337</ele><time>2023-03-31T12:34:35Z</time><name>PT2464</name></trkpt>
<trkpt lat="53.392521" lon="-1.961694"><ele>338</ele><time>2023-03-31T12:34:38Z</time><name>PT2465</name></trkpt>
<trkpt lat="53.392498" lon="-1.961699"><ele>339</ele><time>2023-03-31T12:34:41Z</time><name>PT2466</name></trkpt>
<trkpt lat="53.392479" lon="-1.961698"><ele>339</ele><time>2023-03-31T12:34:44Z</time><name>PT2467</name></trkpt>
<trkpt lat="53.392455" lon="-1.961690"><ele>340</ele><time>2023-03-31T12:34:48Z</time><name>PT2468</name></trkpt>
<trkpt lat="53.392417" lon="-1.961686"><ele>341</ele><time>2023-03-31T12:34:52Z</time><name>PT2469</name></trkpt>
<trkpt lat="53.392395" lon="-1.961675"><ele>342</ele><time>2023-03-31T12:34:55Z</time><name>PT2470</name></trkpt>
<trkpt lat="53.392362" lon="-1.961669"><ele>343</ele><time>2023-03-31T12:34:59Z</time><name>PT2471</name></trkpt>
<trkpt lat="53.392339" lon="-1.961674"><ele>344</ele><time>2023-03-31T12:35:02Z</time><name>PT2472</name></trkpt>
<trkpt lat="53.392317" lon="-1.961672"><ele>344</ele><time>2023-03-31T12:35:05Z</time><name>PT2473</name></trkpt>
<trkpt lat="53.392297" lon="-1.961680"><ele>345</ele><time>2023-03-31T12:35:08Z</time><name>PT2474</name></trkpt>
<trkpt lat="53.392275" lon="-1.961681"><ele>346</ele><time>2023-03-31T12:35:11Z</time><name>PT2475</name></trkpt>
<trkpt lat="53.392253" lon="-1.961711"><ele>347</ele><time>2023-03-31T12:35:15Z</time><name>PT2476</name></trkpt>
<trkpt lat="53.392228" lon="-1.961727"><ele>348</ele><time>2023-03-31T12:35:19Z</time><name>PT2477</name></trkpt>
<trkpt lat="53.392208" lon="-1.961732"><ele>349</ele><time>2023-03-31T12:35:22Z</time><name>PT2478</name></trkpt>
<trkpt lat="53.392180" lon="-1.961757"><ele>349</ele><time>2023-03-31T12:35:26Z</time><name>PT2479</name></trkpt>
<trkpt lat="53.392149" lon="-1.961777"><ele>350</ele><time>2023-03-31T12:35:30Z</time><name>PT2480</name></trkpt>
<trkpt lat="53.392107" lon="-1.961795"><ele>351</ele><time>2023-03-31T12:35:34Z</time><name>PT2481</name></trkpt>
<trkpt lat="53.392067" lon="-1.961816"><ele>352</ele><time>2023-03-31T12:35:38Z</time><name>PT2482</name></trkpt>
<trkpt lat="53.392036" lon="-1.961827"><ele>353</ele><time>2023-03-31T12:35:41Z</time><name>PT2483</name></trkpt>
<trkpt lat="53.392003" lon="-1.961834"><ele>353</ele><time>2023-03-31T12:35:45Z</time><name>PT2484</name></trkpt>
<trkpt lat="53.391969" lon="-1.961855"><ele>353</ele><time>2023-03-31T12:35:49Z</time><name>PT2485</name></trkpt>
<trkpt lat="53.391940" lon="-1.961867"><ele>353</ele><time>2023-03-31T12:35:52Z</time><name>PT2486</name></trkpt>
<trkpt lat="53.391905" lon="-1.961873"><ele>353</ele><time>2023-03-31T12:35:56Z</time><name>PT2487</name></trkpt>
<trkpt lat="53.391879" lon="-1.961886"><ele>353</ele><time>2023-03-31T12:36:00Z</time><name>PT2488</name></trkpt>
<trkpt lat="53.391855" lon="-1.961903"><ele>354</ele><time>2023-03-31T12:36:03Z</time><name>PT2489</name></trkpt>
<trkpt lat="53.391817" lon="-1.961928"><ele>355</ele><time>2023-03-31T12:36:07Z</time><name>PT2490</name></trkpt>
<trkpt lat="53.391792" lon="-1.961952"><ele>356</ele><time>2023-03-31T12:36:10Z</time><name>PT2491</name></trkpt>
<trkpt lat="53.391768" lon="-1.961967"><ele>357</ele><time>2023-03-31T12:36:13Z</time><name>PT2492</name></trkpt>
<trkpt lat="53.391730" lon="-1.961989"><ele>358</ele><time>2023-03-31T12:36:17Z</time><name>PT2493</name></trkpt>
<trkpt lat="53.391704" lon="-1.962005"><ele>358</ele><time>2023-03-31T12:36:20Z</time><name>PT2494</name></trkpt>
<trkpt lat="53.391683" lon="-1.962010"><ele>358</ele><time>2023-03-31T12:36:23Z</time><name>PT2495</name></trkpt>
<trkpt lat="53.391656" lon="-1.962018"><ele>359</ele><time>2023-03-31T12:36:26Z</time><name>PT2496</name></trkpt>
<trkpt lat="53.391619" lon="-1.962032"><ele>360</ele><time>2023-03-31T12:36:30Z</time><name>PT2497</name></trkpt>
<trkpt lat="53.391583" lon="-1.962045"><ele>360</ele><time>2023-03-31T12:36:34Z</time><name>PT2498</name></trkpt>
<trkpt lat="53.391556" lon="-1.962046"><ele>360</ele><time>2023-03-31T12:36:37Z</time><name>PT2499</name></trkpt>
<trkpt lat="53.391524" lon="-1.962049"><ele>361</ele><time>2023-03-31T12:36:41Z</time><name>PT2500</name></trkpt>
<trkpt lat="53.391497" lon="-1.962051"><ele>361</ele><time>2023-03-31T12:36:44Z</time><name>PT2501</name></trkpt>
<trkpt lat="53.391464" lon="-1.962064"><ele>362</ele><time>2023-03-31T12:36:48Z</time><name>PT2502</name></trkpt>
<trkpt lat="53.391435" lon="-1.962070"><ele>364</ele><time>2023-03-31T12:36:52Z</time><name>PT2503</name></trkpt>
<trkpt lat="53.391410" lon="-1.962080"><ele>364</ele><time>2023-03-31T12:36:56Z</time><name>PT2504</name></trkpt>
<trkpt lat="53.391377" lon="-1.962102"><ele>368</ele><time>2023-03-31T12:36:59Z</time><name>PT2505</name></trkpt>
<trkpt lat="53.391344" lon="-1.962098"><ele>368</ele><time>2023-03-31T12:37:02Z</time><name>PT2506</name></trkpt>
<trkpt lat="53.391324" lon="-1.962079"><ele>367</ele><time>2023-03-31T12:37:05Z</time><name>PT2507</name></trkpt>
<trkpt lat="53.391308" lon="-1.962073"><ele>368</ele><time>2023-03-31T12:37:08Z</time><name>PT2508</name></trkpt>
<trkpt lat="53.391313" lon="-1.962072"><ele>368</ele><time>2023-03-31T12:37:12Z</time><name>PT2509</name></trkpt>
<trkpt lat="53.391280" lon="-1.962083"><ele>369</ele><time>2023-03-31T12:37:16Z</time><name>PT2510</name></trkpt>
<trkpt lat="53.391244" lon="-1.962109"><ele>369</ele><time>2023-03-31T12:37:20Z</time><name>PT2511</name></trkpt>
<trkpt lat="53.391219" lon="-1.962128"><ele>369</ele><time>2023-03-31T12:37:23Z</time><name>PT2512</name></trkpt>
<trkpt lat="53.391190" lon="-1.962162"><ele>370</ele><time>2023-03-31T12:37:27Z</time><name>PT2513</name></trkpt>
<trkpt lat="53.391162" lon="-1.962183"><ele>370</ele><time>2023-03-31T12:37:30Z</time><name>PT2514</name></trkpt>
<trkpt lat="53.391126" lon="-1.962225"><ele>371</ele><time>2023-03-31T12:37:34Z</time><name>PT2515</name></trkpt>
<trkpt lat="53.391081" lon="-1.962254"><ele>372</ele><time>2023-03-31T12:37:38Z</time><name>PT2516</name></trkpt>
<trkpt lat="53.391049" lon="-1.962269"><ele>372</ele><time>2023-03-31T12:37:41Z</time><name>PT2517</name></trkpt>
<trkpt lat="53.391005" lon="-1.962278"><ele>371</ele><time>2023-03-31T12:37:45Z</time><name>PT2518</name></trkpt>
<trkpt lat="53.390963" lon="-1.962284"><ele>371</ele><time>2023-03-31T12:37:49Z</time><name>PT2519</name></trkpt>
<trkpt lat="53.390917" lon="-1.962283"><ele>371</ele><time>2023-03-31T12:37:53Z</time><name>PT2520</name></trkpt>
<trkpt lat="53.390876" lon="-1.962297"><ele>371</ele><time>2023-03-31T12:37:57Z</time><name>PT2521</name></trkpt>
<trkpt lat="53.390835" lon="-1.962310"><ele>371</ele><time>2023-03-31T12:38:01Z</time><name>PT2522</name></trkpt>
<trkpt lat="53.390801" lon="-1.962317"><ele>372</ele><time>2023-03-31T12:38:04Z</time><name>PT2523</name></trkpt>
<trkpt lat="53.390768" lon="-1.962331"><ele>372</ele><time>2023-03-31T12:38:07Z</time><name>PT2524</name></trkpt>
<trkpt lat="53.390734" lon="-1.962342"><ele>372</ele><time>2023-03-31T12:38:10Z</time><name>PT2525</name></trkpt>
<trkpt lat="53.390690" lon="-1.962351"><ele>373</ele><time>2023-03-31T12:38:14Z</time><name>PT2526</name></trkpt>
<trkpt lat="53.390656" lon="-1.962352"><ele>373</ele><time>2023-03-31T12:38:17Z</time><name>PT2527</name></trkpt>
<trkpt lat="53.390624" lon="-1.962355"><ele>374</ele><time>2023-03-31T12:38:20Z</time><name>PT2528</name></trkpt>
<trkpt lat="53.390578" lon="-1.962344"><ele>375</ele><time>2023-03-31T12:38:24Z</time><name>PT2529</name></trkpt>
<trkpt lat="53.390543" lon="-1.962343"><ele>375</ele><time>2023-03-31T12:38:27Z</time><name>PT2530</name></trkpt>
<trkpt lat="53.390500" lon="-1.962339"><ele>374</ele><time>2023-03-31T12:38:31Z</time><name>PT2531</name></trkpt>
<trkpt lat="53.390465" lon="-1.962324"><ele>374</ele><time>2023-03-31T12:38:34Z</time><name>PT2532</name></trkpt>
<trkpt lat="53.390423" lon="-1.962301"><ele>375</ele><time>2023-03-31T12:38:38Z</time><name>PT2533</name></trkpt>
<trkpt lat="53.390386" lon="-1.962284"><ele>375</ele><time>2023-03-31T12:38:42Z</time><name>PT2534</name></trkpt>
<trkpt lat="53.390348" lon="-1.962244"><ele>375</ele><time>2023-03-31T12:38:46Z</time><name>PT2535</name></trkpt>
<trkpt lat="53.390319" lon="-1.962225"><ele>376</ele><time>2023-03-31T12:38:49Z</time><name>PT2536</name></trkpt>
<trkpt lat="53.390291" lon="-1.962207"><ele>376</ele><time>2023-03-31T12:38:53Z</time><name>PT2537</name></trkpt>
<trkpt lat="53.390281" lon="-1.962205"><ele>376</ele><time>2023-03-31T12:38:56Z</time><name>PT2538</name></trkpt>
<trkpt lat="53.390270" lon="-1.962220"><ele>377</ele><time>2023-03-31T12:39:00Z</time><name>PT2539</name></trkpt>
<trkpt lat="53.390285" lon="-1.962220"><ele>379</ele><time>2023-03-31T12:39:38Z</time><name>PT2540</name></trkpt>
<trkpt lat="53.390300" lon="-1.962216"><ele>380</ele><time>2023-03-31T12:39:42Z</time><name>PT2541</name></trkpt>
<trkpt lat="53.390299" lon="-1.962212"><ele>380</ele><time>2023-03-31T12:39:46Z</time><name>PT2542</name></trkpt>
<trkpt lat="53.390297" lon="-1.962207"><ele>380</ele><time>2023-03-31T12:39:56Z</time><name>PT2543</name></trkpt>
<trkpt lat="53.390300" lon="-1.962205"><ele>380</ele><time>2023-03-31T12:39:59Z</time><name>PT2544</name></trkpt>
<trkpt lat="53.390299" lon="-1.962205"><ele>380</ele><time>2023-03-31T12:40:13Z</time><name>PT2545</name></trkpt>
<trkpt lat="53.390295" lon="-1.962206"><ele>379</ele><time>2023-03-31T12:40:17Z</time><name>PT2546</name></trkpt>
<trkpt lat="53.390292" lon="-1.962211"><ele>379</ele><time>2023-03-31T12:40:20Z</time><name>PT2547</name></trkpt>
<trkpt lat="53.390292" lon="-1.962211"><ele>379</ele><time>2023-03-31T12:40:47Z</time><name>PT2548</name></trkpt>
<trkpt lat="53.390288" lon="-1.962212"><ele>378</ele><time>2023-03-31T12:40:50Z</time><name>PT2549</name></trkpt>
<trkpt lat="53.390283" lon="-1.962219"><ele>378</ele><time>2023-03-31T12:40:54Z</time><name>PT2550</name></trkpt>
<trkpt lat="53.390282" lon="-1.962221"><ele>378</ele><time>2023-03-31T12:40:58Z</time><name>PT2551</name></trkpt>
<trkpt lat="53.390279" lon="-1.962215"><ele>378</ele><time>2023-03-31T12:41:09Z</time><name>PT2552</name></trkpt>
<trkpt lat="53.390276" lon="-1.962206"><ele>378</ele><time>2023-03-31T12:41:13Z</time><name>PT2553</name></trkpt>
<trkpt lat="53.390270" lon="-1.962204"><ele>378</ele><time>2023-03-31T12:41:16Z</time><name>PT2554</name></trkpt>
<trkpt lat="53.390265" lon="-1.962200"><ele>378</ele><time>2023-03-31T12:41:26Z</time><name>PT2555</name></trkpt>
<trkpt lat="53.390266" lon="-1.962204"><ele>377</ele><time>2023-03-31T12:41:36Z</time><name>PT2556</name></trkpt>
<trkpt lat="53.390254" lon="-1.962207"><ele>378</ele><time>2023-03-31T12:41:40Z</time><name>PT2557</name></trkpt>
<trkpt lat="53.390219" lon="-1.962219"><ele>378</ele><time>2023-03-31T12:42:02Z</time><name>PT2558</name></trkpt>
<trkpt lat="53.390191" lon="-1.962229"><ele>378</ele><time>2023-03-31T12:42:05Z</time><name>PT2559</name></trkpt>
<trkpt lat="53.390189" lon="-1.962228"><ele>378</ele><time>2023-03-31T12:42:09Z</time><name>PT2560</name></trkpt>
<trkpt lat="53.390148" lon="-1.962239"><ele>377</ele><time>2023-03-31T12:42:13Z</time><name>PT2561</name></trkpt>
<trkpt lat="53.390117" lon="-1.962246"><ele>377</ele><time>2023-03-31T12:42:16Z</time><name>PT2562</name></trkpt>
<trkpt lat="53.390082" lon="-1.962249"><ele>377</ele><time>2023-03-31T12:42:19Z</time><name>PT2563</name></trkpt>
<trkpt lat="53.390069" lon="-1.962246"><ele>376</ele><time>2023-03-31T12:42:22Z</time><name>PT2564</name></trkpt>
<trkpt lat="53.390029" lon="-1.962259"><ele>376</ele><time>2023-03-31T12:42:26Z</time><name>PT2565</name></trkpt>
<trkpt lat="53.389999" lon="-1.962269"><ele>375</ele><time>2023-03-31T12:42:29Z</time><name>PT2566</name></trkpt>
<trkpt lat="53.389954" lon="-1.962286"><ele>375</ele><time>2023-03-31T12:42:33Z</time><name>PT2567</name></trkpt>
<trkpt lat="53.389919" lon="-1.962301"><ele>376</ele><time>2023-03-31T12:42:36Z</time><name>PT2568</name></trkpt>
<trkpt lat="53.389887" lon="-1.962314"><ele>376</ele><time>2023-03-31T12:42:40Z</time><name>PT2569</name></trkpt>
<trkpt lat="53.389858" lon="-1.962329"><ele>375</ele><time>2023-03-31T12:42:43Z</time><name>PT2570</name></trkpt>
<trkpt lat="53.389816" lon="-1.962343"><ele>373</ele><time>2023-03-31T12:42:47Z</time><name>PT2571</name></trkpt>
<trkpt lat="53.389781" lon="-1.962365"><ele>373</ele><time>2023-03-31T12:42:50Z</time><name>PT2572</name></trkpt>
<trkpt lat="53.389740" lon="-1.962386"><ele>373</ele><time>2023-03-31T12:42:54Z</time><name>PT2573</name></trkpt>
<trkpt lat="53.389698" lon="-1.962401"><ele>373</ele><time>2023-03-31T12:42:58Z</time><name>PT2574</name></trkpt>
<trkpt lat="53.389664" lon="-1.962412"><ele>372</ele><time>2023-03-31T12:43:01Z</time><name>PT2575</name></trkpt>
<trkpt lat="53.389620" lon="-1.962424"><ele>372</ele><time>2023-03-31T12:43:05Z</time><name>PT2576</name></trkpt>
<trkpt lat="53.389594" lon="-1.962427"><ele>371</ele><time>2023-03-31T12:43:08Z</time><name>PT2577</name></trkpt>
<trkpt lat="53.389573" lon="-1.962458"><ele>370</ele><time>2023-03-31T12:43:12Z</time><name>PT2578</name></trkpt>
<trkpt lat="53.389543" lon="-1.962490"><ele>369</ele><time>2023-03-31T12:43:16Z</time><name>PT2579</name></trkpt>
<trkpt lat="53.389524" lon="-1.962510"><ele>369</ele><time>2023-03-31T12:43:19Z</time><name>PT2580</name></trkpt>
<trkpt lat="53.389508" lon="-1.962522"><ele>369</ele><time>2023-03-31T12:43:23Z</time><name>PT2581</name></trkpt>
<trkpt lat="53.389473" lon="-1.962535"><ele>369</ele><time>2023-03-31T12:43:26Z</time><name>PT2582</name></trkpt>
<trkpt lat="53.389445" lon="-1.962535"><ele>369</ele><time>2023-03-31T12:43:29Z</time><name>PT2583</name></trkpt>
<trkpt lat="53.389405" lon="-1.962546"><ele>369</ele><time>2023-03-31T12:43:33Z</time><name>PT2584</name></trkpt>
<trkpt lat="53.389375" lon="-1.962551"><ele>369</ele><time>2023-03-31T12:43:36Z</time><name>PT2585</name></trkpt>
<trkpt lat="53.389327" lon="-1.962551"><ele>367</ele><time>2023-03-31T12:43:40Z</time><name>PT2586</name></trkpt>
<trkpt lat="53.389296" lon="-1.962555"><ele>367</ele><time>2023-03-31T12:43:43Z</time><name>PT2587</name></trkpt>
<trkpt lat="53.389266" lon="-1.962562"><ele>367</ele><time>2023-03-31T12:43:46Z</time><name>PT2588</name></trkpt>
<trkpt lat="53.389228" lon="-1.962565"><ele>367</ele><time>2023-03-31T12:43:50Z</time><name>PT2589</name></trkpt>
<trkpt lat="53.389198" lon="-1.962577"><ele>367</ele><time>2023-03-31T12:43:53Z</time><name>PT2590</name></trkpt>
<trkpt lat="53.389151" lon="-1.962585"><ele>366</ele><time>2023-03-31T12:43:57Z</time><name>PT2591</name></trkpt>
<trkpt lat="53.389104" lon="-1.962597"><ele>366</ele><time>2023-03-31T12:44:01Z</time><name>PT2592</name></trkpt>
<trkpt lat="53.389056" lon="-1.962601"><ele>366</ele><time>2023-03-31T12:44:05Z</time><name>PT2593</name></trkpt>
<trkpt lat="53.389023" lon="-1.962594"><ele>365</ele><time>2023-03-31T12:44:08Z</time><name>PT2594</name></trkpt>
<trkpt lat="53.388993" lon="-1.962589"><ele>365</ele><time>2023-03-31T12:44:11Z</time><name>PT2595</name></trkpt>
<trkpt lat="53.388950" lon="-1.962594"><ele>364</ele><time>2023-03-31T12:44:15Z</time><name>PT2596</name></trkpt>
<trkpt lat="53.388909" lon="-1.962618"><ele>364</ele><time>2023-03-31T12:44:19Z</time><name>PT2597</name></trkpt>
<trkpt lat="53.388874" lon="-1.962646"><ele>363</ele><time>2023-03-31T12:44:23Z</time><name>PT2598</name></trkpt>
<trkpt lat="53.388842" lon="-1.962668"><ele>363</ele><time>2023-03-31T12:44:26Z</time><name>PT2599</name></trkpt>
<trkpt lat="53.388823" lon="-1.962683"><ele>363</ele><time>2023-03-31T12:44:29Z</time><name>PT2600</name></trkpt>
<trkpt lat="53.388791" lon="-1.962695"><ele>362</ele><time>2023-03-31T12:44:33Z</time><name>PT2601</name></trkpt>
<trkpt lat="53.388760" lon="-1.962711"><ele>362</ele><time>2023-03-31T12:44:36Z</time><name>PT2602</name></trkpt>
<trkpt lat="53.388723" lon="-1.962750"><ele>362</ele><time>2023-03-31T12:44:40Z</time><name>PT2603</name></trkpt>
<trkpt lat="53.388693" lon="-1.962783"><ele>361</ele><time>2023-03-31T12:44:44Z</time><name>PT2604</name></trkpt>
<trkpt lat="53.388670" lon="-1.962813"><ele>361</ele><time>2023-03-31T12:44:47Z</time><name>PT2605</name></trkpt>
<trkpt lat="53.388646" lon="-1.962821"><ele>360</ele><time>2023-03-31T12:44:50Z</time><name>PT2606</name></trkpt>
<trkpt lat="53.388616" lon="-1.962852"><ele>359</ele><time>2023-03-31T12:44:54Z</time><name>PT2607</name></trkpt>
<trkpt lat="53.388598" lon="-1.962885"><ele>359</ele><time>2023-03-31T12:44:57Z</time><name>PT2608</name></trkpt>
<trkpt lat="53.388575" lon="-1.962928"><ele>359</ele><time>2023-03-31T12:45:01Z</time><name>PT2609</name></trkpt>
<trkpt lat="53.388545" lon="-1.962954"><ele>358</ele><time>2023-03-31T12:45:05Z</time><name>PT2610</name></trkpt>
<trkpt lat="53.388523" lon="-1.962977"><ele>357</ele><time>2023-03-31T12:45:08Z</time><name>PT2611</name></trkpt>
<trkpt lat="53.388490" lon="-1.963006"><ele>357</ele><time>2023-03-31T12:45:12Z</time><name>PT2612</name></trkpt>
<trkpt lat="53.388459" lon="-1.963033"><ele>357</ele><time>2023-03-31T12:45:16Z</time><name>PT2613</name></trkpt>
<trkpt lat="53.388429" lon="-1.963057"><ele>355</ele><time>2023-03-31T12:45:20Z</time><name>PT2614</name></trkpt>
<trkpt lat="53.388418" lon="-1.963083"><ele>355</ele><time>2023-03-31T12:45:23Z</time><name>PT2615</name></trkpt>
<trkpt lat="53.388404" lon="-1.963113"><ele>354</ele><time>2023-03-31T12:45:26Z</time><name>PT2616</name></trkpt>
<trkpt lat="53.388386" lon="-1.963152"><ele>354</ele><time>2023-03-31T12:45:29Z</time><name>PT2617</name></trkpt>
<trkpt lat="53.388365" lon="-1.963176"><ele>353</ele><time>2023-03-31T12:45:32Z</time><name>PT2618</name></trkpt>
<trkpt lat="53.388340" lon="-1.963194"><ele>352</ele><time>2023-03-31T12:45:35Z</time><name>PT2619</name></trkpt>
<trkpt lat="53.388317" lon="-1.963203"><ele>351</ele><time>2023-03-31T12:45:38Z</time><name>PT2620</name></trkpt>
<trkpt lat="53.388299" lon="-1.963235"><ele>351</ele><time>2023-03-31T12:45:41Z</time><name>PT2621</name></trkpt>
<trkpt lat="53.388279" lon="-1.963267"><ele>350</ele><time>2023-03-31T12:45:44Z</time><name>PT2622</name></trkpt>
<trkpt lat="53.388267" lon="-1.963323"><ele>350</ele><time>2023-03-31T12:45:48Z</time><name>PT2623</name></trkpt>
<trkpt lat="53.388244" lon="-1.963366"><ele>350</ele><time>2023-03-31T12:45:52Z</time><name>PT2624</name></trkpt>
<trkpt lat="53.388214" lon="-1.963383"><ele>348</ele><time>2023-03-31T12:45:56Z</time><name>PT2625</name></trkpt>
<trkpt lat="53.388172" lon="-1.963399"><ele>348</ele><time>2023-03-31T12:46:00Z</time><name>PT2626</name></trkpt>
<trkpt lat="53.388124" lon="-1.963416"><ele>347</ele><time>2023-03-31T12:46:04Z</time><name>PT2627</name></trkpt>
<trkpt lat="53.388085" lon="-1.963411"><ele>346</ele><time>2023-03-31T12:46:08Z</time><name>PT2628</name></trkpt>
<trkpt lat="53.388055" lon="-1.963411"><ele>346</ele><time>2023-03-31T12:46:11Z</time><name>PT2629</name></trkpt>
<trkpt lat="53.388035" lon="-1.963437"><ele>345</ele><time>2023-03-31T12:46:14Z</time><name>PT2630</name></trkpt>
<trkpt lat="53.388009" lon="-1.963473"><ele>344</ele><time>2023-03-31T12:46:17Z</time><name>PT2631</name></trkpt>
<trkpt lat="53.387979" lon="-1.963510"><ele>344</ele><time>2023-03-31T12:46:21Z</time><name>PT2632</name></trkpt>
<trkpt lat="53.387939" lon="-1.963535"><ele>343</ele><time>2023-03-31T12:46:25Z</time><name>PT2633</name></trkpt>
<trkpt lat="53.387908" lon="-1.963548"><ele>343</ele><time>2023-03-31T12:46:28Z</time><name>PT2634</name></trkpt>
<trkpt lat="53.387870" lon="-1.963568"><ele>342</ele><time>2023-03-31T12:46:32Z</time><name>PT2635</name></trkpt>
<trkpt lat="53.387847" lon="-1.963580"><ele>342</ele><time>2023-03-31T12:46:35Z</time><name>PT2636</name></trkpt>
<trkpt lat="53.387817" lon="-1.963598"><ele>341</ele><time>2023-03-31T12:46:38Z</time><name>PT2637</name></trkpt>
<trkpt lat="53.387785" lon="-1.963612"><ele>340</ele><time>2023-03-31T12:46:42Z</time><name>PT2638</name></trkpt>
<trkpt lat="53.387757" lon="-1.963632"><ele>340</ele><time>2023-03-31T12:46:45Z</time><name>PT2639</name></trkpt>
<trkpt lat="53.387717" lon="-1.963657"><ele>340</ele><time>2023-03-31T12:46:49Z</time><name>PT2640</name></trkpt>
<trkpt lat="53.387680" lon="-1.963685"><ele>339</ele><time>2023-03-31T12:46:53Z</time><name>PT2641</name></trkpt>
<trkpt lat="53.387646" lon="-1.963706"><ele>339</ele><time>2023-03-31T12:46:56Z</time><name>PT2642</name></trkpt>
<trkpt lat="53.387608" lon="-1.963722"><ele>339</ele><time>2023-03-31T12:47:00Z</time><name>PT2643</name></trkpt>
<trkpt lat="53.387588" lon="-1.963740"><ele>338</ele><time>2023-03-31T12:47:03Z</time><name>PT2644</name></trkpt>
<trkpt lat="53.387558" lon="-1.963779"><ele>337</ele><time>2023-03-31T12:47:07Z</time><name>PT2645</name></trkpt>
<trkpt lat="53.387523" lon="-1.963795"><ele>335</ele><time>2023-03-31T12:47:11Z</time><name>PT2646</name></trkpt>
<trkpt lat="53.387491" lon="-1.963811"><ele>335</ele><time>2023-03-31T12:47:15Z</time><name>PT2647</name></trkpt>
<trkpt lat="53.387482" lon="-1.963798"><ele>334</ele><time>2023-03-31T12:47:18Z</time><name>PT2648</name></trkpt>
<trkpt lat="53.387471" lon="-1.963778"><ele>333</ele><time>2023-03-31T12:47:22Z</time><name>PT2649</name></trkpt>
<trkpt lat="53.387468" lon="-1.963732"><ele>332</ele><time>2023-03-31T12:47:26Z</time><name>PT2650</name></trkpt>
<trkpt lat="53.387465" lon="-1.963710"><ele>331</ele><time>2023-03-31T12:47:29Z</time><name>PT2651</name></trkpt>
<trkpt lat="53.387467" lon="-1.963680"><ele>330</ele><time>2023-03-31T12:47:33Z</time><name>PT2652</name></trkpt>
<trkpt lat="53.387466" lon="-1.963640"><ele>328</ele><time>2023-03-31T12:47:37Z</time><name>PT2653</name></trkpt>
<trkpt lat="53.387463" lon="-1.963612"><ele>327</ele><time>2023-03-31T12:47:41Z</time><name>PT2654</name></trkpt>
<trkpt lat="53.387458" lon="-1.963589"><ele>325</ele><time>2023-03-31T12:47:45Z</time><name>PT2655</name></trkpt>
<trkpt lat="53.387458" lon="-1.963562"><ele>325</ele><time>2023-03-31T12:47:48Z</time><name>PT2656</name></trkpt>
<trkpt lat="53.387457" lon="-1.963528"><ele>324</ele><time>2023-03-31T12:47:52Z</time><name>PT2657</name></trkpt>
<trkpt lat="53.387452" lon="-1.963492"><ele>324</ele><time>2023-03-31T12:47:55Z</time><name>PT2658</name></trkpt>
<trkpt lat="53.387451" lon="-1.963460"><ele>323</ele><time>2023-03-31T12:47:58Z</time><name>PT2659</name></trkpt>
<trkpt lat="53.387449" lon="-1.963412"><ele>323</ele><time>2023-03-31T12:48:02Z</time><name>PT2660</name></trkpt>
<trkpt lat="53.387452" lon="-1.963376"><ele>322</ele><time>2023-03-31T12:48:05Z</time><name>PT2661</name></trkpt>
<trkpt lat="53.387445" lon="-1.963345"><ele>322</ele><time>2023-03-31T12:48:08Z</time><name>PT2662</name></trkpt>
<trkpt lat="53.387440" lon="-1.963306"><ele>321</ele><time>2023-03-31T12:48:11Z</time><name>PT2663</name></trkpt>
<trkpt lat="53.387437" lon="-1.963249"><ele>319</ele><time>2023-03-31T12:48:15Z</time><name>PT2664</name></trkpt>
<trkpt lat="53.387440" lon="-1.963208"><ele>319</ele><time>2023-03-31T12:48:18Z</time><name>PT2665</name></trkpt>
<trkpt lat="53.387435" lon="-1.963171"><ele>319</ele><time>2023-03-31T12:48:21Z</time><name>PT2666</name></trkpt>
<trkpt lat="53.387433" lon="-1.963104"><ele>319</ele><time>2023-03-31T12:48:25Z</time><name>PT2667</name></trkpt>
<trkpt lat="53.387429" lon="-1.963062"><ele>318</ele><time>2023-03-31T12:48:28Z</time><name>PT2668</name></trkpt>
<trkpt lat="53.387424" lon="-1.963016"><ele>316</ele><time>2023-03-31T12:48:32Z</time><name>PT2669</name></trkpt>
<trkpt lat="53.387420" lon="-1.962978"><ele>316</ele><time>2023-03-31T12:48:35Z</time><name>PT2670</name></trkpt>
<trkpt lat="53.387416" lon="-1.962948"><ele>315</ele><time>2023-03-31T12:48:38Z</time><name>PT2671</name></trkpt>
<trkpt lat="53.387414" lon="-1.962925"><ele>313</ele><time>2023-03-31T12:48:41Z</time><name>PT2672</name></trkpt>
<trkpt lat="53.387412" lon="-1.962879"><ele>312</ele><time>2023-03-31T12:48:44Z</time><name>PT2673</name></trkpt>
<trkpt lat="53.387409" lon="-1.962822"><ele>312</ele><time>2023-03-31T12:48:48Z</time><name>PT2674</name></trkpt>
<trkpt lat="53.387405" lon="-1.962766"><ele>311</ele><time>2023-03-31T12:48:52Z</time><name>PT2675</name></trkpt>
<trkpt lat="53.387403" lon="-1.962729"><ele>311</ele><time>2023-03-31T12:48:55Z</time><name>PT2676</name></trkpt>
<trkpt lat="53.387397" lon="-1.962693"><ele>310</ele><time>2023-03-31T12:48:58Z</time><name>PT2677</name></trkpt>
<trkpt lat="53.387394" lon="-1.962656"><ele>309</ele><time>2023-03-31T12:49:01Z</time><name>PT2678</name></trkpt>
<trkpt lat="53.387389" lon="-1.962592"><ele>308</ele><time>2023-03-31T12:49:05Z</time><name>PT2679</name></trkpt>
<trkpt lat="53.387389" lon="-1.962549"><ele>308</ele><time>2023-03-31T12:49:08Z</time><name>PT2680</name></trkpt>
<trkpt lat="53.387388" lon="-1.962496"><ele>307</ele><time>2023-03-31T12:49:11Z</time><name>PT2681</name></trkpt>
<trkpt lat="53.387389" lon="-1.962451"><ele>307</ele><time>2023-03-31T12:49:15Z</time><name>PT2682</name></trkpt>
<trkpt lat="53.387394" lon="-1.962393"><ele>308</ele><time>2023-03-31T12:49:18Z</time><name>PT2683</name></trkpt>
<trkpt lat="53.387387" lon="-1.962346"><ele>306</ele><time>2023-03-31T12:49:22Z</time><name>PT2684</name></trkpt>
<trkpt lat="53.387391" lon="-1.962295"><ele>307</ele><time>2023-03-31T12:49:25Z</time><name>PT2685</name></trkpt>
<trkpt lat="53.387384" lon="-1.962246"><ele>306</ele><time>2023-03-31T12:49:29Z</time><name>PT2686</name></trkpt>
<trkpt lat="53.387383" lon="-1.962202"><ele>304</ele><time>2023-03-31T12:49:33Z</time><name>PT2687</name></trkpt>
<trkpt lat="53.387379" lon="-1.962174"><ele>304</ele><time>2023-03-31T12:49:37Z</time><name>PT2688</name></trkpt>
<trkpt lat="53.387371" lon="-1.962151"><ele>303</ele><time>2023-03-31T12:49:40Z</time><name>PT2689</name></trkpt>
<trkpt lat="53.387367" lon="-1.962122"><ele>302</ele><time>2023-03-31T12:49:43Z</time><name>PT2690</name></trkpt>
<trkpt lat="53.387371" lon="-1.962064"><ele>301</ele><time>2023-03-31T12:49:47Z</time><name>PT2691</name></trkpt>
<trkpt lat="53.387373" lon="-1.962034"><ele>300</ele><time>2023-03-31T12:49:50Z</time><name>PT2692</name></trkpt>
<trkpt lat="53.387371" lon="-1.962002"><ele>299</ele><time>2023-03-31T12:49:53Z</time><name>PT2693</name></trkpt>
<trkpt lat="53.387368" lon="-1.961958"><ele>299</ele><time>2023-03-31T12:49:57Z</time><name>PT2694</name></trkpt>
<trkpt lat="53.387374" lon="-1.961910"><ele>298</ele><time>2023-03-31T12:50:01Z</time><name>PT2695</name></trkpt>
<trkpt lat="53.387381" lon="-1.961886"><ele>298</ele><time>2023-03-31T12:50:04Z</time><name>PT2696</name></trkpt>
<trkpt lat="53.387370" lon="-1.961842"><ele>297</ele><time>2023-03-31T12:50:08Z</time><name>PT2697</name></trkpt>
<trkpt lat="53.387369" lon="-1.961825"><ele>297</ele><time>2023-03-31T12:50:12Z</time><name>PT2698</name></trkpt>
<trkpt lat="53.387366" lon="-1.961818"><ele>297</ele><time>2023-03-31T12:50:15Z</time><name>PT2699</name></trkpt>
<trkpt lat="53.387353" lon="-1.961810"><ele>297</ele><time>2023-03-31T12:50:19Z</time><name>PT2700</name></trkpt>
<trkpt lat="53.387356" lon="-1.961808"><ele>297</ele><time>2023-03-31T12:50:22Z</time><name>PT2701</name></trkpt>
<trkpt lat="53.387326" lon="-1.961852"><ele>298</ele><time>2023-03-31T12:50:54Z</time><name>PT2702</name></trkpt>
<trkpt lat="53.387257" lon="-1.961902"><ele>298</ele><time>2023-03-31T12:50:58Z</time><name>PT2703</name></trkpt>
<trkpt lat="53.387216" lon="-1.961923"><ele>295</ele><time>2023-03-31T12:51:02Z</time><name>PT2704</name></trkpt>
<trkpt lat="53.387193" lon="-1.961954"><ele>293</ele><time>2023-03-31T12:51:05Z</time><name>PT2705</name></trkpt>
<trkpt lat="53.387164" lon="-1.961979"><ele>292</ele><time>2023-03-31T12:51:08Z</time><name>PT2706</name></trkpt>
<trkpt lat="53.387111" lon="-1.962023"><ele>293</ele><time>2023-03-31T12:51:12Z</time><name>PT2707</name></trkpt>
<trkpt lat="53.387085" lon="-1.962050"><ele>293</ele><time>2023-03-31T12:51:16Z</time><name>PT2708</name></trkpt>
<trkpt lat="53.387070" lon="-1.962055"><ele>292</ele><time>2023-03-31T12:51:22Z</time><name>PT2709</name></trkpt>
<trkpt lat="53.387040" lon="-1.962085"><ele>291</ele><time>2023-03-31T12:51:26Z</time><name>PT2710</name></trkpt>
<trkpt lat="53.387005" lon="-1.962107"><ele>290</ele><time>2023-03-31T12:51:29Z</time><name>PT2711</name></trkpt>
<trkpt lat="53.386977" lon="-1.962124"><ele>290</ele><time>2023-03-31T12:51:33Z</time><name>PT2712</name></trkpt>
<trkpt lat="53.386945" lon="-1.962149"><ele>288</ele><time>2023-03-31T12:51:37Z</time><name>PT2713</name></trkpt>
<trkpt lat="53.386915" lon="-1.962175"><ele>286</ele><time>2023-03-31T12:51:41Z</time><name>PT2714</name></trkpt>
<trkpt lat="53.386892" lon="-1.962183"><ele>285</ele><time>2023-03-31T12:51:44Z</time><name>PT2715</name></trkpt>
<trkpt lat="53.386866" lon="-1.962199"><ele>285</ele><time>2023-03-31T12:51:47Z</time><name>PT2716</name></trkpt>
<trkpt lat="53.386846" lon="-1.962210"><ele>285</ele><time>2023-03-31T12:51:50Z</time><name>PT2717</name></trkpt>
<trkpt lat="53.386817" lon="-1.962241"><ele>283</ele><time>2023-03-31T12:51:54Z</time><name>PT2718</name></trkpt>
<trkpt lat="53.386776" lon="-1.962271"><ele>282</ele><time>2023-03-31T12:51:58Z</time><name>PT2719</name></trkpt>
<trkpt lat="53.386742" lon="-1.962299"><ele>281</ele><time>2023-03-31T12:52:02Z</time><name>PT2720</name></trkpt>
<trkpt lat="53.386709" lon="-1.962328"><ele>281</ele><time>2023-03-31T12:52:06Z</time><name>PT2721</name></trkpt>
<trkpt lat="53.386685" lon="-1.962364"><ele>282</ele><time>2023-03-31T12:52:09Z</time><name>PT2722</name></trkpt>
<trkpt lat="53.386662" lon="-1.962425"><ele>282</ele><time>2023-03-31T12:52:13Z</time><name>PT2723</name></trkpt>
<trkpt lat="53.386639" lon="-1.962490"><ele>280</ele><time>2023-03-31T12:52:17Z</time><name>PT2724</name></trkpt>
<trkpt lat="53.386609" lon="-1.962545"><ele>279</ele><time>2023-03-31T12:52:21Z</time><name>PT2725</name></trkpt>
<trkpt lat="53.386581" lon="-1.962589"><ele>278</ele><time>2023-03-31T12:52:25Z</time><name>PT2726</name></trkpt>
<trkpt lat="53.386564" lon="-1.962635"><ele>277</ele><time>2023-03-31T12:52:28Z</time><name>PT2727</name></trkpt>
<trkpt lat="53.386548" lon="-1.962678"><ele>276</ele><time>2023-03-31T12:52:31Z</time><name>PT2728</name></trkpt>
<trkpt lat="53.386532" lon="-1.962721"><ele>275</ele><time>2023-03-31T12:52:34Z</time><name>PT2729</name></trkpt>
<trkpt lat="53.386518" lon="-1.962762"><ele>273</ele><time>2023-03-31T12:52:38Z</time><name>PT2730</name></trkpt>
<trkpt lat="53.386501" lon="-1.962802"><ele>272</ele><time>2023-03-31T12:52:41Z</time><name>PT2731</name></trkpt>
<trkpt lat="53.386474" lon="-1.962870"><ele>271</ele><time>2023-03-31T12:52:44Z</time><name>PT2732</name></trkpt>
<trkpt lat="53.386460" lon="-1.962906"><ele>271</ele><time>2023-03-31T12:52:48Z</time><name>PT2733</name></trkpt>
<trkpt lat="53.386432" lon="-1.962959"><ele>270</ele><time>2023-03-31T12:52:52Z</time><name>PT2734</name></trkpt>
<trkpt lat="53.386409" lon="-1.963007"><ele>269</ele><time>2023-03-31T12:52:56Z</time><name>PT2735</name></trkpt>
<trkpt lat="53.386388" lon="-1.963041"><ele>268</ele><time>2023-03-31T12:52:59Z</time><name>PT2736</name></trkpt>
<trkpt lat="53.386367" lon="-1.963075"><ele>267</ele><time>2023-03-31T12:53:02Z</time><name>PT2737</name></trkpt>
<trkpt lat="53.386336" lon="-1.963135"><ele>267</ele><time>2023-03-31T12:53:06Z</time><name>PT2738</name></trkpt>
<trkpt lat="53.386312" lon="-1.963176"><ele>266</ele><time>2023-03-31T12:53:09Z</time><name>PT2739</name></trkpt>
<trkpt lat="53.386292" lon="-1.963237"><ele>265</ele><time>2023-03-31T12:53:13Z</time><name>PT2740</name></trkpt>
<trkpt lat="53.386262" lon="-1.963307"><ele>266</ele><time>2023-03-31T12:53:17Z</time><name>PT2741</name></trkpt>
<trkpt lat="53.386225" lon="-1.963372"><ele>266</ele><time>2023-03-31T12:53:21Z</time><name>PT2742</name></trkpt>
<trkpt lat="53.386181" lon="-1.963435"><ele>265</ele><time>2023-03-31T12:53:25Z</time><name>PT2743</name></trkpt>
<trkpt lat="53.386154" lon="-1.963469"><ele>265</ele><time>2023-03-31T12:53:28Z</time><name>PT2744</name></trkpt>
<trkpt lat="53.386112" lon="-1.963528"><ele>265</ele><time>2023-03-31T12:53:32Z</time><name>PT2745</name></trkpt>
<trkpt lat="53.386082" lon="-1.963571"><ele>265</ele><time>2023-03-31T12:53:35Z</time><name>PT2746</name></trkpt>
<trkpt lat="53.386050" lon="-1.963619"><ele>266</ele><time>2023-03-31T12:53:38Z</time><name>PT2747</name></trkpt>
<trkpt lat="53.386014" lon="-1.963664"><ele>265</ele><time>2023-03-31T12:53:42Z</time><name>PT2748</name></trkpt>
<trkpt lat="53.385983" lon="-1.963718"><ele>266</ele><time>2023-03-31T12:53:46Z</time><name>PT2749</name></trkpt>
<trkpt lat="53.385943" lon="-1.963772"><ele>266</ele><time>2023-03-31T12:53:49Z</time><name>PT2750</name></trkpt>
<trkpt lat="53.385919" lon="-1.963803"><ele>266</ele><time>2023-03-31T12:53:52Z</time><name>PT2751</name></trkpt>
<trkpt lat="53.385883" lon="-1.963842"><ele>264</ele><time>2023-03-31T12:53:56Z</time><name>PT2752</name></trkpt>
<trkpt lat="53.385850" lon="-1.963884"><ele>264</ele><time>2023-03-31T12:53:59Z</time><name>PT2753</name></trkpt>
<trkpt lat="53.385819" lon="-1.963912"><ele>264</ele><time>2023-03-31T12:54:02Z</time><name>PT2754</name></trkpt>
<trkpt lat="53.385787" lon="-1.963954"><ele>263</ele><time>2023-03-31T12:54:05Z</time><name>PT2755</name></trkpt>
<trkpt lat="53.385747" lon="-1.963993"><ele>263</ele><time>2023-03-31T12:54:09Z</time><name>PT2756</name></trkpt>
<trkpt lat="53.385728" lon="-1.964023"><ele>261</ele><time>2023-03-31T12:54:12Z</time><name>PT2757</name></trkpt>
<trkpt lat="53.385693" lon="-1.964063"><ele>259</ele><time>2023-03-31T12:54:16Z</time><name>PT2758</name></trkpt>
<trkpt lat="53.385662" lon="-1.964097"><ele>258</ele><time>2023-03-31T12:54:20Z</time><name>PT2759</name></trkpt>
<trkpt lat="53.385636" lon="-1.964128"><ele>258</ele><time>2023-03-31T12:54:23Z</time><name>PT2760</name></trkpt>
<trkpt lat="53.385584" lon="-1.964180"><ele>259</ele><time>2023-03-31T12:54:27Z</time><name>PT2761</name></trkpt>
<trkpt lat="53.385554" lon="-1.964198"><ele>260</ele><time>2023-03-31T12:54:30Z</time><name>PT2762</name></trkpt>
<trkpt lat="53.385498" lon="-1.964229"><ele>260</ele><time>2023-03-31T12:54:34Z</time><name>PT2763</name></trkpt>
<trkpt lat="53.385464" lon="-1.964259"><ele>259</ele><time>2023-03-31T12:54:37Z</time><name>PT2764</name></trkpt>
<trkpt lat="53.385429" lon="-1.964284"><ele>258</ele><time>2023-03-31T12:54:40Z</time><name>PT2765</name></trkpt>
<trkpt lat="53.385388" lon="-1.964309"><ele>256</ele><time>2023-03-31T12:54:44Z</time><name>PT2766</name></trkpt>
<trkpt lat="53.385358" lon="-1.964331"><ele>255</ele><time>2023-03-31T12:54:47Z</time><name>PT2767</name></trkpt>
<trkpt lat="53.385274" lon="-1.964363"><ele>254</ele><time>2023-03-31T12:54:51Z</time><name>PT2768</name></trkpt>
<trkpt lat="53.385216" lon="-1.964396"><ele>254</ele><time>2023-03-31T12:54:55Z</time><name>PT2769</name></trkpt>
<trkpt lat="53.385179" lon="-1.964424"><ele>254</ele><time>2023-03-31T12:54:58Z</time><name>PT2770</name></trkpt>
<trkpt lat="53.385141" lon="-1.964440"><ele>254</ele><time>2023-03-31T12:55:01Z</time><name>PT2771</name></trkpt>
<trkpt lat="53.385108" lon="-1.964458"><ele>254</ele><time>2023-03-31T12:55:04Z</time><name>PT2772</name></trkpt>
<trkpt lat="53.385075" lon="-1.964479"><ele>253</ele><time>2023-03-31T12:55:07Z</time><name>PT2773</name></trkpt>
<trkpt lat="53.385030" lon="-1.964502"><ele>253</ele><time>2023-03-31T12:55:11Z</time><name>PT2774</name></trkpt>
<trkpt lat="53.384999" lon="-1.964520"><ele>252</ele><time>2023-03-31T12:55:14Z</time><name>PT2775</name></trkpt>
<trkpt lat="53.384958" lon="-1.964543"><ele>252</ele><time>2023-03-31T12:55:18Z</time><name>PT2776</name></trkpt>
<trkpt lat="53.384916" lon="-1.964563"><ele>251</ele><time>2023-03-31T12:55:22Z</time><name>PT2777</name></trkpt>
<trkpt lat="53.384882" lon="-1.964585"><ele>250</ele><time>2023-03-31T12:55:25Z</time><name>PT2778</name></trkpt>
<trkpt lat="53.384838" lon="-1.964608"><ele>250</ele><time>2023-03-31T12:55:29Z</time><name>PT2779</name></trkpt>
<trkpt lat="53.384797" lon="-1.964630"><ele>249</ele><time>2023-03-31T12:55:33Z</time><name>PT2780</name></trkpt>
<trkpt lat="53.384756" lon="-1.964655"><ele>249</ele><time>2023-03-31T12:55:37Z</time><name>PT2781</name></trkpt>
<trkpt lat="53.384714" lon="-1.964676"><ele>248</ele><time>2023-03-31T12:55:41Z</time><name>PT2782</name></trkpt>
<trkpt lat="53.384684" lon="-1.964693"><ele>247</ele><time>2023-03-31T12:55:44Z</time><name>PT2783</name></trkpt>
<trkpt lat="53.384639" lon="-1.964715"><ele>246</ele><time>2023-03-31T12:55:48Z</time><name>PT2784</name></trkpt>
<trkpt lat="53.384597" lon="-1.964735"><ele>246</ele><time>2023-03-31T12:55:52Z</time><name>PT2785</name></trkpt>
<trkpt lat="53.384565" lon="-1.964763"><ele>245</ele><time>2023-03-31T12:55:56Z</time><name>PT2786</name></trkpt>
<trkpt lat="53.384524" lon="-1.964786"><ele>244</ele><time>2023-03-31T12:55:59Z</time><name>PT2787</name></trkpt>
<trkpt lat="53.384492" lon="-1.964806"><ele>244</ele><time>2023-03-31T12:56:02Z</time><name>PT2788</name></trkpt>
<trkpt lat="53.384460" lon="-1.964826"><ele>243</ele><time>2023-03-31T12:56:06Z</time><name>PT2789</name></trkpt>
<trkpt lat="53.384424" lon="-1.964836"><ele>242</ele><time>2023-03-31T12:56:10Z</time><name>PT2790</name></trkpt>
<trkpt lat="53.384387" lon="-1.964847"><ele>240</ele><time>2023-03-31T12:56:14Z</time><name>PT2791</name></trkpt>
<trkpt lat="53.384356" lon="-1.964875"><ele>239</ele><time>2023-03-31T12:56:17Z</time><name>PT2792</name></trkpt>
<trkpt lat="53.384333" lon="-1.964897"><ele>238</ele><time>2023-03-31T12:56:21Z</time><name>PT2793</name></trkpt>
<trkpt lat="53.384311" lon="-1.964903"><ele>236</ele><time>2023-03-31T12:56:25Z</time><name>PT2794</name></trkpt>
<trkpt lat="53.384284" lon="-1.964929"><ele>234</ele><time>2023-03-31T12:56:29Z</time><name>PT2795</name></trkpt>
<trkpt lat="53.384264" lon="-1.964955"><ele>233</ele><time>2023-03-31T12:56:32Z</time><name>PT2796</name></trkpt>
<trkpt lat="53.384229" lon="-1.964955"><ele>231</ele><time>2023-03-31T12:56:35Z</time><name>PT2797</name></trkpt>
<trkpt lat="53.384177" lon="-1.964989"><ele>232</ele><time>2023-03-31T12:56:39Z</time><name>PT2798</name></trkpt>
<trkpt lat="53.384130" lon="-1.965002"><ele>233</ele><time>2023-03-31T12:56:43Z</time><name>PT2799</name></trkpt>
<trkpt lat="53.384082" lon="-1.965026"><ele>231</ele><time>2023-03-31T12:56:47Z</time><name>PT2800</name></trkpt>
<trkpt lat="53.384038" lon="-1.965052"><ele>230</ele><time>2023-03-31T12:56:51Z</time><name>PT2801</name></trkpt>
<trkpt lat="53.384006" lon="-1.965063"><ele>230</ele><time>2023-03-31T12:56:54Z</time><name>PT2802</name></trkpt>
<trkpt lat="53.383963" lon="-1.965088"><ele>230</ele><time>2023-03-31T12:56:58Z</time><name>PT2803</name></trkpt>
<trkpt lat="53.383925" lon="-1.965119"><ele>229</ele><time>2023-03-31T12:57:02Z</time><name>PT2804</name></trkpt>
<trkpt lat="53.383898" lon="-1.965140"><ele>227</ele><time>2023-03-31T12:57:05Z</time><name>PT2805</name></trkpt>
<trkpt lat="53.383868" lon="-1.965160"><ele>225</ele><time>2023-03-31T12:57:09Z</time><name>PT2806</name></trkpt>
<trkpt lat="53.383849" lon="-1.965210"><ele>223</ele><time>2023-03-31T12:57:13Z</time><name>PT2807</name></trkpt>
<trkpt lat="53.383822" lon="-1.965238"><ele>224</ele><time>2023-03-31T12:57:17Z</time><name>PT2808</name></trkpt>
<trkpt lat="53.383792" lon="-1.965273"><ele>225</ele><time>2023-03-31T12:57:21Z</time><name>PT2809</name></trkpt>
<trkpt lat="53.383784" lon="-1.965319"><ele>223</ele><time>2023-03-31T12:57:25Z</time><name>PT2810</name></trkpt>
<trkpt lat="53.383762" lon="-1.965374"><ele>225</ele><time>2023-03-31T12:57:29Z</time><name>PT2811</name></trkpt>
<trkpt lat="53.383755" lon="-1.965422"><ele>225</ele><time>2023-03-31T12:57:32Z</time><name>PT2812</name></trkpt>
<trkpt lat="53.383752" lon="-1.965488"><ele>226</ele><time>2023-03-31T12:57:35Z</time><name>PT2813</name></trkpt>
<trkpt lat="53.383744" lon="-1.965537"><ele>227</ele><time>2023-03-31T12:57:39Z</time><name>PT2814</name></trkpt>
<trkpt lat="53.383726" lon="-1.965598"><ele>228</ele><time>2023-03-31T12:57:43Z</time><name>PT2815</name></trkpt>
<trkpt lat="53.383705" lon="-1.965654"><ele>229</ele><time>2023-03-31T12:57:47Z</time><name>PT2816</name></trkpt>
<trkpt lat="53.383693" lon="-1.965705"><ele>230</ele><time>2023-03-31T12:57:50Z</time><name>PT2817</name></trkpt>
<trkpt lat="53.383675" lon="-1.965782"><ele>232</ele><time>2023-03-31T12:57:53Z</time><name>PT2818</name></trkpt>
<trkpt lat="53.383658" lon="-1.965835"><ele>233</ele><time>2023-03-31T12:57:57Z</time><name>PT2819</name></trkpt>
<trkpt lat="53.383636" lon="-1.965897"><ele>234</ele><time>2023-03-31T12:58:01Z</time><name>PT2820</name></trkpt>
<trkpt lat="53.383617" lon="-1.965944"><ele>235</ele><time>2023-03-31T12:58:04Z</time><name>PT2821</name></trkpt>
<trkpt lat="53.383610" lon="-1.965984"><ele>235</ele><time>2023-03-31T12:58:07Z</time><name>PT2822</name></trkpt>
<trkpt lat="53.383589" lon="-1.966048"><ele>236</ele><time>2023-03-31T12:58:11Z</time><name>PT2823</name></trkpt>
<trkpt lat="53.383573" lon="-1.966086"><ele>236</ele><time>2023-03-31T12:58:14Z</time><name>PT2824</name></trkpt>
<trkpt lat="53.383555" lon="-1.966123"><ele>237</ele><time>2023-03-31T12:58:17Z</time><name>PT2825</name></trkpt>
<trkpt lat="53.383542" lon="-1.966176"><ele>236</ele><time>2023-03-31T12:58:21Z</time><name>PT2826</name></trkpt>
<trkpt lat="53.383520" lon="-1.966238"><ele>237</ele><time>2023-03-31T12:58:25Z</time><name>PT2827</name></trkpt>
<trkpt lat="53.383506" lon="-1.966285"><ele>237</ele><time>2023-03-31T12:58:28Z</time><name>PT2828</name></trkpt>
<trkpt lat="53.383492" lon="-1.966339"><ele>237</ele><time>2023-03-31T12:58:32Z</time><name>PT2829</name></trkpt>
<trkpt lat="53.383466" lon="-1.966406"><ele>238</ele><time>2023-03-31T12:58:36Z</time><name>PT2830</name></trkpt>
<trkpt lat="53.383448" lon="-1.966456"><ele>239</ele><time>2023-03-31T12:58:38Z</time><name>PT2831</name></trkpt>
<trkpt lat="53.383433" lon="-1.966501"><ele>240</ele><time>2023-03-31T12:58:42Z</time><name>PT2832</name></trkpt>
<trkpt lat="53.383416" lon="-1.966549"><ele>238</ele><time>2023-03-31T12:58:46Z</time><name>PT2833</name></trkpt>
<trkpt lat="53.383397" lon="-1.966592"><ele>239</ele><time>2023-03-31T12:58:49Z</time><name>PT2834</name></trkpt>
<trkpt lat="53.383377" lon="-1.966657"><ele>240</ele><time>2023-03-31T12:58:53Z</time><name>PT2835</name></trkpt>
<trkpt lat="53.383359" lon="-1.966717"><ele>242</ele><time>2023-03-31T12:58:57Z</time><name>PT2836</name></trkpt>
<trkpt lat="53.383350" lon="-1.966759"><ele>242</ele><time>2023-03-31T12:59:00Z</time><name>PT2837</name></trkpt>
<trkpt lat="53.383321" lon="-1.966884"><ele>247</ele><time>2023-03-31T12:59:04Z</time><name>PT2838</name></trkpt>
<trkpt lat="53.383318" lon="-1.966884"><ele>247</ele><time>2023-03-31T12:59:31Z</time><name>PT2839</name></trkpt>
<trkpt lat="53.383303" lon="-1.966952"><ele>246</ele><time>2023-03-31T12:59:35Z</time><name>PT2840</name></trkpt>
<trkpt lat="53.383289" lon="-1.967015"><ele>246</ele><time>2023-03-31T12:59:39Z</time><name>PT2841</name></trkpt>
<trkpt lat="53.383280" lon="-1.967072"><ele>247</ele><time>2023-03-31T12:59:43Z</time><name>PT2842</name></trkpt>
<trkpt lat="53.383268" lon="-1.967128"><ele>247</ele><time>2023-03-31T12:59:47Z</time><name>PT2843</name></trkpt>
<trkpt lat="53.383248" lon="-1.967185"><ele>246</ele><time>2023-03-31T12:59:51Z</time><name>PT2844</name></trkpt>
<trkpt lat="53.383226" lon="-1.967254"><ele>246</ele><time>2023-03-31T12:59:55Z</time><name>PT2845</name></trkpt>
<trkpt lat="53.383209" lon="-1.967318"><ele>246</ele><time>2023-03-31T12:59:59Z</time><name>PT2846</name></trkpt>
<trkpt lat="53.383196" lon="-1.967386"><ele>246</ele><time>2023-03-31T13:00:03Z</time><name>PT2847</name></trkpt>
<trkpt lat="53.383179" lon="-1.967450"><ele>246</ele><time>2023-03-31T13:00:07Z</time><name>PT2848</name></trkpt>
<trkpt lat="53.383160" lon="-1.967517"><ele>246</ele><time>2023-03-31T13:00:11Z</time><name>PT2849</name></trkpt>
<trkpt lat="53.383143" lon="-1.967568"><ele>246</ele><time>2023-03-31T13:00:14Z</time><name>PT2850</name></trkpt>
<trkpt lat="53.383130" lon="-1.967629"><ele>245</ele><time>2023-03-31T13:00:17Z</time><name>PT2851</name></trkpt>
<trkpt lat="53.383114" lon="-1.967685"><ele>245</ele><time>2023-03-31T13:00:20Z</time><name>PT2852</name></trkpt>
<trkpt lat="53.383095" lon="-1.967745"><ele>246</ele><time>2023-03-31T13:00:23Z</time><name>PT2853</name></trkpt>
<trkpt lat="53.383061" lon="-1.967833"><ele>247</ele><time>2023-03-31T13:00:27Z</time><name>PT2854</name></trkpt>
<trkpt lat="53.383025" lon="-1.967969"><ele>251</ele><time>2023-03-31T13:00:30Z</time><name>PT2855</name></trkpt>
<trkpt lat="53.383000" lon="-1.968064"><ele>251</ele><time>2023-03-31T13:00:34Z</time><name>PT2856</name></trkpt>
<trkpt lat="53.382990" lon="-1.968124"><ele>249</ele><time>2023-03-31T13:00:38Z</time><name>PT2857</name></trkpt>
<trkpt lat="53.382979" lon="-1.968150"><ele>249</ele><time>2023-03-31T13:00:41Z</time><name>PT2858</name></trkpt>
<trkpt lat="53.382986" lon="-1.968211"><ele>248</ele><time>2023-03-31T13:00:44Z</time><name>PT2859</name></trkpt>
<trkpt lat="53.382972" lon="-1.968258"><ele>249</ele><time>2023-03-31T13:00:48Z</time><name>PT2860</name></trkpt>
<trkpt lat="53.382954" lon="-1.968328"><ele>249</ele><time>2023-03-31T13:00:52Z</time><name>PT2861</name></trkpt>
<trkpt lat="53.382937" lon="-1.968372"><ele>248</ele><time>2023-03-31T13:00:56Z</time><name>PT2862</name></trkpt>
<trkpt lat="53.382922" lon="-1.968426"><ele>249</ele><time>2023-03-31T13:00:59Z</time><name>PT2863</name></trkpt>
<trkpt lat="53.382901" lon="-1.968492"><ele>248</ele><time>2023-03-31T13:01:02Z</time><name>PT2864</name></trkpt>
<trkpt lat="53.382871" lon="-1.968538"><ele>247</ele><time>2023-03-31T13:01:05Z</time><name>PT2865</name></trkpt>
<trkpt lat="53.382838" lon="-1.968610"><ele>248</ele><time>2023-03-31T13:01:10Z</time><name>PT2866</name></trkpt>
<trkpt lat="53.382813" lon="-1.968672"><ele>249</ele><time>2023-03-31T13:01:13Z</time><name>PT2867</name></trkpt>
<trkpt lat="53.382774" lon="-1.968731"><ele>249</ele><time>2023-03-31T13:01:17Z</time><name>PT2868</name></trkpt>
<trkpt lat="53.382748" lon="-1.968784"><ele>248</ele><time>2023-03-31T13:01:20Z</time><name>PT2869</name></trkpt>
<trkpt lat="53.382715" lon="-1.968831"><ele>249</ele><time>2023-03-31T13:01:23Z</time><name>PT2870</name></trkpt>
<trkpt lat="53.382685" lon="-1.968892"><ele>250</ele><time>2023-03-31T13:01:26Z</time><name>PT2871</name></trkpt>
<trkpt lat="53.382643" lon="-1.968955"><ele>251</ele><time>2023-03-31T13:01:30Z</time><name>PT2872</name></trkpt>
<trkpt lat="53.382609" lon="-1.969013"><ele>250</ele><time>2023-03-31T13:01:34Z</time><name>PT2873</name></trkpt>
<trkpt lat="53.382579" lon="-1.969055"><ele>250</ele><time>2023-03-31T13:01:37Z</time><name>PT2874</name></trkpt>
<trkpt lat="53.382541" lon="-1.969108"><ele>250</ele><time>2023-03-31T13:01:41Z</time><name>PT2875</name></trkpt>
<trkpt lat="53.382509" lon="-1.969161"><ele>249</ele><time>2023-03-31T13:01:44Z</time><name>PT2876</name></trkpt>
<trkpt lat="53.382479" lon="-1.969204"><ele>249</ele><time>2023-03-31T13:01:48Z</time><name>PT2877</name></trkpt>
<trkpt lat="53.382447" lon="-1.969255"><ele>248</ele><time>2023-03-31T13:01:52Z</time><name>PT2878</name></trkpt>
<trkpt lat="53.382424" lon="-1.969298"><ele>249</ele><time>2023-03-31T13:01:55Z</time><name>PT2879</name></trkpt>
<trkpt lat="53.382399" lon="-1.969352"><ele>249</ele><time>2023-03-31T13:01:59Z</time><name>PT2880</name></trkpt>
<trkpt lat="53.382381" lon="-1.969400"><ele>250</ele><time>2023-03-31T13:02:02Z</time><name>PT2881</name></trkpt>
<trkpt lat="53.382351" lon="-1.969454"><ele>249</ele><time>2023-03-31T13:02:06Z</time><name>PT2882</name></trkpt>
<trkpt lat="53.382329" lon="-1.969500"><ele>249</ele><time>2023-03-31T13:02:10Z</time><name>PT2883</name></trkpt>
<trkpt lat="53.382309" lon="-1.969545"><ele>249</ele><time>2023-03-31T13:02:13Z</time><name>PT2884</name></trkpt>
<trkpt lat="53.382287" lon="-1.969606"><ele>249</ele><time>2023-03-31T13:02:17Z</time><name>PT2885</name></trkpt>
<trkpt lat="53.382269" lon="-1.969653"><ele>250</ele><time>2023-03-31T13:02:20Z</time><name>PT2886</name></trkpt>
<trkpt lat="53.382247" lon="-1.969726"><ele>252</ele><time>2023-03-31T13:02:23Z</time><name>PT2887</name></trkpt>
<trkpt lat="53.382226" lon="-1.969794"><ele>253</ele><time>2023-03-31T13:02:27Z</time><name>PT2888</name></trkpt>
<trkpt lat="53.382195" lon="-1.969922"><ele>257</ele><time>2023-03-31T13:02:31Z</time><name>PT2889</name></trkpt>
<trkpt lat="53.382181" lon="-1.969992"><ele>258</ele><time>2023-03-31T13:02:35Z</time><name>PT2890</name></trkpt>
<trkpt lat="53.382169" lon="-1.970043"><ele>259</ele><time>2023-03-31T13:02:38Z</time><name>PT2891</name></trkpt>
<trkpt lat="53.382160" lon="-1.970092"><ele>259</ele><time>2023-03-31T13:02:41Z</time><name>PT2892</name></trkpt>
<trkpt lat="53.382159" lon="-1.970150"><ele>260</ele><time>2023-03-31T13:02:45Z</time><name>PT2893</name></trkpt>
<trkpt lat="53.382152" lon="-1.970199"><ele>260</ele><time>2023-03-31T13:02:48Z</time><name>PT2894</name></trkpt>
<trkpt lat="53.382143" lon="-1.970247"><ele>260</ele><time>2023-03-31T13:02:51Z</time><name>PT2895</name></trkpt>
<trkpt lat="53.382129" lon="-1.970321"><ele>261</ele><time>2023-03-31T13:02:55Z</time><name>PT2896</name></trkpt>
<trkpt lat="53.382137" lon="-1.970399"><ele>262</ele><time>2023-03-31T13:02:59Z</time><name>PT2897</name></trkpt>
<trkpt lat="53.382149" lon="-1.970451"><ele>263</ele><time>2023-03-31T13:03:02Z</time><name>PT2898</name></trkpt>
<trkpt lat="53.382166" lon="-1.970504"><ele>263</ele><time>2023-03-31T13:03:05Z</time><name>PT2899</name></trkpt>
<trkpt lat="53.382189" lon="-1.970566"><ele>264</ele><time>2023-03-31T13:03:09Z</time><name>PT2900</name></trkpt>
<trkpt lat="53.382206" lon="-1.970627"><ele>265</ele><time>2023-03-31T13:03:13Z</time><name>PT2901</name></trkpt>
<trkpt lat="53.382210" lon="-1.970648"><ele>266</ele><time>2023-03-31T13:03:16Z</time><name>PT2902</name></trkpt>
<trkpt lat="53.382209" lon="-1.970659"><ele>267</ele><time>2023-03-31T13:03:20Z</time><name>PT2903</name></trkpt>
<trkpt lat="53.382218" lon="-1.970686"><ele>267</ele><time>2023-03-31T13:03:24Z</time><name>PT2904</name></trkpt>
<trkpt lat="53.382242" lon="-1.970715"><ele>267</ele><time>2023-03-31T13:03:28Z</time><name>PT2905</name></trkpt>
<trkpt lat="53.382267" lon="-1.970750"><ele>268</ele><time>2023-03-31T13:03:31Z</time><name>PT2906</name></trkpt>
<trkpt lat="53.382297" lon="-1.970795"><ele>270</ele><time>2023-03-31T13:03:35Z</time><name>PT2907</name></trkpt>
<trkpt lat="53.382333" lon="-1.970829"><ele>270</ele><time>2023-03-31T13:03:38Z</time><name>PT2908</name></trkpt>
<trkpt lat="53.382362" lon="-1.970856"><ele>271</ele><time>2023-03-31T13:03:41Z</time><name>PT2909</name></trkpt>
<trkpt lat="53.382394" lon="-1.970878"><ele>272</ele><time>2023-03-31T13:03:45Z</time><name>PT2910</name></trkpt>
<trkpt lat="53.382423" lon="-1.970882"><ele>271</ele><time>2023-03-31T13:03:48Z</time><name>PT2911</name></trkpt>
<trkpt lat="53.382480" lon="-1.970903"><ele>270</ele><time>2023-03-31T13:03:52Z</time><name>PT2912</name></trkpt>
<trkpt lat="53.382519" lon="-1.970914"><ele>270</ele><time>2023-03-31T13:03:55Z</time><name>PT2913</name></trkpt>
<trkpt lat="53.382564" lon="-1.970933"><ele>269</ele><time>2023-03-31T13:03:59Z</time><name>PT2914</name></trkpt>
<trkpt lat="53.382602" lon="-1.970934"><ele>269</ele><time>2023-03-31T13:04:02Z</time><name>PT2915</name></trkpt>
<trkpt lat="53.382637" lon="-1.970933"><ele>269</ele><time>2023-03-31T13:04:06Z</time><name>PT2916</name></trkpt>
<trkpt lat="53.382666" lon="-1.970946"><ele>269</ele><time>2023-03-31T13:04:09Z</time><name>PT2917</name></trkpt>
<trkpt lat="53.382698" lon="-1.970950"><ele>269</ele><time>2023-03-31T13:04:12Z</time><name>PT2918</name></trkpt>
<trkpt lat="53.382743" lon="-1.970954"><ele>268</ele><time>2023-03-31T13:04:16Z</time><name>PT2919</name></trkpt>
<trkpt lat="53.382789" lon="-1.970962"><ele>267</ele><time>2023-03-31T13:04:20Z</time><name>PT2920</name></trkpt>
<trkpt lat="53.382840" lon="-1.970969"><ele>268</ele><time>2023-03-31T13:04:24Z</time><name>PT2921</name></trkpt>
<trkpt lat="53.382890" lon="-1.970980"><ele>268</ele><time>2023-03-31T13:04:28Z</time><name>PT2922</name></trkpt>
<trkpt lat="53.382928" lon="-1.970993"><ele>269</ele><time>2023-03-31T13:04:31Z</time><name>PT2923</name></trkpt>
<trkpt lat="53.382962" lon="-1.970994"><ele>269</ele><time>2023-03-31T13:04:34Z</time><name>PT2924</name></trkpt>
<trkpt lat="53.383009" lon="-1.970994"><ele>270</ele><time>2023-03-31T13:04:38Z</time><name>PT2925</name></trkpt>
<trkpt lat="53.383051" lon="-1.970995"><ele>270</ele><time>2023-03-31T13:04:42Z</time><name>PT2926</name></trkpt>
<trkpt lat="53.383092" lon="-1.971012"><ele>270</ele><time>2023-03-31T13:04:46Z</time><name>PT2927</name></trkpt>
<trkpt lat="53.383130" lon="-1.971020"><ele>270</ele><time>2023-03-31T13:04:50Z</time><name>PT2928</name></trkpt>
<trkpt lat="53.383166" lon="-1.971038"><ele>269</ele><time>2023-03-31T13:04:54Z</time><name>PT2929</name></trkpt>
<trkpt lat="53.383214" lon="-1.971062"><ele>269</ele><time>2023-03-31T13:04:58Z</time><name>PT2930</name></trkpt>
<trkpt lat="53.383251" lon="-1.971079"><ele>271</ele><time>2023-03-31T13:05:01Z</time><name>PT2931</name></trkpt>
<trkpt lat="53.383281" lon="-1.971094"><ele>270</ele><time>2023-03-31T13:05:04Z</time><name>PT2932</name></trkpt>
<trkpt lat="53.383354" lon="-1.971130"><ele>272</ele><time>2023-03-31T13:05:08Z</time><name>PT2933</name></trkpt>
<trkpt lat="53.383406" lon="-1.971138"><ele>273</ele><time>2023-03-31T13:05:11Z</time><name>PT2934</name></trkpt>
<trkpt lat="53.383455" lon="-1.971144"><ele>272</ele><time>2023-03-31T13:05:15Z</time><name>PT2935</name></trkpt>
<trkpt lat="53.383483" lon="-1.971140"><ele>271</ele><time>2023-03-31T13:05:18Z</time><name>PT2936</name></trkpt>
<trkpt lat="53.383504" lon="-1.971141"><ele>271</ele><time>2023-03-31T13:05:21Z</time><name>PT2937</name></trkpt>
<trkpt lat="53.383534" lon="-1.971136"><ele>271</ele><time>2023-03-31T13:05:24Z</time><name>PT2938</name></trkpt>
<trkpt lat="53.383567" lon="-1.971135"><ele>270</ele><time>2023-03-31T13:05:28Z</time><name>PT2939</name></trkpt>
<trkpt lat="53.383589" lon="-1.971149"><ele>269</ele><time>2023-03-31T13:05:31Z</time><name>PT2940</name></trkpt>
<trkpt lat="53.383622" lon="-1.971165"><ele>268</ele><time>2023-03-31T13:05:35Z</time><name>PT2941</name></trkpt>
<trkpt lat="53.383648" lon="-1.971183"><ele>267</ele><time>2023-03-31T13:05:38Z</time><name>PT2942</name></trkpt>
<trkpt lat="53.383700" lon="-1.971195"><ele>269</ele><time>2023-03-31T13:05:42Z</time><name>PT2943</name></trkpt>
<trkpt lat="53.383746" lon="-1.971225"><ele>270</ele><time>2023-03-31T13:05:46Z</time><name>PT2944</name></trkpt>
<trkpt lat="53.383785" lon="-1.971239"><ele>270</ele><time>2023-03-31T13:05:49Z</time><name>PT2945</name></trkpt>
<trkpt lat="53.383835" lon="-1.971251"><ele>271</ele><time>2023-03-31T13:05:53Z</time><name>PT2946</name></trkpt>
<trkpt lat="53.383880" lon="-1.971258"><ele>273</ele><time>2023-03-31T13:05:56Z</time><name>PT2947</name></trkpt>
<trkpt lat="53.383940" lon="-1.971260"><ele>274</ele><time>2023-03-31T13:05:59Z</time><name>PT2948</name></trkpt>
<trkpt lat="53.383993" lon="-1.971257"><ele>275</ele><time>2023-03-31T13:06:02Z</time><name>PT2949</name></trkpt>
<trkpt lat="53.384037" lon="-1.971264"><ele>276</ele><time>2023-03-31T13:06:06Z</time><name>PT2950</name></trkpt>
<trkpt lat="53.384085" lon="-1.971261"><ele>275</ele><time>2023-03-31T13:06:10Z</time><name>PT2951</name></trkpt>
<trkpt lat="53.384124" lon="-1.971251"><ele>276</ele><time>2023-03-31T13:06:13Z</time><name>PT2952</name></trkpt>
<trkpt lat="53.384153" lon="-1.971250"><ele>274</ele><time>2023-03-31T13:06:16Z</time><name>PT2953</name></trkpt>
<trkpt lat="53.384184" lon="-1.971260"><ele>274</ele><time>2023-03-31T13:06:19Z</time><name>PT2954</name></trkpt>
<trkpt lat="53.384220" lon="-1.971248"><ele>274</ele><time>2023-03-31T13:06:23Z</time><name>PT2955</name></trkpt>
<trkpt lat="53.384250" lon="-1.971246"><ele>272</ele><time>2023-03-31T13:06:26Z</time><name>PT2956</name></trkpt>
<trkpt lat="53.384284" lon="-1.971253"><ele>273</ele><time>2023-03-31T13:06:30Z</time><name>PT2957</name></trkpt>
<trkpt lat="53.384328" lon="-1.971265"><ele>273</ele><time>2023-03-31T13:06:34Z</time><name>PT2958</name></trkpt>
<trkpt lat="53.384384" lon="-1.971302"><ele>275</ele><time>2023-03-31T13:06:38Z</time><name>PT2959</name></trkpt>
<trkpt lat="53.384427" lon="-1.971323"><ele>276</ele><time>2023-03-31T13:06:41Z</time><name>PT2960</name></trkpt>
<trkpt lat="53.384477" lon="-1.971346"><ele>277</ele><time>2023-03-31T13:06:44Z</time><name>PT2961</name></trkpt>
<trkpt lat="53.384507" lon="-1.971356"><ele>276</ele><time>2023-03-31T13:06:48Z</time><name>PT2962</name></trkpt>
<trkpt lat="53.384544" lon="-1.971364"><ele>275</ele><time>2023-03-31T13:06:52Z</time><name>PT2963</name></trkpt>
<trkpt lat="53.384578" lon="-1.971377"><ele>276</ele><time>2023-03-31T13:06:55Z</time><name>PT2964</name></trkpt>
<trkpt lat="53.384624" lon="-1.971393"><ele>277</ele><time>2023-03-31T13:06:59Z</time><name>PT2965</name></trkpt>
<trkpt lat="53.384663" lon="-1.971397"><ele>278</ele><time>2023-03-31T13:07:02Z</time><name>PT2966</name></trkpt>
<trkpt lat="53.384697" lon="-1.971419"><ele>278</ele><time>2023-03-31T13:07:05Z</time><name>PT2967</name></trkpt>
<trkpt lat="53.384742" lon="-1.971414"><ele>279</ele><time>2023-03-31T13:07:08Z</time><name>PT2968</name></trkpt>
<trkpt lat="53.384775" lon="-1.971424"><ele>279</ele><time>2023-03-31T13:07:12Z</time><name>PT2969</name></trkpt>
<trkpt lat="53.384809" lon="-1.971432"><ele>278</ele><time>2023-03-31T13:07:15Z</time><name>PT2970</name></trkpt>
<trkpt lat="53.384855" lon="-1.971448"><ele>279</ele><time>2023-03-31T13:07:19Z</time><name>PT2971</name></trkpt>
<trkpt lat="53.384905" lon="-1.971460"><ele>281</ele><time>2023-03-31T13:07:23Z</time><name>PT2972</name></trkpt>
<trkpt lat="53.384944" lon="-1.971469"><ele>282</ele><time>2023-03-31T13:07:26Z</time><name>PT2973</name></trkpt>
<trkpt lat="53.384991" lon="-1.971484"><ele>282</ele><time>2023-03-31T13:07:30Z</time><name>PT2974</name></trkpt>
<trkpt lat="53.385031" lon="-1.971503"><ele>283</ele><time>2023-03-31T13:07:33Z</time><name>PT2975</name></trkpt>
<trkpt lat="53.385067" lon="-1.971520"><ele>283</ele><time>2023-03-31T13:07:36Z</time><name>PT2976</name></trkpt>
<trkpt lat="53.385109" lon="-1.971533"><ele>283</ele><time>2023-03-31T13:07:39Z</time><name>PT2977</name></trkpt>
<trkpt lat="53.385156" lon="-1.971555"><ele>283</ele><time>2023-03-31T13:07:43Z</time><name>PT2978</name></trkpt>
<trkpt lat="53.385204" lon="-1.971572"><ele>283</ele><time>2023-03-31T13:07:47Z</time><name>PT2979</name></trkpt>
<trkpt lat="53.385236" lon="-1.971589"><ele>282</ele><time>2023-03-31T13:07:50Z</time><name>PT2980</name></trkpt>
<trkpt lat="53.385262" lon="-1.971595"><ele>281</ele><time>2023-03-31T13:07:53Z</time><name>PT2981</name></trkpt>
<trkpt lat="53.385308" lon="-1.971618"><ele>281</ele><time>2023-03-31T13:07:57Z</time><name>PT2982</name></trkpt>
<trkpt lat="53.385345" lon="-1.971626"><ele>282</ele><time>2023-03-31T13:08:00Z</time><name>PT2983</name></trkpt>
<trkpt lat="53.385385" lon="-1.971667"><ele>282</ele><time>2023-03-31T13:08:03Z</time><name>PT2984</name></trkpt>
<trkpt lat="53.385440" lon="-1.971709"><ele>283</ele><time>2023-03-31T13:08:06Z</time><name>PT2985</name></trkpt>
<trkpt lat="53.385503" lon="-1.971735"><ele>284</ele><time>2023-03-31T13:08:10Z</time><name>PT2986</name></trkpt>
<trkpt lat="53.385542" lon="-1.971749"><ele>284</ele><time>2023-03-31T13:08:13Z</time><name>PT2987</name></trkpt>
<trkpt lat="53.385585" lon="-1.971765"><ele>284</ele><time>2023-03-31T13:08:17Z</time><name>PT2988</name></trkpt>
<trkpt lat="53.385617" lon="-1.971778"><ele>284</ele><time>2023-03-31T13:08:20Z</time><name>PT2989</name></trkpt>
<trkpt lat="53.385663" lon="-1.971806"><ele>284</ele><time>2023-03-31T13:08:24Z</time><name>PT2990</name></trkpt>
<trkpt lat="53.385697" lon="-1.971827"><ele>284</ele><time>2023-03-31T13:08:27Z</time><name>PT2991</name></trkpt>
<trkpt lat="53.385739" lon="-1.971848"><ele>284</ele><time>2023-03-31T13:08:31Z</time><name>PT2992</name></trkpt>
<trkpt lat="53.385776" lon="-1.971869"><ele>284</ele><time>2023-03-31T13:08:34Z</time><name>PT2993</name></trkpt>
<trkpt lat="53.385828" lon="-1.971892"><ele>285</ele><time>2023-03-31T13:08:38Z</time><name>PT2994</name></trkpt>
<trkpt lat="53.385864" lon="-1.971915"><ele>285</ele><time>2023-03-31T13:08:41Z</time><name>PT2995</name></trkpt>
<trkpt lat="53.385906" lon="-1.971941"><ele>285</ele><time>2023-03-31T13:08:45Z</time><name>PT2996</name></trkpt>
<trkpt lat="53.385954" lon="-1.971969"><ele>286</ele><time>2023-03-31T13:08:49Z</time><name>PT2997</name></trkpt>
<trkpt lat="53.385988" lon="-1.971991"><ele>287</ele><time>2023-03-31T13:08:52Z</time><name>PT2998</name></trkpt>
<trkpt lat="53.386034" lon="-1.972016"><ele>286</ele><time>2023-03-31T13:08:56Z</time><name>PT2999</name></trkpt>
<trkpt lat="53.386075" lon="-1.972044"><ele>286</ele><time>2023-03-31T13:09:00Z</time><name>PT3000</name></trkpt>
<trkpt lat="53.386114" lon="-1.972060"><ele>287</ele><time>2023-03-31T13:09:03Z</time><name>PT3001</name></trkpt>
<trkpt lat="53.386161" lon="-1.972085"><ele>288</ele><time>2023-03-31T13:09:07Z</time><name>PT3002</name></trkpt>
<trkpt lat="53.386197" lon="-1.972104"><ele>287</ele><time>2023-03-31T13:09:10Z</time><name>PT3003</name></trkpt>
<trkpt lat="53.386255" lon="-1.972123"><ele>286</ele><time>2023-03-31T13:09:14Z</time><name>PT3004</name></trkpt>
<trkpt lat="53.386308" lon="-1.972138"><ele>285</ele><time>2023-03-31T13:09:18Z</time><name>PT3005</name></trkpt>
<trkpt lat="53.386352" lon="-1.972142"><ele>285</ele><time>2023-03-31T13:09:22Z</time><name>PT3006</name></trkpt>
<trkpt lat="53.386389" lon="-1.972146"><ele>285</ele><time>2023-03-31T13:09:25Z</time><name>PT3007</name></trkpt>
<trkpt lat="53.386424" lon="-1.972148"><ele>285</ele><time>2023-03-31T13:09:28Z</time><name>PT3008</name></trkpt>
<trkpt lat="53.386468" lon="-1.972160"><ele>285</ele><time>2023-03-31T13:09:31Z</time><name>PT3009</name></trkpt>
<trkpt lat="53.386501" lon="-1.972166"><ele>285</ele><time>2023-03-31T13:09:34Z</time><name>PT3010</name></trkpt>
<trkpt lat="53.386532" lon="-1.972173"><ele>285</ele><time>2023-03-31T13:09:38Z</time><name>PT3011</name></trkpt>
<trkpt lat="53.386568" lon="-1.972178"><ele>285</ele><time>2023-03-31T13:09:41Z</time><name>PT3012</name></trkpt>
<trkpt lat="53.386614" lon="-1.972181"><ele>286</ele><time>2023-03-31T13:09:45Z</time><name>PT3013</name></trkpt>
<trkpt lat="53.386649" lon="-1.972188"><ele>286</ele><time>2023-03-31T13:09:48Z</time><name>PT3014</name></trkpt>
<trkpt lat="53.386694" lon="-1.972194"><ele>285</ele><time>2023-03-31T13:09:52Z</time><name>PT3015</name></trkpt>
<trkpt lat="53.386728" lon="-1.972200"><ele>286</ele><time>2023-03-31T13:09:55Z</time><name>PT3016</name></trkpt>
<trkpt lat="53.386777" lon="-1.972206"><ele>287</ele><time>2023-03-31T13:09:59Z</time><name>PT3017</name></trkpt>
<trkpt lat="53.386809" lon="-1.972210"><ele>287</ele><time>2023-03-31T13:10:02Z</time><name>PT3018</name></trkpt>
<trkpt lat="53.386855" lon="-1.972212"><ele>287</ele><time>2023-03-31T13:10:06Z</time><name>PT3019</name></trkpt>
<trkpt lat="53.386890" lon="-1.972217"><ele>287</ele><time>2023-03-31T13:10:09Z</time><name>PT3020</name></trkpt>
<trkpt lat="53.386926" lon="-1.972223"><ele>288</ele><time>2023-03-31T13:10:12Z</time><name>PT3021</name></trkpt>
<trkpt lat="53.386958" lon="-1.972226"><ele>287</ele><time>2023-03-31T13:10:15Z</time><name>PT3022</name></trkpt>
<trkpt lat="53.387001" lon="-1.972228"><ele>286</ele><time>2023-03-31T13:10:19Z</time><name>PT3023</name></trkpt>
<trkpt lat="53.387052" lon="-1.972227"><ele>287</ele><time>2023-03-31T13:10:23Z</time><name>PT3024</name></trkpt>
<trkpt lat="53.387086" lon="-1.972229"><ele>287</ele><time>2023-03-31T13:10:26Z</time><name>PT3025</name></trkpt>
<trkpt lat="53.387132" lon="-1.972234"><ele>287</ele><time>2023-03-31T13:10:30Z</time><name>PT3026</name></trkpt>
<trkpt lat="53.387176" lon="-1.972230"><ele>287</ele><time>2023-03-31T13:10:34Z</time><name>PT3027</name></trkpt>
<trkpt lat="53.387223" lon="-1.972230"><ele>287</ele><time>2023-03-31T13:10:38Z</time><name>PT3028</name></trkpt>
<trkpt lat="53.387260" lon="-1.972229"><ele>287</ele><time>2023-03-31T13:10:41Z</time><name>PT3029</name></trkpt>
<trkpt lat="53.387295" lon="-1.972229"><ele>286</ele><time>2023-03-31T13:10:44Z</time><name>PT3030</name></trkpt>
<trkpt lat="53.387344" lon="-1.972233"><ele>287</ele><time>2023-03-31T13:10:48Z</time><name>PT3031</name></trkpt>
<trkpt lat="53.387393" lon="-1.972235"><ele>288</ele><time>2023-03-31T13:10:52Z</time><name>PT3032</name></trkpt>
<trkpt lat="53.387442" lon="-1.972235"><ele>289</ele><time>2023-03-31T13:10:56Z</time><name>PT3033</name></trkpt>
<trkpt lat="53.387479" lon="-1.972235"><ele>289</ele><time>2023-03-31T13:10:59Z</time><name>PT3034</name></trkpt>
<trkpt lat="53.387513" lon="-1.972239"><ele>290</ele><time>2023-03-31T13:11:02Z</time><name>PT3035</name></trkpt>
<trkpt lat="53.387552" lon="-1.972241"><ele>290</ele><time>2023-03-31T13:11:05Z</time><name>PT3036</name></trkpt>
<trkpt lat="53.387585" lon="-1.972243"><ele>290</ele><time>2023-03-31T13:11:08Z</time><name>PT3037</name></trkpt>
<trkpt lat="53.387633" lon="-1.972245"><ele>290</ele><time>2023-03-31T13:11:12Z</time><name>PT3038</name></trkpt>
<trkpt lat="53.387683" lon="-1.972245"><ele>291</ele><time>2023-03-31T13:11:16Z</time><name>PT3039</name></trkpt>
<trkpt lat="53.387720" lon="-1.972248"><ele>292</ele><time>2023-03-31T13:11:19Z</time><name>PT3040</name></trkpt>
<trkpt lat="53.387767" lon="-1.972248"><ele>292</ele><time>2023-03-31T13:11:23Z</time><name>PT3041</name></trkpt>
<trkpt lat="53.387816" lon="-1.972250"><ele>292</ele><time>2023-03-31T13:11:27Z</time><name>PT3042</name></trkpt>
<trkpt lat="53.387860" lon="-1.972249"><ele>292</ele><time>2023-03-31T13:11:30Z</time><name>PT3043</name></trkpt>
<trkpt lat="53.387896" lon="-1.972248"><ele>292</ele><time>2023-03-31T13:11:34Z</time><name>PT3044</name></trkpt>
<trkpt lat="53.387952" lon="-1.972250"><ele>293</ele><time>2023-03-31T13:11:39Z</time><name>PT3045</name></trkpt>
<trkpt lat="53.387994" lon="-1.972248"><ele>293</ele><time>2023-03-31T13:11:43Z</time><name>PT3046</name></trkpt>
<trkpt lat="53.388034" lon="-1.972249"><ele>294</ele><time>2023-03-31T13:11:47Z</time><name>PT3047</name></trkpt>
<trkpt lat="53.388064" lon="-1.972248"><ele>294</ele><time>2023-03-31T13:11:50Z</time><name>PT3048</name></trkpt>
<trkpt lat="53.388102" lon="-1.972247"><ele>293</ele><time>2023-03-31T13:11:54Z</time><name>PT3049</name></trkpt>
<trkpt lat="53.388131" lon="-1.972245"><ele>293</ele><time>2023-03-31T13:11:57Z</time><name>PT3050</name></trkpt>
<trkpt lat="53.388164" lon="-1.972243"><ele>292</ele><time>2023-03-31T13:12:00Z</time><name>PT3051</name></trkpt>
<trkpt lat="53.388198" lon="-1.972242"><ele>293</ele><time>2023-03-31T13:12:03Z</time><name>PT3052</name></trkpt>
<trkpt lat="53.388235" lon="-1.972243"><ele>294</ele><time>2023-03-31T13:12:06Z</time><name>PT3053</name></trkpt>
<trkpt lat="53.388266" lon="-1.972245"><ele>293</ele><time>2023-03-31T13:12:09Z</time><name>PT3054</name></trkpt>
<trkpt lat="53.388310" lon="-1.972246"><ele>293</ele><time>2023-03-31T13:12:12Z</time><name>PT3055</name></trkpt>
<trkpt lat="53.388345" lon="-1.972242"><ele>293</ele><time>2023-03-31T13:12:16Z</time><name>PT3056</name></trkpt>
<trkpt lat="53.388385" lon="-1.972240"><ele>293</ele><time>2023-03-31T13:12:20Z</time><name>PT3057</name></trkpt>
<trkpt lat="53.388431" lon="-1.972236"><ele>292</ele><time>2023-03-31T13:12:24Z</time><name>PT3058</name></trkpt>
<trkpt lat="53.388482" lon="-1.972227"><ele>293</ele><time>2023-03-31T13:12:28Z</time><name>PT3059</name></trkpt>
<trkpt lat="53.388530" lon="-1.972219"><ele>293</ele><time>2023-03-31T13:12:32Z</time><name>PT3060</name></trkpt>
<trkpt lat="53.388575" lon="-1.972212"><ele>293</ele><time>2023-03-31T13:12:36Z</time><name>PT3061</name></trkpt>
<trkpt lat="53.388610" lon="-1.972208"><ele>293</ele><time>2023-03-31T13:12:39Z</time><name>PT3062</name></trkpt>
<trkpt lat="53.388643" lon="-1.972206"><ele>293</ele><time>2023-03-31T13:12:42Z</time><name>PT3063</name></trkpt>
<trkpt lat="53.388673" lon="-1.972204"><ele>292</ele><time>2023-03-31T13:12:45Z</time><name>PT3064</name></trkpt>
<trkpt lat="53.388718" lon="-1.972209"><ele>292</ele><time>2023-03-31T13:12:48Z</time><name>PT3065</name></trkpt>
<trkpt lat="53.388758" lon="-1.972208"><ele>292</ele><time>2023-03-31T13:12:53Z</time><name>PT3066</name></trkpt>
<trkpt lat="53.388794" lon="-1.972204"><ele>292</ele><time>2023-03-31T13:12:56Z</time><name>PT3067</name></trkpt>
<trkpt lat="53.388835" lon="-1.972204"><ele>292</ele><time>2023-03-31T13:13:00Z</time><name>PT3068</name></trkpt>
<trkpt lat="53.388867" lon="-1.972206"><ele>292</ele><time>2023-03-31T13:13:03Z</time><name>PT3069</name></trkpt>
<trkpt lat="53.388906" lon="-1.972207"><ele>291</ele><time>2023-03-31T13:13:06Z</time><name>PT3070</name></trkpt>
<trkpt lat="53.388951" lon="-1.972210"><ele>291</ele><time>2023-03-31T13:13:11Z</time><name>PT3071</name></trkpt>
<trkpt lat="53.388994" lon="-1.972206"><ele>291</ele><time>2023-03-31T13:13:15Z</time><name>PT3072</name></trkpt>
<trkpt lat="53.389030" lon="-1.972205"><ele>291</ele><time>2023-03-31T13:13:18Z</time><name>PT3073</name></trkpt>
<trkpt lat="53.389066" lon="-1.972205"><ele>292</ele><time>2023-03-31T13:13:21Z</time><name>PT3074</name></trkpt>
<trkpt lat="53.389102" lon="-1.972208"><ele>292</ele><time>2023-03-31T13:13:24Z</time><name>PT3075</name></trkpt>
<trkpt lat="53.389151" lon="-1.972206"><ele>293</ele><time>2023-03-31T13:13:27Z</time><name>PT3076</name></trkpt>
<trkpt lat="53.389189" lon="-1.972208"><ele>293</ele><time>2023-03-31T13:13:30Z</time><name>PT3077</name></trkpt>
<trkpt lat="53.389220" lon="-1.972213"><ele>294</ele><time>2023-03-31T13:13:33Z</time><name>PT3078</name></trkpt>
<trkpt lat="53.389270" lon="-1.972215"><ele>294</ele><time>2023-03-31T13:13:38Z</time><name>PT3079</name></trkpt>
<trkpt lat="53.389302" lon="-1.972218"><ele>294</ele><time>2023-03-31T13:13:41Z</time><name>PT3080</name></trkpt>
<trkpt lat="53.389348" lon="-1.972221"><ele>294</ele><time>2023-03-31T13:13:45Z</time><name>PT3081</name></trkpt>
<trkpt lat="53.389382" lon="-1.972224"><ele>295</ele><time>2023-03-31T13:13:48Z</time><name>PT3082</name></trkpt>
<trkpt lat="53.389433" lon="-1.972223"><ele>296</ele><time>2023-03-31T13:13:51Z</time><name>PT3083</name></trkpt>
<trkpt lat="53.389462" lon="-1.972226"><ele>295</ele><time>2023-03-31T13:13:54Z</time><name>PT3084</name></trkpt>
<trkpt lat="53.389502" lon="-1.972231"><ele>296</ele><time>2023-03-31T13:13:57Z</time><name>PT3085</name></trkpt>
<trkpt lat="53.389552" lon="-1.972235"><ele>297</ele><time>2023-03-31T13:14:02Z</time><name>PT3086</name></trkpt>
<trkpt lat="53.389603" lon="-1.972244"><ele>297</ele><time>2023-03-31T13:14:06Z</time><name>PT3087</name></trkpt>
<trkpt lat="53.389641" lon="-1.972250"><ele>298</ele><time>2023-03-31T13:14:09Z</time><name>PT3088</name></trkpt>
<trkpt lat="53.389688" lon="-1.972258"><ele>298</ele><time>2023-03-31T13:14:12Z</time><name>PT3089</name></trkpt>
<trkpt lat="53.389738" lon="-1.972265"><ele>299</ele><time>2023-03-31T13:14:17Z</time><name>PT3090</name></trkpt>
<trkpt lat="53.389785" lon="-1.972270"><ele>300</ele><time>2023-03-31T13:14:20Z</time><name>PT3091</name></trkpt>
<trkpt lat="53.389830" lon="-1.972286"><ele>300</ele><time>2023-03-31T13:14:24Z</time><name>PT3092</name></trkpt>
<trkpt lat="53.389861" lon="-1.972295"><ele>300</ele><time>2023-03-31T13:14:27Z</time><name>PT3093</name></trkpt>
<trkpt lat="53.389911" lon="-1.972302"><ele>300</ele><time>2023-03-31T13:14:30Z</time><name>PT3094</name></trkpt>
<trkpt lat="53.389946" lon="-1.972306"><ele>301</ele><time>2023-03-31T13:14:34Z</time><name>PT3095</name></trkpt>
<trkpt lat="53.389994" lon="-1.972322"><ele>301</ele><time>2023-03-31T13:14:38Z</time><name>PT3096</name></trkpt>
<trkpt lat="53.390042" lon="-1.972330"><ele>302</ele><time>2023-03-31T13:14:42Z</time><name>PT3097</name></trkpt>
<trkpt lat="53.390081" lon="-1.972335"><ele>302</ele><time>2023-03-31T13:14:45Z</time><name>PT3098</name></trkpt>
<trkpt lat="53.390114" lon="-1.972343"><ele>301</ele><time>2023-03-31T13:14:48Z</time><name>PT3099</name></trkpt>
<trkpt lat="53.390149" lon="-1.972350"><ele>301</ele><time>2023-03-31T13:14:51Z</time><name>PT3100</name></trkpt>
<trkpt lat="53.390196" lon="-1.972363"><ele>301</ele><time>2023-03-31T13:14:54Z</time><name>PT3101</name></trkpt>
<trkpt lat="53.390230" lon="-1.972367"><ele>301</ele><time>2023-03-31T13:14:58Z</time><name>PT3102</name></trkpt>
<trkpt lat="53.390278" lon="-1.972377"><ele>301</ele><time>2023-03-31T13:15:02Z</time><name>PT3103</name></trkpt>
<trkpt lat="53.390313" lon="-1.972386"><ele>301</ele><time>2023-03-31T13:15:05Z</time><name>PT3104</name></trkpt>
<trkpt lat="53.390357" lon="-1.972407"><ele>302</ele><time>2023-03-31T13:15:09Z</time><name>PT3105</name></trkpt>
<trkpt lat="53.390370" lon="-1.972415"><ele>302</ele><time>2023-03-31T13:15:12Z</time><name>PT3106</name></trkpt>
<trkpt lat="53.390393" lon="-1.972419"><ele>302</ele><time>2023-03-31T13:15:15Z</time><name>PT3107</name></trkpt>
<trkpt lat="53.390440" lon="-1.972428"><ele>302</ele><time>2023-03-31T13:15:20Z</time><name>PT3108</name></trkpt>
<trkpt lat="53.390490" lon="-1.972435"><ele>303</ele><time>2023-03-31T13:15:24Z</time><name>PT3109</name></trkpt>
<trkpt lat="53.390537" lon="-1.972445"><ele>302</ele><time>2023-03-31T13:15:28Z</time><name>PT3110</name></trkpt>
<trkpt lat="53.390577" lon="-1.972457"><ele>302</ele><time>2023-03-31T13:15:32Z</time><name>PT3111</name></trkpt>
<trkpt lat="53.390603" lon="-1.972463"><ele>302</ele><time>2023-03-31T13:15:35Z</time><name>PT3112</name></trkpt>
<trkpt lat="53.390642" lon="-1.972469"><ele>302</ele><time>2023-03-31T13:15:39Z</time><name>PT3113</name></trkpt>
<trkpt lat="53.390667" lon="-1.972474"><ele>302</ele><time>2023-03-31T13:15:42Z</time><name>PT3114</name></trkpt>
<trkpt lat="53.390711" lon="-1.972478"><ele>301</ele><time>2023-03-31T13:15:45Z</time><name>PT3115</name></trkpt>
<trkpt lat="53.390759" lon="-1.972473"><ele>300</ele><time>2023-03-31T13:15:50Z</time><name>PT3116</name></trkpt>
<trkpt lat="53.390800" lon="-1.972474"><ele>300</ele><time>2023-03-31T13:15:53Z</time><name>PT3117</name></trkpt>
<trkpt lat="53.390841" lon="-1.972485"><ele>300</ele><time>2023-03-31T13:15:57Z</time><name>PT3118</name></trkpt>
<trkpt lat="53.390874" lon="-1.972489"><ele>300</ele><time>2023-03-31T13:16:00Z</time><name>PT3119</name></trkpt>
<trkpt lat="53.390920" lon="-1.972499"><ele>300</ele><time>2023-03-31T13:16:03Z</time><name>PT3120</name></trkpt>
<trkpt lat="53.390948" lon="-1.972502"><ele>300</ele><time>2023-03-31T13:16:06Z</time><name>PT3121</name></trkpt>
<trkpt lat="53.390980" lon="-1.972511"><ele>301</ele><time>2023-03-31T13:16:09Z</time><name>PT3122</name></trkpt>
<trkpt lat="53.391026" lon="-1.972513"><ele>301</ele><time>2023-03-31T13:16:14Z</time><name>PT3123</name></trkpt>
<trkpt lat="53.391055" lon="-1.972511"><ele>301</ele><time>2023-03-31T13:16:17Z</time><name>PT3124</name></trkpt>
<trkpt lat="53.391085" lon="-1.972531"><ele>301</ele><time>2023-03-31T13:16:20Z</time><name>PT3125</name></trkpt>
<trkpt lat="53.391124" lon="-1.972551"><ele>301</ele><time>2023-03-31T13:16:24Z</time><name>PT3126</name></trkpt>
<trkpt lat="53.391158" lon="-1.972570"><ele>300</ele><time>2023-03-31T13:16:27Z</time><name>PT3127</name></trkpt>
<trkpt lat="53.391199" lon="-1.972579"><ele>300</ele><time>2023-03-31T13:16:30Z</time><name>PT3128</name></trkpt>
<trkpt lat="53.391236" lon="-1.972588"><ele>300</ele><time>2023-03-31T13:16:34Z</time><name>PT3129</name></trkpt>
<trkpt lat="53.391288" lon="-1.972607"><ele>301</ele><time>2023-03-31T13:16:38Z</time><name>PT3130</name></trkpt>
<trkpt lat="53.391324" lon="-1.972621"><ele>301</ele><time>2023-03-31T13:16:41Z</time><name>PT3131</name></trkpt>
<trkpt lat="53.391369" lon="-1.972640"><ele>300</ele><time>2023-03-31T13:16:45Z</time><name>PT3132</name></trkpt>
<trkpt lat="53.391418" lon="-1.972664"><ele>301</ele><time>2023-03-31T13:16:48Z</time><name>PT3133</name></trkpt>
<trkpt lat="53.391459" lon="-1.972680"><ele>301</ele><time>2023-03-31T13:16:52Z</time><name>PT3134</name></trkpt>
<trkpt lat="53.391507" lon="-1.972704"><ele>301</ele><time>2023-03-31T13:16:56Z</time><name>PT3135</name></trkpt>
<trkpt lat="53.391553" lon="-1.972717"><ele>301</ele><time>2023-03-31T13:17:00Z</time><name>PT3136</name></trkpt>
<trkpt lat="53.391586" lon="-1.972728"><ele>300</ele><time>2023-03-31T13:17:03Z</time><name>PT3137</name></trkpt>
<trkpt lat="53.391629" lon="-1.972740"><ele>300</ele><time>2023-03-31T13:17:06Z</time><name>PT3138</name></trkpt>
<trkpt lat="53.391671" lon="-1.972746"><ele>300</ele><time>2023-03-31T13:17:09Z</time><name>PT3139</name></trkpt>
<trkpt lat="53.391710" lon="-1.972762"><ele>301</ele><time>2023-03-31T13:17:12Z</time><name>PT3140</name></trkpt>
<trkpt lat="53.391743" lon="-1.972774"><ele>301</ele><time>2023-03-31T13:17:15Z</time><name>PT3141</name></trkpt>
<trkpt lat="53.391794" lon="-1.972784"><ele>301</ele><time>2023-03-31T13:17:20Z</time><name>PT3142</name></trkpt>
<trkpt lat="53.391833" lon="-1.972799"><ele>302</ele><time>2023-03-31T13:17:23Z</time><name>PT3143</name></trkpt>
<trkpt lat="53.391879" lon="-1.972818"><ele>302</ele><time>2023-03-31T13:17:27Z</time><name>PT3144</name></trkpt>
<trkpt lat="53.391926" lon="-1.972831"><ele>301</ele><time>2023-03-31T13:17:30Z</time><name>PT3145</name></trkpt>
<trkpt lat="53.391971" lon="-1.972846"><ele>302</ele><time>2023-03-31T13:17:33Z</time><name>PT3146</name></trkpt>
<trkpt lat="53.392019" lon="-1.972863"><ele>302</ele><time>2023-03-31T13:17:38Z</time><name>PT3147</name></trkpt>
<trkpt lat="53.392061" lon="-1.972896"><ele>302</ele><time>2023-03-31T13:17:42Z</time><name>PT3148</name></trkpt>
<trkpt lat="53.392093" lon="-1.972910"><ele>301</ele><time>2023-03-31T13:17:45Z</time><name>PT3149</name></trkpt>
<trkpt lat="53.392132" lon="-1.972920"><ele>301</ele><time>2023-03-31T13:17:48Z</time><name>PT3150</name></trkpt>
<trkpt lat="53.392182" lon="-1.972930"><ele>301</ele><time>2023-03-31T13:17:51Z</time><name>PT3151</name></trkpt>
<trkpt lat="53.392220" lon="-1.972928"><ele>300</ele><time>2023-03-31T13:17:54Z</time><name>PT3152</name></trkpt>
<trkpt lat="53.392266" lon="-1.972917"><ele>300</ele><time>2023-03-31T13:17:59Z</time><name>PT3153</name></trkpt>
<trkpt lat="53.392298" lon="-1.972912"><ele>299</ele><time>2023-03-31T13:18:02Z</time><name>PT3154</name></trkpt>
<trkpt lat="53.392321" lon="-1.972913"><ele>298</ele><time>2023-03-31T13:18:05Z</time><name>PT3155</name></trkpt>
<trkpt lat="53.392360" lon="-1.972901"><ele>300</ele><time>2023-03-31T13:18:08Z</time><name>PT3156</name></trkpt>
<trkpt lat="53.392383" lon="-1.972896"><ele>300</ele><time>2023-03-31T13:18:11Z</time><name>PT3157</name></trkpt>
<trkpt lat="53.392406" lon="-1.972899"><ele>300</ele><time>2023-03-31T13:18:15Z</time><name>PT3158</name></trkpt>
<trkpt lat="53.392434" lon="-1.972883"><ele>300</ele><time>2023-03-31T13:18:18Z</time><name>PT3159</name></trkpt>
<trkpt lat="53.392466" lon="-1.972862"><ele>300</ele><time>2023-03-31T13:18:21Z</time><name>PT3160</name></trkpt>
<trkpt lat="53.392507" lon="-1.972836"><ele>301</ele><time>2023-03-31T13:18:26Z</time><name>PT3161</name></trkpt>
<trkpt lat="53.392543" lon="-1.972804"><ele>300</ele><time>2023-03-31T13:18:30Z</time><name>PT3162</name></trkpt>
<trkpt lat="53.392565" lon="-1.972779"><ele>299</ele><time>2023-03-31T13:18:33Z</time><name>PT3163</name></trkpt>
<trkpt lat="53.392596" lon="-1.972750"><ele>299</ele><time>2023-03-31T13:18:36Z</time><name>PT3164</name></trkpt>
<trkpt lat="53.392624" lon="-1.972732"><ele>299</ele><time>2023-03-31T13:18:39Z</time><name>PT3165</name></trkpt>
<trkpt lat="53.392657" lon="-1.972695"><ele>297</ele><time>2023-03-31T13:18:42Z</time><name>PT3166</name></trkpt>
<trkpt lat="53.392686" lon="-1.972669"><ele>296</ele><time>2023-03-31T13:18:45Z</time><name>PT3167</name></trkpt>
<trkpt lat="53.392724" lon="-1.972634"><ele>297</ele><time>2023-03-31T13:18:48Z</time><name>PT3168</name></trkpt>
<trkpt lat="53.392753" lon="-1.972595"><ele>295</ele><time>2023-03-31T13:18:53Z</time><name>PT3169</name></trkpt>
<trkpt lat="53.392783" lon="-1.972571"><ele>295</ele><time>2023-03-31T13:18:56Z</time><name>PT3170</name></trkpt>
<trkpt lat="53.392813" lon="-1.972550"><ele>294</ele><time>2023-03-31T13:18:59Z</time><name>PT3171</name></trkpt>
<trkpt lat="53.392844" lon="-1.972522"><ele>293</ele><time>2023-03-31T13:19:03Z</time><name>PT3172</name></trkpt>
<trkpt lat="53.392880" lon="-1.972500"><ele>291</ele><time>2023-03-31T13:19:06Z</time><name>PT3173</name></trkpt>
<trkpt lat="53.392920" lon="-1.972459"><ele>290</ele><time>2023-03-31T13:19:11Z</time><name>PT3174</name></trkpt>
<trkpt lat="53.392947" lon="-1.972413"><ele>290</ele><time>2023-03-31T13:19:14Z</time><name>PT3175</name></trkpt>
<trkpt lat="53.392979" lon="-1.972366"><ele>289</ele><time>2023-03-31T13:19:18Z</time><name>PT3176</name></trkpt>
<trkpt lat="53.393003" lon="-1.972328"><ele>288</ele><time>2023-03-31T13:19:21Z</time><name>PT3177</name></trkpt>
<trkpt lat="53.393042" lon="-1.972290"><ele>288</ele><time>2023-03-31T13:19:24Z</time><name>PT3178</name></trkpt>
<trkpt lat="53.393072" lon="-1.972268"><ele>288</ele><time>2023-03-31T13:19:27Z</time><name>PT3179</name></trkpt>
<trkpt lat="53.393117" lon="-1.972251"><ele>287</ele><time>2023-03-31T13:19:32Z</time><name>PT3180</name></trkpt>
<trkpt lat="53.393155" lon="-1.972248"><ele>287</ele><time>2023-03-31T13:19:35Z</time><name>PT3181</name></trkpt>
<trkpt lat="53.393202" lon="-1.972244"><ele>286</ele><time>2023-03-31T13:19:39Z</time><name>PT3182</name></trkpt>
<trkpt lat="53.393239" lon="-1.972240"><ele>285</ele><time>2023-03-31T13:19:42Z</time><name>PT3183</name></trkpt>
<trkpt lat="53.393287" lon="-1.972237"><ele>284</ele><time>2023-03-31T13:19:45Z</time><name>PT3184</name></trkpt>
<trkpt lat="53.393337" lon="-1.972227"><ele>284</ele><time>2023-03-31T13:19:50Z</time><name>PT3185</name></trkpt>
<trkpt lat="53.393376" lon="-1.972232"><ele>285</ele><time>2023-03-31T13:19:53Z</time><name>PT3186</name></trkpt>
<trkpt lat="53.393421" lon="-1.972225"><ele>283</ele><time>2023-03-31T13:19:57Z</time><name>PT3187</name></trkpt>
<trkpt lat="53.393460" lon="-1.972230"><ele>283</ele><time>2023-03-31T13:20:00Z</time><name>PT3188</name></trkpt>
<trkpt lat="53.393496" lon="-1.972237"><ele>283</ele><time>2023-03-31T13:20:03Z</time><name>PT3189</name></trkpt>
<trkpt lat="53.393533" lon="-1.972251"><ele>283</ele><time>2023-03-31T13:20:06Z</time><name>PT3190</name></trkpt>
<trkpt lat="53.393582" lon="-1.972281"><ele>283</ele><time>2023-03-31T13:20:09Z</time><name>PT3191</name></trkpt>
<trkpt lat="53.393617" lon="-1.972316"><ele>283</ele><time>2023-03-31T13:20:12Z</time><name>PT3192</name></trkpt>
<trkpt lat="53.393651" lon="-1.972365"><ele>283</ele><time>2023-03-31T13:20:15Z</time><name>PT3193</name></trkpt>
<trkpt lat="53.393686" lon="-1.972406"><ele>283</ele><time>2023-03-31T13:20:18Z</time><name>PT3194</name></trkpt>
<trkpt lat="53.393724" lon="-1.972472"><ele>283</ele><time>2023-03-31T13:20:23Z</time><name>PT3195</name></trkpt>
<trkpt lat="53.393760" lon="-1.972532"><ele>283</ele><time>2023-03-31T13:20:27Z</time><name>PT3196</name></trkpt>
<trkpt lat="53.393793" lon="-1.972608"><ele>283</ele><time>2023-03-31T13:20:30Z</time><name>PT3197</name></trkpt>
<trkpt lat="53.393811" lon="-1.972691"><ele>282</ele><time>2023-03-31T13:20:35Z</time><name>PT3198</name></trkpt>
<trkpt lat="53.393820" lon="-1.972748"><ele>282</ele><time>2023-03-31T13:20:38Z</time><name>PT3199</name></trkpt>
<trkpt lat="53.393825" lon="-1.972810"><ele>282</ele><time>2023-03-31T13:20:41Z</time><name>PT3200</name></trkpt>
<trkpt lat="53.393836" lon="-1.972868"><ele>282</ele><time>2023-03-31T13:20:44Z</time><name>PT3201</name></trkpt>
<trkpt lat="53.393865" lon="-1.972935"><ele>282</ele><time>2023-03-31T13:20:48Z</time><name>PT3202</name></trkpt>
<trkpt lat="53.393887" lon="-1.973015"><ele>282</ele><time>2023-03-31T13:20:51Z</time><name>PT3203</name></trkpt>
<trkpt lat="53.393897" lon="-1.973070"><ele>282</ele><time>2023-03-31T13:20:54Z</time><name>PT3204</name></trkpt>
<trkpt lat="53.393908" lon="-1.973130"><ele>282</ele><time>2023-03-31T13:20:57Z</time><name>PT3205</name></trkpt>
<trkpt lat="53.393917" lon="-1.973189"><ele>282</ele><time>2023-03-31T13:21:00Z</time><name>PT3206</name></trkpt>
<trkpt lat="53.393929" lon="-1.973267"><ele>282</ele><time>2023-03-31T13:21:05Z</time><name>PT3207</name></trkpt>
<trkpt lat="53.393939" lon="-1.973328"><ele>282</ele><time>2023-03-31T13:21:08Z</time><name>PT3208</name></trkpt>
<trkpt lat="53.393947" lon="-1.973386"><ele>281</ele><time>2023-03-31T13:21:11Z</time><name>PT3209</name></trkpt>
<trkpt lat="53.393957" lon="-1.973471"><ele>283</ele><time>2023-03-31T13:21:15Z</time><name>PT3210</name></trkpt>
<trkpt lat="53.393980" lon="-1.973544"><ele>283</ele><time>2023-03-31T13:21:18Z</time><name>PT3211</name></trkpt>
<trkpt lat="53.393993" lon="-1.973601"><ele>283</ele><time>2023-03-31T13:21:21Z</time><name>PT3212</name></trkpt>
<trkpt lat="53.394015" lon="-1.973674"><ele>283</ele><time>2023-03-31T13:21:26Z</time><name>PT3213</name></trkpt>
<trkpt lat="53.394034" lon="-1.973751"><ele>283</ele><time>2023-03-31T13:21:30Z</time><name>PT3214</name></trkpt>
<trkpt lat="53.394052" lon="-1.973797"><ele>283</ele><time>2023-03-31T13:21:33Z</time><name>PT3215</name></trkpt>
<trkpt lat="53.394077" lon="-1.973853"><ele>283</ele><time>2023-03-31T13:21:36Z</time><name>PT3216</name></trkpt>
<trkpt lat="53.394091" lon="-1.973921"><ele>283</ele><time>2023-03-31T13:21:39Z</time><name>PT3217</name></trkpt>
<trkpt lat="53.394100" lon="-1.973977"><ele>283</ele><time>2023-03-31T13:21:42Z</time><name>PT3218</name></trkpt>
<trkpt lat="53.394109" lon="-1.974040"><ele>282</ele><time>2023-03-31T13:21:45Z</time><name>PT3219</name></trkpt>
<trkpt lat="53.394128" lon="-1.974109"><ele>282</ele><time>2023-03-31T13:21:50Z</time><name>PT3220</name></trkpt>
<trkpt lat="53.394151" lon="-1.974185"><ele>282</ele><time>2023-03-31T13:21:54Z</time><name>PT3221</name></trkpt>
<trkpt lat="53.394169" lon="-1.974255"><ele>282</ele><time>2023-03-31T13:21:57Z</time><name>PT3222</name></trkpt>
<trkpt lat="53.394187" lon="-1.974318"><ele>283</ele><time>2023-03-31T13:22:00Z</time><name>PT3223</name></trkpt>
<trkpt lat="53.394212" lon="-1.974396"><ele>283</ele><time>2023-03-31T13:22:03Z</time><name>PT3224</name></trkpt>
<trkpt lat="53.394226" lon="-1.974453"><ele>283</ele><time>2023-03-31T13:22:06Z</time><name>PT3225</name></trkpt>
<trkpt lat="53.394244" lon="-1.974510"><ele>283</ele><time>2023-03-31T13:22:10Z</time><name>PT3226</name></trkpt>
<trkpt lat="53.394269" lon="-1.974583"><ele>283</ele><time>2023-03-31T13:22:14Z</time><name>PT3227</name></trkpt>
<trkpt lat="53.394288" lon="-1.974654"><ele>282</ele><time>2023-03-31T13:22:18Z</time><name>PT3228</name></trkpt>
<trkpt lat="53.394308" lon="-1.974713"><ele>282</ele><time>2023-03-31T13:22:21Z</time><name>PT3229</name></trkpt>
<trkpt lat="53.394329" lon="-1.974793"><ele>281</ele><time>2023-03-31T13:22:25Z</time><name>PT3230</name></trkpt>
<trkpt lat="53.394351" lon="-1.974868"><ele>281</ele><time>2023-03-31T13:22:29Z</time><name>PT3231</name></trkpt>
<trkpt lat="53.394381" lon="-1.974950"><ele>281</ele><time>2023-03-31T13:22:33Z</time><name>PT3232</name></trkpt>
<trkpt lat="53.394398" lon="-1.975009"><ele>281</ele><time>2023-03-31T13:22:36Z</time><name>PT3233</name></trkpt>
<trkpt lat="53.394415" lon="-1.975065"><ele>281</ele><time>2023-03-31T13:22:39Z</time><name>PT3234</name></trkpt>
<trkpt lat="53.394440" lon="-1.975139"><ele>281</ele><time>2023-03-31T13:22:42Z</time><name>PT3235</name></trkpt>
<trkpt lat="53.394461" lon="-1.975193"><ele>281</ele><time>2023-03-31T13:22:45Z</time><name>PT3236</name></trkpt>
<trkpt lat="53.394486" lon="-1.975266"><ele>280</ele><time>2023-03-31T13:22:50Z</time><name>PT3237</name></trkpt>
<trkpt lat="53.394507" lon="-1.975337"><ele>280</ele><time>2023-03-31T13:22:54Z</time><name>PT3238</name></trkpt>
<trkpt lat="53.394533" lon="-1.975403"><ele>280</ele><time>2023-03-31T13:22:57Z</time><name>PT3239</name></trkpt>
<trkpt lat="53.394546" lon="-1.975450"><ele>278</ele><time>2023-03-31T13:23:00Z</time><name>PT3240</name></trkpt>
<trkpt lat="53.394567" lon="-1.975509"><ele>278</ele><time>2023-03-31T13:23:03Z</time><name>PT3241</name></trkpt>
<trkpt lat="53.394580" lon="-1.975560"><ele>278</ele><time>2023-03-31T13:23:06Z</time><name>PT3242</name></trkpt>
<trkpt lat="53.394600" lon="-1.975635"><ele>277</ele><time>2023-03-31T13:23:11Z</time><name>PT3243</name></trkpt>
<trkpt lat="53.394623" lon="-1.975707"><ele>277</ele><time>2023-03-31T13:23:15Z</time><name>PT3244</name></trkpt>
<trkpt lat="53.394640" lon="-1.975776"><ele>276</ele><time>2023-03-31T13:23:18Z</time><name>PT3245</name></trkpt>
<trkpt lat="53.394656" lon="-1.975839"><ele>275</ele><time>2023-03-31T13:23:23Z</time><name>PT3246</name></trkpt>
<trkpt lat="53.394673" lon="-1.975898"><ele>275</ele><time>2023-03-31T13:23:26Z</time><name>PT3247</name></trkpt>
<trkpt lat="53.394692" lon="-1.975961"><ele>275</ele><time>2023-03-31T13:23:29Z</time><name>PT3248</name></trkpt>
<trkpt lat="53.394713" lon="-1.976026"><ele>275</ele><time>2023-03-31T13:23:33Z</time><name>PT3249</name></trkpt>
<trkpt lat="53.394730" lon="-1.976092"><ele>274</ele><time>2023-03-31T13:23:36Z</time><name>PT3250</name></trkpt>
<trkpt lat="53.394759" lon="-1.976161"><ele>274</ele><time>2023-03-31T13:23:41Z</time><name>PT3251</name></trkpt>
<trkpt lat="53.394777" lon="-1.976231"><ele>273</ele><time>2023-03-31T13:23:45Z</time><name>PT3252</name></trkpt>
<trkpt lat="53.394799" lon="-1.976288"><ele>273</ele><time>2023-03-31T13:23:48Z</time><name>PT3253</name></trkpt>
<trkpt lat="53.394820" lon="-1.976360"><ele>273</ele><time>2023-03-31T13:23:51Z</time><name>PT3254</name></trkpt>
<trkpt lat="53.394830" lon="-1.976407"><ele>272</ele><time>2023-03-31T13:23:54Z</time><name>PT3255</name></trkpt>
<trkpt lat="53.394854" lon="-1.976477"><ele>271</ele><time>2023-03-31T13:23:59Z</time><name>PT3256</name></trkpt>
<trkpt lat="53.394875" lon="-1.976543"><ele>271</ele><time>2023-03-31T13:24:03Z</time><name>PT3257</name></trkpt>
<trkpt lat="53.394890" lon="-1.976590"><ele>270</ele><time>2023-03-31T13:24:06Z</time><name>PT3258</name></trkpt>
<trkpt lat="53.394906" lon="-1.976644"><ele>269</ele><time>2023-03-31T13:24:09Z</time><name>PT3259</name></trkpt>
<trkpt lat="53.394924" lon="-1.976715"><ele>268</ele><time>2023-03-31T13:24:14Z</time><name>PT3260</name></trkpt>
<trkpt lat="53.394943" lon="-1.976762"><ele>269</ele><time>2023-03-31T13:24:17Z</time><name>PT3261</name></trkpt>
<trkpt lat="53.394959" lon="-1.976816"><ele>268</ele><time>2023-03-31T13:24:20Z</time><name>PT3262</name></trkpt>
<trkpt lat="53.394975" lon="-1.976872"><ele>268</ele><time>2023-03-31T13:24:23Z</time><name>PT3263</name></trkpt>
<trkpt lat="53.394995" lon="-1.976933"><ele>268</ele><time>2023-03-31T13:24:27Z</time><name>PT3264</name></trkpt>
<trkpt lat="53.395009" lon="-1.976989"><ele>268</ele><time>2023-03-31T13:24:30Z</time><name>PT3265</name></trkpt>
<trkpt lat="53.395026" lon="-1.977048"><ele>267</ele><time>2023-03-31T13:24:33Z</time><name>PT3266</name></trkpt>
<trkpt lat="53.395044" lon="-1.977121"><ele>266</ele><time>2023-03-31T13:24:38Z</time><name>PT3267</name></trkpt>
<trkpt lat="53.395060" lon="-1.977181"><ele>266</ele><time>2023-03-31T13:24:42Z</time><name>PT3268</name></trkpt>
<trkpt lat="53.395071" lon="-1.977226"><ele>265</ele><time>2023-03-31T13:24:45Z</time><name>PT3269</name></trkpt>
<trkpt lat="53.395091" lon="-1.977284"><ele>265</ele><time>2023-03-31T13:24:48Z</time><name>PT3270</name></trkpt>
<trkpt lat="53.395109" lon="-1.977351"><ele>265</ele><time>2023-03-31T13:24:53Z</time><name>PT3271</name></trkpt>
<trkpt lat="53.395124" lon="-1.977389"><ele>265</ele><time>2023-03-31T13:24:56Z</time><name>PT3272</name></trkpt>
<trkpt lat="53.395147" lon="-1.977456"><ele>265</ele><time>2023-03-31T13:25:00Z</time><name>PT3273</name></trkpt>
<trkpt lat="53.395163" lon="-1.977506"><ele>264</ele><time>2023-03-31T13:25:03Z</time><name>PT3274</name></trkpt>
<trkpt lat="53.395174" lon="-1.977553"><ele>263</ele><time>2023-03-31T13:25:06Z</time><name>PT3275</name></trkpt>
<trkpt lat="53.395194" lon="-1.977616"><ele>262</ele><time>2023-03-31T13:25:11Z</time><name>PT3276</name></trkpt>
<trkpt lat="53.395210" lon="-1.977666"><ele>262</ele><time>2023-03-31T13:25:14Z</time><name>PT3277</name></trkpt>
<trkpt lat="53.395230" lon="-1.977731"><ele>262</ele><time>2023-03-31T13:25:18Z</time><name>PT3278</name></trkpt>
<trkpt lat="53.395240" lon="-1.977773"><ele>261</ele><time>2023-03-31T13:25:21Z</time><name>PT3279</name></trkpt>
<trkpt lat="53.395253" lon="-1.977833"><ele>261</ele><time>2023-03-31T13:25:24Z</time><name>PT3280</name></trkpt>
<trkpt lat="53.395261" lon="-1.977886"><ele>261</ele><time>2023-03-31T13:25:27Z</time><name>PT3281</name></trkpt>
<trkpt lat="53.395266" lon="-1.977934"><ele>260</ele><time>2023-03-31T13:25:32Z</time><name>PT3282</name></trkpt>
<trkpt lat="53.395275" lon="-1.978003"><ele>259</ele><time>2023-03-31T13:25:36Z</time><name>PT3283</name></trkpt>
<trkpt lat="53.395280" lon="-1.978061"><ele>258</ele><time>2023-03-31T13:25:39Z</time><name>PT3284</name></trkpt>
<trkpt lat="53.395289" lon="-1.978108"><ele>257</ele><time>2023-03-31T13:25:42Z</time><name>PT3285</name></trkpt>
<trkpt lat="53.395298" lon="-1.978169"><ele>256</ele><time>2023-03-31T13:25:45Z</time><name>PT3286</name></trkpt>
<trkpt lat="53.395301" lon="-1.978214"><ele>255</ele><time>2023-03-31T13:25:48Z</time><name>PT3287</name></trkpt>
<trkpt lat="53.395304" lon="-1.978257"><ele>255</ele><time>2023-03-31T13:25:51Z</time><name>PT3288</name></trkpt>
<trkpt lat="53.395307" lon="-1.978323"><ele>254</ele><time>2023-03-31T13:25:56Z</time><name>PT3289</name></trkpt>
<trkpt lat="53.395310" lon="-1.978370"><ele>254</ele><time>2023-03-31T13:25:59Z</time><name>PT3290</name></trkpt>
<trkpt lat="53.395312" lon="-1.978426"><ele>253</ele><time>2023-03-31T13:26:03Z</time><name>PT3291</name></trkpt>
<trkpt lat="53.395318" lon="-1.978457"><ele>253</ele><time>2023-03-31T13:26:06Z</time><name>PT3292</name></trkpt>
<trkpt lat="53.395317" lon="-1.978502"><ele>252</ele><time>2023-03-31T13:26:09Z</time><name>PT3293</name></trkpt>
<trkpt lat="53.395313" lon="-1.978534"><ele>251</ele><time>2023-03-31T13:26:12Z</time><name>PT3294</name></trkpt>
<trkpt lat="53.395313" lon="-1.978552"><ele>251</ele><time>2023-03-31T13:26:15Z</time><name>PT3295</name></trkpt>
<trkpt lat="53.395309" lon="-1.978587"><ele>249</ele><time>2023-03-31T13:26:18Z</time><name>PT3296</name></trkpt>
<trkpt lat="53.395309" lon="-1.978642"><ele>247</ele><time>2023-03-31T13:26:23Z</time><name>PT3297</name></trkpt>
<trkpt lat="53.395307" lon="-1.978688"><ele>246</ele><time>2023-03-31T13:26:26Z</time><name>PT3298</name></trkpt>
<trkpt lat="53.395312" lon="-1.978739"><ele>243</ele><time>2023-03-31T13:26:30Z</time><name>PT3299</name></trkpt>
<trkpt lat="53.395314" lon="-1.978776"><ele>243</ele><time>2023-03-31T13:26:33Z</time><name>PT3300</name></trkpt>
<trkpt lat="53.395312" lon="-1.978834"><ele>242</ele><time>2023-03-31T13:26:36Z</time><name>PT3301</name></trkpt>
<trkpt lat="53.395318" lon="-1.978860"><ele>241</ele><time>2023-03-31T13:26:39Z</time><name>PT3302</name></trkpt>
<trkpt lat="53.395317" lon="-1.978917"><ele>238</ele><time>2023-03-31T13:26:42Z</time><name>PT3303</name></trkpt>
<trkpt lat="53.395327" lon="-1.978950"><ele>237</ele><time>2023-03-31T13:26:45Z</time><name>PT3304</name></trkpt>
<trkpt lat="53.395331" lon="-1.979015"><ele>234</ele><time>2023-03-31T13:26:50Z</time><name>PT3305</name></trkpt>
<trkpt lat="53.395343" lon="-1.979073"><ele>233</ele><time>2023-03-31T13:26:54Z</time><name>PT3306</name></trkpt>
<trkpt lat="53.395345" lon="-1.979117"><ele>232</ele><time>2023-03-31T13:26:57Z</time><name>PT3307</name></trkpt>
<trkpt lat="53.395351" lon="-1.979145"><ele>230</ele><time>2023-03-31T13:27:00Z</time><name>PT3308</name></trkpt>
<trkpt lat="53.395371" lon="-1.979186"><ele>229</ele><time>2023-03-31T13:27:05Z</time><name>PT3309</name></trkpt>
<trkpt lat="53.395389" lon="-1.979201"><ele>227</ele><time>2023-03-31T13:27:08Z</time><name>PT3310</name></trkpt>
<trkpt lat="53.395408" lon="-1.979222"><ele>226</ele><time>2023-03-31T13:27:11Z</time><name>PT3311</name></trkpt>
<trkpt lat="53.395451" lon="-1.979261"><ele>226</ele><time>2023-03-31T13:27:15Z</time><name>PT3312</name></trkpt>
<trkpt lat="53.395482" lon="-1.979294"><ele>227</ele><time>2023-03-31T13:27:18Z</time><name>PT3313</name></trkpt>
<trkpt lat="53.395511" lon="-1.979324"><ele>225</ele><time>2023-03-31T13:27:23Z</time><name>PT3314</name></trkpt>
<trkpt lat="53.395540" lon="-1.979343"><ele>225</ele><time>2023-03-31T13:27:26Z</time><name>PT3315</name></trkpt>
<trkpt lat="53.395571" lon="-1.979370"><ele>225</ele><time>2023-03-31T13:27:30Z</time><name>PT3316</name></trkpt>
<trkpt lat="53.395594" lon="-1.979388"><ele>224</ele><time>2023-03-31T13:27:33Z</time><name>PT3317</name></trkpt>
<trkpt lat="53.395615" lon="-1.979420"><ele>223</ele><time>2023-03-31T13:27:36Z</time><name>PT3318</name></trkpt>
<trkpt lat="53.395665" lon="-1.979481"><ele>226</ele><time>2023-03-31T13:27:39Z</time><name>PT3319</name></trkpt>
<trkpt lat="53.395720" lon="-1.979542"><ele>228</ele><time>2023-03-31T13:27:42Z</time><name>PT3320</name></trkpt>
<trkpt lat="53.395791" lon="-1.979606"><ele>232</ele><time>2023-03-31T13:27:47Z</time><name>PT3321</name></trkpt>
<trkpt lat="53.395825" lon="-1.979649"><ele>233</ele><time>2023-03-31T13:27:50Z</time><name>PT3322</name></trkpt>
<trkpt lat="53.395850" lon="-1.979687"><ele>232</ele><time>2023-03-31T13:27:53Z</time><name>PT3323</name></trkpt>
<trkpt lat="53.395877" lon="-1.979746"><ele>232</ele><time>2023-03-31T13:27:57Z</time><name>PT3324</name></trkpt>
<trkpt lat="53.395914" lon="-1.979799"><ele>231</ele><time>2023-03-31T13:28:00Z</time><name>PT3325</name></trkpt>
<trkpt lat="53.395942" lon="-1.979837"><ele>231</ele><time>2023-03-31T13:28:03Z</time><name>PT3326</name></trkpt>
<trkpt lat="53.395968" lon="-1.979901"><ele>230</ele><time>2023-03-31T13:28:08Z</time><name>PT3327</name></trkpt>
<trkpt lat="53.395988" lon="-1.979944"><ele>230</ele><time>2023-03-31T13:28:11Z</time><name>PT3328</name></trkpt>
<trkpt lat="53.396027" lon="-1.980005"><ele>231</ele><time>2023-03-31T13:28:15Z</time><name>PT3329</name></trkpt>
<trkpt lat="53.396055" lon="-1.980062"><ele>231</ele><time>2023-03-31T13:28:18Z</time><name>PT3330</name></trkpt>
<trkpt lat="53.396088" lon="-1.980140"><ele>231</ele><time>2023-03-31T13:28:21Z</time><name>PT3331</name></trkpt>
<trkpt lat="53.396113" lon="-1.980193"><ele>230</ele><time>2023-03-31T13:28:24Z</time><name>PT3332</name></trkpt>
<trkpt lat="53.396138" lon="-1.980263"><ele>229</ele><time>2023-03-31T13:28:29Z</time><name>PT3333</name></trkpt>
<trkpt lat="53.396165" lon="-1.980334"><ele>229</ele><time>2023-03-31T13:28:33Z</time><name>PT3334</name></trkpt>
<trkpt lat="53.396184" lon="-1.980385"><ele>229</ele><time>2023-03-31T13:28:36Z</time><name>PT3335</name></trkpt>
<trkpt lat="53.396203" lon="-1.980462"><ele>228</ele><time>2023-03-31T13:28:39Z</time><name>PT3336</name></trkpt>
<trkpt lat="53.396220" lon="-1.980520"><ele>229</ele><time>2023-03-31T13:28:43Z</time><name>PT3337</name></trkpt>
<trkpt lat="53.396242" lon="-1.980592"><ele>229</ele><time>2023-03-31T13:28:47Z</time><name>PT3338</name></trkpt>
<trkpt lat="53.396259" lon="-1.980685"><ele>229</ele><time>2023-03-31T13:28:51Z</time><name>PT3339</name></trkpt>
<trkpt lat="53.396261" lon="-1.980735"><ele>229</ele><time>2023-03-31T13:28:54Z</time><name>PT3340</name></trkpt>
<trkpt lat="53.396259" lon="-1.980788"><ele>229</ele><time>2023-03-31T13:28:57Z</time><name>PT3341</name></trkpt>
<trkpt lat="53.396249" lon="-1.980865"><ele>229</ele><time>2023-03-31T13:29:00Z</time><name>PT3342</name></trkpt>
<trkpt lat="53.396238" lon="-1.980947"><ele>227</ele><time>2023-03-31T13:29:05Z</time><name>PT3343</name></trkpt>
<trkpt lat="53.396238" lon="-1.981005"><ele>227</ele><time>2023-03-31T13:29:08Z</time><name>PT3344</name></trkpt>
<trkpt lat="53.396225" lon="-1.981084"><ele>224</ele><time>2023-03-31T13:29:12Z</time><name>PT3345</name></trkpt>
<trkpt lat="53.396225" lon="-1.981162"><ele>224</ele><time>2023-03-31T13:29:15Z</time><name>PT3346</name></trkpt>
<trkpt lat="53.396222" lon="-1.981250"><ele>223</ele><time>2023-03-31T13:29:19Z</time><name>PT3347</name></trkpt>
<trkpt lat="53.396217" lon="-1.981317"><ele>223</ele><time>2023-03-31T13:29:22Z</time><name>PT3348</name></trkpt>
<trkpt lat="53.396218" lon="-1.981383"><ele>223</ele><time>2023-03-31T13:29:25Z</time><name>PT3349</name></trkpt>
<trkpt lat="53.396217" lon="-1.981471"><ele>223</ele><time>2023-03-31T13:29:29Z</time><name>PT3350</name></trkpt>
<trkpt lat="53.396228" lon="-1.981558"><ele>224</ele><time>2023-03-31T13:29:33Z</time><name>PT3351</name></trkpt>
<trkpt lat="53.396232" lon="-1.981645"><ele>223</ele><time>2023-03-31T13:29:36Z</time><name>PT3352</name></trkpt>
<trkpt lat="53.396240" lon="-1.981713"><ele>223</ele><time>2023-03-31T13:29:39Z</time><name>PT3353</name></trkpt>
<trkpt lat="53.396252" lon="-1.981799"><ele>223</ele><time>2023-03-31T13:29:44Z</time><name>PT3354</name></trkpt>
<trkpt lat="53.396261" lon="-1.981862"><ele>222</ele><time>2023-03-31T13:29:47Z</time><name>PT3355</name></trkpt>
<trkpt lat="53.396278" lon="-1.981945"><ele>222</ele><time>2023-03-31T13:29:51Z</time><name>PT3356</name></trkpt>
<trkpt lat="53.396292" lon="-1.982035"><ele>222</ele><time>2023-03-31T13:29:54Z</time><name>PT3357</name></trkpt>
<trkpt lat="53.396307" lon="-1.982126"><ele>221</ele><time>2023-03-31T13:29:59Z</time><name>PT3358</name></trkpt>
<trkpt lat="53.396321" lon="-1.982212"><ele>221</ele><time>2023-03-31T13:30:03Z</time><name>PT3359</name></trkpt>
<trkpt lat="53.396339" lon="-1.982279"><ele>221</ele><time>2023-03-31T13:30:06Z</time><name>PT3360</name></trkpt>
<trkpt lat="53.396354" lon="-1.982345"><ele>220</ele><time>2023-03-31T13:30:09Z</time><name>PT3361</name></trkpt>
<trkpt lat="53.396364" lon="-1.982400"><ele>220</ele><time>2023-03-31T13:30:12Z</time><name>PT3362</name></trkpt>
<trkpt lat="53.396381" lon="-1.982470"><ele>218</ele><time>2023-03-31T13:30:15Z</time><name>PT3363</name></trkpt>
<trkpt lat="53.396395" lon="-1.982536"><ele>217</ele><time>2023-03-31T13:30:18Z</time><name>PT3364</name></trkpt>
<trkpt lat="53.396412" lon="-1.982621"><ele>216</ele><time>2023-03-31T13:30:23Z</time><name>PT3365</name></trkpt>
<trkpt lat="53.396428" lon="-1.982709"><ele>216</ele><time>2023-03-31T13:30:27Z</time><name>PT3366</name></trkpt>
<trkpt lat="53.396445" lon="-1.982775"><ele>216</ele><time>2023-03-31T13:30:30Z</time><name>PT3367</name></trkpt>
<trkpt lat="53.396461" lon="-1.982840"><ele>216</ele><time>2023-03-31T13:30:33Z</time><name>PT3368</name></trkpt>
<trkpt lat="53.396476" lon="-1.982899"><ele>216</ele><time>2023-03-31T13:30:36Z</time><name>PT3369</name></trkpt>
<trkpt lat="53.396497" lon="-1.982982"><ele>215</ele><time>2023-03-31T13:30:39Z</time><name>PT3370</name></trkpt>
<trkpt lat="53.396513" lon="-1.983050"><ele>216</ele><time>2023-03-31T13:30:42Z</time><name>PT3371</name></trkpt>
<trkpt lat="53.396535" lon="-1.983134"><ele>216</ele><time>2023-03-31T13:30:47Z</time><name>PT3372</name></trkpt>
<trkpt lat="53.396553" lon="-1.983220"><ele>216</ele><time>2023-03-31T13:30:51Z</time><name>PT3373</name></trkpt>
<trkpt lat="53.396572" lon="-1.983304"><ele>216</ele><time>2023-03-31T13:30:54Z</time><name>PT3374</name></trkpt>
<trkpt lat="53.396593" lon="-1.983374"><ele>216</ele><time>2023-03-31T13:30:58Z</time><name>PT3375</name></trkpt>
<trkpt lat="53.396615" lon="-1.983472"><ele>216</ele><time>2023-03-31T13:31:02Z</time><name>PT3376</name></trkpt>
<trkpt lat="53.396636" lon="-1.983567"><ele>216</ele><time>2023-03-31T13:31:06Z</time><name>PT3377</name></trkpt>
<trkpt lat="53.396650" lon="-1.983632"><ele>215</ele><time>2023-03-31T13:31:09Z</time><name>PT3378</name></trkpt>
<trkpt lat="53.396663" lon="-1.983690"><ele>215</ele><time>2023-03-31T13:31:12Z</time><name>PT3379</name></trkpt>
<trkpt lat="53.396681" lon="-1.983773"><ele>215</ele><time>2023-03-31T13:31:15Z</time><name>PT3380</name></trkpt>
<trkpt lat="53.396689" lon="-1.983834"><ele>214</ele><time>2023-03-31T13:31:18Z</time><name>PT3381</name></trkpt>
<trkpt lat="53.396702" lon="-1.983907"><ele>213</ele><time>2023-03-31T13:31:23Z</time><name>PT3382</name></trkpt>
<trkpt lat="53.396717" lon="-1.983995"><ele>213</ele><time>2023-03-31T13:31:27Z</time><name>PT3383</name></trkpt>
<trkpt lat="53.396727" lon="-1.984086"><ele>212</ele><time>2023-03-31T13:31:30Z</time><name>PT3384</name></trkpt>
<trkpt lat="53.396744" lon="-1.984186"><ele>212</ele><time>2023-03-31T13:31:35Z</time><name>PT3385</name></trkpt>
<trkpt lat="53.396756" lon="-1.984260"><ele>212</ele><time>2023-03-31T13:31:38Z</time><name>PT3386</name></trkpt>
<trkpt lat="53.396767" lon="-1.984345"><ele>212</ele><time>2023-03-31T13:31:42Z</time><name>PT3387</name></trkpt>
<trkpt lat="53.396775" lon="-1.984405"><ele>212</ele><time>2023-03-31T13:31:45Z</time><name>PT3388</name></trkpt>
<trkpt lat="53.396781" lon="-1.984491"><ele>211</ele><time>2023-03-31T13:31:48Z</time><name>PT3389</name></trkpt>
<trkpt lat="53.396792" lon="-1.984581"><ele>211</ele><time>2023-03-31T13:31:53Z</time><name>PT3390</name></trkpt>
<trkpt lat="53.396809" lon="-1.984642"><ele>211</ele><time>2023-03-31T13:31:56Z</time><name>PT3391</name></trkpt>
<trkpt lat="53.396821" lon="-1.984701"><ele>211</ele><time>2023-03-31T13:31:59Z</time><name>PT3392</name></trkpt>
<trkpt lat="53.396840" lon="-1.984778"><ele>210</ele><time>2023-03-31T13:32:03Z</time><name>PT3393</name></trkpt>
<trkpt lat="53.396856" lon="-1.984824"><ele>209</ele><time>2023-03-31T13:32:06Z</time><name>PT3394</name></trkpt>
<trkpt lat="53.396883" lon="-1.984890"><ele>209</ele><time>2023-03-31T13:32:09Z</time><name>PT3395</name></trkpt>
<trkpt lat="53.396917" lon="-1.984956"><ele>209</ele><time>2023-03-31T13:32:14Z</time><name>PT3396</name></trkpt>
<trkpt lat="53.396941" lon="-1.984999"><ele>208</ele><time>2023-03-31T13:32:17Z</time><name>PT3397</name></trkpt>
<trkpt lat="53.396978" lon="-1.985051"><ele>207</ele><time>2023-03-31T13:32:21Z</time><name>PT3398</name></trkpt>
<trkpt lat="53.397009" lon="-1.985080"><ele>207</ele><time>2023-03-31T13:32:24Z</time><name>PT3399</name></trkpt>
<trkpt lat="53.397047" lon="-1.985119"><ele>207</ele><time>2023-03-31T13:32:28Z</time><name>PT3400</name></trkpt>
<trkpt lat="53.397087" lon="-1.985140"><ele>204</ele><time>2023-03-31T13:32:32Z</time><name>PT3401</name></trkpt>
<trkpt lat="53.397109" lon="-1.985144"><ele>203</ele><time>2023-03-31T13:32:35Z</time><name>PT3402</name></trkpt>
<trkpt lat="53.397146" lon="-1.985151"><ele>201</ele><time>2023-03-31T13:32:39Z</time><name>PT3403</name></trkpt>
<trkpt lat="53.397197" lon="-1.985163"><ele>201</ele><time>2023-03-31T13:32:42Z</time><name>PT3404</name></trkpt>
<trkpt lat="53.397241" lon="-1.985167"><ele>199</ele><time>2023-03-31T13:32:45Z</time><name>PT3405</name></trkpt>
<trkpt lat="53.397284" lon="-1.985172"><ele>199</ele><time>2023-03-31T13:32:48Z</time><name>PT3406</name></trkpt>
<trkpt lat="53.397386" lon="-1.985177"><ele>204</ele><time>2023-03-31T13:32:53Z</time><name>PT3407</name></trkpt>
<trkpt lat="53.397437" lon="-1.985171"><ele>205</ele><time>2023-03-31T13:32:56Z</time><name>PT3408</name></trkpt>
<trkpt lat="53.397483" lon="-1.985167"><ele>206</ele><time>2023-03-31T13:32:59Z</time><name>PT3409</name></trkpt>
<trkpt lat="53.397535" lon="-1.985152"><ele>206</ele><time>2023-03-31T13:33:03Z</time><name>PT3410</name></trkpt>
<trkpt lat="53.397584" lon="-1.985125"><ele>206</ele><time>2023-03-31T13:33:06Z</time><name>PT3411</name></trkpt>
<trkpt lat="53.397628" lon="-1.985101"><ele>206</ele><time>2023-03-31T13:33:11Z</time><name>PT3412</name></trkpt>
<trkpt lat="53.397669" lon="-1.985076"><ele>206</ele><time>2023-03-31T13:33:15Z</time><name>PT3413</name></trkpt>
<trkpt lat="53.397679" lon="-1.985079"><ele>207</ele><time>2023-03-31T13:33:18Z</time><name>PT3414</name></trkpt>
<trkpt lat="53.397681" lon="-1.985074"><ele>207</ele><time>2023-03-31T13:33:21Z</time><name>PT3415</name></trkpt>
<trkpt lat="53.397682" lon="-1.985076"><ele>207</ele><time>2023-03-31T13:33:24Z</time><name>PT3416</name></trkpt>
<trkpt lat="53.397686" lon="-1.985076"><ele>207</ele><time>2023-03-31T13:33:56Z</time><name>PT3417</name></trkpt>
<trkpt lat="53.397703" lon="-1.985080"><ele>206</ele><time>2023-03-31T13:34:00Z</time><name>PT3418</name></trkpt>
<trkpt lat="53.397739" lon="-1.985047"><ele>206</ele><time>2023-03-31T13:34:04Z</time><name>PT3419</name></trkpt>
<trkpt lat="53.397776" lon="-1.985007"><ele>206</ele><time>2023-03-31T13:34:08Z</time><name>PT3420</name></trkpt>
<trkpt lat="53.397808" lon="-1.984971"><ele>206</ele><time>2023-03-31T13:34:11Z</time><name>PT3421</name></trkpt>
<trkpt lat="53.397855" lon="-1.984937"><ele>207</ele><time>2023-03-31T13:34:15Z</time><name>PT3422</name></trkpt>
<trkpt lat="53.397894" lon="-1.984897"><ele>208</ele><time>2023-03-31T13:34:18Z</time><name>PT3423</name></trkpt>
<trkpt lat="53.397921" lon="-1.984861"><ele>208</ele><time>2023-03-31T13:34:23Z</time><name>PT3424</name></trkpt>
<trkpt lat="53.397945" lon="-1.984805"><ele>208</ele><time>2023-03-31T13:34:27Z</time><name>PT3425</name></trkpt>
<trkpt lat="53.397946" lon="-1.984756"><ele>209</ele><time>2023-03-31T13:34:30Z</time><name>PT3426</name></trkpt>
<trkpt lat="53.397966" lon="-1.984715"><ele>209</ele><time>2023-03-31T13:34:33Z</time><name>PT3427</name></trkpt>
<trkpt lat="53.397986" lon="-1.984664"><ele>209</ele><time>2023-03-31T13:34:36Z</time><name>PT3428</name></trkpt>
<trkpt lat="53.398002" lon="-1.984627"><ele>208</ele><time>2023-03-31T13:34:39Z</time><name>PT3429</name></trkpt>
<trkpt lat="53.398025" lon="-1.984583"><ele>207</ele><time>2023-03-31T13:34:42Z</time><name>PT3430</name></trkpt>
<trkpt lat="53.398056" lon="-1.984513"><ele>207</ele><time>2023-03-31T13:34:47Z</time><name>PT3431</name></trkpt>
<trkpt lat="53.398082" lon="-1.984446"><ele>206</ele><time>2023-03-31T13:34:51Z</time><name>PT3432</name></trkpt>
<trkpt lat="53.398100" lon="-1.984402"><ele>205</ele><time>2023-03-31T13:34:54Z</time><name>PT3433</name></trkpt>
<trkpt lat="53.398134" lon="-1.984343"><ele>205</ele><time>2023-03-31T13:34:57Z</time><name>PT3434</name></trkpt>
<trkpt lat="53.398153" lon="-1.984293"><ele>205</ele><time>2023-03-31T13:35:00Z</time><name>PT3435</name></trkpt>
<trkpt lat="53.398157" lon="-1.984269"><ele>204</ele><time>2023-03-31T13:35:03Z</time><name>PT3436</name></trkpt>
<trkpt lat="53.398159" lon="-1.984264"><ele>204</ele><time>2023-03-31T13:35:08Z</time><name>PT3437</name></trkpt>
<trkpt lat="53.398154" lon="-1.984243"><ele>204</ele><time>2023-03-31T13:35:11Z</time><name>PT3438</name></trkpt>
<trkpt lat="53.398161" lon="-1.984232"><ele>203</ele><time>2023-03-31T13:35:14Z</time><name>PT3439</name></trkpt>
<trkpt lat="53.398182" lon="-1.984195"><ele>201</ele><time>2023-03-31T13:35:18Z</time><name>PT3440</name></trkpt>
<trkpt lat="53.398201" lon="-1.984150"><ele>201</ele><time>2023-03-31T13:35:21Z</time><name>PT3441</name></trkpt>
<trkpt lat="53.398202" lon="-1.984131"><ele>201</ele><time>2023-03-31T13:35:24Z</time><name>PT3442</name></trkpt>
<trkpt lat="53.398206" lon="-1.984097"><ele>200</ele><time>2023-03-31T13:35:27Z</time><name>PT3443</name></trkpt>
<trkpt lat="53.398245" lon="-1.984027"><ele>199</ele><time>2023-03-31T13:35:30Z</time><name>PT3444</name></trkpt>
<trkpt lat="53.398268" lon="-1.983938"><ele>200</ele><time>2023-03-31T13:35:35Z</time><name>PT3445</name></trkpt>
<trkpt lat="53.398294" lon="-1.983879"><ele>199</ele><time>2023-03-31T13:35:39Z</time><name>PT3446</name></trkpt>
<trkpt lat="53.398328" lon="-1.983840"><ele>197</ele><time>2023-03-31T13:35:42Z</time><name>PT3447</name></trkpt>
<trkpt lat="53.398351" lon="-1.983803"><ele>196</ele><time>2023-03-31T13:35:45Z</time><name>PT3448</name></trkpt>
<trkpt lat="53.398376" lon="-1.983766"><ele>194</ele><time>2023-03-31T13:35:48Z</time><name>PT3449</name></trkpt>
<trkpt lat="53.398403" lon="-1.983691"><ele>194</ele><time>2023-03-31T13:35:53Z</time><name>PT3450</name></trkpt>
<trkpt lat="53.398423" lon="-1.983638"><ele>195</ele><time>2023-03-31T13:35:56Z</time><name>PT3451</name></trkpt>
<trkpt lat="53.398457" lon="-1.983589"><ele>194</ele><time>2023-03-31T13:36:00Z</time><name>PT3452</name></trkpt>
<trkpt lat="53.398483" lon="-1.983511"><ele>195</ele><time>2023-03-31T13:36:03Z</time><name>PT3453</name></trkpt>
<trkpt lat="53.398519" lon="-1.983459"><ele>197</ele><time>2023-03-31T13:36:06Z</time><name>PT3454</name></trkpt>
<trkpt lat="53.398545" lon="-1.983413"><ele>199</ele><time>2023-03-31T13:36:09Z</time><name>PT3455</name></trkpt>
<trkpt lat="53.398572" lon="-1.983390"><ele>198</ele><time>2023-03-31T13:36:12Z</time><name>PT3456</name></trkpt>
<trkpt lat="53.398597" lon="-1.983375"><ele>198</ele><time>2023-03-31T13:36:15Z</time><name>PT3457</name></trkpt>
<trkpt lat="53.398628" lon="-1.983339"><ele>198</ele><time>2023-03-31T13:36:20Z</time><name>PT3458</name></trkpt>
<trkpt lat="53.398658" lon="-1.983285"><ele>199</ele><time>2023-03-31T13:36:24Z</time><name>PT3459</name></trkpt>
<trkpt lat="53.398675" lon="-1.983248"><ele>199</ele><time>2023-03-31T13:36:27Z</time><name>PT3460</name></trkpt>
<trkpt lat="53.398696" lon="-1.983204"><ele>199</ele><time>2023-03-31T13:36:30Z</time><name>PT3461</name></trkpt>
<trkpt lat="53.398720" lon="-1.983172"><ele>199</ele><time>2023-03-31T13:36:33Z</time><name>PT3462</name></trkpt>
<trkpt lat="53.398735" lon="-1.983141"><ele>200</ele><time>2023-03-31T13:36:36Z</time><name>PT3463</name></trkpt>
<trkpt lat="53.398750" lon="-1.983096"><ele>201</ele><time>2023-03-31T13:36:39Z</time><name>PT3464</name></trkpt>
<trkpt lat="53.398776" lon="-1.983041"><ele>201</ele><time>2023-03-31T13:36:44Z</time><name>PT3465</name></trkpt>
<trkpt lat="53.398790" lon="-1.982985"><ele>202</ele><time>2023-03-31T13:36:47Z</time><name>PT3466</name></trkpt>
<trkpt lat="53.398814" lon="-1.982932"><ele>202</ele><time>2023-03-31T13:36:51Z</time><name>PT3467</name></trkpt>
<trkpt lat="53.398831" lon="-1.982904"><ele>202</ele><time>2023-03-31T13:36:54Z</time><name>PT3468</name></trkpt>
<trkpt lat="53.398856" lon="-1.982849"><ele>204</ele><time>2023-03-31T13:36:58Z</time><name>PT3469</name></trkpt>
<trkpt lat="53.398867" lon="-1.982736"><ele>206</ele><time>2023-03-31T13:37:02Z</time><name>PT3470</name></trkpt>
<trkpt lat="53.398880" lon="-1.982688"><ele>206</ele><time>2023-03-31T13:37:06Z</time><name>PT3471</name></trkpt>
<trkpt lat="53.398896" lon="-1.982655"><ele>206</ele><time>2023-03-31T13:37:09Z</time><name>PT3472</name></trkpt>
<trkpt lat="53.398917" lon="-1.982624"><ele>206</ele><time>2023-03-31T13:37:12Z</time><name>PT3473</name></trkpt>
<trkpt lat="53.398946" lon="-1.982563"><ele>207</ele><time>2023-03-31T13:37:15Z</time><name>PT3474</name></trkpt>
<trkpt lat="53.398966" lon="-1.982519"><ele>207</ele><time>2023-03-31T13:37:18Z</time><name>PT3475</name></trkpt>
<trkpt lat="53.398992" lon="-1.982464"><ele>208</ele><time>2023-03-31T13:37:23Z</time><name>PT3476</name></trkpt>
<trkpt lat="53.399023" lon="-1.982393"><ele>210</ele><time>2023-03-31T13:37:27Z</time><name>PT3477</name></trkpt>
<trkpt lat="53.399044" lon="-1.982339"><ele>211</ele><time>2023-03-31T13:37:30Z</time><name>PT3478</name></trkpt>
<trkpt lat="53.399063" lon="-1.982276"><ele>211</ele><time>2023-03-31T13:37:33Z</time><name>PT3479</name></trkpt>
<trkpt lat="53.399089" lon="-1.982196"><ele>212</ele><time>2023-03-31T13:37:36Z</time><name>PT3480</name></trkpt>
<trkpt lat="53.399119" lon="-1.982125"><ele>214</ele><time>2023-03-31T13:37:41Z</time><name>PT3481</name></trkpt>
<trkpt lat="53.399142" lon="-1.982045"><ele>215</ele><time>2023-03-31T13:37:44Z</time><name>PT3482</name></trkpt>
<trkpt lat="53.399162" lon="-1.981974"><ele>216</ele><time>2023-03-31T13:37:48Z</time><name>PT3483</name></trkpt>
<trkpt lat="53.399182" lon="-1.981933"><ele>216</ele><time>2023-03-31T13:37:51Z</time><name>PT3484</name></trkpt>
<trkpt lat="53.399196" lon="-1.981878"><ele>216</ele><time>2023-03-31T13:37:54Z</time><name>PT3485</name></trkpt>
<trkpt lat="53.399217" lon="-1.981843"><ele>216</ele><time>2023-03-31T13:37:57Z</time><name>PT3486</name></trkpt>
<trkpt lat="53.399253" lon="-1.981795"><ele>216</ele><time>2023-03-31T13:38:01Z</time><name>PT3487</name></trkpt>
<trkpt lat="53.399280" lon="-1.981768"><ele>217</ele><time>2023-03-31T13:38:04Z</time><name>PT3488</name></trkpt>
<trkpt lat="53.399305" lon="-1.981764"><ele>217</ele><time>2023-03-31T13:38:08Z</time><name>PT3489</name></trkpt>
<trkpt lat="53.399308" lon="-1.981764"><ele>217</ele><time>2023-03-31T13:38:11Z</time><name>PT3490</name></trkpt>
<trkpt lat="53.399331" lon="-1.981768"><ele>217</ele><time>2023-03-31T13:38:22Z</time><name>PT3491</name></trkpt>
<trkpt lat="53.399372" lon="-1.981776"><ele>217</ele><time>2023-03-31T13:38:26Z</time><name>PT3492</name></trkpt>
<trkpt lat="53.399410" lon="-1.981791"><ele>217</ele><time>2023-03-31T13:38:29Z</time><name>PT3493</name></trkpt>
<trkpt lat="53.399439" lon="-1.981797"><ele>216</ele><time>2023-03-31T13:38:33Z</time><name>PT3494</name></trkpt>
<trkpt lat="53.399477" lon="-1.981809"><ele>216</ele><time>2023-03-31T13:38:37Z</time><name>PT3495</name></trkpt>
<trkpt lat="53.399509" lon="-1.981827"><ele>217</ele><time>2023-03-31T13:38:40Z</time><name>PT3496</name></trkpt>
<trkpt lat="53.399555" lon="-1.981838"><ele>217</ele><time>2023-03-31T13:38:44Z</time><name>PT3497</name></trkpt>
<trkpt lat="53.399595" lon="-1.981854"><ele>218</ele><time>2023-03-31T13:38:47Z</time><name>PT3498</name></trkpt>
<trkpt lat="53.399641" lon="-1.981861"><ele>218</ele><time>2023-03-31T13:38:52Z</time><name>PT3499</name></trkpt>
<trkpt lat="53.399675" lon="-1.981878"><ele>218</ele><time>2023-03-31T13:38:55Z</time><name>PT3500</name></trkpt>
<trkpt lat="53.399706" lon="-1.981893"><ele>219</ele><time>2023-03-31T13:38:58Z</time><name>PT3501</name></trkpt>
<trkpt lat="53.399734" lon="-1.981918"><ele>219</ele><time>2023-03-31T13:39:01Z</time><name>PT3502</name></trkpt>
<trkpt lat="53.399764" lon="-1.981958"><ele>220</ele><time>2023-03-31T13:39:05Z</time><name>PT3503</name></trkpt>
<trkpt lat="53.399789" lon="-1.981992"><ele>220</ele><time>2023-03-31T13:39:08Z</time><name>PT3504</name></trkpt>
<trkpt lat="53.399828" lon="-1.982033"><ele>221</ele><time>2023-03-31T13:39:11Z</time><name>PT3505</name></trkpt>
<trkpt lat="53.399859" lon="-1.982070"><ele>220</ele><time>2023-03-31T13:39:16Z</time><name>PT3506</name></trkpt>
<trkpt lat="53.399891" lon="-1.982110"><ele>220</ele><time>2023-03-31T13:39:20Z</time><name>PT3507</name></trkpt>
<trkpt lat="53.399919" lon="-1.982141"><ele>220</ele><time>2023-03-31T13:39:23Z</time><name>PT3508</name></trkpt>
<trkpt lat="53.399948" lon="-1.982173"><ele>220</ele><time>2023-03-31T13:39:26Z</time><name>PT3509</name></trkpt>
<trkpt lat="53.399987" lon="-1.982236"><ele>221</ele><time>2023-03-31T13:39:29Z</time><name>PT3510</name></trkpt>
<trkpt lat="53.400018" lon="-1.982279"><ele>222</ele><time>2023-03-31T13:39:32Z</time><name>PT3511</name></trkpt>
<trkpt lat="53.400048" lon="-1.982324"><ele>223</ele><time>2023-03-31T13:39:35Z</time><name>PT3512</name></trkpt>
<trkpt lat="53.400089" lon="-1.982383"><ele>224</ele><time>2023-03-31T13:39:40Z</time><name>PT3513</name></trkpt>
<trkpt lat="53.400121" lon="-1.982420"><ele>224</ele><time>2023-03-31T13:39:43Z</time><name>PT3514</name></trkpt>
<trkpt lat="53.400152" lon="-1.982459"><ele>225</ele><time>2023-03-31T13:39:46Z</time><name>PT3515</name></trkpt>
<trkpt lat="53.400183" lon="-1.982503"><ele>227</ele><time>2023-03-31T13:39:49Z</time><name>PT3516</name></trkpt>
<trkpt lat="53.400222" lon="-1.982563"><ele>228</ele><time>2023-03-31T13:39:53Z</time><name>PT3517</name></trkpt>
<trkpt lat="53.400250" lon="-1.982599"><ele>228</ele><time>2023-03-31T13:39:56Z</time><name>PT3518</name></trkpt>
<trkpt lat="53.400283" lon="-1.982659"><ele>229</ele><time>2023-03-31T13:39:59Z</time><name>PT3519</name></trkpt>
<trkpt lat="53.400296" lon="-1.982728"><ele>229</ele><time>2023-03-31T13:40:04Z</time><name>PT3520</name></trkpt>
<trkpt lat="53.400281" lon="-1.982799"><ele>229</ele><time>2023-03-31T13:40:08Z</time><name>PT3521</name></trkpt>
<trkpt lat="53.400258" lon="-1.982857"><ele>228</ele><time>2023-03-31T13:40:11Z</time><name>PT3522</name></trkpt>
<trkpt lat="53.400232" lon="-1.982923"><ele>227</ele><time>2023-03-31T13:40:16Z</time><name>PT3523</name></trkpt>
<trkpt lat="53.400207" lon="-1.982980"><ele>226</ele><time>2023-03-31T13:40:20Z</time><name>PT3524</name></trkpt>
<trkpt lat="53.400185" lon="-1.983031"><ele>226</ele><time>2023-03-31T13:40:23Z</time><name>PT3525</name></trkpt>
<trkpt lat="53.400166" lon="-1.983081"><ele>226</ele><time>2023-03-31T13:40:26Z</time><name>PT3526</name></trkpt>
<trkpt lat="53.400137" lon="-1.983159"><ele>225</ele><time>2023-03-31T13:40:29Z</time><name>PT3527</name></trkpt>
<trkpt lat="53.400102" lon="-1.983243"><ele>225</ele><time>2023-03-31T13:40:32Z</time><name>PT3528</name></trkpt>
<trkpt lat="53.400079" lon="-1.983305"><ele>225</ele><time>2023-03-31T13:40:35Z</time><name>PT3529</name></trkpt>
<trkpt lat="53.400049" lon="-1.983385"><ele>225</ele><time>2023-03-31T13:40:40Z</time><name>PT3530</name></trkpt>
<trkpt lat="53.400020" lon="-1.983464"><ele>226</ele><time>2023-03-31T13:40:44Z</time><name>PT3531</name></trkpt>
<trkpt lat="53.399996" lon="-1.983546"><ele>226</ele><time>2023-03-31T13:40:47Z</time><name>PT3532</name></trkpt>
<trkpt lat="53.399984" lon="-1.983571"><ele>226</ele><time>2023-03-31T13:40:50Z</time><name>PT3533</name></trkpt>
<trkpt lat="53.399952" lon="-1.983656"><ele>225</ele><time>2023-03-31T13:40:53Z</time><name>PT3534</name></trkpt>
<trkpt lat="53.399936" lon="-1.983693"><ele>225</ele><time>2023-03-31T13:40:56Z</time><name>PT3535</name></trkpt>
<trkpt lat="53.399912" lon="-1.983785"><ele>225</ele><time>2023-03-31T13:41:01Z</time><name>PT3536</name></trkpt>
<trkpt lat="53.399893" lon="-1.983851"><ele>226</ele><time>2023-03-31T13:41:04Z</time><name>PT3537</name></trkpt>
<trkpt lat="53.399874" lon="-1.983894"><ele>227</ele><time>2023-03-31T13:41:07Z</time><name>PT3538</name></trkpt>
<trkpt lat="53.399837" lon="-1.983987"><ele>227</ele><time>2023-03-31T13:41:11Z</time><name>PT3539</name></trkpt>
<trkpt lat="53.399807" lon="-1.984030"><ele>229</ele><time>2023-03-31T13:41:14Z</time><name>PT3540</name></trkpt>
<trkpt lat="53.399773" lon="-1.984041"><ele>228</ele><time>2023-03-31T13:41:17Z</time><name>PT3541</name></trkpt>
<trkpt lat="53.399729" lon="-1.984034"><ele>228</ele><time>2023-03-31T13:41:22Z</time><name>PT3542</name></trkpt>
<trkpt lat="53.399699" lon="-1.984036"><ele>227</ele><time>2023-03-31T13:41:25Z</time><name>PT3543</name></trkpt>
<trkpt lat="53.399658" lon="-1.984059"><ele>227</ele><time>2023-03-31T13:41:29Z</time><name>PT3544</name></trkpt>
<trkpt lat="53.399633" lon="-1.984086"><ele>227</ele><time>2023-03-31T13:41:32Z</time><name>PT3545</name></trkpt>
<trkpt lat="53.399615" lon="-1.984145"><ele>227</ele><time>2023-03-31T13:41:35Z</time><name>PT3546</name></trkpt>
<trkpt lat="53.399610" lon="-1.984190"><ele>227</ele><time>2023-03-31T13:41:40Z</time><name>PT3547</name></trkpt>
<trkpt lat="53.399612" lon="-1.984194"><ele>228</ele><time>2023-03-31T13:41:43Z</time><name>PT3548</name></trkpt>
<trkpt lat="53.399613" lon="-1.984186"><ele>227</ele><time>2023-03-31T13:41:53Z</time><name>PT3549</name></trkpt>
<trkpt lat="53.399613" lon="-1.984192"><ele>227</ele><time>2023-03-31T13:41:56Z</time><name>PT3550</name></trkpt></trkseg></trk></gpx>